<?xml version="1.0" encoding="UTF-8" standalone="no" ?>
<gpx xmlns="http://www.topografix.com/GPX/1/1" xmlns:xsi="http://www.w3.org/2001/XMLSchema-instance" xsi:schemaLocation="http://www.topografix.com/GPX/1/1 http://www.topografix.com/GPX/1/1/gpx.xsd" version="1.1" creator="VisuGPX - https://www.visugpx.com">
  <metadata>
    <name>Barthelasse</name>
    <desc><![CDATA[Très beau parcours sur la digue]]></desc>
  </metadata>
  <trk>
    <name><![CDATA[Avignon]]></name>
    <desc><![CDATA[]]></desc>
    <trkseg>
      <trkpt lat="44.02407" lon="4.80044">
        <ele>85.8</ele>
        <time>2012-06-06T05:43:59.000Z</time>
      </trkpt>
      <trkpt lat="44.02413" lon="4.80039">
        <ele>82.2</ele>
        <time>2012-06-06T05:44:19.000Z</time>
      </trkpt>
      <trkpt lat="44.02418" lon="4.80038">
        <ele>81.1</ele>
        <time>2012-06-06T05:44:21.000Z</time>
      </trkpt>
      <trkpt lat="44.02423" lon="4.80036">
        <ele>81.1</ele>
        <time>2012-06-06T05:44:24.000Z</time>
      </trkpt>
      <trkpt lat="44.02427" lon="4.80033">
        <ele>80.6</ele>
        <time>2012-06-06T05:44:27.000Z</time>
      </trkpt>
      <trkpt lat="44.02432" lon="4.8003">
        <ele>80.4</ele>
        <time>2012-06-06T05:44:30.000Z</time>
      </trkpt>
      <trkpt lat="44.02435" lon="4.80025">
        <ele>80</ele>
        <time>2012-06-06T05:44:33.000Z</time>
      </trkpt>
      <trkpt lat="44.0244" lon="4.80025">
        <ele>78.9</ele>
        <time>2012-06-06T05:44:37.000Z</time>
      </trkpt>
      <trkpt lat="44.02444" lon="4.80031">
        <ele>77.7</ele>
        <time>2012-06-06T05:44:39.000Z</time>
      </trkpt>
      <trkpt lat="44.02448" lon="4.80037">
        <ele>76.6</ele>
        <time>2012-06-06T05:44:40.000Z</time>
      </trkpt>
      <trkpt lat="44.02451" lon="4.80046">
        <ele>74.6</ele>
        <time>2012-06-06T05:44:42.000Z</time>
      </trkpt>
      <trkpt lat="44.02455" lon="4.80052">
        <ele>74.8</ele>
        <time>2012-06-06T05:44:44.000Z</time>
      </trkpt>
      <trkpt lat="44.02458" lon="4.80058">
        <ele>74.7</ele>
        <time>2012-06-06T05:44:46.000Z</time>
      </trkpt>
      <trkpt lat="44.02464" lon="4.80064">
        <ele>77.1</ele>
        <time>2012-06-06T05:44:48.000Z</time>
      </trkpt>
      <trkpt lat="44.0247" lon="4.8007">
        <ele>77.3</ele>
        <time>2012-06-06T05:44:50.000Z</time>
      </trkpt>
      <trkpt lat="44.02474" lon="4.80078">
        <ele>77.2</ele>
        <time>2012-06-06T05:44:52.000Z</time>
      </trkpt>
      <trkpt lat="44.02478" lon="4.80085">
        <ele>77</ele>
        <time>2012-06-06T05:44:54.000Z</time>
      </trkpt>
      <trkpt lat="44.02478" lon="4.80092">
        <ele>77.1</ele>
        <time>2012-06-06T05:44:56.000Z</time>
      </trkpt>
      <trkpt lat="44.02481" lon="4.80101">
        <ele>76.6</ele>
        <time>2012-06-06T05:44:58.000Z</time>
      </trkpt>
      <trkpt lat="44.02481" lon="4.80109">
        <ele>76.4</ele>
        <time>2012-06-06T05:45:00.000Z</time>
      </trkpt>
      <trkpt lat="44.02484" lon="4.80115">
        <ele>75.7</ele>
        <time>2012-06-06T05:45:02.000Z</time>
      </trkpt>
      <trkpt lat="44.02483" lon="4.80123">
        <ele>74.9</ele>
        <time>2012-06-06T05:45:04.000Z</time>
      </trkpt>
      <trkpt lat="44.0248" lon="4.80128">
        <ele>74.7</ele>
        <time>2012-06-06T05:45:06.000Z</time>
      </trkpt>
      <trkpt lat="44.02476" lon="4.80132">
        <ele>74.3</ele>
        <time>2012-06-06T05:45:08.000Z</time>
      </trkpt>
      <trkpt lat="44.02471" lon="4.80135">
        <ele>74.1</ele>
        <time>2012-06-06T05:45:10.000Z</time>
      </trkpt>
      <trkpt lat="44.02466" lon="4.80138">
        <ele>73.3</ele>
        <time>2012-06-06T05:45:12.000Z</time>
      </trkpt>
      <trkpt lat="44.02459" lon="4.8014">
        <ele>72.4</ele>
        <time>2012-06-06T05:45:15.000Z</time>
      </trkpt>
      <trkpt lat="44.02454" lon="4.80145">
        <ele>72.7</ele>
        <time>2012-06-06T05:45:17.000Z</time>
      </trkpt>
      <trkpt lat="44.0245" lon="4.80149">
        <ele>73.6</ele>
        <time>2012-06-06T05:45:18.000Z</time>
      </trkpt>
      <trkpt lat="44.02445" lon="4.80155">
        <ele>75.5</ele>
        <time>2012-06-06T05:45:19.000Z</time>
      </trkpt>
      <trkpt lat="44.02438" lon="4.80156">
        <ele>74.8</ele>
        <time>2012-06-06T05:45:21.000Z</time>
      </trkpt>
      <trkpt lat="44.02433" lon="4.80159">
        <ele>75.6</ele>
        <time>2012-06-06T05:45:22.000Z</time>
      </trkpt>
      <trkpt lat="44.02426" lon="4.80162">
        <ele>77.1</ele>
        <time>2012-06-06T05:45:24.000Z</time>
      </trkpt>
      <trkpt lat="44.0242" lon="4.80167">
        <ele>77.3</ele>
        <time>2012-06-06T05:45:26.000Z</time>
      </trkpt>
      <trkpt lat="44.02413" lon="4.80168">
        <ele>78.4</ele>
        <time>2012-06-06T05:45:28.000Z</time>
      </trkpt>
      <trkpt lat="44.02406" lon="4.8017">
        <ele>78.7</ele>
        <time>2012-06-06T05:45:30.000Z</time>
      </trkpt>
      <trkpt lat="44.02401" lon="4.80173">
        <ele>77.5</ele>
        <time>2012-06-06T05:45:32.000Z</time>
      </trkpt>
      <trkpt lat="44.02396" lon="4.80177">
        <ele>78</ele>
        <time>2012-06-06T05:45:34.000Z</time>
      </trkpt>
      <trkpt lat="44.02392" lon="4.80181">
        <ele>78.9</ele>
        <time>2012-06-06T05:45:36.000Z</time>
      </trkpt>
      <trkpt lat="44.02386" lon="4.80185">
        <ele>78.7</ele>
        <time>2012-06-06T05:45:38.000Z</time>
      </trkpt>
      <trkpt lat="44.02382" lon="4.8019">
        <ele>79.2</ele>
        <time>2012-06-06T05:45:40.000Z</time>
      </trkpt>
      <trkpt lat="44.02377" lon="4.80196">
        <ele>78</ele>
        <time>2012-06-06T05:45:42.000Z</time>
      </trkpt>
      <trkpt lat="44.02371" lon="4.802">
        <ele>78.3</ele>
        <time>2012-06-06T05:45:44.000Z</time>
      </trkpt>
      <trkpt lat="44.02366" lon="4.80206">
        <ele>78.4</ele>
        <time>2012-06-06T05:45:46.000Z</time>
      </trkpt>
      <trkpt lat="44.02361" lon="4.80211">
        <ele>78.5</ele>
        <time>2012-06-06T05:45:48.000Z</time>
      </trkpt>
      <trkpt lat="44.02357" lon="4.80216">
        <ele>77.6</ele>
        <time>2012-06-06T05:45:50.000Z</time>
      </trkpt>
      <trkpt lat="44.02351" lon="4.80221">
        <ele>78.6</ele>
        <time>2012-06-06T05:45:52.000Z</time>
      </trkpt>
      <trkpt lat="44.02345" lon="4.80224">
        <ele>78.3</ele>
        <time>2012-06-06T05:45:54.000Z</time>
      </trkpt>
      <trkpt lat="44.0234" lon="4.80224">
        <ele>78.2</ele>
        <time>2012-06-06T05:45:56.000Z</time>
      </trkpt>
      <trkpt lat="44.02333" lon="4.80222">
        <ele>78.3</ele>
        <time>2012-06-06T05:45:58.000Z</time>
      </trkpt>
      <trkpt lat="44.02328" lon="4.80224">
        <ele>77.4</ele>
        <time>2012-06-06T05:46:00.000Z</time>
      </trkpt>
      <trkpt lat="44.02321" lon="4.80226">
        <ele>77.1</ele>
        <time>2012-06-06T05:46:02.000Z</time>
      </trkpt>
      <trkpt lat="44.02314" lon="4.80232">
        <ele>77.6</ele>
        <time>2012-06-06T05:46:04.000Z</time>
      </trkpt>
      <trkpt lat="44.02309" lon="4.8024">
        <ele>78.8</ele>
        <time>2012-06-06T05:46:06.000Z</time>
      </trkpt>
      <trkpt lat="44.02305" lon="4.80245">
        <ele>78.3</ele>
        <time>2012-06-06T05:46:08.000Z</time>
      </trkpt>
      <trkpt lat="44.02301" lon="4.80249">
        <ele>78.3</ele>
        <time>2012-06-06T05:46:10.000Z</time>
      </trkpt>
      <trkpt lat="44.02296" lon="4.80252">
        <ele>78.1</ele>
        <time>2012-06-06T05:46:12.000Z</time>
      </trkpt>
      <trkpt lat="44.02289" lon="4.80254">
        <ele>78.7</ele>
        <time>2012-06-06T05:46:14.000Z</time>
      </trkpt>
      <trkpt lat="44.02283" lon="4.80259">
        <ele>79.4</ele>
        <time>2012-06-06T05:46:16.000Z</time>
      </trkpt>
      <trkpt lat="44.02275" lon="4.80261">
        <ele>79.3</ele>
        <time>2012-06-06T05:46:18.000Z</time>
      </trkpt>
      <trkpt lat="44.02271" lon="4.80263">
        <ele>79.2</ele>
        <time>2012-06-06T05:46:19.000Z</time>
      </trkpt>
      <trkpt lat="44.02265" lon="4.80269">
        <ele>77.5</ele>
        <time>2012-06-06T05:46:21.000Z</time>
      </trkpt>
      <trkpt lat="44.02261" lon="4.80272">
        <ele>77.4</ele>
        <time>2012-06-06T05:46:23.000Z</time>
      </trkpt>
      <trkpt lat="44.02255" lon="4.80275">
        <ele>76.6</ele>
        <time>2012-06-06T05:46:25.000Z</time>
      </trkpt>
      <trkpt lat="44.0225" lon="4.80274">
        <ele>76.6</ele>
        <time>2012-06-06T05:46:26.000Z</time>
      </trkpt>
      <trkpt lat="44.02244" lon="4.80278">
        <ele>76</ele>
        <time>2012-06-06T05:46:28.000Z</time>
      </trkpt>
      <trkpt lat="44.02238" lon="4.80282">
        <ele>75.6</ele>
        <time>2012-06-06T05:46:30.000Z</time>
      </trkpt>
      <trkpt lat="44.02232" lon="4.80287">
        <ele>75.3</ele>
        <time>2012-06-06T05:46:32.000Z</time>
      </trkpt>
      <trkpt lat="44.02227" lon="4.80288">
        <ele>75.3</ele>
        <time>2012-06-06T05:46:33.000Z</time>
      </trkpt>
      <trkpt lat="44.02222" lon="4.80293">
        <ele>76.8</ele>
        <time>2012-06-06T05:46:35.000Z</time>
      </trkpt>
      <trkpt lat="44.02215" lon="4.80297">
        <ele>76.9</ele>
        <time>2012-06-06T05:46:37.000Z</time>
      </trkpt>
      <trkpt lat="44.02207" lon="4.80299">
        <ele>77.7</ele>
        <time>2012-06-06T05:46:39.000Z</time>
      </trkpt>
      <trkpt lat="44.022" lon="4.80302">
        <ele>78.3</ele>
        <time>2012-06-06T05:46:41.000Z</time>
      </trkpt>
      <trkpt lat="44.02193" lon="4.80305">
        <ele>78.7</ele>
        <time>2012-06-06T05:46:43.000Z</time>
      </trkpt>
      <trkpt lat="44.02185" lon="4.80305">
        <ele>78.8</ele>
        <time>2012-06-06T05:46:45.000Z</time>
      </trkpt>
      <trkpt lat="44.02181" lon="4.80308">
        <ele>78.8</ele>
        <time>2012-06-06T05:46:46.000Z</time>
      </trkpt>
      <trkpt lat="44.02174" lon="4.80311">
        <ele>78.7</ele>
        <time>2012-06-06T05:46:48.000Z</time>
      </trkpt>
      <trkpt lat="44.02168" lon="4.80315">
        <ele>78.8</ele>
        <time>2012-06-06T05:46:50.000Z</time>
      </trkpt>
      <trkpt lat="44.0216" lon="4.80321">
        <ele>77.8</ele>
        <time>2012-06-06T05:46:52.000Z</time>
      </trkpt>
      <trkpt lat="44.02154" lon="4.80326">
        <ele>77.4</ele>
        <time>2012-06-06T05:46:54.000Z</time>
      </trkpt>
      <trkpt lat="44.02148" lon="4.80328">
        <ele>76.7</ele>
        <time>2012-06-06T05:46:56.000Z</time>
      </trkpt>
      <trkpt lat="44.02144" lon="4.8033">
        <ele>76.8</ele>
        <time>2012-06-06T05:46:57.000Z</time>
      </trkpt>
      <trkpt lat="44.02135" lon="4.80333">
        <ele>77</ele>
        <time>2012-06-06T05:46:59.000Z</time>
      </trkpt>
      <trkpt lat="44.02127" lon="4.80338">
        <ele>77.5</ele>
        <time>2012-06-06T05:47:01.000Z</time>
      </trkpt>
      <trkpt lat="44.02121" lon="4.80344">
        <ele>77.4</ele>
        <time>2012-06-06T05:47:03.000Z</time>
      </trkpt>
      <trkpt lat="44.02114" lon="4.80347">
        <ele>76.7</ele>
        <time>2012-06-06T05:47:05.000Z</time>
      </trkpt>
      <trkpt lat="44.02109" lon="4.80352">
        <ele>76.3</ele>
        <time>2012-06-06T05:47:07.000Z</time>
      </trkpt>
      <trkpt lat="44.02102" lon="4.80355">
        <ele>76.5</ele>
        <time>2012-06-06T05:47:09.000Z</time>
      </trkpt>
      <trkpt lat="44.02096" lon="4.80357">
        <ele>76</ele>
        <time>2012-06-06T05:47:11.000Z</time>
      </trkpt>
      <trkpt lat="44.02091" lon="4.80361">
        <ele>76</ele>
        <time>2012-06-06T05:47:13.000Z</time>
      </trkpt>
      <trkpt lat="44.02083" lon="4.80365">
        <ele>75.3</ele>
        <time>2012-06-06T05:47:15.000Z</time>
      </trkpt>
      <trkpt lat="44.02076" lon="4.80368">
        <ele>75</ele>
        <time>2012-06-06T05:47:17.000Z</time>
      </trkpt>
      <trkpt lat="44.02071" lon="4.80373">
        <ele>75.4</ele>
        <time>2012-06-06T05:47:19.000Z</time>
      </trkpt>
      <trkpt lat="44.02065" lon="4.80376">
        <ele>75.6</ele>
        <time>2012-06-06T05:47:21.000Z</time>
      </trkpt>
      <trkpt lat="44.02059" lon="4.80379">
        <ele>75.5</ele>
        <time>2012-06-06T05:47:23.000Z</time>
      </trkpt>
      <trkpt lat="44.02051" lon="4.80384">
        <ele>75.7</ele>
        <time>2012-06-06T05:47:25.000Z</time>
      </trkpt>
      <trkpt lat="44.02044" lon="4.80387">
        <ele>75.9</ele>
        <time>2012-06-06T05:47:27.000Z</time>
      </trkpt>
      <trkpt lat="44.02036" lon="4.80389">
        <ele>75</ele>
        <time>2012-06-06T05:47:29.000Z</time>
      </trkpt>
      <trkpt lat="44.02032" lon="4.80392">
        <ele>75.8</ele>
        <time>2012-06-06T05:47:30.000Z</time>
      </trkpt>
      <trkpt lat="44.02025" lon="4.80397">
        <ele>76.2</ele>
        <time>2012-06-06T05:47:32.000Z</time>
      </trkpt>
      <trkpt lat="44.02021" lon="4.804">
        <ele>76.2</ele>
        <time>2012-06-06T05:47:33.000Z</time>
      </trkpt>
      <trkpt lat="44.02014" lon="4.80402">
        <ele>75.9</ele>
        <time>2012-06-06T05:47:35.000Z</time>
      </trkpt>
      <trkpt lat="44.02008" lon="4.80406">
        <ele>75.4</ele>
        <time>2012-06-06T05:47:37.000Z</time>
      </trkpt>
      <trkpt lat="44.02" lon="4.80412">
        <ele>75.6</ele>
        <time>2012-06-06T05:47:39.000Z</time>
      </trkpt>
      <trkpt lat="44.01992" lon="4.80415">
        <ele>75.5</ele>
        <time>2012-06-06T05:47:41.000Z</time>
      </trkpt>
      <trkpt lat="44.01987" lon="4.80416">
        <ele>75.5</ele>
        <time>2012-06-06T05:47:42.000Z</time>
      </trkpt>
      <trkpt lat="44.01981" lon="4.80421">
        <ele>76.5</ele>
        <time>2012-06-06T05:47:44.000Z</time>
      </trkpt>
      <trkpt lat="44.01974" lon="4.80424">
        <ele>76.5</ele>
        <time>2012-06-06T05:47:46.000Z</time>
      </trkpt>
      <trkpt lat="44.01966" lon="4.80428">
        <ele>76.6</ele>
        <time>2012-06-06T05:47:48.000Z</time>
      </trkpt>
      <trkpt lat="44.01959" lon="4.80432">
        <ele>75.7</ele>
        <time>2012-06-06T05:47:50.000Z</time>
      </trkpt>
      <trkpt lat="44.01953" lon="4.80436">
        <ele>76</ele>
        <time>2012-06-06T05:47:52.000Z</time>
      </trkpt>
      <trkpt lat="44.01947" lon="4.80441">
        <ele>75.5</ele>
        <time>2012-06-06T05:47:54.000Z</time>
      </trkpt>
      <trkpt lat="44.01939" lon="4.80443">
        <ele>75</ele>
        <time>2012-06-06T05:47:56.000Z</time>
      </trkpt>
      <trkpt lat="44.01935" lon="4.80445">
        <ele>74.1</ele>
        <time>2012-06-06T05:47:57.000Z</time>
      </trkpt>
      <trkpt lat="44.0193" lon="4.80447">
        <ele>73.6</ele>
        <time>2012-06-06T05:47:58.000Z</time>
      </trkpt>
      <trkpt lat="44.01921" lon="4.80452">
        <ele>72.6</ele>
        <time>2012-06-06T05:48:00.000Z</time>
      </trkpt>
      <trkpt lat="44.01916" lon="4.80454">
        <ele>72.7</ele>
        <time>2012-06-06T05:48:01.000Z</time>
      </trkpt>
      <trkpt lat="44.01911" lon="4.8046">
        <ele>72.8</ele>
        <time>2012-06-06T05:48:03.000Z</time>
      </trkpt>
      <trkpt lat="44.01902" lon="4.80463">
        <ele>71.5</ele>
        <time>2012-06-06T05:48:05.000Z</time>
      </trkpt>
      <trkpt lat="44.01896" lon="4.80469">
        <ele>72.3</ele>
        <time>2012-06-06T05:48:07.000Z</time>
      </trkpt>
      <trkpt lat="44.01891" lon="4.80475">
        <ele>72.9</ele>
        <time>2012-06-06T05:48:09.000Z</time>
      </trkpt>
      <trkpt lat="44.01886" lon="4.8048">
        <ele>72.3</ele>
        <time>2012-06-06T05:48:11.000Z</time>
      </trkpt>
      <trkpt lat="44.0188" lon="4.80487">
        <ele>72.4</ele>
        <time>2012-06-06T05:48:13.000Z</time>
      </trkpt>
      <trkpt lat="44.01876" lon="4.8049">
        <ele>72.5</ele>
        <time>2012-06-06T05:48:14.000Z</time>
      </trkpt>
      <trkpt lat="44.01868" lon="4.80493">
        <ele>73.3</ele>
        <time>2012-06-06T05:48:16.000Z</time>
      </trkpt>
      <trkpt lat="44.0186" lon="4.80497">
        <ele>72.6</ele>
        <time>2012-06-06T05:48:18.000Z</time>
      </trkpt>
      <trkpt lat="44.01852" lon="4.80499">
        <ele>73</ele>
        <time>2012-06-06T05:48:20.000Z</time>
      </trkpt>
      <trkpt lat="44.01845" lon="4.80505">
        <ele>71.7</ele>
        <time>2012-06-06T05:48:22.000Z</time>
      </trkpt>
      <trkpt lat="44.01837" lon="4.80509">
        <ele>71.6</ele>
        <time>2012-06-06T05:48:24.000Z</time>
      </trkpt>
      <trkpt lat="44.0183" lon="4.80513">
        <ele>71</ele>
        <time>2012-06-06T05:48:26.000Z</time>
      </trkpt>
      <trkpt lat="44.01822" lon="4.80515">
        <ele>71.5</ele>
        <time>2012-06-06T05:48:28.000Z</time>
      </trkpt>
      <trkpt lat="44.01815" lon="4.80519">
        <ele>71.8</ele>
        <time>2012-06-06T05:48:30.000Z</time>
      </trkpt>
      <trkpt lat="44.01807" lon="4.80524">
        <ele>72.3</ele>
        <time>2012-06-06T05:48:32.000Z</time>
      </trkpt>
      <trkpt lat="44.01801" lon="4.80529">
        <ele>72.4</ele>
        <time>2012-06-06T05:48:34.000Z</time>
      </trkpt>
      <trkpt lat="44.01793" lon="4.80531">
        <ele>72.4</ele>
        <time>2012-06-06T05:48:36.000Z</time>
      </trkpt>
      <trkpt lat="44.01786" lon="4.80536">
        <ele>72</ele>
        <time>2012-06-06T05:48:38.000Z</time>
      </trkpt>
      <trkpt lat="44.01782" lon="4.80539">
        <ele>72.2</ele>
        <time>2012-06-06T05:48:39.000Z</time>
      </trkpt>
      <trkpt lat="44.01778" lon="4.8054">
        <ele>72</ele>
        <time>2012-06-06T05:48:40.000Z</time>
      </trkpt>
      <trkpt lat="44.01771" lon="4.80544">
        <ele>70.9</ele>
        <time>2012-06-06T05:48:42.000Z</time>
      </trkpt>
      <trkpt lat="44.01764" lon="4.80547">
        <ele>70.1</ele>
        <time>2012-06-06T05:48:44.000Z</time>
      </trkpt>
      <trkpt lat="44.01755" lon="4.80548">
        <ele>70.1</ele>
        <time>2012-06-06T05:48:46.000Z</time>
      </trkpt>
      <trkpt lat="44.01751" lon="4.80551">
        <ele>70.3</ele>
        <time>2012-06-06T05:48:47.000Z</time>
      </trkpt>
      <trkpt lat="44.01746" lon="4.80553">
        <ele>70.5</ele>
        <time>2012-06-06T05:48:48.000Z</time>
      </trkpt>
      <trkpt lat="44.01741" lon="4.80556">
        <ele>70.3</ele>
        <time>2012-06-06T05:48:50.000Z</time>
      </trkpt>
      <trkpt lat="44.01734" lon="4.80563">
        <ele>69.2</ele>
        <time>2012-06-06T05:48:52.000Z</time>
      </trkpt>
      <trkpt lat="44.01727" lon="4.80568">
        <ele>69.8</ele>
        <time>2012-06-06T05:48:54.000Z</time>
      </trkpt>
      <trkpt lat="44.01722" lon="4.8057">
        <ele>69.7</ele>
        <time>2012-06-06T05:48:55.000Z</time>
      </trkpt>
      <trkpt lat="44.01717" lon="4.80573">
        <ele>70.1</ele>
        <time>2012-06-06T05:48:56.000Z</time>
      </trkpt>
      <trkpt lat="44.01708" lon="4.80576">
        <ele>70</ele>
        <time>2012-06-06T05:48:58.000Z</time>
      </trkpt>
      <trkpt lat="44.01702" lon="4.8058">
        <ele>70.6</ele>
        <time>2012-06-06T05:49:00.000Z</time>
      </trkpt>
      <trkpt lat="44.01695" lon="4.80584">
        <ele>70.8</ele>
        <time>2012-06-06T05:49:02.000Z</time>
      </trkpt>
      <trkpt lat="44.01688" lon="4.80585">
        <ele>71</ele>
        <time>2012-06-06T05:49:04.000Z</time>
      </trkpt>
      <trkpt lat="44.01682" lon="4.80586">
        <ele>71.3</ele>
        <time>2012-06-06T05:49:06.000Z</time>
      </trkpt>
      <trkpt lat="44.0168" lon="4.80597">
        <ele>72.3</ele>
        <time>2012-06-06T05:49:08.000Z</time>
      </trkpt>
      <trkpt lat="44.01677" lon="4.80603">
        <ele>72.8</ele>
        <time>2012-06-06T05:49:10.000Z</time>
      </trkpt>
      <trkpt lat="44.01677" lon="4.80611">
        <ele>73.5</ele>
        <time>2012-06-06T05:49:12.000Z</time>
      </trkpt>
      <trkpt lat="44.01678" lon="4.8062">
        <ele>73.4</ele>
        <time>2012-06-06T05:49:14.000Z</time>
      </trkpt>
      <trkpt lat="44.01679" lon="4.80628">
        <ele>74.2</ele>
        <time>2012-06-06T05:49:16.000Z</time>
      </trkpt>
      <trkpt lat="44.0168" lon="4.80636">
        <ele>74.5</ele>
        <time>2012-06-06T05:49:18.000Z</time>
      </trkpt>
      <trkpt lat="44.01676" lon="4.80642">
        <ele>74.9</ele>
        <time>2012-06-06T05:49:20.000Z</time>
      </trkpt>
      <trkpt lat="44.0167" lon="4.80646">
        <ele>74.9</ele>
        <time>2012-06-06T05:49:22.000Z</time>
      </trkpt>
      <trkpt lat="44.01665" lon="4.8065">
        <ele>75.2</ele>
        <time>2012-06-06T05:49:24.000Z</time>
      </trkpt>
      <trkpt lat="44.01661" lon="4.80656">
        <ele>75.8</ele>
        <time>2012-06-06T05:49:26.000Z</time>
      </trkpt>
      <trkpt lat="44.01656" lon="4.80665">
        <ele>76.9</ele>
        <time>2012-06-06T05:49:28.000Z</time>
      </trkpt>
      <trkpt lat="44.01651" lon="4.80676">
        <ele>77.4</ele>
        <time>2012-06-06T05:49:30.000Z</time>
      </trkpt>
      <trkpt lat="44.01647" lon="4.80686">
        <ele>77.6</ele>
        <time>2012-06-06T05:49:32.000Z</time>
      </trkpt>
      <trkpt lat="44.01644" lon="4.80694">
        <ele>76.9</ele>
        <time>2012-06-06T05:49:34.000Z</time>
      </trkpt>
      <trkpt lat="44.01641" lon="4.80699">
        <ele>77.2</ele>
        <time>2012-06-06T05:49:35.000Z</time>
      </trkpt>
      <trkpt lat="44.01637" lon="4.80709">
        <ele>77.9</ele>
        <time>2012-06-06T05:49:37.000Z</time>
      </trkpt>
      <trkpt lat="44.01634" lon="4.80716">
        <ele>77.8</ele>
        <time>2012-06-06T05:49:39.000Z</time>
      </trkpt>
      <trkpt lat="44.0163" lon="4.80725">
        <ele>76.8</ele>
        <time>2012-06-06T05:49:41.000Z</time>
      </trkpt>
      <trkpt lat="44.01628" lon="4.80733">
        <ele>76</ele>
        <time>2012-06-06T05:49:43.000Z</time>
      </trkpt>
      <trkpt lat="44.01622" lon="4.80743">
        <ele>75.6</ele>
        <time>2012-06-06T05:49:45.000Z</time>
      </trkpt>
      <trkpt lat="44.01618" lon="4.80753">
        <ele>76.1</ele>
        <time>2012-06-06T05:49:47.000Z</time>
      </trkpt>
      <trkpt lat="44.01616" lon="4.80759">
        <ele>76.3</ele>
        <time>2012-06-06T05:49:48.000Z</time>
      </trkpt>
      <trkpt lat="44.01613" lon="4.80768">
        <ele>75.3</ele>
        <time>2012-06-06T05:49:50.000Z</time>
      </trkpt>
      <trkpt lat="44.01609" lon="4.80778">
        <ele>75</ele>
        <time>2012-06-06T05:49:52.000Z</time>
      </trkpt>
      <trkpt lat="44.01606" lon="4.80787">
        <ele>75.6</ele>
        <time>2012-06-06T05:49:54.000Z</time>
      </trkpt>
      <trkpt lat="44.01603" lon="4.80797">
        <ele>74.9</ele>
        <time>2012-06-06T05:49:56.000Z</time>
      </trkpt>
      <trkpt lat="44.016" lon="4.80806">
        <ele>74.5</ele>
        <time>2012-06-06T05:49:58.000Z</time>
      </trkpt>
      <trkpt lat="44.01599" lon="4.80816">
        <ele>73.9</ele>
        <time>2012-06-06T05:50:00.000Z</time>
      </trkpt>
      <trkpt lat="44.01598" lon="4.80822">
        <ele>74.1</ele>
        <time>2012-06-06T05:50:01.000Z</time>
      </trkpt>
      <trkpt lat="44.01593" lon="4.80829">
        <ele>73.9</ele>
        <time>2012-06-06T05:50:03.000Z</time>
      </trkpt>
      <trkpt lat="44.01586" lon="4.80832">
        <ele>73.9</ele>
        <time>2012-06-06T05:50:05.000Z</time>
      </trkpt>
      <trkpt lat="44.01581" lon="4.80832">
        <ele>73.6</ele>
        <time>2012-06-06T05:50:06.000Z</time>
      </trkpt>
      <trkpt lat="44.01572" lon="4.80833">
        <ele>71.9</ele>
        <time>2012-06-06T05:50:08.000Z</time>
      </trkpt>
      <trkpt lat="44.01563" lon="4.80833">
        <ele>71.7</ele>
        <time>2012-06-06T05:50:10.000Z</time>
      </trkpt>
      <trkpt lat="44.01556" lon="4.80834">
        <ele>72.2</ele>
        <time>2012-06-06T05:50:12.000Z</time>
      </trkpt>
      <trkpt lat="44.01547" lon="4.80835">
        <ele>72.4</ele>
        <time>2012-06-06T05:50:14.000Z</time>
      </trkpt>
      <trkpt lat="44.01538" lon="4.80837">
        <ele>72</ele>
        <time>2012-06-06T05:50:16.000Z</time>
      </trkpt>
      <trkpt lat="44.01534" lon="4.80839">
        <ele>71.9</ele>
        <time>2012-06-06T05:50:17.000Z</time>
      </trkpt>
      <trkpt lat="44.01527" lon="4.80841">
        <ele>72.2</ele>
        <time>2012-06-06T05:50:19.000Z</time>
      </trkpt>
      <trkpt lat="44.01522" lon="4.80842">
        <ele>72.4</ele>
        <time>2012-06-06T05:50:20.000Z</time>
      </trkpt>
      <trkpt lat="44.01517" lon="4.80843">
        <ele>72.1</ele>
        <time>2012-06-06T05:50:21.000Z</time>
      </trkpt>
      <trkpt lat="44.01512" lon="4.80844">
        <ele>71.8</ele>
        <time>2012-06-06T05:50:22.000Z</time>
      </trkpt>
      <trkpt lat="44.01507" lon="4.80846">
        <ele>71.5</ele>
        <time>2012-06-06T05:50:23.000Z</time>
      </trkpt>
      <trkpt lat="44.01499" lon="4.80849">
        <ele>69.7</ele>
        <time>2012-06-06T05:50:25.000Z</time>
      </trkpt>
      <trkpt lat="44.01491" lon="4.80852">
        <ele>68.9</ele>
        <time>2012-06-06T05:50:27.000Z</time>
      </trkpt>
      <trkpt lat="44.01486" lon="4.80853">
        <ele>68.7</ele>
        <time>2012-06-06T05:50:28.000Z</time>
      </trkpt>
      <trkpt lat="44.01481" lon="4.80854">
        <ele>68.7</ele>
        <time>2012-06-06T05:50:29.000Z</time>
      </trkpt>
      <trkpt lat="44.01474" lon="4.80855">
        <ele>68.9</ele>
        <time>2012-06-06T05:50:31.000Z</time>
      </trkpt>
      <trkpt lat="44.01464" lon="4.80857">
        <ele>69</ele>
        <time>2012-06-06T05:50:33.000Z</time>
      </trkpt>
      <trkpt lat="44.01456" lon="4.80859">
        <ele>68.4</ele>
        <time>2012-06-06T05:50:35.000Z</time>
      </trkpt>
      <trkpt lat="44.01447" lon="4.80861">
        <ele>69.2</ele>
        <time>2012-06-06T05:50:37.000Z</time>
      </trkpt>
      <trkpt lat="44.01438" lon="4.80861">
        <ele>69.1</ele>
        <time>2012-06-06T05:50:39.000Z</time>
      </trkpt>
      <trkpt lat="44.01428" lon="4.80862">
        <ele>69.8</ele>
        <time>2012-06-06T05:50:41.000Z</time>
      </trkpt>
      <trkpt lat="44.01418" lon="4.80863">
        <ele>69.8</ele>
        <time>2012-06-06T05:50:43.000Z</time>
      </trkpt>
      <trkpt lat="44.0141" lon="4.80862">
        <ele>70</ele>
        <time>2012-06-06T05:50:45.000Z</time>
      </trkpt>
      <trkpt lat="44.01404" lon="4.80861">
        <ele>70</ele>
        <time>2012-06-06T05:50:46.000Z</time>
      </trkpt>
      <trkpt lat="44.01399" lon="4.8086">
        <ele>70.4</ele>
        <time>2012-06-06T05:50:47.000Z</time>
      </trkpt>
      <trkpt lat="44.01392" lon="4.80862">
        <ele>70.6</ele>
        <time>2012-06-06T05:50:49.000Z</time>
      </trkpt>
      <trkpt lat="44.01386" lon="4.80865">
        <ele>70.7</ele>
        <time>2012-06-06T05:50:51.000Z</time>
      </trkpt>
      <trkpt lat="44.01378" lon="4.80869">
        <ele>70.9</ele>
        <time>2012-06-06T05:50:53.000Z</time>
      </trkpt>
      <trkpt lat="44.01373" lon="4.80869">
        <ele>70.9</ele>
        <time>2012-06-06T05:50:54.000Z</time>
      </trkpt>
      <trkpt lat="44.01368" lon="4.8087">
        <ele>71.3</ele>
        <time>2012-06-06T05:50:55.000Z</time>
      </trkpt>
      <trkpt lat="44.01359" lon="4.8087">
        <ele>70.5</ele>
        <time>2012-06-06T05:50:57.000Z</time>
      </trkpt>
      <trkpt lat="44.01354" lon="4.80871">
        <ele>70.2</ele>
        <time>2012-06-06T05:50:58.000Z</time>
      </trkpt>
      <trkpt lat="44.01349" lon="4.80873">
        <ele>69.6</ele>
        <time>2012-06-06T05:50:59.000Z</time>
      </trkpt>
      <trkpt lat="44.01342" lon="4.80876">
        <ele>69.4</ele>
        <time>2012-06-06T05:51:01.000Z</time>
      </trkpt>
      <trkpt lat="44.01336" lon="4.80876">
        <ele>70.1</ele>
        <time>2012-06-06T05:51:02.000Z</time>
      </trkpt>
      <trkpt lat="44.01332" lon="4.80876">
        <ele>70</ele>
        <time>2012-06-06T05:51:03.000Z</time>
      </trkpt>
      <trkpt lat="44.01327" lon="4.80877">
        <ele>70.6</ele>
        <time>2012-06-06T05:51:04.000Z</time>
      </trkpt>
      <trkpt lat="44.01319" lon="4.80879">
        <ele>70.6</ele>
        <time>2012-06-06T05:51:06.000Z</time>
      </trkpt>
      <trkpt lat="44.01314" lon="4.80879">
        <ele>70.7</ele>
        <time>2012-06-06T05:51:07.000Z</time>
      </trkpt>
      <trkpt lat="44.01306" lon="4.80879">
        <ele>70.4</ele>
        <time>2012-06-06T05:51:09.000Z</time>
      </trkpt>
      <trkpt lat="44.01298" lon="4.8088">
        <ele>69.8</ele>
        <time>2012-06-06T05:51:11.000Z</time>
      </trkpt>
      <trkpt lat="44.01293" lon="4.8088">
        <ele>69.2</ele>
        <time>2012-06-06T05:51:12.000Z</time>
      </trkpt>
      <trkpt lat="44.01285" lon="4.80882">
        <ele>68.9</ele>
        <time>2012-06-06T05:51:14.000Z</time>
      </trkpt>
      <trkpt lat="44.01278" lon="4.80883">
        <ele>68.2</ele>
        <time>2012-06-06T05:51:16.000Z</time>
      </trkpt>
      <trkpt lat="44.01272" lon="4.80885">
        <ele>67.9</ele>
        <time>2012-06-06T05:51:18.000Z</time>
      </trkpt>
      <trkpt lat="44.01266" lon="4.80889">
        <ele>67.4</ele>
        <time>2012-06-06T05:51:20.000Z</time>
      </trkpt>
      <trkpt lat="44.01259" lon="4.80892">
        <ele>67.4</ele>
        <time>2012-06-06T05:51:22.000Z</time>
      </trkpt>
      <trkpt lat="44.01254" lon="4.80896">
        <ele>68.4</ele>
        <time>2012-06-06T05:51:24.000Z</time>
      </trkpt>
      <trkpt lat="44.01251" lon="4.80903">
        <ele>69.3</ele>
        <time>2012-06-06T05:51:26.000Z</time>
      </trkpt>
      <trkpt lat="44.01252" lon="4.80911">
        <ele>68.9</ele>
        <time>2012-06-06T05:51:28.000Z</time>
      </trkpt>
      <trkpt lat="44.01252" lon="4.80918">
        <ele>68.6</ele>
        <time>2012-06-06T05:51:30.000Z</time>
      </trkpt>
      <trkpt lat="44.01251" lon="4.80927">
        <ele>69.2</ele>
        <time>2012-06-06T05:51:32.000Z</time>
      </trkpt>
      <trkpt lat="44.01252" lon="4.80935">
        <ele>68</ele>
        <time>2012-06-06T05:51:34.000Z</time>
      </trkpt>
      <trkpt lat="44.01252" lon="4.80945">
        <ele>67.2</ele>
        <time>2012-06-06T05:51:36.000Z</time>
      </trkpt>
      <trkpt lat="44.01253" lon="4.80954">
        <ele>67.2</ele>
        <time>2012-06-06T05:51:38.000Z</time>
      </trkpt>
      <trkpt lat="44.01253" lon="4.80963">
        <ele>66.9</ele>
        <time>2012-06-06T05:51:40.000Z</time>
      </trkpt>
      <trkpt lat="44.01254" lon="4.80972">
        <ele>66.3</ele>
        <time>2012-06-06T05:51:42.000Z</time>
      </trkpt>
      <trkpt lat="44.01254" lon="4.8098">
        <ele>64.7</ele>
        <time>2012-06-06T05:51:44.000Z</time>
      </trkpt>
      <trkpt lat="44.01255" lon="4.8099">
        <ele>64.3</ele>
        <time>2012-06-06T05:51:46.000Z</time>
      </trkpt>
      <trkpt lat="44.01255" lon="4.81004">
        <ele>66.1</ele>
        <time>2012-06-06T05:51:48.000Z</time>
      </trkpt>
      <trkpt lat="44.01256" lon="4.81015">
        <ele>66.5</ele>
        <time>2012-06-06T05:51:50.000Z</time>
      </trkpt>
      <trkpt lat="44.01256" lon="4.81021">
        <ele>66.1</ele>
        <time>2012-06-06T05:51:51.000Z</time>
      </trkpt>
      <trkpt lat="44.01257" lon="4.81034">
        <ele>64.6</ele>
        <time>2012-06-06T05:51:53.000Z</time>
      </trkpt>
      <trkpt lat="44.01257" lon="4.8104">
        <ele>63.7</ele>
        <time>2012-06-06T05:51:54.000Z</time>
      </trkpt>
      <trkpt lat="44.01256" lon="4.81048">
        <ele>63.6</ele>
        <time>2012-06-06T05:51:55.000Z</time>
      </trkpt>
      <trkpt lat="44.01256" lon="4.81057">
        <ele>63.6</ele>
        <time>2012-06-06T05:51:56.000Z</time>
      </trkpt>
      <trkpt lat="44.01258" lon="4.81063">
        <ele>63.1</ele>
        <time>2012-06-06T05:51:57.000Z</time>
      </trkpt>
      <trkpt lat="44.0126" lon="4.81074">
        <ele>62.2</ele>
        <time>2012-06-06T05:51:59.000Z</time>
      </trkpt>
      <trkpt lat="44.01262" lon="4.81086">
        <ele>62.1</ele>
        <time>2012-06-06T05:52:01.000Z</time>
      </trkpt>
      <trkpt lat="44.01262" lon="4.81094">
        <ele>63.2</ele>
        <time>2012-06-06T05:52:02.000Z</time>
      </trkpt>
      <trkpt lat="44.01261" lon="4.81104">
        <ele>64.6</ele>
        <time>2012-06-06T05:52:03.000Z</time>
      </trkpt>
      <trkpt lat="44.01261" lon="4.81112">
        <ele>65.9</ele>
        <time>2012-06-06T05:52:04.000Z</time>
      </trkpt>
      <trkpt lat="44.0126" lon="4.8112">
        <ele>66.3</ele>
        <time>2012-06-06T05:52:05.000Z</time>
      </trkpt>
      <trkpt lat="44.01261" lon="4.81126">
        <ele>66.3</ele>
        <time>2012-06-06T05:52:06.000Z</time>
      </trkpt>
      <trkpt lat="44.01262" lon="4.81136">
        <ele>65.8</ele>
        <time>2012-06-06T05:52:08.000Z</time>
      </trkpt>
      <trkpt lat="44.01262" lon="4.81142">
        <ele>65.9</ele>
        <time>2012-06-06T05:52:09.000Z</time>
      </trkpt>
      <trkpt lat="44.01267" lon="4.81152">
        <ele>66.3</ele>
        <time>2012-06-06T05:52:11.000Z</time>
      </trkpt>
      <trkpt lat="44.0127" lon="4.81157">
        <ele>66.5</ele>
        <time>2012-06-06T05:52:12.000Z</time>
      </trkpt>
      <trkpt lat="44.0127" lon="4.8117">
        <ele>66.3</ele>
        <time>2012-06-06T05:52:14.000Z</time>
      </trkpt>
      <trkpt lat="44.0127" lon="4.81177">
        <ele>66</ele>
        <time>2012-06-06T05:52:15.000Z</time>
      </trkpt>
      <trkpt lat="44.01273" lon="4.81182">
        <ele>65.6</ele>
        <time>2012-06-06T05:52:16.000Z</time>
      </trkpt>
      <trkpt lat="44.01276" lon="4.81196">
        <ele>66.7</ele>
        <time>2012-06-06T05:52:18.000Z</time>
      </trkpt>
      <trkpt lat="44.01279" lon="4.81202">
        <ele>66.5</ele>
        <time>2012-06-06T05:52:19.000Z</time>
      </trkpt>
      <trkpt lat="44.01279" lon="4.81214">
        <ele>66.1</ele>
        <time>2012-06-06T05:52:21.000Z</time>
      </trkpt>
      <trkpt lat="44.0128" lon="4.8122">
        <ele>66.6</ele>
        <time>2012-06-06T05:52:22.000Z</time>
      </trkpt>
      <trkpt lat="44.01282" lon="4.81226">
        <ele>66.7</ele>
        <time>2012-06-06T05:52:23.000Z</time>
      </trkpt>
      <trkpt lat="44.01284" lon="4.81238">
        <ele>66.8</ele>
        <time>2012-06-06T05:52:25.000Z</time>
      </trkpt>
      <trkpt lat="44.01284" lon="4.81245">
        <ele>67.4</ele>
        <time>2012-06-06T05:52:26.000Z</time>
      </trkpt>
      <trkpt lat="44.01286" lon="4.81256">
        <ele>67.2</ele>
        <time>2012-06-06T05:52:28.000Z</time>
      </trkpt>
      <trkpt lat="44.0129" lon="4.81261">
        <ele>68.4</ele>
        <time>2012-06-06T05:52:29.000Z</time>
      </trkpt>
      <trkpt lat="44.01292" lon="4.81273">
        <ele>67.7</ele>
        <time>2012-06-06T05:52:31.000Z</time>
      </trkpt>
      <trkpt lat="44.01295" lon="4.81285">
        <ele>68.8</ele>
        <time>2012-06-06T05:52:33.000Z</time>
      </trkpt>
      <trkpt lat="44.01298" lon="4.81295">
        <ele>68.9</ele>
        <time>2012-06-06T05:52:35.000Z</time>
      </trkpt>
      <trkpt lat="44.01301" lon="4.81304">
        <ele>68.9</ele>
        <time>2012-06-06T05:52:37.000Z</time>
      </trkpt>
      <trkpt lat="44.01304" lon="4.81314">
        <ele>69.4</ele>
        <time>2012-06-06T05:52:39.000Z</time>
      </trkpt>
      <trkpt lat="44.01306" lon="4.81324">
        <ele>69.1</ele>
        <time>2012-06-06T05:52:41.000Z</time>
      </trkpt>
      <trkpt lat="44.01309" lon="4.81334">
        <ele>69.1</ele>
        <time>2012-06-06T05:52:43.000Z</time>
      </trkpt>
      <trkpt lat="44.01312" lon="4.8134">
        <ele>68.9</ele>
        <time>2012-06-06T05:52:44.000Z</time>
      </trkpt>
      <trkpt lat="44.01313" lon="4.81346">
        <ele>68.7</ele>
        <time>2012-06-06T05:52:45.000Z</time>
      </trkpt>
      <trkpt lat="44.01315" lon="4.81353">
        <ele>68.8</ele>
        <time>2012-06-06T05:52:46.000Z</time>
      </trkpt>
      <trkpt lat="44.01316" lon="4.81359">
        <ele>68.6</ele>
        <time>2012-06-06T05:52:47.000Z</time>
      </trkpt>
      <trkpt lat="44.01317" lon="4.81365">
        <ele>68.5</ele>
        <time>2012-06-06T05:52:48.000Z</time>
      </trkpt>
      <trkpt lat="44.01319" lon="4.81372">
        <ele>68.7</ele>
        <time>2012-06-06T05:52:49.000Z</time>
      </trkpt>
      <trkpt lat="44.01324" lon="4.81381">
        <ele>69.5</ele>
        <time>2012-06-06T05:52:51.000Z</time>
      </trkpt>
      <trkpt lat="44.01327" lon="4.81387">
        <ele>69.8</ele>
        <time>2012-06-06T05:52:52.000Z</time>
      </trkpt>
      <trkpt lat="44.01329" lon="4.81393">
        <ele>69.3</ele>
        <time>2012-06-06T05:52:53.000Z</time>
      </trkpt>
      <trkpt lat="44.01332" lon="4.81399">
        <ele>70</ele>
        <time>2012-06-06T05:52:54.000Z</time>
      </trkpt>
      <trkpt lat="44.01334" lon="4.81405">
        <ele>70.2</ele>
        <time>2012-06-06T05:52:55.000Z</time>
      </trkpt>
      <trkpt lat="44.01338" lon="4.81415">
        <ele>70.4</ele>
        <time>2012-06-06T05:52:57.000Z</time>
      </trkpt>
      <trkpt lat="44.01342" lon="4.81426">
        <ele>71</ele>
        <time>2012-06-06T05:52:59.000Z</time>
      </trkpt>
      <trkpt lat="44.01344" lon="4.81432">
        <ele>71.6</ele>
        <time>2012-06-06T05:53:00.000Z</time>
      </trkpt>
      <trkpt lat="44.01346" lon="4.8144">
        <ele>71.6</ele>
        <time>2012-06-06T05:53:01.000Z</time>
      </trkpt>
      <trkpt lat="44.01348" lon="4.81451">
        <ele>71.8</ele>
        <time>2012-06-06T05:53:03.000Z</time>
      </trkpt>
      <trkpt lat="44.0135" lon="4.81462">
        <ele>72.2</ele>
        <time>2012-06-06T05:53:05.000Z</time>
      </trkpt>
      <trkpt lat="44.01352" lon="4.81473">
        <ele>72.2</ele>
        <time>2012-06-06T05:53:07.000Z</time>
      </trkpt>
      <trkpt lat="44.01355" lon="4.81483">
        <ele>71.4</ele>
        <time>2012-06-06T05:53:09.000Z</time>
      </trkpt>
      <trkpt lat="44.01356" lon="4.81497">
        <ele>71.5</ele>
        <time>2012-06-06T05:53:11.000Z</time>
      </trkpt>
      <trkpt lat="44.01358" lon="4.81503">
        <ele>71.3</ele>
        <time>2012-06-06T05:53:12.000Z</time>
      </trkpt>
      <trkpt lat="44.01358" lon="4.81509">
        <ele>71.3</ele>
        <time>2012-06-06T05:53:13.000Z</time>
      </trkpt>
      <trkpt lat="44.01358" lon="4.81516">
        <ele>71.1</ele>
        <time>2012-06-06T05:53:14.000Z</time>
      </trkpt>
      <trkpt lat="44.01358" lon="4.81528">
        <ele>72</ele>
        <time>2012-06-06T05:53:16.000Z</time>
      </trkpt>
      <trkpt lat="44.0136" lon="4.81536">
        <ele>72.6</ele>
        <time>2012-06-06T05:53:17.000Z</time>
      </trkpt>
      <trkpt lat="44.01362" lon="4.81544">
        <ele>73.4</ele>
        <time>2012-06-06T05:53:18.000Z</time>
      </trkpt>
      <trkpt lat="44.01364" lon="4.81556">
        <ele>73.2</ele>
        <time>2012-06-06T05:53:20.000Z</time>
      </trkpt>
      <trkpt lat="44.01362" lon="4.81563">
        <ele>73.1</ele>
        <time>2012-06-06T05:53:21.000Z</time>
      </trkpt>
      <trkpt lat="44.01354" lon="4.81571">
        <ele>73.1</ele>
        <time>2012-06-06T05:53:23.000Z</time>
      </trkpt>
      <trkpt lat="44.01349" lon="4.81576">
        <ele>72.4</ele>
        <time>2012-06-06T05:53:24.000Z</time>
      </trkpt>
      <trkpt lat="44.01344" lon="4.81579">
        <ele>71.6</ele>
        <time>2012-06-06T05:53:25.000Z</time>
      </trkpt>
      <trkpt lat="44.01339" lon="4.81581">
        <ele>71.6</ele>
        <time>2012-06-06T05:53:26.000Z</time>
      </trkpt>
      <trkpt lat="44.01331" lon="4.81583">
        <ele>71.5</ele>
        <time>2012-06-06T05:53:28.000Z</time>
      </trkpt>
      <trkpt lat="44.01326" lon="4.81581">
        <ele>70.8</ele>
        <time>2012-06-06T05:53:29.000Z</time>
      </trkpt>
      <trkpt lat="44.01318" lon="4.81585">
        <ele>71.6</ele>
        <time>2012-06-06T05:53:31.000Z</time>
      </trkpt>
      <trkpt lat="44.01311" lon="4.8159">
        <ele>70.4</ele>
        <time>2012-06-06T05:53:33.000Z</time>
      </trkpt>
      <trkpt lat="44.01304" lon="4.8159">
        <ele>70.7</ele>
        <time>2012-06-06T05:53:35.000Z</time>
      </trkpt>
      <trkpt lat="44.01296" lon="4.81594">
        <ele>70.4</ele>
        <time>2012-06-06T05:53:37.000Z</time>
      </trkpt>
      <trkpt lat="44.01289" lon="4.81597">
        <ele>70.5</ele>
        <time>2012-06-06T05:53:39.000Z</time>
      </trkpt>
      <trkpt lat="44.01282" lon="4.81599">
        <ele>71.3</ele>
        <time>2012-06-06T05:53:41.000Z</time>
      </trkpt>
      <trkpt lat="44.01272" lon="4.816">
        <ele>71.4</ele>
        <time>2012-06-06T05:53:43.000Z</time>
      </trkpt>
      <trkpt lat="44.01267" lon="4.816">
        <ele>72</ele>
        <time>2012-06-06T05:53:44.000Z</time>
      </trkpt>
      <trkpt lat="44.0126" lon="4.81602">
        <ele>72.6</ele>
        <time>2012-06-06T05:53:46.000Z</time>
      </trkpt>
      <trkpt lat="44.01254" lon="4.81604">
        <ele>72.3</ele>
        <time>2012-06-06T05:53:48.000Z</time>
      </trkpt>
      <trkpt lat="44.01249" lon="4.81605">
        <ele>72.5</ele>
        <time>2012-06-06T05:53:49.000Z</time>
      </trkpt>
      <trkpt lat="44.01243" lon="4.81605">
        <ele>72.7</ele>
        <time>2012-06-06T05:53:50.000Z</time>
      </trkpt>
      <trkpt lat="44.01234" lon="4.81605">
        <ele>72.8</ele>
        <time>2012-06-06T05:53:52.000Z</time>
      </trkpt>
      <trkpt lat="44.01226" lon="4.81603">
        <ele>72.8</ele>
        <time>2012-06-06T05:53:53.000Z</time>
      </trkpt>
      <trkpt lat="44.01219" lon="4.81598">
        <ele>73.2</ele>
        <time>2012-06-06T05:53:54.000Z</time>
      </trkpt>
      <trkpt lat="44.01213" lon="4.81594">
        <ele>73.3</ele>
        <time>2012-06-06T05:53:55.000Z</time>
      </trkpt>
      <trkpt lat="44.01208" lon="4.8159">
        <ele>73.3</ele>
        <time>2012-06-06T05:53:56.000Z</time>
      </trkpt>
      <trkpt lat="44.012" lon="4.81586">
        <ele>72.7</ele>
        <time>2012-06-06T05:53:58.000Z</time>
      </trkpt>
      <trkpt lat="44.01194" lon="4.81585">
        <ele>72.4</ele>
        <time>2012-06-06T05:53:59.000Z</time>
      </trkpt>
      <trkpt lat="44.01187" lon="4.81583">
        <ele>71.6</ele>
        <time>2012-06-06T05:54:00.000Z</time>
      </trkpt>
      <trkpt lat="44.01182" lon="4.81583">
        <ele>70.4</ele>
        <time>2012-06-06T05:54:01.000Z</time>
      </trkpt>
      <trkpt lat="44.01174" lon="4.81581">
        <ele>70.2</ele>
        <time>2012-06-06T05:54:03.000Z</time>
      </trkpt>
      <trkpt lat="44.0117" lon="4.81579">
        <ele>69.6</ele>
        <time>2012-06-06T05:54:04.000Z</time>
      </trkpt>
      <trkpt lat="44.01163" lon="4.81576">
        <ele>68.9</ele>
        <time>2012-06-06T05:54:05.000Z</time>
      </trkpt>
      <trkpt lat="44.01153" lon="4.81576">
        <ele>68.2</ele>
        <time>2012-06-06T05:54:07.000Z</time>
      </trkpt>
      <trkpt lat="44.01145" lon="4.81577">
        <ele>68.8</ele>
        <time>2012-06-06T05:54:09.000Z</time>
      </trkpt>
      <trkpt lat="44.0114" lon="4.8158">
        <ele>68.5</ele>
        <time>2012-06-06T05:54:10.000Z</time>
      </trkpt>
      <trkpt lat="44.01133" lon="4.81585">
        <ele>67.8</ele>
        <time>2012-06-06T05:54:12.000Z</time>
      </trkpt>
      <trkpt lat="44.01128" lon="4.81588">
        <ele>68.1</ele>
        <time>2012-06-06T05:54:13.000Z</time>
      </trkpt>
      <trkpt lat="44.01118" lon="4.81592">
        <ele>67</ele>
        <time>2012-06-06T05:54:15.000Z</time>
      </trkpt>
      <trkpt lat="44.01114" lon="4.81592">
        <ele>66.4</ele>
        <time>2012-06-06T05:54:16.000Z</time>
      </trkpt>
      <trkpt lat="44.01109" lon="4.81593">
        <ele>66.4</ele>
        <time>2012-06-06T05:54:17.000Z</time>
      </trkpt>
      <trkpt lat="44.01103" lon="4.81593">
        <ele>66.7</ele>
        <time>2012-06-06T05:54:18.000Z</time>
      </trkpt>
      <trkpt lat="44.01094" lon="4.81594">
        <ele>66</ele>
        <time>2012-06-06T05:54:20.000Z</time>
      </trkpt>
      <trkpt lat="44.01089" lon="4.81595">
        <ele>65</ele>
        <time>2012-06-06T05:54:21.000Z</time>
      </trkpt>
      <trkpt lat="44.01084" lon="4.81595">
        <ele>64.7</ele>
        <time>2012-06-06T05:54:22.000Z</time>
      </trkpt>
      <trkpt lat="44.01076" lon="4.81597">
        <ele>63.7</ele>
        <time>2012-06-06T05:54:24.000Z</time>
      </trkpt>
      <trkpt lat="44.0107" lon="4.81595">
        <ele>63.2</ele>
        <time>2012-06-06T05:54:25.000Z</time>
      </trkpt>
      <trkpt lat="44.01062" lon="4.81595">
        <ele>62.2</ele>
        <time>2012-06-06T05:54:27.000Z</time>
      </trkpt>
      <trkpt lat="44.01054" lon="4.81593">
        <ele>61.7</ele>
        <time>2012-06-06T05:54:29.000Z</time>
      </trkpt>
      <trkpt lat="44.01046" lon="4.81596">
        <ele>60.3</ele>
        <time>2012-06-06T05:54:31.000Z</time>
      </trkpt>
      <trkpt lat="44.01039" lon="4.816">
        <ele>59.9</ele>
        <time>2012-06-06T05:54:33.000Z</time>
      </trkpt>
      <trkpt lat="44.01032" lon="4.81599">
        <ele>60.7</ele>
        <time>2012-06-06T05:54:35.000Z</time>
      </trkpt>
      <trkpt lat="44.01027" lon="4.81591">
        <ele>61.7</ele>
        <time>2012-06-06T05:54:36.000Z</time>
      </trkpt>
      <trkpt lat="44.0102" lon="4.81588">
        <ele>63.3</ele>
        <time>2012-06-06T05:54:38.000Z</time>
      </trkpt>
      <trkpt lat="44.01019" lon="4.81595">
        <ele>62.6</ele>
        <time>2012-06-06T05:54:44.000Z</time>
      </trkpt>
      <trkpt lat="44.0102" lon="4.81605">
        <ele>61.1</ele>
        <time>2012-06-06T05:54:47.000Z</time>
      </trkpt>
      <trkpt lat="44.01019" lon="4.81614">
        <ele>60.4</ele>
        <time>2012-06-06T05:54:49.000Z</time>
      </trkpt>
      <trkpt lat="44.01017" lon="4.81622">
        <ele>59.3</ele>
        <time>2012-06-06T05:54:51.000Z</time>
      </trkpt>
      <trkpt lat="44.0101" lon="4.81634">
        <ele>59.4</ele>
        <time>2012-06-06T05:54:53.000Z</time>
      </trkpt>
      <trkpt lat="44.01007" lon="4.81639">
        <ele>60.4</ele>
        <time>2012-06-06T05:54:54.000Z</time>
      </trkpt>
      <trkpt lat="44.00998" lon="4.81646">
        <ele>62.1</ele>
        <time>2012-06-06T05:54:56.000Z</time>
      </trkpt>
      <trkpt lat="44.00993" lon="4.81651">
        <ele>63.5</ele>
        <time>2012-06-06T05:54:57.000Z</time>
      </trkpt>
      <trkpt lat="44.00988" lon="4.81651">
        <ele>64.6</ele>
        <time>2012-06-06T05:54:58.000Z</time>
      </trkpt>
      <trkpt lat="44.0098" lon="4.81656">
        <ele>66.1</ele>
        <time>2012-06-06T05:55:00.000Z</time>
      </trkpt>
      <trkpt lat="44.0097" lon="4.81655">
        <ele>66.6</ele>
        <time>2012-06-06T05:55:02.000Z</time>
      </trkpt>
      <trkpt lat="44.00966" lon="4.81656">
        <ele>67</ele>
        <time>2012-06-06T05:55:03.000Z</time>
      </trkpt>
      <trkpt lat="44.00961" lon="4.81655">
        <ele>67.7</ele>
        <time>2012-06-06T05:55:04.000Z</time>
      </trkpt>
      <trkpt lat="44.00955" lon="4.81655">
        <ele>67.9</ele>
        <time>2012-06-06T05:55:05.000Z</time>
      </trkpt>
      <trkpt lat="44.00951" lon="4.81654">
        <ele>67.6</ele>
        <time>2012-06-06T05:55:06.000Z</time>
      </trkpt>
      <trkpt lat="44.00946" lon="4.81652">
        <ele>67.9</ele>
        <time>2012-06-06T05:55:07.000Z</time>
      </trkpt>
      <trkpt lat="44.00937" lon="4.8165">
        <ele>67.2</ele>
        <time>2012-06-06T05:55:09.000Z</time>
      </trkpt>
      <trkpt lat="44.00929" lon="4.81647">
        <ele>67.6</ele>
        <time>2012-06-06T05:55:11.000Z</time>
      </trkpt>
      <trkpt lat="44.00924" lon="4.81644">
        <ele>67.4</ele>
        <time>2012-06-06T05:55:12.000Z</time>
      </trkpt>
      <trkpt lat="44.00916" lon="4.81644">
        <ele>66.5</ele>
        <time>2012-06-06T05:55:14.000Z</time>
      </trkpt>
      <trkpt lat="44.0091" lon="4.81647">
        <ele>66.7</ele>
        <time>2012-06-06T05:55:16.000Z</time>
      </trkpt>
      <trkpt lat="44.00902" lon="4.81644">
        <ele>66.1</ele>
        <time>2012-06-06T05:55:18.000Z</time>
      </trkpt>
      <trkpt lat="44.00893" lon="4.81639">
        <ele>66.4</ele>
        <time>2012-06-06T05:55:20.000Z</time>
      </trkpt>
      <trkpt lat="44.00888" lon="4.8164">
        <ele>66.4</ele>
        <time>2012-06-06T05:55:21.000Z</time>
      </trkpt>
      <trkpt lat="44.00881" lon="4.81644">
        <ele>65.8</ele>
        <time>2012-06-06T05:55:23.000Z</time>
      </trkpt>
      <trkpt lat="44.00876" lon="4.81641">
        <ele>66.2</ele>
        <time>2012-06-06T05:55:24.000Z</time>
      </trkpt>
      <trkpt lat="44.0087" lon="4.81635">
        <ele>65.9</ele>
        <time>2012-06-06T05:55:25.000Z</time>
      </trkpt>
      <trkpt lat="44.00864" lon="4.81633">
        <ele>66.5</ele>
        <time>2012-06-06T05:55:26.000Z</time>
      </trkpt>
      <trkpt lat="44.00858" lon="4.81631">
        <ele>66.7</ele>
        <time>2012-06-06T05:55:27.000Z</time>
      </trkpt>
      <trkpt lat="44.00854" lon="4.8163">
        <ele>67.3</ele>
        <time>2012-06-06T05:55:28.000Z</time>
      </trkpt>
      <trkpt lat="44.00848" lon="4.81628">
        <ele>66.5</ele>
        <time>2012-06-06T05:55:29.000Z</time>
      </trkpt>
      <trkpt lat="44.00843" lon="4.81627">
        <ele>65.7</ele>
        <time>2012-06-06T05:55:30.000Z</time>
      </trkpt>
      <trkpt lat="44.00837" lon="4.81625">
        <ele>65.2</ele>
        <time>2012-06-06T05:55:31.000Z</time>
      </trkpt>
      <trkpt lat="44.00828" lon="4.81623">
        <ele>64.2</ele>
        <time>2012-06-06T05:55:33.000Z</time>
      </trkpt>
      <trkpt lat="44.00823" lon="4.81621">
        <ele>62.6</ele>
        <time>2012-06-06T05:55:34.000Z</time>
      </trkpt>
      <trkpt lat="44.00815" lon="4.81626">
        <ele>62</ele>
        <time>2012-06-06T05:55:36.000Z</time>
      </trkpt>
      <trkpt lat="44.0081" lon="4.81623">
        <ele>61.3</ele>
        <time>2012-06-06T05:55:37.000Z</time>
      </trkpt>
      <trkpt lat="44.00803" lon="4.81624">
        <ele>61.1</ele>
        <time>2012-06-06T05:55:39.000Z</time>
      </trkpt>
      <trkpt lat="44.00798" lon="4.81626">
        <ele>60.7</ele>
        <time>2012-06-06T05:55:40.000Z</time>
      </trkpt>
      <trkpt lat="44.0079" lon="4.81627">
        <ele>59.6</ele>
        <time>2012-06-06T05:55:42.000Z</time>
      </trkpt>
      <trkpt lat="44.00782" lon="4.81629">
        <ele>60.1</ele>
        <time>2012-06-06T05:55:44.000Z</time>
      </trkpt>
      <trkpt lat="44.00773" lon="4.81629">
        <ele>60.2</ele>
        <time>2012-06-06T05:55:46.000Z</time>
      </trkpt>
      <trkpt lat="44.00768" lon="4.81629">
        <ele>59.8</ele>
        <time>2012-06-06T05:55:47.000Z</time>
      </trkpt>
      <trkpt lat="44.00761" lon="4.81626">
        <ele>59.9</ele>
        <time>2012-06-06T05:55:48.000Z</time>
      </trkpt>
      <trkpt lat="44.00756" lon="4.81625">
        <ele>59.9</ele>
        <time>2012-06-06T05:55:49.000Z</time>
      </trkpt>
      <trkpt lat="44.0075" lon="4.81622">
        <ele>59.7</ele>
        <time>2012-06-06T05:55:50.000Z</time>
      </trkpt>
      <trkpt lat="44.00745" lon="4.81623">
        <ele>61.1</ele>
        <time>2012-06-06T05:55:51.000Z</time>
      </trkpt>
      <trkpt lat="44.00737" lon="4.8162">
        <ele>61.4</ele>
        <time>2012-06-06T05:55:53.000Z</time>
      </trkpt>
      <trkpt lat="44.0073" lon="4.81619">
        <ele>61.6</ele>
        <time>2012-06-06T05:55:54.000Z</time>
      </trkpt>
      <trkpt lat="44.00724" lon="4.81617">
        <ele>62.5</ele>
        <time>2012-06-06T05:55:55.000Z</time>
      </trkpt>
      <trkpt lat="44.00718" lon="4.81616">
        <ele>64.7</ele>
        <time>2012-06-06T05:55:56.000Z</time>
      </trkpt>
      <trkpt lat="44.00713" lon="4.81616">
        <ele>65.3</ele>
        <time>2012-06-06T05:55:57.000Z</time>
      </trkpt>
      <trkpt lat="44.00708" lon="4.81615">
        <ele>65</ele>
        <time>2012-06-06T05:55:58.000Z</time>
      </trkpt>
      <trkpt lat="44.00703" lon="4.81617">
        <ele>65</ele>
        <time>2012-06-06T05:55:59.000Z</time>
      </trkpt>
      <trkpt lat="44.00694" lon="4.81616">
        <ele>64.6</ele>
        <time>2012-06-06T05:56:01.000Z</time>
      </trkpt>
      <trkpt lat="44.00687" lon="4.81615">
        <ele>64.9</ele>
        <time>2012-06-06T05:56:02.000Z</time>
      </trkpt>
      <trkpt lat="44.00682" lon="4.81614">
        <ele>64</ele>
        <time>2012-06-06T05:56:03.000Z</time>
      </trkpt>
      <trkpt lat="44.00672" lon="4.81613">
        <ele>64.8</ele>
        <time>2012-06-06T05:56:05.000Z</time>
      </trkpt>
      <trkpt lat="44.00667" lon="4.81611">
        <ele>65</ele>
        <time>2012-06-06T05:56:06.000Z</time>
      </trkpt>
      <trkpt lat="44.00662" lon="4.81611">
        <ele>65.7</ele>
        <time>2012-06-06T05:56:07.000Z</time>
      </trkpt>
      <trkpt lat="44.00656" lon="4.81612">
        <ele>66.2</ele>
        <time>2012-06-06T05:56:08.000Z</time>
      </trkpt>
      <trkpt lat="44.00648" lon="4.81616">
        <ele>66.7</ele>
        <time>2012-06-06T05:56:10.000Z</time>
      </trkpt>
      <trkpt lat="44.0064" lon="4.81619">
        <ele>67.1</ele>
        <time>2012-06-06T05:56:12.000Z</time>
      </trkpt>
      <trkpt lat="44.00636" lon="4.8162">
        <ele>67.6</ele>
        <time>2012-06-06T05:56:13.000Z</time>
      </trkpt>
      <trkpt lat="44.00631" lon="4.81621">
        <ele>67.5</ele>
        <time>2012-06-06T05:56:14.000Z</time>
      </trkpt>
      <trkpt lat="44.00622" lon="4.81624">
        <ele>66.5</ele>
        <time>2012-06-06T05:56:16.000Z</time>
      </trkpt>
      <trkpt lat="44.00616" lon="4.81622">
        <ele>66.8</ele>
        <time>2012-06-06T05:56:17.000Z</time>
      </trkpt>
      <trkpt lat="44.0061" lon="4.81621">
        <ele>66.9</ele>
        <time>2012-06-06T05:56:18.000Z</time>
      </trkpt>
      <trkpt lat="44.00606" lon="4.81621">
        <ele>67.2</ele>
        <time>2012-06-06T05:56:19.000Z</time>
      </trkpt>
      <trkpt lat="44.00601" lon="4.8162">
        <ele>67.2</ele>
        <time>2012-06-06T05:56:20.000Z</time>
      </trkpt>
      <trkpt lat="44.00592" lon="4.81621">
        <ele>66.9</ele>
        <time>2012-06-06T05:56:22.000Z</time>
      </trkpt>
      <trkpt lat="44.00583" lon="4.81621">
        <ele>67.3</ele>
        <time>2012-06-06T05:56:24.000Z</time>
      </trkpt>
      <trkpt lat="44.00578" lon="4.81621">
        <ele>66.9</ele>
        <time>2012-06-06T05:56:25.000Z</time>
      </trkpt>
      <trkpt lat="44.00572" lon="4.8162">
        <ele>66.7</ele>
        <time>2012-06-06T05:56:26.000Z</time>
      </trkpt>
      <trkpt lat="44.00564" lon="4.81622">
        <ele>66.1</ele>
        <time>2012-06-06T05:56:28.000Z</time>
      </trkpt>
      <trkpt lat="44.00558" lon="4.8162">
        <ele>65.9</ele>
        <time>2012-06-06T05:56:29.000Z</time>
      </trkpt>
      <trkpt lat="44.00554" lon="4.81619">
        <ele>66.1</ele>
        <time>2012-06-06T05:56:30.000Z</time>
      </trkpt>
      <trkpt lat="44.00546" lon="4.81616">
        <ele>66</ele>
        <time>2012-06-06T05:56:32.000Z</time>
      </trkpt>
      <trkpt lat="44.00538" lon="4.81618">
        <ele>65</ele>
        <time>2012-06-06T05:56:34.000Z</time>
      </trkpt>
      <trkpt lat="44.0053" lon="4.81622">
        <ele>66</ele>
        <time>2012-06-06T05:56:36.000Z</time>
      </trkpt>
      <trkpt lat="44.00525" lon="4.81623">
        <ele>65.8</ele>
        <time>2012-06-06T05:56:37.000Z</time>
      </trkpt>
      <trkpt lat="44.00516" lon="4.81623">
        <ele>65.2</ele>
        <time>2012-06-06T05:56:39.000Z</time>
      </trkpt>
      <trkpt lat="44.00512" lon="4.81627">
        <ele>64.8</ele>
        <time>2012-06-06T05:56:40.000Z</time>
      </trkpt>
      <trkpt lat="44.00507" lon="4.81626">
        <ele>65.3</ele>
        <time>2012-06-06T05:56:41.000Z</time>
      </trkpt>
      <trkpt lat="44.00501" lon="4.81626">
        <ele>63.5</ele>
        <time>2012-06-06T05:56:42.000Z</time>
      </trkpt>
      <trkpt lat="44.00497" lon="4.81624">
        <ele>63.5</ele>
        <time>2012-06-06T05:56:43.000Z</time>
      </trkpt>
      <trkpt lat="44.00488" lon="4.81624">
        <ele>63.6</ele>
        <time>2012-06-06T05:56:45.000Z</time>
      </trkpt>
      <trkpt lat="44.00482" lon="4.8162">
        <ele>63.9</ele>
        <time>2012-06-06T05:56:46.000Z</time>
      </trkpt>
      <trkpt lat="44.00473" lon="4.81619">
        <ele>65.4</ele>
        <time>2012-06-06T05:56:48.000Z</time>
      </trkpt>
      <trkpt lat="44.00467" lon="4.81616">
        <ele>64.9</ele>
        <time>2012-06-06T05:56:49.000Z</time>
      </trkpt>
      <trkpt lat="44.00462" lon="4.81614">
        <ele>64.2</ele>
        <time>2012-06-06T05:56:50.000Z</time>
      </trkpt>
      <trkpt lat="44.00458" lon="4.81613">
        <ele>64.7</ele>
        <time>2012-06-06T05:56:51.000Z</time>
      </trkpt>
      <trkpt lat="44.00453" lon="4.81611">
        <ele>65.6</ele>
        <time>2012-06-06T05:56:52.000Z</time>
      </trkpt>
      <trkpt lat="44.00446" lon="4.81607">
        <ele>66.9</ele>
        <time>2012-06-06T05:56:53.000Z</time>
      </trkpt>
      <trkpt lat="44.0044" lon="4.81605">
        <ele>67.2</ele>
        <time>2012-06-06T05:56:54.000Z</time>
      </trkpt>
      <trkpt lat="44.00434" lon="4.81604">
        <ele>67.4</ele>
        <time>2012-06-06T05:56:55.000Z</time>
      </trkpt>
      <trkpt lat="44.00427" lon="4.81602">
        <ele>66.9</ele>
        <time>2012-06-06T05:56:56.000Z</time>
      </trkpt>
      <trkpt lat="44.00422" lon="4.816">
        <ele>66.6</ele>
        <time>2012-06-06T05:56:57.000Z</time>
      </trkpt>
      <trkpt lat="44.00416" lon="4.816">
        <ele>67.1</ele>
        <time>2012-06-06T05:56:58.000Z</time>
      </trkpt>
      <trkpt lat="44.00411" lon="4.816">
        <ele>67.8</ele>
        <time>2012-06-06T05:56:59.000Z</time>
      </trkpt>
      <trkpt lat="44.00406" lon="4.816">
        <ele>67.6</ele>
        <time>2012-06-06T05:57:00.000Z</time>
      </trkpt>
      <trkpt lat="44.00401" lon="4.81601">
        <ele>69.1</ele>
        <time>2012-06-06T05:57:01.000Z</time>
      </trkpt>
      <trkpt lat="44.00396" lon="4.81603">
        <ele>68.7</ele>
        <time>2012-06-06T05:57:02.000Z</time>
      </trkpt>
      <trkpt lat="44.00392" lon="4.81603">
        <ele>68.9</ele>
        <time>2012-06-06T05:57:03.000Z</time>
      </trkpt>
      <trkpt lat="44.00384" lon="4.81604">
        <ele>69</ele>
        <time>2012-06-06T05:57:05.000Z</time>
      </trkpt>
      <trkpt lat="44.00378" lon="4.81603">
        <ele>68.9</ele>
        <time>2012-06-06T05:57:06.000Z</time>
      </trkpt>
      <trkpt lat="44.00371" lon="4.81606">
        <ele>69.3</ele>
        <time>2012-06-06T05:57:08.000Z</time>
      </trkpt>
      <trkpt lat="44.00364" lon="4.81606">
        <ele>68.2</ele>
        <time>2012-06-06T05:57:10.000Z</time>
      </trkpt>
      <trkpt lat="44.00355" lon="4.81608">
        <ele>67.8</ele>
        <time>2012-06-06T05:57:12.000Z</time>
      </trkpt>
      <trkpt lat="44.00351" lon="4.81607">
        <ele>67.1</ele>
        <time>2012-06-06T05:57:13.000Z</time>
      </trkpt>
      <trkpt lat="44.00342" lon="4.8161">
        <ele>67.4</ele>
        <time>2012-06-06T05:57:15.000Z</time>
      </trkpt>
      <trkpt lat="44.00334" lon="4.81609">
        <ele>67</ele>
        <time>2012-06-06T05:57:17.000Z</time>
      </trkpt>
      <trkpt lat="44.00327" lon="4.81605">
        <ele>68.6</ele>
        <time>2012-06-06T05:57:18.000Z</time>
      </trkpt>
      <trkpt lat="44.00321" lon="4.81613">
        <ele>63.6</ele>
        <time>2012-06-06T05:57:20.000Z</time>
      </trkpt>
      <trkpt lat="44.00312" lon="4.81615">
        <ele>64.5</ele>
        <time>2012-06-06T05:57:22.000Z</time>
      </trkpt>
      <trkpt lat="44.00307" lon="4.81616">
        <ele>64.1</ele>
        <time>2012-06-06T05:57:23.000Z</time>
      </trkpt>
      <trkpt lat="44.003" lon="4.81619">
        <ele>58.4</ele>
        <time>2012-06-06T05:57:25.000Z</time>
      </trkpt>
      <trkpt lat="44.00295" lon="4.81619">
        <ele>57.6</ele>
        <time>2012-06-06T05:57:26.000Z</time>
      </trkpt>
      <trkpt lat="44.00287" lon="4.81617">
        <ele>58.8</ele>
        <time>2012-06-06T05:57:27.000Z</time>
      </trkpt>
      <trkpt lat="44.00281" lon="4.81617">
        <ele>59.4</ele>
        <time>2012-06-06T05:57:28.000Z</time>
      </trkpt>
      <trkpt lat="44.00276" lon="4.81617">
        <ele>59.9</ele>
        <time>2012-06-06T05:57:29.000Z</time>
      </trkpt>
      <trkpt lat="44.0027" lon="4.81618">
        <ele>59.7</ele>
        <time>2012-06-06T05:57:30.000Z</time>
      </trkpt>
      <trkpt lat="44.00265" lon="4.8162">
        <ele>60.2</ele>
        <time>2012-06-06T05:57:31.000Z</time>
      </trkpt>
      <trkpt lat="44.00256" lon="4.81616">
        <ele>62.8</ele>
        <time>2012-06-06T05:57:32.000Z</time>
      </trkpt>
      <trkpt lat="44.0025" lon="4.81615">
        <ele>63.5</ele>
        <time>2012-06-06T05:57:33.000Z</time>
      </trkpt>
      <trkpt lat="44.00245" lon="4.81614">
        <ele>63.9</ele>
        <time>2012-06-06T05:57:34.000Z</time>
      </trkpt>
      <trkpt lat="44.0024" lon="4.81615">
        <ele>63.7</ele>
        <time>2012-06-06T05:57:35.000Z</time>
      </trkpt>
      <trkpt lat="44.00235" lon="4.81617">
        <ele>63.8</ele>
        <time>2012-06-06T05:57:36.000Z</time>
      </trkpt>
      <trkpt lat="44.00226" lon="4.81618">
        <ele>63.9</ele>
        <time>2012-06-06T05:57:38.000Z</time>
      </trkpt>
      <trkpt lat="44.00219" lon="4.81617">
        <ele>64.1</ele>
        <time>2012-06-06T05:57:39.000Z</time>
      </trkpt>
      <trkpt lat="44.00213" lon="4.81614">
        <ele>64.7</ele>
        <time>2012-06-06T05:57:40.000Z</time>
      </trkpt>
      <trkpt lat="44.00206" lon="4.81614">
        <ele>66.4</ele>
        <time>2012-06-06T05:57:41.000Z</time>
      </trkpt>
      <trkpt lat="44.00199" lon="4.81612">
        <ele>67.4</ele>
        <time>2012-06-06T05:57:42.000Z</time>
      </trkpt>
      <trkpt lat="44.00194" lon="4.81612">
        <ele>67.6</ele>
        <time>2012-06-06T05:57:43.000Z</time>
      </trkpt>
      <trkpt lat="44.00189" lon="4.81612">
        <ele>68.2</ele>
        <time>2012-06-06T05:57:44.000Z</time>
      </trkpt>
      <trkpt lat="44.00183" lon="4.81613">
        <ele>68.3</ele>
        <time>2012-06-06T05:57:45.000Z</time>
      </trkpt>
      <trkpt lat="44.00173" lon="4.81614">
        <ele>68.5</ele>
        <time>2012-06-06T05:57:47.000Z</time>
      </trkpt>
      <trkpt lat="44.00168" lon="4.81614">
        <ele>68.8</ele>
        <time>2012-06-06T05:57:48.000Z</time>
      </trkpt>
      <trkpt lat="44.00163" lon="4.81614">
        <ele>67.6</ele>
        <time>2012-06-06T05:57:49.000Z</time>
      </trkpt>
      <trkpt lat="44.00157" lon="4.81615">
        <ele>68.2</ele>
        <time>2012-06-06T05:57:50.000Z</time>
      </trkpt>
      <trkpt lat="44.00148" lon="4.81617">
        <ele>68.4</ele>
        <time>2012-06-06T05:57:52.000Z</time>
      </trkpt>
      <trkpt lat="44.00143" lon="4.81618">
        <ele>67.7</ele>
        <time>2012-06-06T05:57:53.000Z</time>
      </trkpt>
      <trkpt lat="44.00138" lon="4.8162">
        <ele>67.4</ele>
        <time>2012-06-06T05:57:54.000Z</time>
      </trkpt>
      <trkpt lat="44.00133" lon="4.81621">
        <ele>69</ele>
        <time>2012-06-06T05:57:55.000Z</time>
      </trkpt>
      <trkpt lat="44.00128" lon="4.81622">
        <ele>69.3</ele>
        <time>2012-06-06T05:57:56.000Z</time>
      </trkpt>
      <trkpt lat="44.00122" lon="4.81623">
        <ele>67.1</ele>
        <time>2012-06-06T05:57:57.000Z</time>
      </trkpt>
      <trkpt lat="44.00117" lon="4.81623">
        <ele>66.8</ele>
        <time>2012-06-06T05:57:58.000Z</time>
      </trkpt>
      <trkpt lat="44.00112" lon="4.81624">
        <ele>67.5</ele>
        <time>2012-06-06T05:57:59.000Z</time>
      </trkpt>
      <trkpt lat="44.00106" lon="4.81624">
        <ele>65</ele>
        <time>2012-06-06T05:58:00.000Z</time>
      </trkpt>
      <trkpt lat="44.00101" lon="4.81625">
        <ele>64.4</ele>
        <time>2012-06-06T05:58:01.000Z</time>
      </trkpt>
      <trkpt lat="44.00096" lon="4.81626">
        <ele>64.2</ele>
        <time>2012-06-06T05:58:02.000Z</time>
      </trkpt>
      <trkpt lat="44.00091" lon="4.81627">
        <ele>64</ele>
        <time>2012-06-06T05:58:03.000Z</time>
      </trkpt>
      <trkpt lat="44.00086" lon="4.81629">
        <ele>64.1</ele>
        <time>2012-06-06T05:58:04.000Z</time>
      </trkpt>
      <trkpt lat="44.00081" lon="4.8163">
        <ele>63.9</ele>
        <time>2012-06-06T05:58:05.000Z</time>
      </trkpt>
      <trkpt lat="44.00076" lon="4.81632">
        <ele>64.1</ele>
        <time>2012-06-06T05:58:06.000Z</time>
      </trkpt>
      <trkpt lat="44.00071" lon="4.81633">
        <ele>64.1</ele>
        <time>2012-06-06T05:58:07.000Z</time>
      </trkpt>
      <trkpt lat="44.00065" lon="4.81634">
        <ele>63.5</ele>
        <time>2012-06-06T05:58:08.000Z</time>
      </trkpt>
      <trkpt lat="44.0006" lon="4.81635">
        <ele>63.2</ele>
        <time>2012-06-06T05:58:09.000Z</time>
      </trkpt>
      <trkpt lat="44.00055" lon="4.81636">
        <ele>62.4</ele>
        <time>2012-06-06T05:58:10.000Z</time>
      </trkpt>
      <trkpt lat="44.0005" lon="4.81639">
        <ele>63.3</ele>
        <time>2012-06-06T05:58:11.000Z</time>
      </trkpt>
      <trkpt lat="44.0004" lon="4.8164">
        <ele>62.4</ele>
        <time>2012-06-06T05:58:13.000Z</time>
      </trkpt>
      <trkpt lat="44.00035" lon="4.81642">
        <ele>62</ele>
        <time>2012-06-06T05:58:14.000Z</time>
      </trkpt>
      <trkpt lat="44.0003" lon="4.81643">
        <ele>62.1</ele>
        <time>2012-06-06T05:58:15.000Z</time>
      </trkpt>
      <trkpt lat="44.00026" lon="4.81644">
        <ele>62</ele>
        <time>2012-06-06T05:58:16.000Z</time>
      </trkpt>
      <trkpt lat="44.00019" lon="4.81642">
        <ele>62</ele>
        <time>2012-06-06T05:58:18.000Z</time>
      </trkpt>
      <trkpt lat="44.00014" lon="4.81638">
        <ele>61.9</ele>
        <time>2012-06-06T05:58:20.000Z</time>
      </trkpt>
      <trkpt lat="44.00009" lon="4.81631">
        <ele>62.4</ele>
        <time>2012-06-06T05:58:22.000Z</time>
      </trkpt>
      <trkpt lat="44.00007" lon="4.81622">
        <ele>62.7</ele>
        <time>2012-06-06T05:58:24.000Z</time>
      </trkpt>
      <trkpt lat="44.00002" lon="4.81616">
        <ele>63.2</ele>
        <time>2012-06-06T05:58:26.000Z</time>
      </trkpt>
      <trkpt lat="43.99996" lon="4.81608">
        <ele>63.1</ele>
        <time>2012-06-06T05:58:28.000Z</time>
      </trkpt>
      <trkpt lat="43.99991" lon="4.816">
        <ele>62.8</ele>
        <time>2012-06-06T05:58:30.000Z</time>
      </trkpt>
      <trkpt lat="43.99985" lon="4.81594">
        <ele>62.2</ele>
        <time>2012-06-06T05:58:32.000Z</time>
      </trkpt>
      <trkpt lat="43.99981" lon="4.81589">
        <ele>61.4</ele>
        <time>2012-06-06T05:58:33.000Z</time>
      </trkpt>
      <trkpt lat="43.99974" lon="4.81582">
        <ele>61.4</ele>
        <time>2012-06-06T05:58:35.000Z</time>
      </trkpt>
      <trkpt lat="43.99969" lon="4.81575">
        <ele>60.7</ele>
        <time>2012-06-06T05:58:37.000Z</time>
      </trkpt>
      <trkpt lat="43.99964" lon="4.8157">
        <ele>59.6</ele>
        <time>2012-06-06T05:58:39.000Z</time>
      </trkpt>
      <trkpt lat="43.9996" lon="4.81565">
        <ele>58.8</ele>
        <time>2012-06-06T05:58:40.000Z</time>
      </trkpt>
      <trkpt lat="43.99954" lon="4.81556">
        <ele>58.4</ele>
        <time>2012-06-06T05:58:42.000Z</time>
      </trkpt>
      <trkpt lat="43.9995" lon="4.81551">
        <ele>58.5</ele>
        <time>2012-06-06T05:58:43.000Z</time>
      </trkpt>
      <trkpt lat="43.99944" lon="4.81541">
        <ele>57.9</ele>
        <time>2012-06-06T05:58:45.000Z</time>
      </trkpt>
      <trkpt lat="43.9994" lon="4.81536">
        <ele>57.6</ele>
        <time>2012-06-06T05:58:46.000Z</time>
      </trkpt>
      <trkpt lat="43.99934" lon="4.81527">
        <ele>57.1</ele>
        <time>2012-06-06T05:58:48.000Z</time>
      </trkpt>
      <trkpt lat="43.99931" lon="4.81522">
        <ele>56.8</ele>
        <time>2012-06-06T05:58:49.000Z</time>
      </trkpt>
      <trkpt lat="43.99928" lon="4.81517">
        <ele>56.7</ele>
        <time>2012-06-06T05:58:50.000Z</time>
      </trkpt>
      <trkpt lat="43.99925" lon="4.81512">
        <ele>56.4</ele>
        <time>2012-06-06T05:58:51.000Z</time>
      </trkpt>
      <trkpt lat="43.99919" lon="4.81502">
        <ele>57.1</ele>
        <time>2012-06-06T05:58:53.000Z</time>
      </trkpt>
      <trkpt lat="43.99915" lon="4.81498">
        <ele>57.3</ele>
        <time>2012-06-06T05:58:54.000Z</time>
      </trkpt>
      <trkpt lat="43.99909" lon="4.81489">
        <ele>56.8</ele>
        <time>2012-06-06T05:58:56.000Z</time>
      </trkpt>
      <trkpt lat="43.99903" lon="4.81482">
        <ele>56.6</ele>
        <time>2012-06-06T05:58:58.000Z</time>
      </trkpt>
      <trkpt lat="43.999" lon="4.81476">
        <ele>55.9</ele>
        <time>2012-06-06T05:58:59.000Z</time>
      </trkpt>
      <trkpt lat="43.99896" lon="4.8147">
        <ele>58.3</ele>
        <time>2012-06-06T05:59:00.000Z</time>
      </trkpt>
      <trkpt lat="43.99893" lon="4.81465">
        <ele>57.4</ele>
        <time>2012-06-06T05:59:01.000Z</time>
      </trkpt>
      <trkpt lat="43.99889" lon="4.8146">
        <ele>60.3</ele>
        <time>2012-06-06T05:59:02.000Z</time>
      </trkpt>
      <trkpt lat="43.99884" lon="4.81454">
        <ele>61.2</ele>
        <time>2012-06-06T05:59:03.000Z</time>
      </trkpt>
      <trkpt lat="43.99881" lon="4.81449">
        <ele>61.9</ele>
        <time>2012-06-06T05:59:04.000Z</time>
      </trkpt>
      <trkpt lat="43.99878" lon="4.81444">
        <ele>62.3</ele>
        <time>2012-06-06T05:59:05.000Z</time>
      </trkpt>
      <trkpt lat="43.99874" lon="4.81439">
        <ele>62.5</ele>
        <time>2012-06-06T05:59:06.000Z</time>
      </trkpt>
      <trkpt lat="43.99871" lon="4.81432">
        <ele>62.3</ele>
        <time>2012-06-06T05:59:07.000Z</time>
      </trkpt>
      <trkpt lat="43.99868" lon="4.81427">
        <ele>62.4</ele>
        <time>2012-06-06T05:59:08.000Z</time>
      </trkpt>
      <trkpt lat="43.99864" lon="4.81421">
        <ele>62.3</ele>
        <time>2012-06-06T05:59:09.000Z</time>
      </trkpt>
      <trkpt lat="43.9986" lon="4.81415">
        <ele>62.1</ele>
        <time>2012-06-06T05:59:10.000Z</time>
      </trkpt>
      <trkpt lat="43.99857" lon="4.81409">
        <ele>61.5</ele>
        <time>2012-06-06T05:59:11.000Z</time>
      </trkpt>
      <trkpt lat="43.99853" lon="4.81402">
        <ele>62.4</ele>
        <time>2012-06-06T05:59:12.000Z</time>
      </trkpt>
      <trkpt lat="43.99849" lon="4.81396">
        <ele>62.8</ele>
        <time>2012-06-06T05:59:13.000Z</time>
      </trkpt>
      <trkpt lat="43.99846" lon="4.8139">
        <ele>62.7</ele>
        <time>2012-06-06T05:59:14.000Z</time>
      </trkpt>
      <trkpt lat="43.99843" lon="4.81384">
        <ele>62.3</ele>
        <time>2012-06-06T05:59:15.000Z</time>
      </trkpt>
      <trkpt lat="43.9984" lon="4.81378">
        <ele>62.5</ele>
        <time>2012-06-06T05:59:16.000Z</time>
      </trkpt>
      <trkpt lat="43.99836" lon="4.81373">
        <ele>62.5</ele>
        <time>2012-06-06T05:59:17.000Z</time>
      </trkpt>
      <trkpt lat="43.99832" lon="4.81367">
        <ele>62.3</ele>
        <time>2012-06-06T05:59:18.000Z</time>
      </trkpt>
      <trkpt lat="43.99829" lon="4.81361">
        <ele>61.7</ele>
        <time>2012-06-06T05:59:19.000Z</time>
      </trkpt>
      <trkpt lat="43.99824" lon="4.81355">
        <ele>62</ele>
        <time>2012-06-06T05:59:20.000Z</time>
      </trkpt>
      <trkpt lat="43.99821" lon="4.8135">
        <ele>61.5</ele>
        <time>2012-06-06T05:59:21.000Z</time>
      </trkpt>
      <trkpt lat="43.99818" lon="4.81345">
        <ele>61.7</ele>
        <time>2012-06-06T05:59:22.000Z</time>
      </trkpt>
      <trkpt lat="43.99811" lon="4.81337">
        <ele>62</ele>
        <time>2012-06-06T05:59:24.000Z</time>
      </trkpt>
      <trkpt lat="43.99808" lon="4.81332">
        <ele>62.3</ele>
        <time>2012-06-06T05:59:25.000Z</time>
      </trkpt>
      <trkpt lat="43.99806" lon="4.81326">
        <ele>62.5</ele>
        <time>2012-06-06T05:59:26.000Z</time>
      </trkpt>
      <trkpt lat="43.99802" lon="4.81322">
        <ele>62.9</ele>
        <time>2012-06-06T05:59:27.000Z</time>
      </trkpt>
      <trkpt lat="43.99799" lon="4.81316">
        <ele>62.7</ele>
        <time>2012-06-06T05:59:28.000Z</time>
      </trkpt>
      <trkpt lat="43.99796" lon="4.81311">
        <ele>62.9</ele>
        <time>2012-06-06T05:59:29.000Z</time>
      </trkpt>
      <trkpt lat="43.9979" lon="4.81303">
        <ele>62.8</ele>
        <time>2012-06-06T05:59:31.000Z</time>
      </trkpt>
      <trkpt lat="43.99784" lon="4.81295">
        <ele>62.9</ele>
        <time>2012-06-06T05:59:33.000Z</time>
      </trkpt>
      <trkpt lat="43.99778" lon="4.81286">
        <ele>64.3</ele>
        <time>2012-06-06T05:59:35.000Z</time>
      </trkpt>
      <trkpt lat="43.99771" lon="4.81278">
        <ele>65</ele>
        <time>2012-06-06T05:59:37.000Z</time>
      </trkpt>
      <trkpt lat="43.99767" lon="4.81273">
        <ele>65.1</ele>
        <time>2012-06-06T05:59:38.000Z</time>
      </trkpt>
      <trkpt lat="43.9976" lon="4.81266">
        <ele>65.2</ele>
        <time>2012-06-06T05:59:40.000Z</time>
      </trkpt>
      <trkpt lat="43.99754" lon="4.81266">
        <ele>65.2</ele>
        <time>2012-06-06T05:59:42.000Z</time>
      </trkpt>
      <trkpt lat="43.99748" lon="4.81266">
        <ele>65.4</ele>
        <time>2012-06-06T05:59:44.000Z</time>
      </trkpt>
      <trkpt lat="43.9974" lon="4.81267">
        <ele>65</ele>
        <time>2012-06-06T05:59:46.000Z</time>
      </trkpt>
      <trkpt lat="43.99732" lon="4.81267">
        <ele>65.4</ele>
        <time>2012-06-06T05:59:48.000Z</time>
      </trkpt>
      <trkpt lat="43.99724" lon="4.81269">
        <ele>64.7</ele>
        <time>2012-06-06T05:59:50.000Z</time>
      </trkpt>
      <trkpt lat="43.99717" lon="4.8127">
        <ele>64.4</ele>
        <time>2012-06-06T05:59:52.000Z</time>
      </trkpt>
      <trkpt lat="43.9971" lon="4.8127">
        <ele>63.8</ele>
        <time>2012-06-06T05:59:54.000Z</time>
      </trkpt>
      <trkpt lat="43.99701" lon="4.8127">
        <ele>63.7</ele>
        <time>2012-06-06T05:59:56.000Z</time>
      </trkpt>
      <trkpt lat="43.99695" lon="4.8127">
        <ele>64.3</ele>
        <time>2012-06-06T05:59:57.000Z</time>
      </trkpt>
      <trkpt lat="43.9969" lon="4.81272">
        <ele>64.3</ele>
        <time>2012-06-06T05:59:58.000Z</time>
      </trkpt>
      <trkpt lat="43.99685" lon="4.81274">
        <ele>64.9</ele>
        <time>2012-06-06T05:59:59.000Z</time>
      </trkpt>
      <trkpt lat="43.9968" lon="4.81274">
        <ele>64.9</ele>
        <time>2012-06-06T06:00:00.000Z</time>
      </trkpt>
      <trkpt lat="43.99669" lon="4.81277">
        <ele>65</ele>
        <time>2012-06-06T06:00:02.000Z</time>
      </trkpt>
      <trkpt lat="43.99668" lon="4.81284">
        <ele>67</ele>
        <time>2012-06-06T06:00:03.000Z</time>
      </trkpt>
      <trkpt lat="43.99662" lon="4.81291">
        <ele>66.2</ele>
        <time>2012-06-06T06:00:05.000Z</time>
      </trkpt>
      <trkpt lat="43.99659" lon="4.81297">
        <ele>66.4</ele>
        <time>2012-06-06T06:00:07.000Z</time>
      </trkpt>
      <trkpt lat="43.99657" lon="4.81306">
        <ele>65.8</ele>
        <time>2012-06-06T06:00:10.000Z</time>
      </trkpt>
      <trkpt lat="43.99656" lon="4.81314">
        <ele>65.2</ele>
        <time>2012-06-06T06:00:12.000Z</time>
      </trkpt>
      <trkpt lat="43.99657" lon="4.81321">
        <ele>64.2</ele>
        <time>2012-06-06T06:00:14.000Z</time>
      </trkpt>
      <trkpt lat="43.99652" lon="4.81326">
        <ele>64.2</ele>
        <time>2012-06-06T06:00:15.000Z</time>
      </trkpt>
      <trkpt lat="43.99647" lon="4.81334">
        <ele>64.8</ele>
        <time>2012-06-06T06:00:17.000Z</time>
      </trkpt>
      <trkpt lat="43.99646" lon="4.81344">
        <ele>66.4</ele>
        <time>2012-06-06T06:00:19.000Z</time>
      </trkpt>
      <trkpt lat="43.99646" lon="4.81352">
        <ele>66.8</ele>
        <time>2012-06-06T06:00:21.000Z</time>
      </trkpt>
      <trkpt lat="43.99645" lon="4.81359">
        <ele>68.6</ele>
        <time>2012-06-06T06:00:22.000Z</time>
      </trkpt>
      <trkpt lat="43.99646" lon="4.81368">
        <ele>69.7</ele>
        <time>2012-06-06T06:00:24.000Z</time>
      </trkpt>
      <trkpt lat="43.99648" lon="4.81378">
        <ele>69.4</ele>
        <time>2012-06-06T06:00:26.000Z</time>
      </trkpt>
      <trkpt lat="43.9965" lon="4.81385">
        <ele>69</ele>
        <time>2012-06-06T06:00:28.000Z</time>
      </trkpt>
      <trkpt lat="43.99653" lon="4.81394">
        <ele>68.6</ele>
        <time>2012-06-06T06:00:30.000Z</time>
      </trkpt>
      <trkpt lat="43.99656" lon="4.81403">
        <ele>68.9</ele>
        <time>2012-06-06T06:00:32.000Z</time>
      </trkpt>
      <trkpt lat="43.99658" lon="4.81412">
        <ele>69.3</ele>
        <time>2012-06-06T06:00:34.000Z</time>
      </trkpt>
      <trkpt lat="43.9966" lon="4.81423">
        <ele>70.1</ele>
        <time>2012-06-06T06:00:36.000Z</time>
      </trkpt>
      <trkpt lat="43.9966" lon="4.81434">
        <ele>68.3</ele>
        <time>2012-06-06T06:00:38.000Z</time>
      </trkpt>
      <trkpt lat="43.99661" lon="4.81444">
        <ele>69.3</ele>
        <time>2012-06-06T06:00:40.000Z</time>
      </trkpt>
      <trkpt lat="43.99664" lon="4.81454">
        <ele>69.5</ele>
        <time>2012-06-06T06:00:42.000Z</time>
      </trkpt>
      <trkpt lat="43.99663" lon="4.81462">
        <ele>73.1</ele>
        <time>2012-06-06T06:00:43.000Z</time>
      </trkpt>
      <trkpt lat="43.99664" lon="4.81472">
        <ele>74</ele>
        <time>2012-06-06T06:00:45.000Z</time>
      </trkpt>
      <trkpt lat="43.99665" lon="4.8148">
        <ele>75</ele>
        <time>2012-06-06T06:00:47.000Z</time>
      </trkpt>
      <trkpt lat="43.99664" lon="4.81489">
        <ele>74.8</ele>
        <time>2012-06-06T06:00:49.000Z</time>
      </trkpt>
      <trkpt lat="43.99664" lon="4.81498">
        <ele>75.3</ele>
        <time>2012-06-06T06:00:51.000Z</time>
      </trkpt>
      <trkpt lat="43.99663" lon="4.81507">
        <ele>76.2</ele>
        <time>2012-06-06T06:00:53.000Z</time>
      </trkpt>
      <trkpt lat="43.99661" lon="4.81517">
        <ele>76.2</ele>
        <time>2012-06-06T06:00:55.000Z</time>
      </trkpt>
      <trkpt lat="43.99659" lon="4.81526">
        <ele>76.2</ele>
        <time>2012-06-06T06:00:57.000Z</time>
      </trkpt>
      <trkpt lat="43.99657" lon="4.81534">
        <ele>75.3</ele>
        <time>2012-06-06T06:00:59.000Z</time>
      </trkpt>
      <trkpt lat="43.99654" lon="4.81544">
        <ele>75.7</ele>
        <time>2012-06-06T06:01:01.000Z</time>
      </trkpt>
      <trkpt lat="43.99652" lon="4.81553">
        <ele>76.4</ele>
        <time>2012-06-06T06:01:03.000Z</time>
      </trkpt>
      <trkpt lat="43.99648" lon="4.8156">
        <ele>76.4</ele>
        <time>2012-06-06T06:01:05.000Z</time>
      </trkpt>
      <trkpt lat="43.99645" lon="4.81569">
        <ele>75.4</ele>
        <time>2012-06-06T06:01:07.000Z</time>
      </trkpt>
      <trkpt lat="43.99642" lon="4.81577">
        <ele>75.3</ele>
        <time>2012-06-06T06:01:09.000Z</time>
      </trkpt>
      <trkpt lat="43.9964" lon="4.81584">
        <ele>76.3</ele>
        <time>2012-06-06T06:01:11.000Z</time>
      </trkpt>
      <trkpt lat="43.99637" lon="4.81592">
        <ele>76.7</ele>
        <time>2012-06-06T06:01:13.000Z</time>
      </trkpt>
      <trkpt lat="43.99635" lon="4.81598">
        <ele>76.6</ele>
        <time>2012-06-06T06:01:15.000Z</time>
      </trkpt>
      <trkpt lat="43.99632" lon="4.81606">
        <ele>76.9</ele>
        <time>2012-06-06T06:01:17.000Z</time>
      </trkpt>
      <trkpt lat="43.99628" lon="4.81613">
        <ele>77.2</ele>
        <time>2012-06-06T06:01:19.000Z</time>
      </trkpt>
      <trkpt lat="43.99626" lon="4.81621">
        <ele>77.4</ele>
        <time>2012-06-06T06:01:21.000Z</time>
      </trkpt>
      <trkpt lat="43.99623" lon="4.81628">
        <ele>77.8</ele>
        <time>2012-06-06T06:01:23.000Z</time>
      </trkpt>
      <trkpt lat="43.9962" lon="4.81636">
        <ele>78.8</ele>
        <time>2012-06-06T06:01:25.000Z</time>
      </trkpt>
      <trkpt lat="43.99617" lon="4.81644">
        <ele>79.2</ele>
        <time>2012-06-06T06:01:27.000Z</time>
      </trkpt>
      <trkpt lat="43.99614" lon="4.81651">
        <ele>79.5</ele>
        <time>2012-06-06T06:01:29.000Z</time>
      </trkpt>
      <trkpt lat="43.99612" lon="4.81657">
        <ele>79.7</ele>
        <time>2012-06-06T06:01:31.000Z</time>
      </trkpt>
      <trkpt lat="43.99607" lon="4.81664">
        <ele>79.9</ele>
        <time>2012-06-06T06:01:33.000Z</time>
      </trkpt>
      <trkpt lat="43.99605" lon="4.81672">
        <ele>81</ele>
        <time>2012-06-06T06:01:35.000Z</time>
      </trkpt>
      <trkpt lat="43.99602" lon="4.8168">
        <ele>80.7</ele>
        <time>2012-06-06T06:01:37.000Z</time>
      </trkpt>
      <trkpt lat="43.99599" lon="4.81689">
        <ele>80.6</ele>
        <time>2012-06-06T06:01:39.000Z</time>
      </trkpt>
      <trkpt lat="43.99597" lon="4.81696">
        <ele>81.3</ele>
        <time>2012-06-06T06:01:41.000Z</time>
      </trkpt>
      <trkpt lat="43.99594" lon="4.81703">
        <ele>81.4</ele>
        <time>2012-06-06T06:01:43.000Z</time>
      </trkpt>
      <trkpt lat="43.99591" lon="4.8171">
        <ele>82</ele>
        <time>2012-06-06T06:01:45.000Z</time>
      </trkpt>
      <trkpt lat="43.99587" lon="4.81718">
        <ele>82.1</ele>
        <time>2012-06-06T06:01:47.000Z</time>
      </trkpt>
      <trkpt lat="43.99584" lon="4.81724">
        <ele>82.2</ele>
        <time>2012-06-06T06:01:49.000Z</time>
      </trkpt>
      <trkpt lat="43.99579" lon="4.81732">
        <ele>79.8</ele>
        <time>2012-06-06T06:01:51.000Z</time>
      </trkpt>
      <trkpt lat="43.99576" lon="4.8174">
        <ele>79.7</ele>
        <time>2012-06-06T06:01:53.000Z</time>
      </trkpt>
      <trkpt lat="43.99572" lon="4.81748">
        <ele>79.3</ele>
        <time>2012-06-06T06:01:55.000Z</time>
      </trkpt>
      <trkpt lat="43.99568" lon="4.81756">
        <ele>79.7</ele>
        <time>2012-06-06T06:01:57.000Z</time>
      </trkpt>
      <trkpt lat="43.99564" lon="4.81765">
        <ele>79.2</ele>
        <time>2012-06-06T06:01:59.000Z</time>
      </trkpt>
      <trkpt lat="43.99561" lon="4.81777">
        <ele>79.2</ele>
        <time>2012-06-06T06:02:01.000Z</time>
      </trkpt>
      <trkpt lat="43.99558" lon="4.81786">
        <ele>80.4</ele>
        <time>2012-06-06T06:02:03.000Z</time>
      </trkpt>
      <trkpt lat="43.99555" lon="4.81796">
        <ele>80.7</ele>
        <time>2012-06-06T06:02:05.000Z</time>
      </trkpt>
      <trkpt lat="43.99554" lon="4.81802">
        <ele>81.7</ele>
        <time>2012-06-06T06:02:06.000Z</time>
      </trkpt>
      <trkpt lat="43.9955" lon="4.81812">
        <ele>83</ele>
        <time>2012-06-06T06:02:08.000Z</time>
      </trkpt>
      <trkpt lat="43.99547" lon="4.81819">
        <ele>83.2</ele>
        <time>2012-06-06T06:02:10.000Z</time>
      </trkpt>
      <trkpt lat="43.99543" lon="4.81827">
        <ele>83.5</ele>
        <time>2012-06-06T06:02:12.000Z</time>
      </trkpt>
      <trkpt lat="43.99539" lon="4.81835">
        <ele>84</ele>
        <time>2012-06-06T06:02:14.000Z</time>
      </trkpt>
      <trkpt lat="43.99537" lon="4.81844">
        <ele>84.5</ele>
        <time>2012-06-06T06:02:16.000Z</time>
      </trkpt>
      <trkpt lat="43.99533" lon="4.81853">
        <ele>84.8</ele>
        <time>2012-06-06T06:02:18.000Z</time>
      </trkpt>
      <trkpt lat="43.9953" lon="4.8186">
        <ele>84.1</ele>
        <time>2012-06-06T06:02:20.000Z</time>
      </trkpt>
      <trkpt lat="43.99528" lon="4.81868">
        <ele>85.3</ele>
        <time>2012-06-06T06:02:22.000Z</time>
      </trkpt>
      <trkpt lat="43.99527" lon="4.81878">
        <ele>87.1</ele>
        <time>2012-06-06T06:02:24.000Z</time>
      </trkpt>
      <trkpt lat="43.99525" lon="4.81886">
        <ele>86.4</ele>
        <time>2012-06-06T06:02:26.000Z</time>
      </trkpt>
      <trkpt lat="43.99524" lon="4.81895">
        <ele>86.8</ele>
        <time>2012-06-06T06:02:28.000Z</time>
      </trkpt>
      <trkpt lat="43.99523" lon="4.81905">
        <ele>86.7</ele>
        <time>2012-06-06T06:02:30.000Z</time>
      </trkpt>
      <trkpt lat="43.99522" lon="4.81913">
        <ele>86.9</ele>
        <time>2012-06-06T06:02:32.000Z</time>
      </trkpt>
      <trkpt lat="43.99521" lon="4.81919">
        <ele>87.4</ele>
        <time>2012-06-06T06:02:33.000Z</time>
      </trkpt>
      <trkpt lat="43.99521" lon="4.81929">
        <ele>87.7</ele>
        <time>2012-06-06T06:02:35.000Z</time>
      </trkpt>
      <trkpt lat="43.9952" lon="4.81939">
        <ele>87.5</ele>
        <time>2012-06-06T06:02:37.000Z</time>
      </trkpt>
      <trkpt lat="43.9952" lon="4.81948">
        <ele>87.7</ele>
        <time>2012-06-06T06:02:39.000Z</time>
      </trkpt>
      <trkpt lat="43.99519" lon="4.81958">
        <ele>87.4</ele>
        <time>2012-06-06T06:02:41.000Z</time>
      </trkpt>
      <trkpt lat="43.99518" lon="4.81966">
        <ele>88</ele>
        <time>2012-06-06T06:02:43.000Z</time>
      </trkpt>
      <trkpt lat="43.99518" lon="4.81974">
        <ele>89.1</ele>
        <time>2012-06-06T06:02:45.000Z</time>
      </trkpt>
      <trkpt lat="43.99518" lon="4.81982">
        <ele>89.8</ele>
        <time>2012-06-06T06:02:47.000Z</time>
      </trkpt>
      <trkpt lat="43.99516" lon="4.8199">
        <ele>90.2</ele>
        <time>2012-06-06T06:02:49.000Z</time>
      </trkpt>
      <trkpt lat="43.99515" lon="4.81998">
        <ele>90.9</ele>
        <time>2012-06-06T06:02:51.000Z</time>
      </trkpt>
      <trkpt lat="43.99514" lon="4.82006">
        <ele>91.2</ele>
        <time>2012-06-06T06:02:53.000Z</time>
      </trkpt>
      <trkpt lat="43.99514" lon="4.82016">
        <ele>91.1</ele>
        <time>2012-06-06T06:02:55.000Z</time>
      </trkpt>
      <trkpt lat="43.99514" lon="4.82024">
        <ele>89.5</ele>
        <time>2012-06-06T06:02:57.000Z</time>
      </trkpt>
      <trkpt lat="43.99514" lon="4.82034">
        <ele>88.9</ele>
        <time>2012-06-06T06:02:59.000Z</time>
      </trkpt>
      <trkpt lat="43.99513" lon="4.82043">
        <ele>88</ele>
        <time>2012-06-06T06:03:01.000Z</time>
      </trkpt>
      <trkpt lat="43.99513" lon="4.82052">
        <ele>88.3</ele>
        <time>2012-06-06T06:03:03.000Z</time>
      </trkpt>
      <trkpt lat="43.99512" lon="4.82062">
        <ele>88.9</ele>
        <time>2012-06-06T06:03:05.000Z</time>
      </trkpt>
      <trkpt lat="43.99511" lon="4.82072">
        <ele>88.6</ele>
        <time>2012-06-06T06:03:07.000Z</time>
      </trkpt>
      <trkpt lat="43.9951" lon="4.82082">
        <ele>87.5</ele>
        <time>2012-06-06T06:03:09.000Z</time>
      </trkpt>
      <trkpt lat="43.9951" lon="4.82093">
        <ele>86.8</ele>
        <time>2012-06-06T06:03:11.000Z</time>
      </trkpt>
      <trkpt lat="43.99509" lon="4.82105">
        <ele>86.4</ele>
        <time>2012-06-06T06:03:13.000Z</time>
      </trkpt>
      <trkpt lat="43.99508" lon="4.82111">
        <ele>86.2</ele>
        <time>2012-06-06T06:03:14.000Z</time>
      </trkpt>
      <trkpt lat="43.99508" lon="4.82118">
        <ele>85.4</ele>
        <time>2012-06-06T06:03:15.000Z</time>
      </trkpt>
      <trkpt lat="43.99507" lon="4.82124">
        <ele>85.4</ele>
        <time>2012-06-06T06:03:16.000Z</time>
      </trkpt>
      <trkpt lat="43.99507" lon="4.82131">
        <ele>84.8</ele>
        <time>2012-06-06T06:03:17.000Z</time>
      </trkpt>
      <trkpt lat="43.99506" lon="4.82138">
        <ele>84.6</ele>
        <time>2012-06-06T06:03:18.000Z</time>
      </trkpt>
      <trkpt lat="43.99506" lon="4.82146">
        <ele>84.2</ele>
        <time>2012-06-06T06:03:19.000Z</time>
      </trkpt>
      <trkpt lat="43.99505" lon="4.82154">
        <ele>84</ele>
        <time>2012-06-06T06:03:20.000Z</time>
      </trkpt>
      <trkpt lat="43.99504" lon="4.82161">
        <ele>83.5</ele>
        <time>2012-06-06T06:03:21.000Z</time>
      </trkpt>
      <trkpt lat="43.99503" lon="4.8217">
        <ele>83.1</ele>
        <time>2012-06-06T06:03:22.000Z</time>
      </trkpt>
      <trkpt lat="43.99503" lon="4.82178">
        <ele>82.7</ele>
        <time>2012-06-06T06:03:23.000Z</time>
      </trkpt>
      <trkpt lat="43.99502" lon="4.82186">
        <ele>82.5</ele>
        <time>2012-06-06T06:03:24.000Z</time>
      </trkpt>
      <trkpt lat="43.99501" lon="4.82196">
        <ele>82.1</ele>
        <time>2012-06-06T06:03:25.000Z</time>
      </trkpt>
      <trkpt lat="43.995" lon="4.82205">
        <ele>82</ele>
        <time>2012-06-06T06:03:26.000Z</time>
      </trkpt>
      <trkpt lat="43.995" lon="4.82215">
        <ele>81.3</ele>
        <time>2012-06-06T06:03:27.000Z</time>
      </trkpt>
      <trkpt lat="43.99498" lon="4.82225">
        <ele>81.1</ele>
        <time>2012-06-06T06:03:28.000Z</time>
      </trkpt>
      <trkpt lat="43.99497" lon="4.82236">
        <ele>80.3</ele>
        <time>2012-06-06T06:03:29.000Z</time>
      </trkpt>
      <trkpt lat="43.99496" lon="4.82247">
        <ele>79.9</ele>
        <time>2012-06-06T06:03:30.000Z</time>
      </trkpt>
      <trkpt lat="43.99495" lon="4.82258">
        <ele>79.4</ele>
        <time>2012-06-06T06:03:31.000Z</time>
      </trkpt>
      <trkpt lat="43.99494" lon="4.82269">
        <ele>79.4</ele>
        <time>2012-06-06T06:03:32.000Z</time>
      </trkpt>
      <trkpt lat="43.99492" lon="4.8228">
        <ele>79.2</ele>
        <time>2012-06-06T06:03:33.000Z</time>
      </trkpt>
      <trkpt lat="43.99491" lon="4.82292">
        <ele>79.2</ele>
        <time>2012-06-06T06:03:34.000Z</time>
      </trkpt>
      <trkpt lat="43.99489" lon="4.82303">
        <ele>79.2</ele>
        <time>2012-06-06T06:03:35.000Z</time>
      </trkpt>
      <trkpt lat="43.99486" lon="4.82314">
        <ele>79.2</ele>
        <time>2012-06-06T06:03:36.000Z</time>
      </trkpt>
      <trkpt lat="43.99482" lon="4.82323">
        <ele>79.2</ele>
        <time>2012-06-06T06:03:37.000Z</time>
      </trkpt>
      <trkpt lat="43.99475" lon="4.82331">
        <ele>79</ele>
        <time>2012-06-06T06:03:38.000Z</time>
      </trkpt>
      <trkpt lat="43.99469" lon="4.82337">
        <ele>79</ele>
        <time>2012-06-06T06:03:39.000Z</time>
      </trkpt>
      <trkpt lat="43.99461" lon="4.82338">
        <ele>78.7</ele>
        <time>2012-06-06T06:03:40.000Z</time>
      </trkpt>
      <trkpt lat="43.99454" lon="4.82339">
        <ele>78.6</ele>
        <time>2012-06-06T06:03:41.000Z</time>
      </trkpt>
      <trkpt lat="43.99447" lon="4.82339">
        <ele>78.3</ele>
        <time>2012-06-06T06:03:42.000Z</time>
      </trkpt>
      <trkpt lat="43.9944" lon="4.82337">
        <ele>78.1</ele>
        <time>2012-06-06T06:03:43.000Z</time>
      </trkpt>
      <trkpt lat="43.99432" lon="4.82337">
        <ele>78.1</ele>
        <time>2012-06-06T06:03:44.000Z</time>
      </trkpt>
      <trkpt lat="43.99426" lon="4.82335">
        <ele>77.8</ele>
        <time>2012-06-06T06:03:45.000Z</time>
      </trkpt>
      <trkpt lat="43.99419" lon="4.82334">
        <ele>77.4</ele>
        <time>2012-06-06T06:03:46.000Z</time>
      </trkpt>
      <trkpt lat="43.99412" lon="4.82332">
        <ele>77.2</ele>
        <time>2012-06-06T06:03:47.000Z</time>
      </trkpt>
      <trkpt lat="43.99404" lon="4.82331">
        <ele>77</ele>
        <time>2012-06-06T06:03:48.000Z</time>
      </trkpt>
      <trkpt lat="43.99396" lon="4.82329">
        <ele>76.7</ele>
        <time>2012-06-06T06:03:49.000Z</time>
      </trkpt>
      <trkpt lat="43.99389" lon="4.82327">
        <ele>76.8</ele>
        <time>2012-06-06T06:03:50.000Z</time>
      </trkpt>
      <trkpt lat="43.99382" lon="4.82325">
        <ele>76.4</ele>
        <time>2012-06-06T06:03:51.000Z</time>
      </trkpt>
      <trkpt lat="43.99375" lon="4.82321">
        <ele>75.8</ele>
        <time>2012-06-06T06:03:52.000Z</time>
      </trkpt>
      <trkpt lat="43.99368" lon="4.82317">
        <ele>75.6</ele>
        <time>2012-06-06T06:03:53.000Z</time>
      </trkpt>
      <trkpt lat="43.9936" lon="4.82315">
        <ele>75.4</ele>
        <time>2012-06-06T06:03:54.000Z</time>
      </trkpt>
      <trkpt lat="43.99352" lon="4.82312">
        <ele>74.5</ele>
        <time>2012-06-06T06:03:55.000Z</time>
      </trkpt>
      <trkpt lat="43.99345" lon="4.82312">
        <ele>74.1</ele>
        <time>2012-06-06T06:03:56.000Z</time>
      </trkpt>
      <trkpt lat="43.99338" lon="4.8231">
        <ele>73.9</ele>
        <time>2012-06-06T06:03:57.000Z</time>
      </trkpt>
      <trkpt lat="43.99332" lon="4.8231">
        <ele>74.1</ele>
        <time>2012-06-06T06:03:58.000Z</time>
      </trkpt>
      <trkpt lat="43.99325" lon="4.8231">
        <ele>74.1</ele>
        <time>2012-06-06T06:03:59.000Z</time>
      </trkpt>
      <trkpt lat="43.99319" lon="4.82309">
        <ele>73.8</ele>
        <time>2012-06-06T06:04:00.000Z</time>
      </trkpt>
      <trkpt lat="43.99312" lon="4.82308">
        <ele>74</ele>
        <time>2012-06-06T06:04:01.000Z</time>
      </trkpt>
      <trkpt lat="43.99306" lon="4.82307">
        <ele>73.7</ele>
        <time>2012-06-06T06:04:02.000Z</time>
      </trkpt>
      <trkpt lat="43.99299" lon="4.82305">
        <ele>73.5</ele>
        <time>2012-06-06T06:04:03.000Z</time>
      </trkpt>
      <trkpt lat="43.99293" lon="4.82302">
        <ele>73.3</ele>
        <time>2012-06-06T06:04:04.000Z</time>
      </trkpt>
      <trkpt lat="43.99285" lon="4.823">
        <ele>73.5</ele>
        <time>2012-06-06T06:04:05.000Z</time>
      </trkpt>
      <trkpt lat="43.99279" lon="4.82299">
        <ele>73.6</ele>
        <time>2012-06-06T06:04:06.000Z</time>
      </trkpt>
      <trkpt lat="43.99272" lon="4.82299">
        <ele>73.5</ele>
        <time>2012-06-06T06:04:07.000Z</time>
      </trkpt>
      <trkpt lat="43.99267" lon="4.82298">
        <ele>73.2</ele>
        <time>2012-06-06T06:04:08.000Z</time>
      </trkpt>
      <trkpt lat="43.99262" lon="4.82296">
        <ele>72.6</ele>
        <time>2012-06-06T06:04:09.000Z</time>
      </trkpt>
      <trkpt lat="43.99255" lon="4.82295">
        <ele>71.8</ele>
        <time>2012-06-06T06:04:10.000Z</time>
      </trkpt>
      <trkpt lat="43.99249" lon="4.82295">
        <ele>71.6</ele>
        <time>2012-06-06T06:04:11.000Z</time>
      </trkpt>
      <trkpt lat="43.99243" lon="4.82294">
        <ele>71.5</ele>
        <time>2012-06-06T06:04:12.000Z</time>
      </trkpt>
      <trkpt lat="43.99238" lon="4.82295">
        <ele>71.2</ele>
        <time>2012-06-06T06:04:13.000Z</time>
      </trkpt>
      <trkpt lat="43.99231" lon="4.82293">
        <ele>71.5</ele>
        <time>2012-06-06T06:04:14.000Z</time>
      </trkpt>
      <trkpt lat="43.99224" lon="4.8229">
        <ele>71</ele>
        <time>2012-06-06T06:04:15.000Z</time>
      </trkpt>
      <trkpt lat="43.99219" lon="4.8229">
        <ele>70.6</ele>
        <time>2012-06-06T06:04:16.000Z</time>
      </trkpt>
      <trkpt lat="43.99212" lon="4.82289">
        <ele>70.2</ele>
        <time>2012-06-06T06:04:17.000Z</time>
      </trkpt>
      <trkpt lat="43.99206" lon="4.8229">
        <ele>69.6</ele>
        <time>2012-06-06T06:04:18.000Z</time>
      </trkpt>
      <trkpt lat="43.99201" lon="4.82292">
        <ele>69.5</ele>
        <time>2012-06-06T06:04:19.000Z</time>
      </trkpt>
      <trkpt lat="43.99196" lon="4.82294">
        <ele>69.5</ele>
        <time>2012-06-06T06:04:20.000Z</time>
      </trkpt>
      <trkpt lat="43.99189" lon="4.82292">
        <ele>69.2</ele>
        <time>2012-06-06T06:04:21.000Z</time>
      </trkpt>
      <trkpt lat="43.99183" lon="4.82293">
        <ele>68.7</ele>
        <time>2012-06-06T06:04:22.000Z</time>
      </trkpt>
      <trkpt lat="43.99176" lon="4.82289">
        <ele>68.6</ele>
        <time>2012-06-06T06:04:23.000Z</time>
      </trkpt>
      <trkpt lat="43.9917" lon="4.82289">
        <ele>68.8</ele>
        <time>2012-06-06T06:04:24.000Z</time>
      </trkpt>
      <trkpt lat="43.99165" lon="4.82288">
        <ele>69.1</ele>
        <time>2012-06-06T06:04:25.000Z</time>
      </trkpt>
      <trkpt lat="43.99159" lon="4.82289">
        <ele>69.4</ele>
        <time>2012-06-06T06:04:26.000Z</time>
      </trkpt>
      <trkpt lat="43.99152" lon="4.82286">
        <ele>69.7</ele>
        <time>2012-06-06T06:04:27.000Z</time>
      </trkpt>
      <trkpt lat="43.99145" lon="4.82286">
        <ele>69.7</ele>
        <time>2012-06-06T06:04:28.000Z</time>
      </trkpt>
      <trkpt lat="43.9914" lon="4.82283">
        <ele>69.4</ele>
        <time>2012-06-06T06:04:29.000Z</time>
      </trkpt>
      <trkpt lat="43.99134" lon="4.82278">
        <ele>69.2</ele>
        <time>2012-06-06T06:04:30.000Z</time>
      </trkpt>
      <trkpt lat="43.99129" lon="4.82275">
        <ele>69.9</ele>
        <time>2012-06-06T06:04:31.000Z</time>
      </trkpt>
      <trkpt lat="43.99124" lon="4.82273">
        <ele>69.8</ele>
        <time>2012-06-06T06:04:32.000Z</time>
      </trkpt>
      <trkpt lat="43.99117" lon="4.82272">
        <ele>70.2</ele>
        <time>2012-06-06T06:04:33.000Z</time>
      </trkpt>
      <trkpt lat="43.99112" lon="4.82271">
        <ele>70.3</ele>
        <time>2012-06-06T06:04:34.000Z</time>
      </trkpt>
      <trkpt lat="43.99105" lon="4.82267">
        <ele>70.5</ele>
        <time>2012-06-06T06:04:35.000Z</time>
      </trkpt>
      <trkpt lat="43.991" lon="4.82266">
        <ele>69.8</ele>
        <time>2012-06-06T06:04:36.000Z</time>
      </trkpt>
      <trkpt lat="43.99094" lon="4.82268">
        <ele>69.3</ele>
        <time>2012-06-06T06:04:37.000Z</time>
      </trkpt>
      <trkpt lat="43.99087" lon="4.82267">
        <ele>69.1</ele>
        <time>2012-06-06T06:04:38.000Z</time>
      </trkpt>
      <trkpt lat="43.99082" lon="4.82267">
        <ele>69</ele>
        <time>2012-06-06T06:04:39.000Z</time>
      </trkpt>
      <trkpt lat="43.99076" lon="4.82264">
        <ele>68.7</ele>
        <time>2012-06-06T06:04:40.000Z</time>
      </trkpt>
      <trkpt lat="43.99071" lon="4.82263">
        <ele>68.4</ele>
        <time>2012-06-06T06:04:41.000Z</time>
      </trkpt>
      <trkpt lat="43.99066" lon="4.82261">
        <ele>68.2</ele>
        <time>2012-06-06T06:04:42.000Z</time>
      </trkpt>
      <trkpt lat="43.99059" lon="4.82261">
        <ele>67.6</ele>
        <time>2012-06-06T06:04:43.000Z</time>
      </trkpt>
      <trkpt lat="43.99053" lon="4.82259">
        <ele>66.9</ele>
        <time>2012-06-06T06:04:44.000Z</time>
      </trkpt>
      <trkpt lat="43.99045" lon="4.82258">
        <ele>67.1</ele>
        <time>2012-06-06T06:04:45.000Z</time>
      </trkpt>
      <trkpt lat="43.9904" lon="4.82258">
        <ele>67.7</ele>
        <time>2012-06-06T06:04:46.000Z</time>
      </trkpt>
      <trkpt lat="43.99032" lon="4.82255">
        <ele>68.8</ele>
        <time>2012-06-06T06:04:47.000Z</time>
      </trkpt>
      <trkpt lat="43.99026" lon="4.82254">
        <ele>68.3</ele>
        <time>2012-06-06T06:04:48.000Z</time>
      </trkpt>
      <trkpt lat="43.99019" lon="4.82254">
        <ele>68.4</ele>
        <time>2012-06-06T06:04:49.000Z</time>
      </trkpt>
      <trkpt lat="43.99012" lon="4.82251">
        <ele>68.1</ele>
        <time>2012-06-06T06:04:50.000Z</time>
      </trkpt>
      <trkpt lat="43.99007" lon="4.8225">
        <ele>68.5</ele>
        <time>2012-06-06T06:04:51.000Z</time>
      </trkpt>
      <trkpt lat="43.99" lon="4.82246">
        <ele>70</ele>
        <time>2012-06-06T06:04:52.000Z</time>
      </trkpt>
      <trkpt lat="43.98992" lon="4.82241">
        <ele>70.8</ele>
        <time>2012-06-06T06:04:53.000Z</time>
      </trkpt>
      <trkpt lat="43.98985" lon="4.82237">
        <ele>71.4</ele>
        <time>2012-06-06T06:04:54.000Z</time>
      </trkpt>
      <trkpt lat="43.98979" lon="4.82233">
        <ele>71.2</ele>
        <time>2012-06-06T06:04:55.000Z</time>
      </trkpt>
      <trkpt lat="43.98973" lon="4.82232">
        <ele>71</ele>
        <time>2012-06-06T06:04:56.000Z</time>
      </trkpt>
      <trkpt lat="43.98968" lon="4.82229">
        <ele>71</ele>
        <time>2012-06-06T06:04:57.000Z</time>
      </trkpt>
      <trkpt lat="43.98962" lon="4.82227">
        <ele>70.7</ele>
        <time>2012-06-06T06:04:58.000Z</time>
      </trkpt>
      <trkpt lat="43.98956" lon="4.82225">
        <ele>70.9</ele>
        <time>2012-06-06T06:04:59.000Z</time>
      </trkpt>
      <trkpt lat="43.9895" lon="4.82225">
        <ele>70.3</ele>
        <time>2012-06-06T06:05:00.000Z</time>
      </trkpt>
      <trkpt lat="43.98944" lon="4.82225">
        <ele>70.3</ele>
        <time>2012-06-06T06:05:01.000Z</time>
      </trkpt>
      <trkpt lat="43.98938" lon="4.82224">
        <ele>70</ele>
        <time>2012-06-06T06:05:02.000Z</time>
      </trkpt>
      <trkpt lat="43.98932" lon="4.82224">
        <ele>69.9</ele>
        <time>2012-06-06T06:05:03.000Z</time>
      </trkpt>
      <trkpt lat="43.98926" lon="4.82225">
        <ele>68.9</ele>
        <time>2012-06-06T06:05:04.000Z</time>
      </trkpt>
      <trkpt lat="43.98922" lon="4.82223">
        <ele>69</ele>
        <time>2012-06-06T06:05:05.000Z</time>
      </trkpt>
      <trkpt lat="43.98917" lon="4.82222">
        <ele>67.7</ele>
        <time>2012-06-06T06:05:06.000Z</time>
      </trkpt>
      <trkpt lat="43.98912" lon="4.8222">
        <ele>67.5</ele>
        <time>2012-06-06T06:05:07.000Z</time>
      </trkpt>
      <trkpt lat="43.989" lon="4.82218">
        <ele>69.4</ele>
        <time>2012-06-06T06:05:09.000Z</time>
      </trkpt>
      <trkpt lat="43.98895" lon="4.8222">
        <ele>69.9</ele>
        <time>2012-06-06T06:05:10.000Z</time>
      </trkpt>
      <trkpt lat="43.9889" lon="4.8223">
        <ele>69.7</ele>
        <time>2012-06-06T06:05:12.000Z</time>
      </trkpt>
      <trkpt lat="43.98891" lon="4.8224">
        <ele>71.9</ele>
        <time>2012-06-06T06:05:14.000Z</time>
      </trkpt>
      <trkpt lat="43.98891" lon="4.82249">
        <ele>72.5</ele>
        <time>2012-06-06T06:05:16.000Z</time>
      </trkpt>
      <trkpt lat="43.98889" lon="4.82257">
        <ele>72.9</ele>
        <time>2012-06-06T06:05:18.000Z</time>
      </trkpt>
      <trkpt lat="43.98887" lon="4.82266">
        <ele>72.6</ele>
        <time>2012-06-06T06:05:21.000Z</time>
      </trkpt>
      <trkpt lat="43.98887" lon="4.82275">
        <ele>72.4</ele>
        <time>2012-06-06T06:05:23.000Z</time>
      </trkpt>
      <trkpt lat="43.98886" lon="4.82283">
        <ele>72</ele>
        <time>2012-06-06T06:05:25.000Z</time>
      </trkpt>
      <trkpt lat="43.98884" lon="4.82295">
        <ele>71.6</ele>
        <time>2012-06-06T06:05:27.000Z</time>
      </trkpt>
      <trkpt lat="43.9888" lon="4.82307">
        <ele>71.6</ele>
        <time>2012-06-06T06:05:29.000Z</time>
      </trkpt>
      <trkpt lat="43.98878" lon="4.82313">
        <ele>71.5</ele>
        <time>2012-06-06T06:05:31.000Z</time>
      </trkpt>
      <trkpt lat="43.98878" lon="4.82322">
        <ele>70.9</ele>
        <time>2012-06-06T06:05:33.000Z</time>
      </trkpt>
      <trkpt lat="43.98876" lon="4.82334">
        <ele>71.2</ele>
        <time>2012-06-06T06:05:35.000Z</time>
      </trkpt>
      <trkpt lat="43.98873" lon="4.82346">
        <ele>71.6</ele>
        <time>2012-06-06T06:05:37.000Z</time>
      </trkpt>
      <trkpt lat="43.98872" lon="4.82355">
        <ele>72.1</ele>
        <time>2012-06-06T06:05:39.000Z</time>
      </trkpt>
      <trkpt lat="43.98871" lon="4.82366">
        <ele>72.4</ele>
        <time>2012-06-06T06:05:41.000Z</time>
      </trkpt>
      <trkpt lat="43.9887" lon="4.82372">
        <ele>72.1</ele>
        <time>2012-06-06T06:05:42.000Z</time>
      </trkpt>
      <trkpt lat="43.9887" lon="4.82379">
        <ele>71.6</ele>
        <time>2012-06-06T06:05:43.000Z</time>
      </trkpt>
      <trkpt lat="43.98869" lon="4.82387">
        <ele>70.7</ele>
        <time>2012-06-06T06:05:44.000Z</time>
      </trkpt>
      <trkpt lat="43.9887" lon="4.82398">
        <ele>68.4</ele>
        <time>2012-06-06T06:05:46.000Z</time>
      </trkpt>
      <trkpt lat="43.98869" lon="4.82405">
        <ele>68.1</ele>
        <time>2012-06-06T06:05:47.000Z</time>
      </trkpt>
      <trkpt lat="43.98867" lon="4.82411">
        <ele>67.7</ele>
        <time>2012-06-06T06:05:48.000Z</time>
      </trkpt>
      <trkpt lat="43.98867" lon="4.82422">
        <ele>67.3</ele>
        <time>2012-06-06T06:05:50.000Z</time>
      </trkpt>
      <trkpt lat="43.98866" lon="4.82428">
        <ele>67</ele>
        <time>2012-06-06T06:05:51.000Z</time>
      </trkpt>
      <trkpt lat="43.98866" lon="4.82435">
        <ele>67.4</ele>
        <time>2012-06-06T06:05:52.000Z</time>
      </trkpt>
      <trkpt lat="43.98864" lon="4.82441">
        <ele>67.7</ele>
        <time>2012-06-06T06:05:53.000Z</time>
      </trkpt>
      <trkpt lat="43.98863" lon="4.82448">
        <ele>67.6</ele>
        <time>2012-06-06T06:05:54.000Z</time>
      </trkpt>
      <trkpt lat="43.98862" lon="4.82456">
        <ele>67.8</ele>
        <time>2012-06-06T06:05:55.000Z</time>
      </trkpt>
      <trkpt lat="43.98858" lon="4.82464">
        <ele>68.4</ele>
        <time>2012-06-06T06:05:56.000Z</time>
      </trkpt>
      <trkpt lat="43.98854" lon="4.82475">
        <ele>68.7</ele>
        <time>2012-06-06T06:05:58.000Z</time>
      </trkpt>
      <trkpt lat="43.98853" lon="4.82486">
        <ele>69.1</ele>
        <time>2012-06-06T06:06:00.000Z</time>
      </trkpt>
      <trkpt lat="43.98849" lon="4.82497">
        <ele>69.1</ele>
        <time>2012-06-06T06:06:02.000Z</time>
      </trkpt>
      <trkpt lat="43.98846" lon="4.82507">
        <ele>70.6</ele>
        <time>2012-06-06T06:06:04.000Z</time>
      </trkpt>
      <trkpt lat="43.98846" lon="4.82516">
        <ele>71.3</ele>
        <time>2012-06-06T06:06:06.000Z</time>
      </trkpt>
      <trkpt lat="43.98846" lon="4.82528">
        <ele>70.3</ele>
        <time>2012-06-06T06:06:08.000Z</time>
      </trkpt>
      <trkpt lat="43.98847" lon="4.82536">
        <ele>69.9</ele>
        <time>2012-06-06T06:06:10.000Z</time>
      </trkpt>
      <trkpt lat="43.98848" lon="4.82547">
        <ele>70.2</ele>
        <time>2012-06-06T06:06:12.000Z</time>
      </trkpt>
      <trkpt lat="43.98848" lon="4.82558">
        <ele>70.1</ele>
        <time>2012-06-06T06:06:14.000Z</time>
      </trkpt>
      <trkpt lat="43.98846" lon="4.82567">
        <ele>70.6</ele>
        <time>2012-06-06T06:06:15.000Z</time>
      </trkpt>
      <trkpt lat="43.98846" lon="4.82574">
        <ele>70.8</ele>
        <time>2012-06-06T06:06:16.000Z</time>
      </trkpt>
      <trkpt lat="43.98845" lon="4.82582">
        <ele>70.6</ele>
        <time>2012-06-06T06:06:17.000Z</time>
      </trkpt>
      <trkpt lat="43.98845" lon="4.8259">
        <ele>70.8</ele>
        <time>2012-06-06T06:06:18.000Z</time>
      </trkpt>
      <trkpt lat="43.98843" lon="4.82599">
        <ele>71.4</ele>
        <time>2012-06-06T06:06:19.000Z</time>
      </trkpt>
      <trkpt lat="43.98843" lon="4.82606">
        <ele>71.8</ele>
        <time>2012-06-06T06:06:20.000Z</time>
      </trkpt>
      <trkpt lat="43.9884" lon="4.82616">
        <ele>70.6</ele>
        <time>2012-06-06T06:06:22.000Z</time>
      </trkpt>
      <trkpt lat="43.98839" lon="4.82626">
        <ele>70.4</ele>
        <time>2012-06-06T06:06:24.000Z</time>
      </trkpt>
      <trkpt lat="43.98835" lon="4.82634">
        <ele>69.1</ele>
        <time>2012-06-06T06:06:26.000Z</time>
      </trkpt>
      <trkpt lat="43.98832" lon="4.82642">
        <ele>69.7</ele>
        <time>2012-06-06T06:06:28.000Z</time>
      </trkpt>
      <trkpt lat="43.98828" lon="4.82648">
        <ele>69</ele>
        <time>2012-06-06T06:06:30.000Z</time>
      </trkpt>
      <trkpt lat="43.98822" lon="4.82659">
        <ele>68.7</ele>
        <time>2012-06-06T06:06:32.000Z</time>
      </trkpt>
      <trkpt lat="43.98818" lon="4.82668">
        <ele>67.5</ele>
        <time>2012-06-06T06:06:34.000Z</time>
      </trkpt>
      <trkpt lat="43.98815" lon="4.82674">
        <ele>67.7</ele>
        <time>2012-06-06T06:06:36.000Z</time>
      </trkpt>
      <trkpt lat="43.9881" lon="4.82676">
        <ele>67.5</ele>
        <time>2012-06-06T06:06:39.000Z</time>
      </trkpt>
      <trkpt lat="43.98805" lon="4.82682">
        <ele>66.8</ele>
        <time>2012-06-06T06:06:42.000Z</time>
      </trkpt>
      <trkpt lat="43.98802" lon="4.8269">
        <ele>66.6</ele>
        <time>2012-06-06T06:06:45.000Z</time>
      </trkpt>
      <trkpt lat="43.988" lon="4.82697">
        <ele>66.2</ele>
        <time>2012-06-06T06:06:47.000Z</time>
      </trkpt>
      <trkpt lat="43.98795" lon="4.82707">
        <ele>66</ele>
        <time>2012-06-06T06:06:50.000Z</time>
      </trkpt>
      <trkpt lat="43.98792" lon="4.82716">
        <ele>66.3</ele>
        <time>2012-06-06T06:06:52.000Z</time>
      </trkpt>
      <trkpt lat="43.9879" lon="4.82722">
        <ele>66.2</ele>
        <time>2012-06-06T06:06:53.000Z</time>
      </trkpt>
      <trkpt lat="43.98786" lon="4.8273">
        <ele>65.9</ele>
        <time>2012-06-06T06:06:55.000Z</time>
      </trkpt>
      <trkpt lat="43.98782" lon="4.82738">
        <ele>65.4</ele>
        <time>2012-06-06T06:06:57.000Z</time>
      </trkpt>
      <trkpt lat="43.98778" lon="4.82747">
        <ele>65.2</ele>
        <time>2012-06-06T06:06:59.000Z</time>
      </trkpt>
      <trkpt lat="43.98776" lon="4.82753">
        <ele>65.4</ele>
        <time>2012-06-06T06:07:00.000Z</time>
      </trkpt>
      <trkpt lat="43.98773" lon="4.82763">
        <ele>65.8</ele>
        <time>2012-06-06T06:07:01.000Z</time>
      </trkpt>
      <trkpt lat="43.98769" lon="4.8277">
        <ele>66.1</ele>
        <time>2012-06-06T06:07:02.000Z</time>
      </trkpt>
      <trkpt lat="43.98767" lon="4.82777">
        <ele>66.1</ele>
        <time>2012-06-06T06:07:03.000Z</time>
      </trkpt>
      <trkpt lat="43.98765" lon="4.82784">
        <ele>66.3</ele>
        <time>2012-06-06T06:07:04.000Z</time>
      </trkpt>
      <trkpt lat="43.9876" lon="4.82795">
        <ele>65.9</ele>
        <time>2012-06-06T06:07:06.000Z</time>
      </trkpt>
      <trkpt lat="43.98758" lon="4.82805">
        <ele>65.3</ele>
        <time>2012-06-06T06:07:08.000Z</time>
      </trkpt>
      <trkpt lat="43.98756" lon="4.82815">
        <ele>64.5</ele>
        <time>2012-06-06T06:07:10.000Z</time>
      </trkpt>
      <trkpt lat="43.98753" lon="4.82823">
        <ele>63.7</ele>
        <time>2012-06-06T06:07:12.000Z</time>
      </trkpt>
      <trkpt lat="43.9875" lon="4.82832">
        <ele>62.5</ele>
        <time>2012-06-06T06:07:14.000Z</time>
      </trkpt>
      <trkpt lat="43.9875" lon="4.8284">
        <ele>62.9</ele>
        <time>2012-06-06T06:07:16.000Z</time>
      </trkpt>
      <trkpt lat="43.98749" lon="4.8285">
        <ele>62.6</ele>
        <time>2012-06-06T06:07:19.000Z</time>
      </trkpt>
      <trkpt lat="43.98748" lon="4.82858">
        <ele>61.5</ele>
        <time>2012-06-06T06:07:21.000Z</time>
      </trkpt>
      <trkpt lat="43.98745" lon="4.82869">
        <ele>62.3</ele>
        <time>2012-06-06T06:07:23.000Z</time>
      </trkpt>
      <trkpt lat="43.98741" lon="4.82876">
        <ele>63.4</ele>
        <time>2012-06-06T06:07:25.000Z</time>
      </trkpt>
      <trkpt lat="43.98738" lon="4.82884">
        <ele>63.1</ele>
        <time>2012-06-06T06:07:27.000Z</time>
      </trkpt>
      <trkpt lat="43.98734" lon="4.82892">
        <ele>63</ele>
        <time>2012-06-06T06:07:29.000Z</time>
      </trkpt>
      <trkpt lat="43.9873" lon="4.82899">
        <ele>62.6</ele>
        <time>2012-06-06T06:07:31.000Z</time>
      </trkpt>
      <trkpt lat="43.98727" lon="4.82904">
        <ele>62.8</ele>
        <time>2012-06-06T06:07:32.000Z</time>
      </trkpt>
      <trkpt lat="43.98722" lon="4.82914">
        <ele>62.7</ele>
        <time>2012-06-06T06:07:34.000Z</time>
      </trkpt>
      <trkpt lat="43.98716" lon="4.8292">
        <ele>63</ele>
        <time>2012-06-06T06:07:36.000Z</time>
      </trkpt>
      <trkpt lat="43.9871" lon="4.82928">
        <ele>64.6</ele>
        <time>2012-06-06T06:07:38.000Z</time>
      </trkpt>
      <trkpt lat="43.98704" lon="4.82936">
        <ele>63.7</ele>
        <time>2012-06-06T06:07:40.000Z</time>
      </trkpt>
      <trkpt lat="43.98702" lon="4.82941">
        <ele>63.7</ele>
        <time>2012-06-06T06:07:41.000Z</time>
      </trkpt>
      <trkpt lat="43.98698" lon="4.8295">
        <ele>63.7</ele>
        <time>2012-06-06T06:07:43.000Z</time>
      </trkpt>
      <trkpt lat="43.98695" lon="4.82955">
        <ele>63.3</ele>
        <time>2012-06-06T06:07:44.000Z</time>
      </trkpt>
      <trkpt lat="43.98692" lon="4.82964">
        <ele>63.2</ele>
        <time>2012-06-06T06:07:46.000Z</time>
      </trkpt>
      <trkpt lat="43.98689" lon="4.82972">
        <ele>62.5</ele>
        <time>2012-06-06T06:07:48.000Z</time>
      </trkpt>
      <trkpt lat="43.98686" lon="4.8298">
        <ele>62</ele>
        <time>2012-06-06T06:07:50.000Z</time>
      </trkpt>
      <trkpt lat="43.98686" lon="4.82987">
        <ele>60.7</ele>
        <time>2012-06-06T06:07:52.000Z</time>
      </trkpt>
      <trkpt lat="43.98683" lon="4.82996">
        <ele>60.5</ele>
        <time>2012-06-06T06:07:54.000Z</time>
      </trkpt>
      <trkpt lat="43.9868" lon="4.83006">
        <ele>62.2</ele>
        <time>2012-06-06T06:07:56.000Z</time>
      </trkpt>
      <trkpt lat="43.98678" lon="4.83013">
        <ele>61.9</ele>
        <time>2012-06-06T06:07:57.000Z</time>
      </trkpt>
      <trkpt lat="43.98675" lon="4.83022">
        <ele>63</ele>
        <time>2012-06-06T06:07:59.000Z</time>
      </trkpt>
      <trkpt lat="43.98674" lon="4.8303">
        <ele>63.4</ele>
        <time>2012-06-06T06:08:01.000Z</time>
      </trkpt>
      <trkpt lat="43.98671" lon="4.83041">
        <ele>65.8</ele>
        <time>2012-06-06T06:08:02.000Z</time>
      </trkpt>
      <trkpt lat="43.9867" lon="4.83048">
        <ele>66.3</ele>
        <time>2012-06-06T06:08:03.000Z</time>
      </trkpt>
      <trkpt lat="43.98669" lon="4.83054">
        <ele>67</ele>
        <time>2012-06-06T06:08:04.000Z</time>
      </trkpt>
      <trkpt lat="43.98666" lon="4.83066">
        <ele>68.4</ele>
        <time>2012-06-06T06:08:06.000Z</time>
      </trkpt>
      <trkpt lat="43.98664" lon="4.83076">
        <ele>69.7</ele>
        <time>2012-06-06T06:08:08.000Z</time>
      </trkpt>
      <trkpt lat="43.98661" lon="4.83085">
        <ele>70.4</ele>
        <time>2012-06-06T06:08:10.000Z</time>
      </trkpt>
      <trkpt lat="43.98658" lon="4.83095">
        <ele>67.4</ele>
        <time>2012-06-06T06:08:12.000Z</time>
      </trkpt>
      <trkpt lat="43.98656" lon="4.83103">
        <ele>66.2</ele>
        <time>2012-06-06T06:08:14.000Z</time>
      </trkpt>
      <trkpt lat="43.98655" lon="4.83111">
        <ele>66.6</ele>
        <time>2012-06-06T06:08:16.000Z</time>
      </trkpt>
      <trkpt lat="43.98653" lon="4.83119">
        <ele>67.2</ele>
        <time>2012-06-06T06:08:18.000Z</time>
      </trkpt>
      <trkpt lat="43.9865" lon="4.83129">
        <ele>67.3</ele>
        <time>2012-06-06T06:08:20.000Z</time>
      </trkpt>
      <trkpt lat="43.98649" lon="4.83136">
        <ele>68.2</ele>
        <time>2012-06-06T06:08:21.000Z</time>
      </trkpt>
      <trkpt lat="43.98646" lon="4.83147">
        <ele>68.8</ele>
        <time>2012-06-06T06:08:23.000Z</time>
      </trkpt>
      <trkpt lat="43.98644" lon="4.83155">
        <ele>69.2</ele>
        <time>2012-06-06T06:08:25.000Z</time>
      </trkpt>
      <trkpt lat="43.98642" lon="4.83163">
        <ele>71</ele>
        <time>2012-06-06T06:08:26.000Z</time>
      </trkpt>
      <trkpt lat="43.9864" lon="4.83173">
        <ele>71.3</ele>
        <time>2012-06-06T06:08:28.000Z</time>
      </trkpt>
      <trkpt lat="43.98638" lon="4.83183">
        <ele>71.5</ele>
        <time>2012-06-06T06:08:30.000Z</time>
      </trkpt>
      <trkpt lat="43.98638" lon="4.8319">
        <ele>71.5</ele>
        <time>2012-06-06T06:08:32.000Z</time>
      </trkpt>
      <trkpt lat="43.98635" lon="4.83198">
        <ele>70.6</ele>
        <time>2012-06-06T06:08:34.000Z</time>
      </trkpt>
      <trkpt lat="43.98633" lon="4.83206">
        <ele>70.4</ele>
        <time>2012-06-06T06:08:36.000Z</time>
      </trkpt>
      <trkpt lat="43.98632" lon="4.83215">
        <ele>70.2</ele>
        <time>2012-06-06T06:08:38.000Z</time>
      </trkpt>
      <trkpt lat="43.98629" lon="4.83223">
        <ele>68.7</ele>
        <time>2012-06-06T06:08:40.000Z</time>
      </trkpt>
      <trkpt lat="43.98626" lon="4.83232">
        <ele>68.7</ele>
        <time>2012-06-06T06:08:41.000Z</time>
      </trkpt>
      <trkpt lat="43.98624" lon="4.83242">
        <ele>67.6</ele>
        <time>2012-06-06T06:08:43.000Z</time>
      </trkpt>
      <trkpt lat="43.9862" lon="4.83253">
        <ele>70.6</ele>
        <time>2012-06-06T06:08:45.000Z</time>
      </trkpt>
      <trkpt lat="43.98619" lon="4.83259">
        <ele>70.2</ele>
        <time>2012-06-06T06:08:46.000Z</time>
      </trkpt>
      <trkpt lat="43.98618" lon="4.83269">
        <ele>69.6</ele>
        <time>2012-06-06T06:08:48.000Z</time>
      </trkpt>
      <trkpt lat="43.98618" lon="4.83276">
        <ele>70.1</ele>
        <time>2012-06-06T06:08:50.000Z</time>
      </trkpt>
      <trkpt lat="43.98616" lon="4.83283">
        <ele>69.6</ele>
        <time>2012-06-06T06:08:52.000Z</time>
      </trkpt>
      <trkpt lat="43.98614" lon="4.83291">
        <ele>69.3</ele>
        <time>2012-06-06T06:08:54.000Z</time>
      </trkpt>
      <trkpt lat="43.98612" lon="4.833">
        <ele>68.6</ele>
        <time>2012-06-06T06:08:56.000Z</time>
      </trkpt>
      <trkpt lat="43.98611" lon="4.83309">
        <ele>67.4</ele>
        <time>2012-06-06T06:08:58.000Z</time>
      </trkpt>
      <trkpt lat="43.9861" lon="4.83317">
        <ele>67.2</ele>
        <time>2012-06-06T06:09:00.000Z</time>
      </trkpt>
      <trkpt lat="43.98609" lon="4.83324">
        <ele>67</ele>
        <time>2012-06-06T06:09:02.000Z</time>
      </trkpt>
      <trkpt lat="43.98608" lon="4.83331">
        <ele>66.8</ele>
        <time>2012-06-06T06:09:04.000Z</time>
      </trkpt>
      <trkpt lat="43.98608" lon="4.83339">
        <ele>67.2</ele>
        <time>2012-06-06T06:09:06.000Z</time>
      </trkpt>
      <trkpt lat="43.98607" lon="4.83348">
        <ele>68.2</ele>
        <time>2012-06-06T06:09:08.000Z</time>
      </trkpt>
      <trkpt lat="43.98606" lon="4.83361">
        <ele>67.1</ele>
        <time>2012-06-06T06:09:10.000Z</time>
      </trkpt>
      <trkpt lat="43.98605" lon="4.83368">
        <ele>66.8</ele>
        <time>2012-06-06T06:09:11.000Z</time>
      </trkpt>
      <trkpt lat="43.98605" lon="4.83377">
        <ele>66.3</ele>
        <time>2012-06-06T06:09:13.000Z</time>
      </trkpt>
      <trkpt lat="43.98605" lon="4.83385">
        <ele>66.1</ele>
        <time>2012-06-06T06:09:15.000Z</time>
      </trkpt>
      <trkpt lat="43.98603" lon="4.83398">
        <ele>66.4</ele>
        <time>2012-06-06T06:09:17.000Z</time>
      </trkpt>
      <trkpt lat="43.98603" lon="4.83404">
        <ele>67.1</ele>
        <time>2012-06-06T06:09:18.000Z</time>
      </trkpt>
      <trkpt lat="43.98602" lon="4.83415">
        <ele>67.7</ele>
        <time>2012-06-06T06:09:20.000Z</time>
      </trkpt>
      <trkpt lat="43.98603" lon="4.83426">
        <ele>68.8</ele>
        <time>2012-06-06T06:09:22.000Z</time>
      </trkpt>
      <trkpt lat="43.98604" lon="4.83437">
        <ele>68.6</ele>
        <time>2012-06-06T06:09:24.000Z</time>
      </trkpt>
      <trkpt lat="43.98605" lon="4.83443">
        <ele>68</ele>
        <time>2012-06-06T06:09:25.000Z</time>
      </trkpt>
      <trkpt lat="43.98606" lon="4.83454">
        <ele>67.9</ele>
        <time>2012-06-06T06:09:27.000Z</time>
      </trkpt>
      <trkpt lat="43.98608" lon="4.83463">
        <ele>68.3</ele>
        <time>2012-06-06T06:09:29.000Z</time>
      </trkpt>
      <trkpt lat="43.98608" lon="4.83476">
        <ele>68.3</ele>
        <time>2012-06-06T06:09:31.000Z</time>
      </trkpt>
      <trkpt lat="43.98608" lon="4.83484">
        <ele>68.5</ele>
        <time>2012-06-06T06:09:32.000Z</time>
      </trkpt>
      <trkpt lat="43.98608" lon="4.83491">
        <ele>68.8</ele>
        <time>2012-06-06T06:09:33.000Z</time>
      </trkpt>
      <trkpt lat="43.98608" lon="4.83498">
        <ele>69.1</ele>
        <time>2012-06-06T06:09:34.000Z</time>
      </trkpt>
      <trkpt lat="43.98609" lon="4.83508">
        <ele>70.1</ele>
        <time>2012-06-06T06:09:36.000Z</time>
      </trkpt>
      <trkpt lat="43.98608" lon="4.8352">
        <ele>69.6</ele>
        <time>2012-06-06T06:09:38.000Z</time>
      </trkpt>
      <trkpt lat="43.98606" lon="4.83527">
        <ele>73.2</ele>
        <time>2012-06-06T06:09:39.000Z</time>
      </trkpt>
      <trkpt lat="43.98605" lon="4.83538">
        <ele>74.1</ele>
        <time>2012-06-06T06:09:41.000Z</time>
      </trkpt>
      <trkpt lat="43.98605" lon="4.83547">
        <ele>74</ele>
        <time>2012-06-06T06:09:43.000Z</time>
      </trkpt>
      <trkpt lat="43.98605" lon="4.83558">
        <ele>73.7</ele>
        <time>2012-06-06T06:09:45.000Z</time>
      </trkpt>
      <trkpt lat="43.98605" lon="4.83569">
        <ele>74.5</ele>
        <time>2012-06-06T06:09:47.000Z</time>
      </trkpt>
      <trkpt lat="43.98607" lon="4.83579">
        <ele>74.5</ele>
        <time>2012-06-06T06:09:49.000Z</time>
      </trkpt>
      <trkpt lat="43.98607" lon="4.83585">
        <ele>74.8</ele>
        <time>2012-06-06T06:09:50.000Z</time>
      </trkpt>
      <trkpt lat="43.9861" lon="4.83595">
        <ele>75</ele>
        <time>2012-06-06T06:09:52.000Z</time>
      </trkpt>
      <trkpt lat="43.98611" lon="4.83605">
        <ele>73.9</ele>
        <time>2012-06-06T06:09:54.000Z</time>
      </trkpt>
      <trkpt lat="43.98613" lon="4.83614">
        <ele>74.1</ele>
        <time>2012-06-06T06:09:56.000Z</time>
      </trkpt>
      <trkpt lat="43.98616" lon="4.83622">
        <ele>73.7</ele>
        <time>2012-06-06T06:09:58.000Z</time>
      </trkpt>
      <trkpt lat="43.98618" lon="4.83629">
        <ele>73.2</ele>
        <time>2012-06-06T06:10:00.000Z</time>
      </trkpt>
      <trkpt lat="43.98618" lon="4.83635">
        <ele>71.8</ele>
        <time>2012-06-06T06:10:01.000Z</time>
      </trkpt>
      <trkpt lat="43.98614" lon="4.83644">
        <ele>71.6</ele>
        <time>2012-06-06T06:10:03.000Z</time>
      </trkpt>
      <trkpt lat="43.98611" lon="4.83648">
        <ele>71.6</ele>
        <time>2012-06-06T06:10:04.000Z</time>
      </trkpt>
      <trkpt lat="43.98607" lon="4.83652">
        <ele>71.7</ele>
        <time>2012-06-06T06:10:05.000Z</time>
      </trkpt>
      <trkpt lat="43.98603" lon="4.83658">
        <ele>72.3</ele>
        <time>2012-06-06T06:10:06.000Z</time>
      </trkpt>
      <trkpt lat="43.98597" lon="4.83665">
        <ele>72.4</ele>
        <time>2012-06-06T06:10:08.000Z</time>
      </trkpt>
      <trkpt lat="43.98593" lon="4.83671">
        <ele>71.8</ele>
        <time>2012-06-06T06:10:09.000Z</time>
      </trkpt>
      <trkpt lat="43.98589" lon="4.83678">
        <ele>71.3</ele>
        <time>2012-06-06T06:10:10.000Z</time>
      </trkpt>
      <trkpt lat="43.98586" lon="4.83688">
        <ele>71.3</ele>
        <time>2012-06-06T06:10:11.000Z</time>
      </trkpt>
      <trkpt lat="43.98585" lon="4.83694">
        <ele>71.6</ele>
        <time>2012-06-06T06:10:12.000Z</time>
      </trkpt>
      <trkpt lat="43.98584" lon="4.83701">
        <ele>71.6</ele>
        <time>2012-06-06T06:10:14.000Z</time>
      </trkpt>
      <trkpt lat="43.98585" lon="4.83711">
        <ele>70.4</ele>
        <time>2012-06-06T06:10:16.000Z</time>
      </trkpt>
      <trkpt lat="43.98585" lon="4.8372">
        <ele>72.3</ele>
        <time>2012-06-06T06:10:17.000Z</time>
      </trkpt>
      <trkpt lat="43.98583" lon="4.83727">
        <ele>73.5</ele>
        <time>2012-06-06T06:10:21.000Z</time>
      </trkpt>
      <trkpt lat="43.9858" lon="4.83732">
        <ele>70</ele>
        <time>2012-06-06T06:10:47.000Z</time>
      </trkpt>
      <trkpt lat="43.98584" lon="4.83734">
        <ele>69.5</ele>
        <time>2012-06-06T06:11:51.000Z</time>
      </trkpt>
      <trkpt lat="43.98587" lon="4.8374">
        <ele>70.6</ele>
        <time>2012-06-06T06:12:02.000Z</time>
      </trkpt>
      <trkpt lat="43.9859" lon="4.83748">
        <ele>70.3</ele>
        <time>2012-06-06T06:12:06.000Z</time>
      </trkpt>
      <trkpt lat="43.98594" lon="4.83754">
        <ele>70.5</ele>
        <time>2012-06-06T06:12:08.000Z</time>
      </trkpt>
      <trkpt lat="43.98596" lon="4.83761">
        <ele>70.4</ele>
        <time>2012-06-06T06:12:10.000Z</time>
      </trkpt>
      <trkpt lat="43.98599" lon="4.83769">
        <ele>70.3</ele>
        <time>2012-06-06T06:12:12.000Z</time>
      </trkpt>
      <trkpt lat="43.98603" lon="4.83774">
        <ele>70.6</ele>
        <time>2012-06-06T06:12:14.000Z</time>
      </trkpt>
      <trkpt lat="43.98605" lon="4.83782">
        <ele>70.6</ele>
        <time>2012-06-06T06:12:16.000Z</time>
      </trkpt>
      <trkpt lat="43.98605" lon="4.83795">
        <ele>70.4</ele>
        <time>2012-06-06T06:12:19.000Z</time>
      </trkpt>
      <trkpt lat="43.98606" lon="4.83802">
        <ele>70.5</ele>
        <time>2012-06-06T06:12:20.000Z</time>
      </trkpt>
      <trkpt lat="43.98609" lon="4.83812">
        <ele>71.1</ele>
        <time>2012-06-06T06:12:22.000Z</time>
      </trkpt>
      <trkpt lat="43.98611" lon="4.83822">
        <ele>70.9</ele>
        <time>2012-06-06T06:12:24.000Z</time>
      </trkpt>
      <trkpt lat="43.98614" lon="4.83834">
        <ele>70.9</ele>
        <time>2012-06-06T06:12:26.000Z</time>
      </trkpt>
      <trkpt lat="43.98614" lon="4.8384">
        <ele>70.9</ele>
        <time>2012-06-06T06:12:27.000Z</time>
      </trkpt>
      <trkpt lat="43.98615" lon="4.83851">
        <ele>70.7</ele>
        <time>2012-06-06T06:12:29.000Z</time>
      </trkpt>
      <trkpt lat="43.98615" lon="4.8386">
        <ele>70.7</ele>
        <time>2012-06-06T06:12:31.000Z</time>
      </trkpt>
      <trkpt lat="43.98618" lon="4.83872">
        <ele>70.6</ele>
        <time>2012-06-06T06:12:33.000Z</time>
      </trkpt>
      <trkpt lat="43.98616" lon="4.83883">
        <ele>70.7</ele>
        <time>2012-06-06T06:12:35.000Z</time>
      </trkpt>
      <trkpt lat="43.98616" lon="4.8389">
        <ele>70.7</ele>
        <time>2012-06-06T06:12:37.000Z</time>
      </trkpt>
      <trkpt lat="43.98618" lon="4.839">
        <ele>69.7</ele>
        <time>2012-06-06T06:12:39.000Z</time>
      </trkpt>
      <trkpt lat="43.98619" lon="4.83906">
        <ele>69.7</ele>
        <time>2012-06-06T06:12:40.000Z</time>
      </trkpt>
      <trkpt lat="43.98622" lon="4.83915">
        <ele>70.4</ele>
        <time>2012-06-06T06:12:42.000Z</time>
      </trkpt>
      <trkpt lat="43.98625" lon="4.83921">
        <ele>70.3</ele>
        <time>2012-06-06T06:12:44.000Z</time>
      </trkpt>
      <trkpt lat="43.98629" lon="4.83929">
        <ele>70.4</ele>
        <time>2012-06-06T06:12:46.000Z</time>
      </trkpt>
      <trkpt lat="43.98635" lon="4.83933">
        <ele>70.2</ele>
        <time>2012-06-06T06:12:48.000Z</time>
      </trkpt>
      <trkpt lat="43.98637" lon="4.83939">
        <ele>70.7</ele>
        <time>2012-06-06T06:12:50.000Z</time>
      </trkpt>
      <trkpt lat="43.9864" lon="4.83947">
        <ele>71.2</ele>
        <time>2012-06-06T06:12:52.000Z</time>
      </trkpt>
      <trkpt lat="43.98644" lon="4.83951">
        <ele>71</ele>
        <time>2012-06-06T06:12:53.000Z</time>
      </trkpt>
      <trkpt lat="43.9865" lon="4.83958">
        <ele>70</ele>
        <time>2012-06-06T06:12:55.000Z</time>
      </trkpt>
      <trkpt lat="43.98655" lon="4.83966">
        <ele>70</ele>
        <time>2012-06-06T06:12:57.000Z</time>
      </trkpt>
      <trkpt lat="43.9866" lon="4.83971">
        <ele>70.4</ele>
        <time>2012-06-06T06:12:59.000Z</time>
      </trkpt>
      <trkpt lat="43.98665" lon="4.83977">
        <ele>70.7</ele>
        <time>2012-06-06T06:13:01.000Z</time>
      </trkpt>
      <trkpt lat="43.9867" lon="4.83983">
        <ele>69.6</ele>
        <time>2012-06-06T06:13:03.000Z</time>
      </trkpt>
      <trkpt lat="43.98674" lon="4.8399">
        <ele>69.8</ele>
        <time>2012-06-06T06:13:05.000Z</time>
      </trkpt>
      <trkpt lat="43.98676" lon="4.83998">
        <ele>70.2</ele>
        <time>2012-06-06T06:13:06.000Z</time>
      </trkpt>
      <trkpt lat="43.9868" lon="4.84009">
        <ele>69.2</ele>
        <time>2012-06-06T06:13:08.000Z</time>
      </trkpt>
      <trkpt lat="43.98684" lon="4.8402">
        <ele>66.6</ele>
        <time>2012-06-06T06:13:10.000Z</time>
      </trkpt>
      <trkpt lat="43.98688" lon="4.84026">
        <ele>64.9</ele>
        <time>2012-06-06T06:13:12.000Z</time>
      </trkpt>
      <trkpt lat="43.9869" lon="4.84032">
        <ele>64.5</ele>
        <time>2012-06-06T06:13:13.000Z</time>
      </trkpt>
      <trkpt lat="43.98694" lon="4.84041">
        <ele>63.5</ele>
        <time>2012-06-06T06:13:15.000Z</time>
      </trkpt>
      <trkpt lat="43.98697" lon="4.84049">
        <ele>64</ele>
        <time>2012-06-06T06:13:17.000Z</time>
      </trkpt>
      <trkpt lat="43.987" lon="4.84059">
        <ele>63.5</ele>
        <time>2012-06-06T06:13:19.000Z</time>
      </trkpt>
      <trkpt lat="43.98703" lon="4.84065">
        <ele>63.8</ele>
        <time>2012-06-06T06:13:20.000Z</time>
      </trkpt>
      <trkpt lat="43.98704" lon="4.84072">
        <ele>64.6</ele>
        <time>2012-06-06T06:13:21.000Z</time>
      </trkpt>
      <trkpt lat="43.98707" lon="4.84077">
        <ele>64.6</ele>
        <time>2012-06-06T06:13:22.000Z</time>
      </trkpt>
      <trkpt lat="43.98712" lon="4.84083">
        <ele>65.8</ele>
        <time>2012-06-06T06:13:24.000Z</time>
      </trkpt>
      <trkpt lat="43.98718" lon="4.84089">
        <ele>65.3</ele>
        <time>2012-06-06T06:13:26.000Z</time>
      </trkpt>
      <trkpt lat="43.98722" lon="4.84097">
        <ele>65.9</ele>
        <time>2012-06-06T06:13:28.000Z</time>
      </trkpt>
      <trkpt lat="43.98727" lon="4.84101">
        <ele>65.7</ele>
        <time>2012-06-06T06:13:29.000Z</time>
      </trkpt>
      <trkpt lat="43.9873" lon="4.84111">
        <ele>66.3</ele>
        <time>2012-06-06T06:13:31.000Z</time>
      </trkpt>
      <trkpt lat="43.98732" lon="4.84117">
        <ele>66.5</ele>
        <time>2012-06-06T06:13:32.000Z</time>
      </trkpt>
      <trkpt lat="43.98737" lon="4.84125">
        <ele>66.2</ele>
        <time>2012-06-06T06:13:34.000Z</time>
      </trkpt>
      <trkpt lat="43.98742" lon="4.84133">
        <ele>67.1</ele>
        <time>2012-06-06T06:13:36.000Z</time>
      </trkpt>
      <trkpt lat="43.98748" lon="4.84139">
        <ele>67.6</ele>
        <time>2012-06-06T06:13:38.000Z</time>
      </trkpt>
      <trkpt lat="43.98751" lon="4.84143">
        <ele>68</ele>
        <time>2012-06-06T06:13:39.000Z</time>
      </trkpt>
      <trkpt lat="43.98755" lon="4.84151">
        <ele>69.1</ele>
        <time>2012-06-06T06:13:41.000Z</time>
      </trkpt>
      <trkpt lat="43.9876" lon="4.84157">
        <ele>69.5</ele>
        <time>2012-06-06T06:13:43.000Z</time>
      </trkpt>
      <trkpt lat="43.98766" lon="4.84163">
        <ele>69.4</ele>
        <time>2012-06-06T06:13:45.000Z</time>
      </trkpt>
      <trkpt lat="43.98771" lon="4.84168">
        <ele>69.4</ele>
        <time>2012-06-06T06:13:47.000Z</time>
      </trkpt>
      <trkpt lat="43.98776" lon="4.84172">
        <ele>69.5</ele>
        <time>2012-06-06T06:13:49.000Z</time>
      </trkpt>
      <trkpt lat="43.98779" lon="4.84176">
        <ele>68.8</ele>
        <time>2012-06-06T06:13:50.000Z</time>
      </trkpt>
      <trkpt lat="43.98783" lon="4.84184">
        <ele>70</ele>
        <time>2012-06-06T06:13:52.000Z</time>
      </trkpt>
      <trkpt lat="43.98789" lon="4.84189">
        <ele>69.3</ele>
        <time>2012-06-06T06:13:54.000Z</time>
      </trkpt>
      <trkpt lat="43.98795" lon="4.84195">
        <ele>68.8</ele>
        <time>2012-06-06T06:13:56.000Z</time>
      </trkpt>
      <trkpt lat="43.98801" lon="4.842">
        <ele>68.6</ele>
        <time>2012-06-06T06:13:58.000Z</time>
      </trkpt>
      <trkpt lat="43.98804" lon="4.84207">
        <ele>68.4</ele>
        <time>2012-06-06T06:14:00.000Z</time>
      </trkpt>
      <trkpt lat="43.98808" lon="4.8421">
        <ele>68.1</ele>
        <time>2012-06-06T06:14:01.000Z</time>
      </trkpt>
      <trkpt lat="43.98816" lon="4.84216">
        <ele>68.8</ele>
        <time>2012-06-06T06:14:04.000Z</time>
      </trkpt>
      <trkpt lat="43.98821" lon="4.84222">
        <ele>69.3</ele>
        <time>2012-06-06T06:14:06.000Z</time>
      </trkpt>
      <trkpt lat="43.98829" lon="4.84228">
        <ele>70</ele>
        <time>2012-06-06T06:14:08.000Z</time>
      </trkpt>
      <trkpt lat="43.98832" lon="4.84235">
        <ele>69</ele>
        <time>2012-06-06T06:14:10.000Z</time>
      </trkpt>
      <trkpt lat="43.98838" lon="4.84237">
        <ele>69</ele>
        <time>2012-06-06T06:14:12.000Z</time>
      </trkpt>
      <trkpt lat="43.98844" lon="4.84241">
        <ele>68.4</ele>
        <time>2012-06-06T06:14:14.000Z</time>
      </trkpt>
      <trkpt lat="43.98849" lon="4.84244">
        <ele>68.3</ele>
        <time>2012-06-06T06:14:16.000Z</time>
      </trkpt>
      <trkpt lat="43.98855" lon="4.84244">
        <ele>67.4</ele>
        <time>2012-06-06T06:14:17.000Z</time>
      </trkpt>
      <trkpt lat="43.9886" lon="4.84248">
        <ele>67.2</ele>
        <time>2012-06-06T06:14:18.000Z</time>
      </trkpt>
      <trkpt lat="43.98868" lon="4.84251">
        <ele>66.9</ele>
        <time>2012-06-06T06:14:20.000Z</time>
      </trkpt>
      <trkpt lat="43.98874" lon="4.84254">
        <ele>67.2</ele>
        <time>2012-06-06T06:14:22.000Z</time>
      </trkpt>
      <trkpt lat="43.98879" lon="4.84258">
        <ele>67.3</ele>
        <time>2012-06-06T06:14:24.000Z</time>
      </trkpt>
      <trkpt lat="43.98884" lon="4.84261">
        <ele>68</ele>
        <time>2012-06-06T06:14:25.000Z</time>
      </trkpt>
      <trkpt lat="43.98891" lon="4.84265">
        <ele>67.7</ele>
        <time>2012-06-06T06:14:27.000Z</time>
      </trkpt>
      <trkpt lat="43.98899" lon="4.84269">
        <ele>67</ele>
        <time>2012-06-06T06:14:29.000Z</time>
      </trkpt>
      <trkpt lat="43.98905" lon="4.84273">
        <ele>67.1</ele>
        <time>2012-06-06T06:14:31.000Z</time>
      </trkpt>
      <trkpt lat="43.98913" lon="4.84276">
        <ele>67.7</ele>
        <time>2012-06-06T06:14:33.000Z</time>
      </trkpt>
      <trkpt lat="43.9892" lon="4.84278">
        <ele>66.7</ele>
        <time>2012-06-06T06:14:35.000Z</time>
      </trkpt>
      <trkpt lat="43.98926" lon="4.8428">
        <ele>66.2</ele>
        <time>2012-06-06T06:14:36.000Z</time>
      </trkpt>
      <trkpt lat="43.98931" lon="4.84284">
        <ele>66.9</ele>
        <time>2012-06-06T06:14:37.000Z</time>
      </trkpt>
      <trkpt lat="43.98935" lon="4.84287">
        <ele>66</ele>
        <time>2012-06-06T06:14:38.000Z</time>
      </trkpt>
      <trkpt lat="43.98943" lon="4.84294">
        <ele>66.9</ele>
        <time>2012-06-06T06:14:40.000Z</time>
      </trkpt>
      <trkpt lat="43.98949" lon="4.84295">
        <ele>66.7</ele>
        <time>2012-06-06T06:14:41.000Z</time>
      </trkpt>
      <trkpt lat="43.98953" lon="4.84299">
        <ele>67.4</ele>
        <time>2012-06-06T06:14:42.000Z</time>
      </trkpt>
      <trkpt lat="43.98958" lon="4.84303">
        <ele>67.6</ele>
        <time>2012-06-06T06:14:43.000Z</time>
      </trkpt>
      <trkpt lat="43.98965" lon="4.84306">
        <ele>66.6</ele>
        <time>2012-06-06T06:14:45.000Z</time>
      </trkpt>
      <trkpt lat="43.98971" lon="4.84312">
        <ele>66.7</ele>
        <time>2012-06-06T06:14:47.000Z</time>
      </trkpt>
      <trkpt lat="43.98979" lon="4.84316">
        <ele>67.1</ele>
        <time>2012-06-06T06:14:49.000Z</time>
      </trkpt>
      <trkpt lat="43.98986" lon="4.84319">
        <ele>67.2</ele>
        <time>2012-06-06T06:14:50.000Z</time>
      </trkpt>
      <trkpt lat="43.98992" lon="4.84323">
        <ele>68.9</ele>
        <time>2012-06-06T06:14:51.000Z</time>
      </trkpt>
      <trkpt lat="43.98997" lon="4.84326">
        <ele>69.3</ele>
        <time>2012-06-06T06:14:52.000Z</time>
      </trkpt>
      <trkpt lat="43.99005" lon="4.84331">
        <ele>69.9</ele>
        <time>2012-06-06T06:14:54.000Z</time>
      </trkpt>
      <trkpt lat="43.99011" lon="4.84333">
        <ele>71.2</ele>
        <time>2012-06-06T06:14:55.000Z</time>
      </trkpt>
      <trkpt lat="43.99017" lon="4.84334">
        <ele>68.7</ele>
        <time>2012-06-06T06:14:56.000Z</time>
      </trkpt>
      <trkpt lat="43.99022" lon="4.84334">
        <ele>65.3</ele>
        <time>2012-06-06T06:14:57.000Z</time>
      </trkpt>
      <trkpt lat="43.9903" lon="4.84334">
        <ele>63.8</ele>
        <time>2012-06-06T06:14:59.000Z</time>
      </trkpt>
      <trkpt lat="43.99038" lon="4.84332">
        <ele>65.3</ele>
        <time>2012-06-06T06:15:01.000Z</time>
      </trkpt>
      <trkpt lat="43.99046" lon="4.84332">
        <ele>65.2</ele>
        <time>2012-06-06T06:15:03.000Z</time>
      </trkpt>
      <trkpt lat="43.99054" lon="4.84331">
        <ele>65.7</ele>
        <time>2012-06-06T06:15:05.000Z</time>
      </trkpt>
      <trkpt lat="43.99061" lon="4.84331">
        <ele>66.7</ele>
        <time>2012-06-06T06:15:07.000Z</time>
      </trkpt>
      <trkpt lat="43.99069" lon="4.84332">
        <ele>66</ele>
        <time>2012-06-06T06:15:09.000Z</time>
      </trkpt>
      <trkpt lat="43.99077" lon="4.84334">
        <ele>66.5</ele>
        <time>2012-06-06T06:15:11.000Z</time>
      </trkpt>
      <trkpt lat="43.99083" lon="4.84338">
        <ele>68.2</ele>
        <time>2012-06-06T06:15:13.000Z</time>
      </trkpt>
      <trkpt lat="43.9909" lon="4.84339">
        <ele>68.1</ele>
        <time>2012-06-06T06:15:15.000Z</time>
      </trkpt>
      <trkpt lat="43.99097" lon="4.8434">
        <ele>67.3</ele>
        <time>2012-06-06T06:15:17.000Z</time>
      </trkpt>
      <trkpt lat="43.99104" lon="4.84341">
        <ele>66.7</ele>
        <time>2012-06-06T06:15:19.000Z</time>
      </trkpt>
      <trkpt lat="43.99108" lon="4.84342">
        <ele>66.4</ele>
        <time>2012-06-06T06:15:20.000Z</time>
      </trkpt>
      <trkpt lat="43.99115" lon="4.84342">
        <ele>65.9</ele>
        <time>2012-06-06T06:15:22.000Z</time>
      </trkpt>
      <trkpt lat="43.99123" lon="4.84342">
        <ele>65.6</ele>
        <time>2012-06-06T06:15:24.000Z</time>
      </trkpt>
      <trkpt lat="43.99129" lon="4.84343">
        <ele>65.6</ele>
        <time>2012-06-06T06:15:26.000Z</time>
      </trkpt>
      <trkpt lat="43.99135" lon="4.84344">
        <ele>65.3</ele>
        <time>2012-06-06T06:15:28.000Z</time>
      </trkpt>
      <trkpt lat="43.99142" lon="4.84345">
        <ele>64.8</ele>
        <time>2012-06-06T06:15:30.000Z</time>
      </trkpt>
      <trkpt lat="43.9915" lon="4.84342">
        <ele>64.5</ele>
        <time>2012-06-06T06:15:32.000Z</time>
      </trkpt>
      <trkpt lat="43.99157" lon="4.84339">
        <ele>65.3</ele>
        <time>2012-06-06T06:15:34.000Z</time>
      </trkpt>
      <trkpt lat="43.99164" lon="4.84335">
        <ele>65.9</ele>
        <time>2012-06-06T06:15:36.000Z</time>
      </trkpt>
      <trkpt lat="43.99169" lon="4.84329">
        <ele>67.2</ele>
        <time>2012-06-06T06:15:38.000Z</time>
      </trkpt>
      <trkpt lat="43.99174" lon="4.84323">
        <ele>66.3</ele>
        <time>2012-06-06T06:15:40.000Z</time>
      </trkpt>
      <trkpt lat="43.99178" lon="4.84318">
        <ele>66.8</ele>
        <time>2012-06-06T06:15:41.000Z</time>
      </trkpt>
      <trkpt lat="43.99183" lon="4.84316">
        <ele>68.2</ele>
        <time>2012-06-06T06:15:42.000Z</time>
      </trkpt>
      <trkpt lat="43.99191" lon="4.84312">
        <ele>68.5</ele>
        <time>2012-06-06T06:15:44.000Z</time>
      </trkpt>
      <trkpt lat="43.99196" lon="4.8431">
        <ele>68.1</ele>
        <time>2012-06-06T06:15:46.000Z</time>
      </trkpt>
      <trkpt lat="43.99202" lon="4.84312">
        <ele>68.3</ele>
        <time>2012-06-06T06:15:48.000Z</time>
      </trkpt>
      <trkpt lat="43.99208" lon="4.84311">
        <ele>68.1</ele>
        <time>2012-06-06T06:15:50.000Z</time>
      </trkpt>
      <trkpt lat="43.99216" lon="4.84311">
        <ele>69.5</ele>
        <time>2012-06-06T06:15:52.000Z</time>
      </trkpt>
      <trkpt lat="43.99222" lon="4.84314">
        <ele>70</ele>
        <time>2012-06-06T06:15:54.000Z</time>
      </trkpt>
      <trkpt lat="43.99227" lon="4.84319">
        <ele>70.2</ele>
        <time>2012-06-06T06:15:56.000Z</time>
      </trkpt>
      <trkpt lat="43.99232" lon="4.84326">
        <ele>71.2</ele>
        <time>2012-06-06T06:15:58.000Z</time>
      </trkpt>
      <trkpt lat="43.99234" lon="4.84333">
        <ele>72.8</ele>
        <time>2012-06-06T06:16:00.000Z</time>
      </trkpt>
      <trkpt lat="43.99231" lon="4.8434">
        <ele>71</ele>
        <time>2012-06-06T06:16:02.000Z</time>
      </trkpt>
      <trkpt lat="43.99231" lon="4.8435">
        <ele>71.9</ele>
        <time>2012-06-06T06:16:05.000Z</time>
      </trkpt>
      <trkpt lat="43.99231" lon="4.84358">
        <ele>71.7</ele>
        <time>2012-06-06T06:16:08.000Z</time>
      </trkpt>
      <trkpt lat="43.9923" lon="4.84364">
        <ele>72.2</ele>
        <time>2012-06-06T06:16:10.000Z</time>
      </trkpt>
      <trkpt lat="43.99228" lon="4.84372">
        <ele>72.1</ele>
        <time>2012-06-06T06:16:12.000Z</time>
      </trkpt>
      <trkpt lat="43.99225" lon="4.84384">
        <ele>74</ele>
        <time>2012-06-06T06:16:14.000Z</time>
      </trkpt>
      <trkpt lat="43.99223" lon="4.84392">
        <ele>73.8</ele>
        <time>2012-06-06T06:16:16.000Z</time>
      </trkpt>
      <trkpt lat="43.99222" lon="4.84399">
        <ele>73.7</ele>
        <time>2012-06-06T06:16:18.000Z</time>
      </trkpt>
      <trkpt lat="43.99221" lon="4.84407">
        <ele>72.5</ele>
        <time>2012-06-06T06:16:21.000Z</time>
      </trkpt>
      <trkpt lat="43.99221" lon="4.84416">
        <ele>72.5</ele>
        <time>2012-06-06T06:16:24.000Z</time>
      </trkpt>
      <trkpt lat="43.99219" lon="4.84425">
        <ele>72.5</ele>
        <time>2012-06-06T06:16:27.000Z</time>
      </trkpt>
      <trkpt lat="43.99217" lon="4.84431">
        <ele>71.2</ele>
        <time>2012-06-06T06:16:29.000Z</time>
      </trkpt>
      <trkpt lat="43.99215" lon="4.84438">
        <ele>71</ele>
        <time>2012-06-06T06:16:31.000Z</time>
      </trkpt>
      <trkpt lat="43.99213" lon="4.84445">
        <ele>70.9</ele>
        <time>2012-06-06T06:16:33.000Z</time>
      </trkpt>
      <trkpt lat="43.99212" lon="4.84451">
        <ele>71.3</ele>
        <time>2012-06-06T06:16:35.000Z</time>
      </trkpt>
      <trkpt lat="43.99208" lon="4.84459">
        <ele>72</ele>
        <time>2012-06-06T06:16:37.000Z</time>
      </trkpt>
      <trkpt lat="43.99207" lon="4.84466">
        <ele>71.7</ele>
        <time>2012-06-06T06:16:39.000Z</time>
      </trkpt>
      <trkpt lat="43.99205" lon="4.84473">
        <ele>72</ele>
        <time>2012-06-06T06:16:41.000Z</time>
      </trkpt>
      <trkpt lat="43.99204" lon="4.84481">
        <ele>71.7</ele>
        <time>2012-06-06T06:16:43.000Z</time>
      </trkpt>
      <trkpt lat="43.99203" lon="4.84489">
        <ele>71.6</ele>
        <time>2012-06-06T06:16:45.000Z</time>
      </trkpt>
      <trkpt lat="43.99201" lon="4.84496">
        <ele>71.4</ele>
        <time>2012-06-06T06:16:47.000Z</time>
      </trkpt>
      <trkpt lat="43.99198" lon="4.84503">
        <ele>71.5</ele>
        <time>2012-06-06T06:16:49.000Z</time>
      </trkpt>
      <trkpt lat="43.99196" lon="4.84509">
        <ele>71.8</ele>
        <time>2012-06-06T06:16:51.000Z</time>
      </trkpt>
      <trkpt lat="43.99194" lon="4.84516">
        <ele>71.8</ele>
        <time>2012-06-06T06:16:53.000Z</time>
      </trkpt>
      <trkpt lat="43.99191" lon="4.84521">
        <ele>70.8</ele>
        <time>2012-06-06T06:16:54.000Z</time>
      </trkpt>
      <trkpt lat="43.99187" lon="4.84528">
        <ele>70.4</ele>
        <time>2012-06-06T06:16:56.000Z</time>
      </trkpt>
      <trkpt lat="43.99185" lon="4.84537">
        <ele>70.2</ele>
        <time>2012-06-06T06:16:58.000Z</time>
      </trkpt>
      <trkpt lat="43.99181" lon="4.84546">
        <ele>70.2</ele>
        <time>2012-06-06T06:17:00.000Z</time>
      </trkpt>
      <trkpt lat="43.99177" lon="4.84555">
        <ele>70.8</ele>
        <time>2012-06-06T06:17:02.000Z</time>
      </trkpt>
      <trkpt lat="43.99174" lon="4.84563">
        <ele>70.8</ele>
        <time>2012-06-06T06:17:04.000Z</time>
      </trkpt>
      <trkpt lat="43.9917" lon="4.84572">
        <ele>70.6</ele>
        <time>2012-06-06T06:17:06.000Z</time>
      </trkpt>
      <trkpt lat="43.99167" lon="4.84583">
        <ele>71.2</ele>
        <time>2012-06-06T06:17:08.000Z</time>
      </trkpt>
      <trkpt lat="43.99164" lon="4.84591">
        <ele>70.4</ele>
        <time>2012-06-06T06:17:10.000Z</time>
      </trkpt>
      <trkpt lat="43.9916" lon="4.846">
        <ele>70.6</ele>
        <time>2012-06-06T06:17:12.000Z</time>
      </trkpt>
      <trkpt lat="43.99156" lon="4.84608">
        <ele>71.1</ele>
        <time>2012-06-06T06:17:14.000Z</time>
      </trkpt>
      <trkpt lat="43.99151" lon="4.84617">
        <ele>67.7</ele>
        <time>2012-06-06T06:17:16.000Z</time>
      </trkpt>
      <trkpt lat="43.99146" lon="4.84624">
        <ele>69.2</ele>
        <time>2012-06-06T06:17:18.000Z</time>
      </trkpt>
      <trkpt lat="43.99142" lon="4.84632">
        <ele>67.4</ele>
        <time>2012-06-06T06:17:20.000Z</time>
      </trkpt>
      <trkpt lat="43.99137" lon="4.8464">
        <ele>67</ele>
        <time>2012-06-06T06:17:22.000Z</time>
      </trkpt>
      <trkpt lat="43.99134" lon="4.84646">
        <ele>67.3</ele>
        <time>2012-06-06T06:17:23.000Z</time>
      </trkpt>
      <trkpt lat="43.9913" lon="4.84655">
        <ele>67.4</ele>
        <time>2012-06-06T06:17:25.000Z</time>
      </trkpt>
      <trkpt lat="43.99124" lon="4.84663">
        <ele>66.9</ele>
        <time>2012-06-06T06:17:27.000Z</time>
      </trkpt>
      <trkpt lat="43.99119" lon="4.84668">
        <ele>64.2</ele>
        <time>2012-06-06T06:17:29.000Z</time>
      </trkpt>
      <trkpt lat="43.99116" lon="4.84674">
        <ele>64.4</ele>
        <time>2012-06-06T06:17:30.000Z</time>
      </trkpt>
      <trkpt lat="43.99111" lon="4.84682">
        <ele>64.9</ele>
        <time>2012-06-06T06:17:32.000Z</time>
      </trkpt>
      <trkpt lat="43.99105" lon="4.8469">
        <ele>65.3</ele>
        <time>2012-06-06T06:17:34.000Z</time>
      </trkpt>
      <trkpt lat="43.99102" lon="4.84695">
        <ele>65.5</ele>
        <time>2012-06-06T06:17:35.000Z</time>
      </trkpt>
      <trkpt lat="43.99097" lon="4.84703">
        <ele>65.8</ele>
        <time>2012-06-06T06:17:37.000Z</time>
      </trkpt>
      <trkpt lat="43.99091" lon="4.8471">
        <ele>66.2</ele>
        <time>2012-06-06T06:17:39.000Z</time>
      </trkpt>
      <trkpt lat="43.99085" lon="4.84717">
        <ele>66.7</ele>
        <time>2012-06-06T06:17:41.000Z</time>
      </trkpt>
      <trkpt lat="43.99078" lon="4.84723">
        <ele>66.4</ele>
        <time>2012-06-06T06:17:43.000Z</time>
      </trkpt>
      <trkpt lat="43.99074" lon="4.84729">
        <ele>66.4</ele>
        <time>2012-06-06T06:17:44.000Z</time>
      </trkpt>
      <trkpt lat="43.9907" lon="4.84732">
        <ele>66.9</ele>
        <time>2012-06-06T06:17:45.000Z</time>
      </trkpt>
      <trkpt lat="43.99066" lon="4.84737">
        <ele>66.8</ele>
        <time>2012-06-06T06:17:46.000Z</time>
      </trkpt>
      <trkpt lat="43.99062" lon="4.84741">
        <ele>66.8</ele>
        <time>2012-06-06T06:17:47.000Z</time>
      </trkpt>
      <trkpt lat="43.99057" lon="4.84744">
        <ele>66.7</ele>
        <time>2012-06-06T06:17:48.000Z</time>
      </trkpt>
      <trkpt lat="43.99054" lon="4.84747">
        <ele>66.6</ele>
        <time>2012-06-06T06:17:49.000Z</time>
      </trkpt>
      <trkpt lat="43.99049" lon="4.84751">
        <ele>66.4</ele>
        <time>2012-06-06T06:17:50.000Z</time>
      </trkpt>
      <trkpt lat="43.99045" lon="4.84756">
        <ele>66.7</ele>
        <time>2012-06-06T06:17:51.000Z</time>
      </trkpt>
      <trkpt lat="43.9904" lon="4.8476">
        <ele>66.4</ele>
        <time>2012-06-06T06:17:52.000Z</time>
      </trkpt>
      <trkpt lat="43.99036" lon="4.84764">
        <ele>66.5</ele>
        <time>2012-06-06T06:17:53.000Z</time>
      </trkpt>
      <trkpt lat="43.99029" lon="4.84769">
        <ele>66.8</ele>
        <time>2012-06-06T06:17:55.000Z</time>
      </trkpt>
      <trkpt lat="43.99022" lon="4.84775">
        <ele>67.6</ele>
        <time>2012-06-06T06:17:57.000Z</time>
      </trkpt>
      <trkpt lat="43.99014" lon="4.8478">
        <ele>67.9</ele>
        <time>2012-06-06T06:17:59.000Z</time>
      </trkpt>
      <trkpt lat="43.99007" lon="4.84785">
        <ele>67.9</ele>
        <time>2012-06-06T06:18:01.000Z</time>
      </trkpt>
      <trkpt lat="43.99" lon="4.84791">
        <ele>68.4</ele>
        <time>2012-06-06T06:18:03.000Z</time>
      </trkpt>
      <trkpt lat="43.98994" lon="4.84798">
        <ele>68.5</ele>
        <time>2012-06-06T06:18:05.000Z</time>
      </trkpt>
      <trkpt lat="43.98988" lon="4.84805">
        <ele>68.3</ele>
        <time>2012-06-06T06:18:07.000Z</time>
      </trkpt>
      <trkpt lat="43.98984" lon="4.84809">
        <ele>68.6</ele>
        <time>2012-06-06T06:18:08.000Z</time>
      </trkpt>
      <trkpt lat="43.98977" lon="4.84814">
        <ele>68.8</ele>
        <time>2012-06-06T06:18:10.000Z</time>
      </trkpt>
      <trkpt lat="43.9897" lon="4.84819">
        <ele>69.3</ele>
        <time>2012-06-06T06:18:12.000Z</time>
      </trkpt>
      <trkpt lat="43.98964" lon="4.8482">
        <ele>69.5</ele>
        <time>2012-06-06T06:18:14.000Z</time>
      </trkpt>
      <trkpt lat="43.98959" lon="4.84826">
        <ele>69</ele>
        <time>2012-06-06T06:18:16.000Z</time>
      </trkpt>
      <trkpt lat="43.98954" lon="4.8483">
        <ele>69.2</ele>
        <time>2012-06-06T06:18:18.000Z</time>
      </trkpt>
      <trkpt lat="43.98948" lon="4.84833">
        <ele>69.4</ele>
        <time>2012-06-06T06:18:20.000Z</time>
      </trkpt>
      <trkpt lat="43.98944" lon="4.84839">
        <ele>69.1</ele>
        <time>2012-06-06T06:18:22.000Z</time>
      </trkpt>
      <trkpt lat="43.98941" lon="4.84845">
        <ele>68.4</ele>
        <time>2012-06-06T06:18:24.000Z</time>
      </trkpt>
      <trkpt lat="43.98936" lon="4.84854">
        <ele>68.1</ele>
        <time>2012-06-06T06:18:26.000Z</time>
      </trkpt>
      <trkpt lat="43.98932" lon="4.84862">
        <ele>69.4</ele>
        <time>2012-06-06T06:18:27.000Z</time>
      </trkpt>
      <trkpt lat="43.98929" lon="4.84866">
        <ele>69.2</ele>
        <time>2012-06-06T06:18:28.000Z</time>
      </trkpt>
      <trkpt lat="43.98923" lon="4.84873">
        <ele>70.4</ele>
        <time>2012-06-06T06:18:30.000Z</time>
      </trkpt>
      <trkpt lat="43.98917" lon="4.84879">
        <ele>70.3</ele>
        <time>2012-06-06T06:18:32.000Z</time>
      </trkpt>
      <trkpt lat="43.98912" lon="4.84886">
        <ele>71.2</ele>
        <time>2012-06-06T06:18:34.000Z</time>
      </trkpt>
      <trkpt lat="43.98907" lon="4.84891">
        <ele>71.4</ele>
        <time>2012-06-06T06:18:36.000Z</time>
      </trkpt>
      <trkpt lat="43.98903" lon="4.84895">
        <ele>71.2</ele>
        <time>2012-06-06T06:18:38.000Z</time>
      </trkpt>
      <trkpt lat="43.98896" lon="4.84901">
        <ele>71.2</ele>
        <time>2012-06-06T06:18:40.000Z</time>
      </trkpt>
      <trkpt lat="43.98891" lon="4.84908">
        <ele>71</ele>
        <time>2012-06-06T06:18:42.000Z</time>
      </trkpt>
      <trkpt lat="43.98886" lon="4.84915">
        <ele>71</ele>
        <time>2012-06-06T06:18:44.000Z</time>
      </trkpt>
      <trkpt lat="43.98879" lon="4.84922">
        <ele>69.4</ele>
        <time>2012-06-06T06:18:46.000Z</time>
      </trkpt>
      <trkpt lat="43.98874" lon="4.84927">
        <ele>68.7</ele>
        <time>2012-06-06T06:18:48.000Z</time>
      </trkpt>
      <trkpt lat="43.98868" lon="4.84934">
        <ele>69</ele>
        <time>2012-06-06T06:18:50.000Z</time>
      </trkpt>
      <trkpt lat="43.98863" lon="4.84942">
        <ele>68.3</ele>
        <time>2012-06-06T06:18:52.000Z</time>
      </trkpt>
      <trkpt lat="43.98859" lon="4.84949">
        <ele>67.9</ele>
        <time>2012-06-06T06:18:54.000Z</time>
      </trkpt>
      <trkpt lat="43.98854" lon="4.84958">
        <ele>66.9</ele>
        <time>2012-06-06T06:18:56.000Z</time>
      </trkpt>
      <trkpt lat="43.98849" lon="4.84966">
        <ele>66.3</ele>
        <time>2012-06-06T06:18:58.000Z</time>
      </trkpt>
      <trkpt lat="43.98845" lon="4.84976">
        <ele>66</ele>
        <time>2012-06-06T06:19:00.000Z</time>
      </trkpt>
      <trkpt lat="43.98839" lon="4.84986">
        <ele>68.6</ele>
        <time>2012-06-06T06:19:02.000Z</time>
      </trkpt>
      <trkpt lat="43.98836" lon="4.84992">
        <ele>68.8</ele>
        <time>2012-06-06T06:19:03.000Z</time>
      </trkpt>
      <trkpt lat="43.98831" lon="4.85002">
        <ele>69.2</ele>
        <time>2012-06-06T06:19:05.000Z</time>
      </trkpt>
      <trkpt lat="43.98825" lon="4.85009">
        <ele>69.2</ele>
        <time>2012-06-06T06:19:07.000Z</time>
      </trkpt>
      <trkpt lat="43.98819" lon="4.85017">
        <ele>69.3</ele>
        <time>2012-06-06T06:19:09.000Z</time>
      </trkpt>
      <trkpt lat="43.98812" lon="4.85022">
        <ele>68.2</ele>
        <time>2012-06-06T06:19:11.000Z</time>
      </trkpt>
      <trkpt lat="43.98807" lon="4.8503">
        <ele>67.8</ele>
        <time>2012-06-06T06:19:13.000Z</time>
      </trkpt>
      <trkpt lat="43.98803" lon="4.85039">
        <ele>65.7</ele>
        <time>2012-06-06T06:19:15.000Z</time>
      </trkpt>
      <trkpt lat="43.98798" lon="4.85046">
        <ele>63.4</ele>
        <time>2012-06-06T06:19:17.000Z</time>
      </trkpt>
      <trkpt lat="43.98791" lon="4.85053">
        <ele>62.5</ele>
        <time>2012-06-06T06:19:19.000Z</time>
      </trkpt>
      <trkpt lat="43.98788" lon="4.85057">
        <ele>62.5</ele>
        <time>2012-06-06T06:19:20.000Z</time>
      </trkpt>
      <trkpt lat="43.98784" lon="4.85062">
        <ele>63.6</ele>
        <time>2012-06-06T06:19:21.000Z</time>
      </trkpt>
      <trkpt lat="43.98781" lon="4.85067">
        <ele>64</ele>
        <time>2012-06-06T06:19:22.000Z</time>
      </trkpt>
      <trkpt lat="43.98774" lon="4.85073">
        <ele>63.7</ele>
        <time>2012-06-06T06:19:24.000Z</time>
      </trkpt>
      <trkpt lat="43.98768" lon="4.8508">
        <ele>64</ele>
        <time>2012-06-06T06:19:26.000Z</time>
      </trkpt>
      <trkpt lat="43.98763" lon="4.85086">
        <ele>63.8</ele>
        <time>2012-06-06T06:19:28.000Z</time>
      </trkpt>
      <trkpt lat="43.98757" lon="4.85093">
        <ele>64.7</ele>
        <time>2012-06-06T06:19:30.000Z</time>
      </trkpt>
      <trkpt lat="43.98751" lon="4.851">
        <ele>64.5</ele>
        <time>2012-06-06T06:19:32.000Z</time>
      </trkpt>
      <trkpt lat="43.98745" lon="4.85106">
        <ele>64.6</ele>
        <time>2012-06-06T06:19:34.000Z</time>
      </trkpt>
      <trkpt lat="43.9874" lon="4.8511">
        <ele>65</ele>
        <time>2012-06-06T06:19:36.000Z</time>
      </trkpt>
      <trkpt lat="43.98735" lon="4.85114">
        <ele>64.7</ele>
        <time>2012-06-06T06:19:38.000Z</time>
      </trkpt>
      <trkpt lat="43.98729" lon="4.85121">
        <ele>65.3</ele>
        <time>2012-06-06T06:19:40.000Z</time>
      </trkpt>
      <trkpt lat="43.98724" lon="4.85129">
        <ele>64.8</ele>
        <time>2012-06-06T06:19:42.000Z</time>
      </trkpt>
      <trkpt lat="43.98719" lon="4.85135">
        <ele>65.2</ele>
        <time>2012-06-06T06:19:44.000Z</time>
      </trkpt>
      <trkpt lat="43.98713" lon="4.8514">
        <ele>65.5</ele>
        <time>2012-06-06T06:19:46.000Z</time>
      </trkpt>
      <trkpt lat="43.98705" lon="4.85142">
        <ele>65.6</ele>
        <time>2012-06-06T06:19:48.000Z</time>
      </trkpt>
      <trkpt lat="43.98699" lon="4.85145">
        <ele>65.3</ele>
        <time>2012-06-06T06:19:50.000Z</time>
      </trkpt>
      <trkpt lat="43.98695" lon="4.85153">
        <ele>65.4</ele>
        <time>2012-06-06T06:19:52.000Z</time>
      </trkpt>
      <trkpt lat="43.98693" lon="4.85159">
        <ele>65.7</ele>
        <time>2012-06-06T06:19:54.000Z</time>
      </trkpt>
      <trkpt lat="43.98688" lon="4.85167">
        <ele>66.8</ele>
        <time>2012-06-06T06:19:56.000Z</time>
      </trkpt>
      <trkpt lat="43.98686" lon="4.85172">
        <ele>67.8</ele>
        <time>2012-06-06T06:19:58.000Z</time>
      </trkpt>
      <trkpt lat="43.98682" lon="4.85177">
        <ele>68.3</ele>
        <time>2012-06-06T06:20:00.000Z</time>
      </trkpt>
      <trkpt lat="43.98678" lon="4.85181">
        <ele>68.7</ele>
        <time>2012-06-06T06:20:02.000Z</time>
      </trkpt>
      <trkpt lat="43.98673" lon="4.85185">
        <ele>68.6</ele>
        <time>2012-06-06T06:20:04.000Z</time>
      </trkpt>
      <trkpt lat="43.98667" lon="4.85188">
        <ele>68.6</ele>
        <time>2012-06-06T06:20:06.000Z</time>
      </trkpt>
      <trkpt lat="43.98662" lon="4.85193">
        <ele>68.5</ele>
        <time>2012-06-06T06:20:08.000Z</time>
      </trkpt>
      <trkpt lat="43.98658" lon="4.85196">
        <ele>68.1</ele>
        <time>2012-06-06T06:20:10.000Z</time>
      </trkpt>
      <trkpt lat="43.98653" lon="4.85196">
        <ele>68.4</ele>
        <time>2012-06-06T06:20:12.000Z</time>
      </trkpt>
      <trkpt lat="43.98647" lon="4.85198">
        <ele>69.4</ele>
        <time>2012-06-06T06:20:15.000Z</time>
      </trkpt>
      <trkpt lat="43.98642" lon="4.852">
        <ele>69.4</ele>
        <time>2012-06-06T06:20:18.000Z</time>
      </trkpt>
      <trkpt lat="43.98634" lon="4.852">
        <ele>68.7</ele>
        <time>2012-06-06T06:20:21.000Z</time>
      </trkpt>
      <trkpt lat="43.98628" lon="4.85202">
        <ele>68.3</ele>
        <time>2012-06-06T06:20:25.000Z</time>
      </trkpt>
      <trkpt lat="43.98623" lon="4.85201">
        <ele>64.1</ele>
        <time>2012-06-06T06:20:46.000Z</time>
      </trkpt>
      <trkpt lat="43.98619" lon="4.85208">
        <ele>62.7</ele>
        <time>2012-06-06T06:20:55.000Z</time>
      </trkpt>
      <trkpt lat="43.98614" lon="4.85214">
        <ele>62.1</ele>
        <time>2012-06-06T06:20:57.000Z</time>
      </trkpt>
      <trkpt lat="43.9861" lon="4.85223">
        <ele>65.6</ele>
        <time>2012-06-06T06:20:59.000Z</time>
      </trkpt>
      <trkpt lat="43.98606" lon="4.85229">
        <ele>66.9</ele>
        <time>2012-06-06T06:21:01.000Z</time>
      </trkpt>
      <trkpt lat="43.98602" lon="4.85233">
        <ele>67.2</ele>
        <time>2012-06-06T06:21:03.000Z</time>
      </trkpt>
      <trkpt lat="43.98598" lon="4.85235">
        <ele>67.1</ele>
        <time>2012-06-06T06:21:05.000Z</time>
      </trkpt>
      <trkpt lat="43.98593" lon="4.85238">
        <ele>66.6</ele>
        <time>2012-06-06T06:21:07.000Z</time>
      </trkpt>
      <trkpt lat="43.98587" lon="4.85241">
        <ele>65.9</ele>
        <time>2012-06-06T06:21:09.000Z</time>
      </trkpt>
      <trkpt lat="43.98582" lon="4.85243">
        <ele>65.9</ele>
        <time>2012-06-06T06:21:11.000Z</time>
      </trkpt>
      <trkpt lat="43.98576" lon="4.85245">
        <ele>65.9</ele>
        <time>2012-06-06T06:21:13.000Z</time>
      </trkpt>
      <trkpt lat="43.9857" lon="4.85247">
        <ele>64.3</ele>
        <time>2012-06-06T06:21:15.000Z</time>
      </trkpt>
      <trkpt lat="43.98563" lon="4.85251">
        <ele>64.4</ele>
        <time>2012-06-06T06:21:17.000Z</time>
      </trkpt>
      <trkpt lat="43.98558" lon="4.85253">
        <ele>64.3</ele>
        <time>2012-06-06T06:21:18.000Z</time>
      </trkpt>
      <trkpt lat="43.98552" lon="4.85258">
        <ele>64.3</ele>
        <time>2012-06-06T06:21:20.000Z</time>
      </trkpt>
      <trkpt lat="43.98546" lon="4.85262">
        <ele>64.7</ele>
        <time>2012-06-06T06:21:22.000Z</time>
      </trkpt>
      <trkpt lat="43.98541" lon="4.85267">
        <ele>65.4</ele>
        <time>2012-06-06T06:21:24.000Z</time>
      </trkpt>
      <trkpt lat="43.98536" lon="4.8527">
        <ele>65.9</ele>
        <time>2012-06-06T06:21:26.000Z</time>
      </trkpt>
      <trkpt lat="43.9853" lon="4.85272">
        <ele>67.1</ele>
        <time>2012-06-06T06:21:28.000Z</time>
      </trkpt>
      <trkpt lat="43.98524" lon="4.85276">
        <ele>67.3</ele>
        <time>2012-06-06T06:21:30.000Z</time>
      </trkpt>
      <trkpt lat="43.98518" lon="4.85278">
        <ele>67.2</ele>
        <time>2012-06-06T06:21:32.000Z</time>
      </trkpt>
      <trkpt lat="43.9851" lon="4.85284">
        <ele>66.5</ele>
        <time>2012-06-06T06:21:34.000Z</time>
      </trkpt>
      <trkpt lat="43.98506" lon="4.85287">
        <ele>66.8</ele>
        <time>2012-06-06T06:21:35.000Z</time>
      </trkpt>
      <trkpt lat="43.985" lon="4.8529">
        <ele>66.3</ele>
        <time>2012-06-06T06:21:37.000Z</time>
      </trkpt>
      <trkpt lat="43.98492" lon="4.85294">
        <ele>64.8</ele>
        <time>2012-06-06T06:21:39.000Z</time>
      </trkpt>
      <trkpt lat="43.98484" lon="4.85295">
        <ele>64.8</ele>
        <time>2012-06-06T06:21:41.000Z</time>
      </trkpt>
      <trkpt lat="43.98476" lon="4.85297">
        <ele>65.5</ele>
        <time>2012-06-06T06:21:43.000Z</time>
      </trkpt>
      <trkpt lat="43.98469" lon="4.853">
        <ele>65.2</ele>
        <time>2012-06-06T06:21:45.000Z</time>
      </trkpt>
      <trkpt lat="43.98461" lon="4.85303">
        <ele>66.1</ele>
        <time>2012-06-06T06:21:47.000Z</time>
      </trkpt>
      <trkpt lat="43.98455" lon="4.85306">
        <ele>65.7</ele>
        <time>2012-06-06T06:21:49.000Z</time>
      </trkpt>
      <trkpt lat="43.98448" lon="4.85308">
        <ele>65.8</ele>
        <time>2012-06-06T06:21:51.000Z</time>
      </trkpt>
      <trkpt lat="43.9844" lon="4.85308">
        <ele>65.3</ele>
        <time>2012-06-06T06:21:53.000Z</time>
      </trkpt>
      <trkpt lat="43.98434" lon="4.85307">
        <ele>65.6</ele>
        <time>2012-06-06T06:21:55.000Z</time>
      </trkpt>
      <trkpt lat="43.98428" lon="4.85305">
        <ele>65.6</ele>
        <time>2012-06-06T06:21:57.000Z</time>
      </trkpt>
      <trkpt lat="43.98422" lon="4.85308">
        <ele>64.3</ele>
        <time>2012-06-06T06:21:59.000Z</time>
      </trkpt>
      <trkpt lat="43.98415" lon="4.85309">
        <ele>64.7</ele>
        <time>2012-06-06T06:22:01.000Z</time>
      </trkpt>
      <trkpt lat="43.98408" lon="4.85312">
        <ele>64.9</ele>
        <time>2012-06-06T06:22:03.000Z</time>
      </trkpt>
      <trkpt lat="43.98402" lon="4.85311">
        <ele>64.9</ele>
        <time>2012-06-06T06:22:05.000Z</time>
      </trkpt>
      <trkpt lat="43.98397" lon="4.85313">
        <ele>65.9</ele>
        <time>2012-06-06T06:22:06.000Z</time>
      </trkpt>
      <trkpt lat="43.98388" lon="4.85315">
        <ele>66.2</ele>
        <time>2012-06-06T06:22:08.000Z</time>
      </trkpt>
      <trkpt lat="43.9838" lon="4.85318">
        <ele>66.5</ele>
        <time>2012-06-06T06:22:10.000Z</time>
      </trkpt>
      <trkpt lat="43.98376" lon="4.85318">
        <ele>66.6</ele>
        <time>2012-06-06T06:22:11.000Z</time>
      </trkpt>
      <trkpt lat="43.98368" lon="4.8532">
        <ele>66.1</ele>
        <time>2012-06-06T06:22:13.000Z</time>
      </trkpt>
      <trkpt lat="43.98359" lon="4.85318">
        <ele>65.1</ele>
        <time>2012-06-06T06:22:15.000Z</time>
      </trkpt>
      <trkpt lat="43.98352" lon="4.85319">
        <ele>64.4</ele>
        <time>2012-06-06T06:22:17.000Z</time>
      </trkpt>
      <trkpt lat="43.98343" lon="4.85318">
        <ele>62.9</ele>
        <time>2012-06-06T06:22:19.000Z</time>
      </trkpt>
      <trkpt lat="43.98336" lon="4.85317">
        <ele>61.1</ele>
        <time>2012-06-06T06:22:21.000Z</time>
      </trkpt>
      <trkpt lat="43.98328" lon="4.85316">
        <ele>61.3</ele>
        <time>2012-06-06T06:22:23.000Z</time>
      </trkpt>
      <trkpt lat="43.98324" lon="4.85313">
        <ele>61.7</ele>
        <time>2012-06-06T06:22:24.000Z</time>
      </trkpt>
      <trkpt lat="43.98317" lon="4.8531">
        <ele>62</ele>
        <time>2012-06-06T06:22:26.000Z</time>
      </trkpt>
      <trkpt lat="43.98309" lon="4.85311">
        <ele>62.3</ele>
        <time>2012-06-06T06:22:28.000Z</time>
      </trkpt>
      <trkpt lat="43.98304" lon="4.85312">
        <ele>62.9</ele>
        <time>2012-06-06T06:22:30.000Z</time>
      </trkpt>
      <trkpt lat="43.98298" lon="4.8531">
        <ele>62.8</ele>
        <time>2012-06-06T06:22:32.000Z</time>
      </trkpt>
      <trkpt lat="43.98292" lon="4.85308">
        <ele>62.4</ele>
        <time>2012-06-06T06:22:34.000Z</time>
      </trkpt>
      <trkpt lat="43.98285" lon="4.85309">
        <ele>62.3</ele>
        <time>2012-06-06T06:22:36.000Z</time>
      </trkpt>
      <trkpt lat="43.98278" lon="4.8531">
        <ele>62.8</ele>
        <time>2012-06-06T06:22:38.000Z</time>
      </trkpt>
      <trkpt lat="43.98272" lon="4.85307">
        <ele>63</ele>
        <time>2012-06-06T06:22:40.000Z</time>
      </trkpt>
      <trkpt lat="43.98265" lon="4.85307">
        <ele>64</ele>
        <time>2012-06-06T06:22:42.000Z</time>
      </trkpt>
      <trkpt lat="43.98258" lon="4.85311">
        <ele>63.9</ele>
        <time>2012-06-06T06:22:44.000Z</time>
      </trkpt>
      <trkpt lat="43.9825" lon="4.85311">
        <ele>63.6</ele>
        <time>2012-06-06T06:22:46.000Z</time>
      </trkpt>
      <trkpt lat="43.98246" lon="4.8531">
        <ele>63.4</ele>
        <time>2012-06-06T06:22:47.000Z</time>
      </trkpt>
      <trkpt lat="43.98241" lon="4.85309">
        <ele>63.6</ele>
        <time>2012-06-06T06:22:48.000Z</time>
      </trkpt>
      <trkpt lat="43.98234" lon="4.85307">
        <ele>63.1</ele>
        <time>2012-06-06T06:22:50.000Z</time>
      </trkpt>
      <trkpt lat="43.98226" lon="4.85308">
        <ele>62.1</ele>
        <time>2012-06-06T06:22:52.000Z</time>
      </trkpt>
      <trkpt lat="43.98216" lon="4.85311">
        <ele>63.1</ele>
        <time>2012-06-06T06:22:54.000Z</time>
      </trkpt>
      <trkpt lat="43.98208" lon="4.85315">
        <ele>63.2</ele>
        <time>2012-06-06T06:22:56.000Z</time>
      </trkpt>
      <trkpt lat="43.98199" lon="4.85315">
        <ele>64.5</ele>
        <time>2012-06-06T06:22:58.000Z</time>
      </trkpt>
      <trkpt lat="43.98192" lon="4.85314">
        <ele>64.3</ele>
        <time>2012-06-06T06:23:00.000Z</time>
      </trkpt>
      <trkpt lat="43.98181" lon="4.85317">
        <ele>64.1</ele>
        <time>2012-06-06T06:23:02.000Z</time>
      </trkpt>
      <trkpt lat="43.98176" lon="4.85319">
        <ele>64.5</ele>
        <time>2012-06-06T06:23:03.000Z</time>
      </trkpt>
      <trkpt lat="43.98168" lon="4.8532">
        <ele>64.9</ele>
        <time>2012-06-06T06:23:05.000Z</time>
      </trkpt>
      <trkpt lat="43.98159" lon="4.8532">
        <ele>65.3</ele>
        <time>2012-06-06T06:23:07.000Z</time>
      </trkpt>
      <trkpt lat="43.9815" lon="4.85322">
        <ele>65.4</ele>
        <time>2012-06-06T06:23:09.000Z</time>
      </trkpt>
      <trkpt lat="43.98143" lon="4.85322">
        <ele>65</ele>
        <time>2012-06-06T06:23:11.000Z</time>
      </trkpt>
      <trkpt lat="43.98135" lon="4.8532">
        <ele>64.8</ele>
        <time>2012-06-06T06:23:13.000Z</time>
      </trkpt>
      <trkpt lat="43.9813" lon="4.85324">
        <ele>64.6</ele>
        <time>2012-06-06T06:23:15.000Z</time>
      </trkpt>
      <trkpt lat="43.98122" lon="4.85325">
        <ele>64.2</ele>
        <time>2012-06-06T06:23:17.000Z</time>
      </trkpt>
      <trkpt lat="43.98117" lon="4.85324">
        <ele>63.8</ele>
        <time>2012-06-06T06:23:18.000Z</time>
      </trkpt>
      <trkpt lat="43.98108" lon="4.85322">
        <ele>63.8</ele>
        <time>2012-06-06T06:23:20.000Z</time>
      </trkpt>
      <trkpt lat="43.981" lon="4.8532">
        <ele>63.2</ele>
        <time>2012-06-06T06:23:22.000Z</time>
      </trkpt>
      <trkpt lat="43.98093" lon="4.85316">
        <ele>62.8</ele>
        <time>2012-06-06T06:23:24.000Z</time>
      </trkpt>
      <trkpt lat="43.98086" lon="4.85312">
        <ele>64.2</ele>
        <time>2012-06-06T06:23:26.000Z</time>
      </trkpt>
      <trkpt lat="43.98082" lon="4.85308">
        <ele>65.1</ele>
        <time>2012-06-06T06:23:27.000Z</time>
      </trkpt>
      <trkpt lat="43.98075" lon="4.85307">
        <ele>64.6</ele>
        <time>2012-06-06T06:23:29.000Z</time>
      </trkpt>
      <trkpt lat="43.98069" lon="4.85303">
        <ele>65.5</ele>
        <time>2012-06-06T06:23:31.000Z</time>
      </trkpt>
      <trkpt lat="43.98064" lon="4.85302">
        <ele>65.8</ele>
        <time>2012-06-06T06:23:33.000Z</time>
      </trkpt>
      <trkpt lat="43.98056" lon="4.853">
        <ele>66.3</ele>
        <time>2012-06-06T06:23:35.000Z</time>
      </trkpt>
      <trkpt lat="43.98048" lon="4.85299">
        <ele>67.7</ele>
        <time>2012-06-06T06:23:37.000Z</time>
      </trkpt>
      <trkpt lat="43.98042" lon="4.85298">
        <ele>68.2</ele>
        <time>2012-06-06T06:23:39.000Z</time>
      </trkpt>
      <trkpt lat="43.98033" lon="4.85298">
        <ele>68.4</ele>
        <time>2012-06-06T06:23:41.000Z</time>
      </trkpt>
      <trkpt lat="43.98024" lon="4.85297">
        <ele>67</ele>
        <time>2012-06-06T06:23:43.000Z</time>
      </trkpt>
      <trkpt lat="43.98018" lon="4.85298">
        <ele>65.8</ele>
        <time>2012-06-06T06:23:44.000Z</time>
      </trkpt>
      <trkpt lat="43.98011" lon="4.853">
        <ele>63.9</ele>
        <time>2012-06-06T06:23:46.000Z</time>
      </trkpt>
      <trkpt lat="43.98002" lon="4.85298">
        <ele>61.3</ele>
        <time>2012-06-06T06:23:48.000Z</time>
      </trkpt>
      <trkpt lat="43.97998" lon="4.85296">
        <ele>60.5</ele>
        <time>2012-06-06T06:23:49.000Z</time>
      </trkpt>
      <trkpt lat="43.97993" lon="4.85292">
        <ele>58.6</ele>
        <time>2012-06-06T06:23:50.000Z</time>
      </trkpt>
      <trkpt lat="43.97984" lon="4.85286">
        <ele>57.3</ele>
        <time>2012-06-06T06:23:52.000Z</time>
      </trkpt>
      <trkpt lat="43.97976" lon="4.8528">
        <ele>56.3</ele>
        <time>2012-06-06T06:23:54.000Z</time>
      </trkpt>
      <trkpt lat="43.97972" lon="4.85276">
        <ele>56.9</ele>
        <time>2012-06-06T06:23:55.000Z</time>
      </trkpt>
      <trkpt lat="43.97968" lon="4.85271">
        <ele>56.2</ele>
        <time>2012-06-06T06:23:56.000Z</time>
      </trkpt>
      <trkpt lat="43.97965" lon="4.85266">
        <ele>59.4</ele>
        <time>2012-06-06T06:24:00.000Z</time>
      </trkpt>
      <trkpt lat="43.97963" lon="4.8526">
        <ele>63.4</ele>
        <time>2012-06-06T06:24:13.000Z</time>
      </trkpt>
      <trkpt lat="43.97961" lon="4.85255">
        <ele>64.8</ele>
        <time>2012-06-06T06:24:34.000Z</time>
      </trkpt>
      <trkpt lat="43.97962" lon="4.85261">
        <ele>68</ele>
        <time>2012-06-06T06:25:33.000Z</time>
      </trkpt>
      <trkpt lat="43.97956" lon="4.85259">
        <ele>66.8</ele>
        <time>2012-06-06T06:25:53.000Z</time>
      </trkpt>
      <trkpt lat="43.97948" lon="4.85258">
        <ele>66.1</ele>
        <time>2012-06-06T06:25:56.000Z</time>
      </trkpt>
      <trkpt lat="43.97942" lon="4.85258">
        <ele>65</ele>
        <time>2012-06-06T06:25:58.000Z</time>
      </trkpt>
      <trkpt lat="43.97936" lon="4.85259">
        <ele>65.3</ele>
        <time>2012-06-06T06:26:00.000Z</time>
      </trkpt>
      <trkpt lat="43.97927" lon="4.85259">
        <ele>65.7</ele>
        <time>2012-06-06T06:26:02.000Z</time>
      </trkpt>
      <trkpt lat="43.97919" lon="4.85256">
        <ele>65.7</ele>
        <time>2012-06-06T06:26:04.000Z</time>
      </trkpt>
      <trkpt lat="43.97912" lon="4.85258">
        <ele>65.5</ele>
        <time>2012-06-06T06:26:06.000Z</time>
      </trkpt>
      <trkpt lat="43.97905" lon="4.8526">
        <ele>65.6</ele>
        <time>2012-06-06T06:26:08.000Z</time>
      </trkpt>
      <trkpt lat="43.97898" lon="4.85258">
        <ele>66.2</ele>
        <time>2012-06-06T06:26:10.000Z</time>
      </trkpt>
      <trkpt lat="43.97894" lon="4.85255">
        <ele>65.7</ele>
        <time>2012-06-06T06:26:12.000Z</time>
      </trkpt>
      <trkpt lat="43.97889" lon="4.85248">
        <ele>66.4</ele>
        <time>2012-06-06T06:26:14.000Z</time>
      </trkpt>
      <trkpt lat="43.97882" lon="4.85238">
        <ele>63.9</ele>
        <time>2012-06-06T06:26:16.000Z</time>
      </trkpt>
      <trkpt lat="43.97878" lon="4.85233">
        <ele>63.7</ele>
        <time>2012-06-06T06:26:17.000Z</time>
      </trkpt>
      <trkpt lat="43.97873" lon="4.85224">
        <ele>62.3</ele>
        <time>2012-06-06T06:26:19.000Z</time>
      </trkpt>
      <trkpt lat="43.97868" lon="4.85216">
        <ele>62.1</ele>
        <time>2012-06-06T06:26:21.000Z</time>
      </trkpt>
      <trkpt lat="43.97863" lon="4.85211">
        <ele>62.8</ele>
        <time>2012-06-06T06:26:23.000Z</time>
      </trkpt>
      <trkpt lat="43.97856" lon="4.85204">
        <ele>62.5</ele>
        <time>2012-06-06T06:26:25.000Z</time>
      </trkpt>
      <trkpt lat="43.97849" lon="4.85195">
        <ele>63</ele>
        <time>2012-06-06T06:26:27.000Z</time>
      </trkpt>
      <trkpt lat="43.97845" lon="4.85188">
        <ele>63.7</ele>
        <time>2012-06-06T06:26:28.000Z</time>
      </trkpt>
      <trkpt lat="43.97841" lon="4.85181">
        <ele>64.1</ele>
        <time>2012-06-06T06:26:29.000Z</time>
      </trkpt>
      <trkpt lat="43.97838" lon="4.85177">
        <ele>63.9</ele>
        <time>2012-06-06T06:26:30.000Z</time>
      </trkpt>
      <trkpt lat="43.97834" lon="4.85172">
        <ele>64.1</ele>
        <time>2012-06-06T06:26:31.000Z</time>
      </trkpt>
      <trkpt lat="43.97831" lon="4.85167">
        <ele>64.1</ele>
        <time>2012-06-06T06:26:32.000Z</time>
      </trkpt>
      <trkpt lat="43.97827" lon="4.85162">
        <ele>64.3</ele>
        <time>2012-06-06T06:26:33.000Z</time>
      </trkpt>
      <trkpt lat="43.97821" lon="4.85156">
        <ele>63.1</ele>
        <time>2012-06-06T06:26:35.000Z</time>
      </trkpt>
      <trkpt lat="43.97817" lon="4.85151">
        <ele>63.1</ele>
        <time>2012-06-06T06:26:36.000Z</time>
      </trkpt>
      <trkpt lat="43.97813" lon="4.85145">
        <ele>63.2</ele>
        <time>2012-06-06T06:26:37.000Z</time>
      </trkpt>
      <trkpt lat="43.97807" lon="4.85137">
        <ele>64.2</ele>
        <time>2012-06-06T06:26:39.000Z</time>
      </trkpt>
      <trkpt lat="43.97803" lon="4.85129">
        <ele>65.1</ele>
        <time>2012-06-06T06:26:41.000Z</time>
      </trkpt>
      <trkpt lat="43.97798" lon="4.85121">
        <ele>66</ele>
        <time>2012-06-06T06:26:43.000Z</time>
      </trkpt>
      <trkpt lat="43.97793" lon="4.85112">
        <ele>66.1</ele>
        <time>2012-06-06T06:26:45.000Z</time>
      </trkpt>
      <trkpt lat="43.9779" lon="4.85106">
        <ele>65.7</ele>
        <time>2012-06-06T06:26:48.000Z</time>
      </trkpt>
      <trkpt lat="43.97786" lon="4.85101">
        <ele>64.7</ele>
        <time>2012-06-06T06:26:50.000Z</time>
      </trkpt>
      <trkpt lat="43.97783" lon="4.85096">
        <ele>64.1</ele>
        <time>2012-06-06T06:26:51.000Z</time>
      </trkpt>
      <trkpt lat="43.9778" lon="4.85091">
        <ele>64.2</ele>
        <time>2012-06-06T06:26:52.000Z</time>
      </trkpt>
      <trkpt lat="43.97778" lon="4.85085">
        <ele>64.6</ele>
        <time>2012-06-06T06:26:53.000Z</time>
      </trkpt>
      <trkpt lat="43.97773" lon="4.85074">
        <ele>64.1</ele>
        <time>2012-06-06T06:26:55.000Z</time>
      </trkpt>
      <trkpt lat="43.97769" lon="4.8507">
        <ele>63.7</ele>
        <time>2012-06-06T06:26:56.000Z</time>
      </trkpt>
      <trkpt lat="43.97764" lon="4.85061">
        <ele>63.8</ele>
        <time>2012-06-06T06:26:58.000Z</time>
      </trkpt>
      <trkpt lat="43.97761" lon="4.85055">
        <ele>63.9</ele>
        <time>2012-06-06T06:27:00.000Z</time>
      </trkpt>
      <trkpt lat="43.97757" lon="4.85048">
        <ele>63.4</ele>
        <time>2012-06-06T06:27:02.000Z</time>
      </trkpt>
      <trkpt lat="43.97753" lon="4.85044">
        <ele>63</ele>
        <time>2012-06-06T06:27:04.000Z</time>
      </trkpt>
      <trkpt lat="43.97749" lon="4.85038">
        <ele>62.7</ele>
        <time>2012-06-06T06:27:06.000Z</time>
      </trkpt>
      <trkpt lat="43.97744" lon="4.85033">
        <ele>61.6</ele>
        <time>2012-06-06T06:27:08.000Z</time>
      </trkpt>
      <trkpt lat="43.97741" lon="4.85029">
        <ele>61.1</ele>
        <time>2012-06-06T06:27:09.000Z</time>
      </trkpt>
      <trkpt lat="43.97738" lon="4.85024">
        <ele>60.4</ele>
        <time>2012-06-06T06:27:10.000Z</time>
      </trkpt>
      <trkpt lat="43.97735" lon="4.85016">
        <ele>61</ele>
        <time>2012-06-06T06:27:12.000Z</time>
      </trkpt>
      <trkpt lat="43.97729" lon="4.85001">
        <ele>61.1</ele>
        <time>2012-06-06T06:27:14.000Z</time>
      </trkpt>
      <trkpt lat="43.97726" lon="4.84992">
        <ele>62.7</ele>
        <time>2012-06-06T06:27:15.000Z</time>
      </trkpt>
      <trkpt lat="43.97719" lon="4.84982">
        <ele>66.2</ele>
        <time>2012-06-06T06:27:16.000Z</time>
      </trkpt>
      <trkpt lat="43.97715" lon="4.84972">
        <ele>65.2</ele>
        <time>2012-06-06T06:27:17.000Z</time>
      </trkpt>
      <trkpt lat="43.97711" lon="4.84964">
        <ele>63.4</ele>
        <time>2012-06-06T06:27:19.000Z</time>
      </trkpt>
      <trkpt lat="43.97708" lon="4.84959">
        <ele>63.5</ele>
        <time>2012-06-06T06:27:20.000Z</time>
      </trkpt>
      <trkpt lat="43.97703" lon="4.84953">
        <ele>63.2</ele>
        <time>2012-06-06T06:27:22.000Z</time>
      </trkpt>
      <trkpt lat="43.97697" lon="4.84945">
        <ele>62.9</ele>
        <time>2012-06-06T06:27:24.000Z</time>
      </trkpt>
      <trkpt lat="43.97693" lon="4.8494">
        <ele>62.7</ele>
        <time>2012-06-06T06:27:25.000Z</time>
      </trkpt>
      <trkpt lat="43.97686" lon="4.84933">
        <ele>63.6</ele>
        <time>2012-06-06T06:27:27.000Z</time>
      </trkpt>
      <trkpt lat="43.9768" lon="4.84929">
        <ele>63.8</ele>
        <time>2012-06-06T06:27:29.000Z</time>
      </trkpt>
      <trkpt lat="43.97675" lon="4.84922">
        <ele>63.9</ele>
        <time>2012-06-06T06:27:31.000Z</time>
      </trkpt>
      <trkpt lat="43.97669" lon="4.84914">
        <ele>63.2</ele>
        <time>2012-06-06T06:27:33.000Z</time>
      </trkpt>
      <trkpt lat="43.97666" lon="4.8491">
        <ele>63.2</ele>
        <time>2012-06-06T06:27:34.000Z</time>
      </trkpt>
      <trkpt lat="43.97659" lon="4.84903">
        <ele>62.5</ele>
        <time>2012-06-06T06:27:36.000Z</time>
      </trkpt>
      <trkpt lat="43.97649" lon="4.84899">
        <ele>63.1</ele>
        <time>2012-06-06T06:27:38.000Z</time>
      </trkpt>
      <trkpt lat="43.97645" lon="4.84895">
        <ele>63.7</ele>
        <time>2012-06-06T06:27:39.000Z</time>
      </trkpt>
      <trkpt lat="43.97641" lon="4.84891">
        <ele>63.6</ele>
        <time>2012-06-06T06:27:40.000Z</time>
      </trkpt>
      <trkpt lat="43.97637" lon="4.84887">
        <ele>63.2</ele>
        <time>2012-06-06T06:27:41.000Z</time>
      </trkpt>
      <trkpt lat="43.9763" lon="4.84881">
        <ele>62.9</ele>
        <time>2012-06-06T06:27:43.000Z</time>
      </trkpt>
      <trkpt lat="43.97622" lon="4.84875">
        <ele>62.5</ele>
        <time>2012-06-06T06:27:45.000Z</time>
      </trkpt>
      <trkpt lat="43.97616" lon="4.84868">
        <ele>61.9</ele>
        <time>2012-06-06T06:27:47.000Z</time>
      </trkpt>
      <trkpt lat="43.97609" lon="4.84861">
        <ele>61.8</ele>
        <time>2012-06-06T06:27:49.000Z</time>
      </trkpt>
      <trkpt lat="43.97602" lon="4.84856">
        <ele>61.2</ele>
        <time>2012-06-06T06:27:51.000Z</time>
      </trkpt>
      <trkpt lat="43.97593" lon="4.84847">
        <ele>61.3</ele>
        <time>2012-06-06T06:27:53.000Z</time>
      </trkpt>
      <trkpt lat="43.97585" lon="4.84842">
        <ele>61.6</ele>
        <time>2012-06-06T06:27:55.000Z</time>
      </trkpt>
      <trkpt lat="43.97578" lon="4.84836">
        <ele>61.3</ele>
        <time>2012-06-06T06:27:57.000Z</time>
      </trkpt>
      <trkpt lat="43.97574" lon="4.84831">
        <ele>61.3</ele>
        <time>2012-06-06T06:27:58.000Z</time>
      </trkpt>
      <trkpt lat="43.97567" lon="4.84826">
        <ele>62.4</ele>
        <time>2012-06-06T06:28:00.000Z</time>
      </trkpt>
      <trkpt lat="43.9756" lon="4.8482">
        <ele>62.9</ele>
        <time>2012-06-06T06:28:02.000Z</time>
      </trkpt>
      <trkpt lat="43.97553" lon="4.84814">
        <ele>63.4</ele>
        <time>2012-06-06T06:28:04.000Z</time>
      </trkpt>
      <trkpt lat="43.97547" lon="4.8481">
        <ele>63.7</ele>
        <time>2012-06-06T06:28:06.000Z</time>
      </trkpt>
      <trkpt lat="43.97542" lon="4.84809">
        <ele>63.5</ele>
        <time>2012-06-06T06:28:08.000Z</time>
      </trkpt>
      <trkpt lat="43.97536" lon="4.84805">
        <ele>62.6</ele>
        <time>2012-06-06T06:28:11.000Z</time>
      </trkpt>
      <trkpt lat="43.97531" lon="4.84804">
        <ele>63.7</ele>
        <time>2012-06-06T06:28:13.000Z</time>
      </trkpt>
      <trkpt lat="43.97524" lon="4.84806">
        <ele>62.2</ele>
        <time>2012-06-06T06:28:15.000Z</time>
      </trkpt>
      <trkpt lat="43.97519" lon="4.84806">
        <ele>61.8</ele>
        <time>2012-06-06T06:28:17.000Z</time>
      </trkpt>
      <trkpt lat="43.97513" lon="4.84805">
        <ele>61.6</ele>
        <time>2012-06-06T06:28:20.000Z</time>
      </trkpt>
      <trkpt lat="43.97506" lon="4.848">
        <ele>63.1</ele>
        <time>2012-06-06T06:28:22.000Z</time>
      </trkpt>
      <trkpt lat="43.97498" lon="4.848">
        <ele>65.7</ele>
        <time>2012-06-06T06:28:24.000Z</time>
      </trkpt>
      <trkpt lat="43.9749" lon="4.84805">
        <ele>65.5</ele>
        <time>2012-06-06T06:28:26.000Z</time>
      </trkpt>
      <trkpt lat="43.97482" lon="4.8481">
        <ele>66.2</ele>
        <time>2012-06-06T06:28:28.000Z</time>
      </trkpt>
      <trkpt lat="43.97475" lon="4.84817">
        <ele>66.3</ele>
        <time>2012-06-06T06:28:30.000Z</time>
      </trkpt>
      <trkpt lat="43.97469" lon="4.8482">
        <ele>66.8</ele>
        <time>2012-06-06T06:28:31.000Z</time>
      </trkpt>
      <trkpt lat="43.97465" lon="4.84823">
        <ele>66.5</ele>
        <time>2012-06-06T06:28:32.000Z</time>
      </trkpt>
      <trkpt lat="43.97458" lon="4.8483">
        <ele>66.6</ele>
        <time>2012-06-06T06:28:34.000Z</time>
      </trkpt>
      <trkpt lat="43.97454" lon="4.84834">
        <ele>67</ele>
        <time>2012-06-06T06:28:35.000Z</time>
      </trkpt>
      <trkpt lat="43.97448" lon="4.8484">
        <ele>65.9</ele>
        <time>2012-06-06T06:28:37.000Z</time>
      </trkpt>
      <trkpt lat="43.97441" lon="4.84846">
        <ele>66.1</ele>
        <time>2012-06-06T06:28:39.000Z</time>
      </trkpt>
      <trkpt lat="43.97434" lon="4.84853">
        <ele>66.7</ele>
        <time>2012-06-06T06:28:41.000Z</time>
      </trkpt>
      <trkpt lat="43.97429" lon="4.84858">
        <ele>63.9</ele>
        <time>2012-06-06T06:28:43.000Z</time>
      </trkpt>
      <trkpt lat="43.97423" lon="4.84863">
        <ele>63.5</ele>
        <time>2012-06-06T06:28:45.000Z</time>
      </trkpt>
      <trkpt lat="43.97417" lon="4.84869">
        <ele>64.3</ele>
        <time>2012-06-06T06:28:47.000Z</time>
      </trkpt>
      <trkpt lat="43.97412" lon="4.84875">
        <ele>65.1</ele>
        <time>2012-06-06T06:28:49.000Z</time>
      </trkpt>
      <trkpt lat="43.97408" lon="4.84881">
        <ele>64.6</ele>
        <time>2012-06-06T06:28:51.000Z</time>
      </trkpt>
      <trkpt lat="43.97403" lon="4.84884">
        <ele>64.4</ele>
        <time>2012-06-06T06:28:53.000Z</time>
      </trkpt>
      <trkpt lat="43.97397" lon="4.84891">
        <ele>64.4</ele>
        <time>2012-06-06T06:28:55.000Z</time>
      </trkpt>
      <trkpt lat="43.97391" lon="4.84897">
        <ele>64.2</ele>
        <time>2012-06-06T06:28:57.000Z</time>
      </trkpt>
      <trkpt lat="43.97387" lon="4.849">
        <ele>65.6</ele>
        <time>2012-06-06T06:28:58.000Z</time>
      </trkpt>
      <trkpt lat="43.9738" lon="4.84907">
        <ele>65.8</ele>
        <time>2012-06-06T06:29:00.000Z</time>
      </trkpt>
      <trkpt lat="43.97374" lon="4.84913">
        <ele>65.5</ele>
        <time>2012-06-06T06:29:02.000Z</time>
      </trkpt>
      <trkpt lat="43.97367" lon="4.84918">
        <ele>65.4</ele>
        <time>2012-06-06T06:29:04.000Z</time>
      </trkpt>
      <trkpt lat="43.97363" lon="4.84921">
        <ele>65.8</ele>
        <time>2012-06-06T06:29:05.000Z</time>
      </trkpt>
      <trkpt lat="43.97356" lon="4.84925">
        <ele>65.6</ele>
        <time>2012-06-06T06:29:07.000Z</time>
      </trkpt>
      <trkpt lat="43.97348" lon="4.84926">
        <ele>65.3</ele>
        <time>2012-06-06T06:29:09.000Z</time>
      </trkpt>
      <trkpt lat="43.97339" lon="4.84926">
        <ele>65.5</ele>
        <time>2012-06-06T06:29:11.000Z</time>
      </trkpt>
      <trkpt lat="43.9733" lon="4.84924">
        <ele>65.4</ele>
        <time>2012-06-06T06:29:13.000Z</time>
      </trkpt>
      <trkpt lat="43.97325" lon="4.84924">
        <ele>65.6</ele>
        <time>2012-06-06T06:29:14.000Z</time>
      </trkpt>
      <trkpt lat="43.97319" lon="4.84924">
        <ele>65.3</ele>
        <time>2012-06-06T06:29:15.000Z</time>
      </trkpt>
      <trkpt lat="43.97314" lon="4.84923">
        <ele>65.1</ele>
        <time>2012-06-06T06:29:16.000Z</time>
      </trkpt>
      <trkpt lat="43.97309" lon="4.84922">
        <ele>65.4</ele>
        <time>2012-06-06T06:29:17.000Z</time>
      </trkpt>
      <trkpt lat="43.973" lon="4.84922">
        <ele>65.5</ele>
        <time>2012-06-06T06:29:19.000Z</time>
      </trkpt>
      <trkpt lat="43.97295" lon="4.84923">
        <ele>65.3</ele>
        <time>2012-06-06T06:29:20.000Z</time>
      </trkpt>
      <trkpt lat="43.9729" lon="4.84923">
        <ele>65.3</ele>
        <time>2012-06-06T06:29:21.000Z</time>
      </trkpt>
      <trkpt lat="43.9728" lon="4.84922">
        <ele>65.7</ele>
        <time>2012-06-06T06:29:23.000Z</time>
      </trkpt>
      <trkpt lat="43.97275" lon="4.84922">
        <ele>65.3</ele>
        <time>2012-06-06T06:29:24.000Z</time>
      </trkpt>
      <trkpt lat="43.97268" lon="4.84922">
        <ele>65.9</ele>
        <time>2012-06-06T06:29:26.000Z</time>
      </trkpt>
      <trkpt lat="43.97264" lon="4.84923">
        <ele>66.1</ele>
        <time>2012-06-06T06:29:27.000Z</time>
      </trkpt>
      <trkpt lat="43.97259" lon="4.84923">
        <ele>66</ele>
        <time>2012-06-06T06:29:28.000Z</time>
      </trkpt>
      <trkpt lat="43.97254" lon="4.84923">
        <ele>65.8</ele>
        <time>2012-06-06T06:29:29.000Z</time>
      </trkpt>
      <trkpt lat="43.97246" lon="4.84921">
        <ele>66</ele>
        <time>2012-06-06T06:29:31.000Z</time>
      </trkpt>
      <trkpt lat="43.9724" lon="4.84919">
        <ele>66.3</ele>
        <time>2012-06-06T06:29:33.000Z</time>
      </trkpt>
      <trkpt lat="43.97231" lon="4.84919">
        <ele>66.3</ele>
        <time>2012-06-06T06:29:35.000Z</time>
      </trkpt>
      <trkpt lat="43.97223" lon="4.84918">
        <ele>66.9</ele>
        <time>2012-06-06T06:29:37.000Z</time>
      </trkpt>
      <trkpt lat="43.97218" lon="4.84918">
        <ele>66.8</ele>
        <time>2012-06-06T06:29:38.000Z</time>
      </trkpt>
      <trkpt lat="43.97213" lon="4.84919">
        <ele>66.8</ele>
        <time>2012-06-06T06:29:39.000Z</time>
      </trkpt>
      <trkpt lat="43.97208" lon="4.84918">
        <ele>66.8</ele>
        <time>2012-06-06T06:29:40.000Z</time>
      </trkpt>
      <trkpt lat="43.97203" lon="4.84918">
        <ele>66.9</ele>
        <time>2012-06-06T06:29:41.000Z</time>
      </trkpt>
      <trkpt lat="43.97193" lon="4.84918">
        <ele>66.7</ele>
        <time>2012-06-06T06:29:43.000Z</time>
      </trkpt>
      <trkpt lat="43.97184" lon="4.84918">
        <ele>68</ele>
        <time>2012-06-06T06:29:45.000Z</time>
      </trkpt>
      <trkpt lat="43.97179" lon="4.84919">
        <ele>68.4</ele>
        <time>2012-06-06T06:29:46.000Z</time>
      </trkpt>
      <trkpt lat="43.97171" lon="4.84918">
        <ele>68.3</ele>
        <time>2012-06-06T06:29:48.000Z</time>
      </trkpt>
      <trkpt lat="43.97163" lon="4.84914">
        <ele>67.9</ele>
        <time>2012-06-06T06:29:50.000Z</time>
      </trkpt>
      <trkpt lat="43.97157" lon="4.84912">
        <ele>67</ele>
        <time>2012-06-06T06:29:52.000Z</time>
      </trkpt>
      <trkpt lat="43.97147" lon="4.84913">
        <ele>66.3</ele>
        <time>2012-06-06T06:29:54.000Z</time>
      </trkpt>
      <trkpt lat="43.97142" lon="4.84915">
        <ele>67</ele>
        <time>2012-06-06T06:29:55.000Z</time>
      </trkpt>
      <trkpt lat="43.97137" lon="4.84915">
        <ele>66.9</ele>
        <time>2012-06-06T06:29:56.000Z</time>
      </trkpt>
      <trkpt lat="43.97127" lon="4.84916">
        <ele>67.7</ele>
        <time>2012-06-06T06:29:58.000Z</time>
      </trkpt>
      <trkpt lat="43.97118" lon="4.84916">
        <ele>68</ele>
        <time>2012-06-06T06:30:00.000Z</time>
      </trkpt>
      <trkpt lat="43.9711" lon="4.84917">
        <ele>68.3</ele>
        <time>2012-06-06T06:30:02.000Z</time>
      </trkpt>
      <trkpt lat="43.97105" lon="4.84918">
        <ele>67.9</ele>
        <time>2012-06-06T06:30:03.000Z</time>
      </trkpt>
      <trkpt lat="43.971" lon="4.84919">
        <ele>68</ele>
        <time>2012-06-06T06:30:04.000Z</time>
      </trkpt>
      <trkpt lat="43.97095" lon="4.84919">
        <ele>68.6</ele>
        <time>2012-06-06T06:30:05.000Z</time>
      </trkpt>
      <trkpt lat="43.9709" lon="4.84919">
        <ele>68.8</ele>
        <time>2012-06-06T06:30:06.000Z</time>
      </trkpt>
      <trkpt lat="43.97085" lon="4.84921">
        <ele>69.1</ele>
        <time>2012-06-06T06:30:07.000Z</time>
      </trkpt>
      <trkpt lat="43.9708" lon="4.84924">
        <ele>70.3</ele>
        <time>2012-06-06T06:30:08.000Z</time>
      </trkpt>
      <trkpt lat="43.97076" lon="4.84925">
        <ele>70.3</ele>
        <time>2012-06-06T06:30:09.000Z</time>
      </trkpt>
      <trkpt lat="43.97071" lon="4.84925">
        <ele>70.7</ele>
        <time>2012-06-06T06:30:10.000Z</time>
      </trkpt>
      <trkpt lat="43.97062" lon="4.84928">
        <ele>70.6</ele>
        <time>2012-06-06T06:30:12.000Z</time>
      </trkpt>
      <trkpt lat="43.97057" lon="4.84929">
        <ele>70.8</ele>
        <time>2012-06-06T06:30:13.000Z</time>
      </trkpt>
      <trkpt lat="43.97053" lon="4.84931">
        <ele>70.6</ele>
        <time>2012-06-06T06:30:14.000Z</time>
      </trkpt>
      <trkpt lat="43.97043" lon="4.84934">
        <ele>72</ele>
        <time>2012-06-06T06:30:16.000Z</time>
      </trkpt>
      <trkpt lat="43.97038" lon="4.84937">
        <ele>72.5</ele>
        <time>2012-06-06T06:30:17.000Z</time>
      </trkpt>
      <trkpt lat="43.97034" lon="4.84938">
        <ele>72.6</ele>
        <time>2012-06-06T06:30:18.000Z</time>
      </trkpt>
      <trkpt lat="43.97029" lon="4.84939">
        <ele>73</ele>
        <time>2012-06-06T06:30:19.000Z</time>
      </trkpt>
      <trkpt lat="43.97024" lon="4.84942">
        <ele>73.3</ele>
        <time>2012-06-06T06:30:20.000Z</time>
      </trkpt>
      <trkpt lat="43.9702" lon="4.84942">
        <ele>73</ele>
        <time>2012-06-06T06:30:21.000Z</time>
      </trkpt>
      <trkpt lat="43.97011" lon="4.84944">
        <ele>73</ele>
        <time>2012-06-06T06:30:23.000Z</time>
      </trkpt>
      <trkpt lat="43.97002" lon="4.84947">
        <ele>73.7</ele>
        <time>2012-06-06T06:30:25.000Z</time>
      </trkpt>
      <trkpt lat="43.96998" lon="4.84948">
        <ele>74.1</ele>
        <time>2012-06-06T06:30:26.000Z</time>
      </trkpt>
      <trkpt lat="43.96993" lon="4.8495">
        <ele>74.2</ele>
        <time>2012-06-06T06:30:27.000Z</time>
      </trkpt>
      <trkpt lat="43.96984" lon="4.84952">
        <ele>74.3</ele>
        <time>2012-06-06T06:30:29.000Z</time>
      </trkpt>
      <trkpt lat="43.96976" lon="4.84954">
        <ele>74</ele>
        <time>2012-06-06T06:30:31.000Z</time>
      </trkpt>
      <trkpt lat="43.9697" lon="4.84958">
        <ele>74.2</ele>
        <time>2012-06-06T06:30:33.000Z</time>
      </trkpt>
      <trkpt lat="43.96963" lon="4.84963">
        <ele>74.4</ele>
        <time>2012-06-06T06:30:35.000Z</time>
      </trkpt>
      <trkpt lat="43.96958" lon="4.84971">
        <ele>74.3</ele>
        <time>2012-06-06T06:30:37.000Z</time>
      </trkpt>
      <trkpt lat="43.96953" lon="4.84978">
        <ele>74</ele>
        <time>2012-06-06T06:30:39.000Z</time>
      </trkpt>
      <trkpt lat="43.96949" lon="4.84984">
        <ele>74.2</ele>
        <time>2012-06-06T06:30:41.000Z</time>
      </trkpt>
      <trkpt lat="43.96942" lon="4.84988">
        <ele>73.7</ele>
        <time>2012-06-06T06:30:43.000Z</time>
      </trkpt>
      <trkpt lat="43.96934" lon="4.84989">
        <ele>73.2</ele>
        <time>2012-06-06T06:30:45.000Z</time>
      </trkpt>
      <trkpt lat="43.96928" lon="4.84988">
        <ele>73.2</ele>
        <time>2012-06-06T06:30:47.000Z</time>
      </trkpt>
      <trkpt lat="43.96919" lon="4.84986">
        <ele>72.8</ele>
        <time>2012-06-06T06:30:49.000Z</time>
      </trkpt>
      <trkpt lat="43.96912" lon="4.84984">
        <ele>72.1</ele>
        <time>2012-06-06T06:30:51.000Z</time>
      </trkpt>
      <trkpt lat="43.96904" lon="4.8498">
        <ele>71.6</ele>
        <time>2012-06-06T06:30:53.000Z</time>
      </trkpt>
      <trkpt lat="43.969" lon="4.84976">
        <ele>71.1</ele>
        <time>2012-06-06T06:30:54.000Z</time>
      </trkpt>
      <trkpt lat="43.96897" lon="4.84973">
        <ele>70.7</ele>
        <time>2012-06-06T06:30:55.000Z</time>
      </trkpt>
      <trkpt lat="43.96888" lon="4.84969">
        <ele>71.1</ele>
        <time>2012-06-06T06:30:57.000Z</time>
      </trkpt>
      <trkpt lat="43.9688" lon="4.84965">
        <ele>71.9</ele>
        <time>2012-06-06T06:30:59.000Z</time>
      </trkpt>
      <trkpt lat="43.96871" lon="4.84963">
        <ele>71.7</ele>
        <time>2012-06-06T06:31:01.000Z</time>
      </trkpt>
      <trkpt lat="43.96863" lon="4.84961">
        <ele>71.5</ele>
        <time>2012-06-06T06:31:03.000Z</time>
      </trkpt>
      <trkpt lat="43.96856" lon="4.84956">
        <ele>72</ele>
        <time>2012-06-06T06:31:05.000Z</time>
      </trkpt>
      <trkpt lat="43.9685" lon="4.84954">
        <ele>71.9</ele>
        <time>2012-06-06T06:31:07.000Z</time>
      </trkpt>
      <trkpt lat="43.96842" lon="4.84952">
        <ele>71.6</ele>
        <time>2012-06-06T06:31:09.000Z</time>
      </trkpt>
      <trkpt lat="43.96834" lon="4.84949">
        <ele>70.3</ele>
        <time>2012-06-06T06:31:11.000Z</time>
      </trkpt>
      <trkpt lat="43.96829" lon="4.84946">
        <ele>69.6</ele>
        <time>2012-06-06T06:31:12.000Z</time>
      </trkpt>
      <trkpt lat="43.96821" lon="4.84944">
        <ele>69.8</ele>
        <time>2012-06-06T06:31:14.000Z</time>
      </trkpt>
      <trkpt lat="43.96814" lon="4.84939">
        <ele>67.9</ele>
        <time>2012-06-06T06:31:16.000Z</time>
      </trkpt>
      <trkpt lat="43.96808" lon="4.84935">
        <ele>68.9</ele>
        <time>2012-06-06T06:31:17.000Z</time>
      </trkpt>
      <trkpt lat="43.96801" lon="4.8493">
        <ele>67</ele>
        <time>2012-06-06T06:31:19.000Z</time>
      </trkpt>
      <trkpt lat="43.96795" lon="4.84926">
        <ele>66.2</ele>
        <time>2012-06-06T06:31:21.000Z</time>
      </trkpt>
      <trkpt lat="43.96788" lon="4.84925">
        <ele>65.2</ele>
        <time>2012-06-06T06:31:23.000Z</time>
      </trkpt>
      <trkpt lat="43.96782" lon="4.84925">
        <ele>64.8</ele>
        <time>2012-06-06T06:31:25.000Z</time>
      </trkpt>
      <trkpt lat="43.96773" lon="4.84924">
        <ele>64.5</ele>
        <time>2012-06-06T06:31:27.000Z</time>
      </trkpt>
      <trkpt lat="43.96766" lon="4.84925">
        <ele>64</ele>
        <time>2012-06-06T06:31:29.000Z</time>
      </trkpt>
      <trkpt lat="43.96759" lon="4.84924">
        <ele>63.4</ele>
        <time>2012-06-06T06:31:31.000Z</time>
      </trkpt>
      <trkpt lat="43.96754" lon="4.84921">
        <ele>63.8</ele>
        <time>2012-06-06T06:31:32.000Z</time>
      </trkpt>
      <trkpt lat="43.96745" lon="4.8492">
        <ele>63.9</ele>
        <time>2012-06-06T06:31:34.000Z</time>
      </trkpt>
      <trkpt lat="43.96736" lon="4.84917">
        <ele>63.8</ele>
        <time>2012-06-06T06:31:36.000Z</time>
      </trkpt>
      <trkpt lat="43.96731" lon="4.84914">
        <ele>63.8</ele>
        <time>2012-06-06T06:31:37.000Z</time>
      </trkpt>
      <trkpt lat="43.96723" lon="4.84911">
        <ele>63.6</ele>
        <time>2012-06-06T06:31:39.000Z</time>
      </trkpt>
      <trkpt lat="43.96715" lon="4.8491">
        <ele>63.4</ele>
        <time>2012-06-06T06:31:41.000Z</time>
      </trkpt>
      <trkpt lat="43.96706" lon="4.84911">
        <ele>63</ele>
        <time>2012-06-06T06:31:43.000Z</time>
      </trkpt>
      <trkpt lat="43.96697" lon="4.84911">
        <ele>62.8</ele>
        <time>2012-06-06T06:31:45.000Z</time>
      </trkpt>
      <trkpt lat="43.9669" lon="4.84911">
        <ele>61.9</ele>
        <time>2012-06-06T06:31:47.000Z</time>
      </trkpt>
      <trkpt lat="43.96684" lon="4.84913">
        <ele>62.9</ele>
        <time>2012-06-06T06:31:49.000Z</time>
      </trkpt>
      <trkpt lat="43.96676" lon="4.84912">
        <ele>62.8</ele>
        <time>2012-06-06T06:31:51.000Z</time>
      </trkpt>
      <trkpt lat="43.96668" lon="4.84915">
        <ele>62.6</ele>
        <time>2012-06-06T06:31:53.000Z</time>
      </trkpt>
      <trkpt lat="43.96661" lon="4.84914">
        <ele>66</ele>
        <time>2012-06-06T06:31:54.000Z</time>
      </trkpt>
      <trkpt lat="43.96657" lon="4.84915">
        <ele>65.4</ele>
        <time>2012-06-06T06:31:55.000Z</time>
      </trkpt>
      <trkpt lat="43.96649" lon="4.84916">
        <ele>65.6</ele>
        <time>2012-06-06T06:31:57.000Z</time>
      </trkpt>
      <trkpt lat="43.96641" lon="4.84917">
        <ele>65.3</ele>
        <time>2012-06-06T06:31:59.000Z</time>
      </trkpt>
      <trkpt lat="43.96635" lon="4.84915">
        <ele>65</ele>
        <time>2012-06-06T06:32:01.000Z</time>
      </trkpt>
      <trkpt lat="43.96628" lon="4.84915">
        <ele>65.4</ele>
        <time>2012-06-06T06:32:03.000Z</time>
      </trkpt>
      <trkpt lat="43.9662" lon="4.84914">
        <ele>65.8</ele>
        <time>2012-06-06T06:32:05.000Z</time>
      </trkpt>
      <trkpt lat="43.96615" lon="4.84917">
        <ele>67.9</ele>
        <time>2012-06-06T06:32:06.000Z</time>
      </trkpt>
      <trkpt lat="43.96608" lon="4.84919">
        <ele>68</ele>
        <time>2012-06-06T06:32:08.000Z</time>
      </trkpt>
      <trkpt lat="43.966" lon="4.84923">
        <ele>69.1</ele>
        <time>2012-06-06T06:32:10.000Z</time>
      </trkpt>
      <trkpt lat="43.96594" lon="4.84927">
        <ele>68.5</ele>
        <time>2012-06-06T06:32:12.000Z</time>
      </trkpt>
      <trkpt lat="43.96587" lon="4.84931">
        <ele>68.8</ele>
        <time>2012-06-06T06:32:14.000Z</time>
      </trkpt>
      <trkpt lat="43.9658" lon="4.84932">
        <ele>68.2</ele>
        <time>2012-06-06T06:32:16.000Z</time>
      </trkpt>
      <trkpt lat="43.96575" lon="4.84933">
        <ele>67.9</ele>
        <time>2012-06-06T06:32:17.000Z</time>
      </trkpt>
      <trkpt lat="43.96568" lon="4.84937">
        <ele>67.8</ele>
        <time>2012-06-06T06:32:19.000Z</time>
      </trkpt>
      <trkpt lat="43.96561" lon="4.8494">
        <ele>67.3</ele>
        <time>2012-06-06T06:32:21.000Z</time>
      </trkpt>
      <trkpt lat="43.96556" lon="4.84943">
        <ele>67.5</ele>
        <time>2012-06-06T06:32:22.000Z</time>
      </trkpt>
      <trkpt lat="43.9655" lon="4.84947">
        <ele>67.4</ele>
        <time>2012-06-06T06:32:24.000Z</time>
      </trkpt>
      <trkpt lat="43.96543" lon="4.84949">
        <ele>67.9</ele>
        <time>2012-06-06T06:32:26.000Z</time>
      </trkpt>
      <trkpt lat="43.96536" lon="4.84949">
        <ele>68</ele>
        <time>2012-06-06T06:32:28.000Z</time>
      </trkpt>
      <trkpt lat="43.96531" lon="4.84952">
        <ele>67</ele>
        <time>2012-06-06T06:32:29.000Z</time>
      </trkpt>
      <trkpt lat="43.96527" lon="4.84953">
        <ele>67.6</ele>
        <time>2012-06-06T06:32:30.000Z</time>
      </trkpt>
      <trkpt lat="43.96521" lon="4.84954">
        <ele>67.5</ele>
        <time>2012-06-06T06:32:32.000Z</time>
      </trkpt>
      <trkpt lat="43.96515" lon="4.84955">
        <ele>67.3</ele>
        <time>2012-06-06T06:32:34.000Z</time>
      </trkpt>
      <trkpt lat="43.96508" lon="4.84957">
        <ele>67</ele>
        <time>2012-06-06T06:32:36.000Z</time>
      </trkpt>
      <trkpt lat="43.965" lon="4.84958">
        <ele>66.4</ele>
        <time>2012-06-06T06:32:38.000Z</time>
      </trkpt>
      <trkpt lat="43.96493" lon="4.84957">
        <ele>66.6</ele>
        <time>2012-06-06T06:32:40.000Z</time>
      </trkpt>
      <trkpt lat="43.96487" lon="4.84957">
        <ele>67.8</ele>
        <time>2012-06-06T06:32:42.000Z</time>
      </trkpt>
      <trkpt lat="43.96481" lon="4.84959">
        <ele>68.8</ele>
        <time>2012-06-06T06:32:44.000Z</time>
      </trkpt>
      <trkpt lat="43.96475" lon="4.84958">
        <ele>68.6</ele>
        <time>2012-06-06T06:32:47.000Z</time>
      </trkpt>
      <trkpt lat="43.96469" lon="4.84955">
        <ele>68</ele>
        <time>2012-06-06T06:32:50.000Z</time>
      </trkpt>
      <trkpt lat="43.96467" lon="4.84949">
        <ele>63.2</ele>
        <time>2012-06-06T06:32:51.000Z</time>
      </trkpt>
      <trkpt lat="43.96462" lon="4.84943">
        <ele>62.6</ele>
        <time>2012-06-06T06:32:53.000Z</time>
      </trkpt>
      <trkpt lat="43.96458" lon="4.84937">
        <ele>62.1</ele>
        <time>2012-06-06T06:32:55.000Z</time>
      </trkpt>
      <trkpt lat="43.96454" lon="4.84934">
        <ele>62.2</ele>
        <time>2012-06-06T06:32:57.000Z</time>
      </trkpt>
      <trkpt lat="43.9645" lon="4.8493">
        <ele>61.3</ele>
        <time>2012-06-06T06:33:00.000Z</time>
      </trkpt>
      <trkpt lat="43.96445" lon="4.84925">
        <ele>62.5</ele>
        <time>2012-06-06T06:33:02.000Z</time>
      </trkpt>
      <trkpt lat="43.9644" lon="4.84918">
        <ele>62.1</ele>
        <time>2012-06-06T06:33:04.000Z</time>
      </trkpt>
      <trkpt lat="43.96435" lon="4.84909">
        <ele>63</ele>
        <time>2012-06-06T06:33:06.000Z</time>
      </trkpt>
      <trkpt lat="43.96429" lon="4.84906">
        <ele>63.1</ele>
        <time>2012-06-06T06:33:08.000Z</time>
      </trkpt>
      <trkpt lat="43.96425" lon="4.84902">
        <ele>62.6</ele>
        <time>2012-06-06T06:33:10.000Z</time>
      </trkpt>
      <trkpt lat="43.9642" lon="4.84896">
        <ele>63.3</ele>
        <time>2012-06-06T06:33:12.000Z</time>
      </trkpt>
      <trkpt lat="43.96415" lon="4.84892">
        <ele>62.9</ele>
        <time>2012-06-06T06:33:16.000Z</time>
      </trkpt>
      <trkpt lat="43.96408" lon="4.84885">
        <ele>63.5</ele>
        <time>2012-06-06T06:33:18.000Z</time>
      </trkpt>
      <trkpt lat="43.96403" lon="4.8488">
        <ele>62.7</ele>
        <time>2012-06-06T06:33:20.000Z</time>
      </trkpt>
      <trkpt lat="43.96396" lon="4.84873">
        <ele>62.3</ele>
        <time>2012-06-06T06:33:22.000Z</time>
      </trkpt>
      <trkpt lat="43.96391" lon="4.84869">
        <ele>62.3</ele>
        <time>2012-06-06T06:33:24.000Z</time>
      </trkpt>
      <trkpt lat="43.96382" lon="4.84854">
        <ele>61.5</ele>
        <time>2012-06-06T06:33:26.000Z</time>
      </trkpt>
      <trkpt lat="43.96379" lon="4.84848">
        <ele>60.4</ele>
        <time>2012-06-06T06:33:27.000Z</time>
      </trkpt>
      <trkpt lat="43.96375" lon="4.84843">
        <ele>60.3</ele>
        <time>2012-06-06T06:33:28.000Z</time>
      </trkpt>
      <trkpt lat="43.96372" lon="4.84838">
        <ele>60.1</ele>
        <time>2012-06-06T06:33:29.000Z</time>
      </trkpt>
      <trkpt lat="43.96367" lon="4.84833">
        <ele>60.9</ele>
        <time>2012-06-06T06:33:31.000Z</time>
      </trkpt>
      <trkpt lat="43.96362" lon="4.84828">
        <ele>60.9</ele>
        <time>2012-06-06T06:33:33.000Z</time>
      </trkpt>
      <trkpt lat="43.96358" lon="4.84823">
        <ele>61.7</ele>
        <time>2012-06-06T06:33:35.000Z</time>
      </trkpt>
      <trkpt lat="43.96352" lon="4.84819">
        <ele>61.5</ele>
        <time>2012-06-06T06:33:37.000Z</time>
      </trkpt>
      <trkpt lat="43.96344" lon="4.84812">
        <ele>61.7</ele>
        <time>2012-06-06T06:33:39.000Z</time>
      </trkpt>
      <trkpt lat="43.96336" lon="4.84805">
        <ele>62.5</ele>
        <time>2012-06-06T06:33:41.000Z</time>
      </trkpt>
      <trkpt lat="43.9633" lon="4.84799">
        <ele>62.3</ele>
        <time>2012-06-06T06:33:43.000Z</time>
      </trkpt>
      <trkpt lat="43.96327" lon="4.84795">
        <ele>61.8</ele>
        <time>2012-06-06T06:33:44.000Z</time>
      </trkpt>
      <trkpt lat="43.96323" lon="4.84786">
        <ele>62.2</ele>
        <time>2012-06-06T06:33:46.000Z</time>
      </trkpt>
      <trkpt lat="43.96317" lon="4.84781">
        <ele>62.2</ele>
        <time>2012-06-06T06:33:48.000Z</time>
      </trkpt>
      <trkpt lat="43.96311" lon="4.84772">
        <ele>62</ele>
        <time>2012-06-06T06:33:50.000Z</time>
      </trkpt>
      <trkpt lat="43.96308" lon="4.84767">
        <ele>62.2</ele>
        <time>2012-06-06T06:33:51.000Z</time>
      </trkpt>
      <trkpt lat="43.96303" lon="4.84759">
        <ele>62.8</ele>
        <time>2012-06-06T06:33:53.000Z</time>
      </trkpt>
      <trkpt lat="43.96295" lon="4.84752">
        <ele>63.4</ele>
        <time>2012-06-06T06:33:55.000Z</time>
      </trkpt>
      <trkpt lat="43.9629" lon="4.84746">
        <ele>63</ele>
        <time>2012-06-06T06:33:57.000Z</time>
      </trkpt>
      <trkpt lat="43.96287" lon="4.84741">
        <ele>63.8</ele>
        <time>2012-06-06T06:33:58.000Z</time>
      </trkpt>
      <trkpt lat="43.96281" lon="4.84734">
        <ele>64.8</ele>
        <time>2012-06-06T06:34:00.000Z</time>
      </trkpt>
      <trkpt lat="43.96276" lon="4.84726">
        <ele>65.7</ele>
        <time>2012-06-06T06:34:02.000Z</time>
      </trkpt>
      <trkpt lat="43.96273" lon="4.84722">
        <ele>65</ele>
        <time>2012-06-06T06:34:03.000Z</time>
      </trkpt>
      <trkpt lat="43.96267" lon="4.84716">
        <ele>64.4</ele>
        <time>2012-06-06T06:34:05.000Z</time>
      </trkpt>
      <trkpt lat="43.96264" lon="4.84712">
        <ele>64</ele>
        <time>2012-06-06T06:34:06.000Z</time>
      </trkpt>
      <trkpt lat="43.96258" lon="4.84708">
        <ele>61.8</ele>
        <time>2012-06-06T06:34:08.000Z</time>
      </trkpt>
      <trkpt lat="43.96253" lon="4.84701">
        <ele>62.9</ele>
        <time>2012-06-06T06:34:10.000Z</time>
      </trkpt>
      <trkpt lat="43.96249" lon="4.84695">
        <ele>63.3</ele>
        <time>2012-06-06T06:34:12.000Z</time>
      </trkpt>
      <trkpt lat="43.96245" lon="4.84688">
        <ele>63.3</ele>
        <time>2012-06-06T06:34:14.000Z</time>
      </trkpt>
      <trkpt lat="43.9624" lon="4.84681">
        <ele>61.7</ele>
        <time>2012-06-06T06:34:16.000Z</time>
      </trkpt>
      <trkpt lat="43.96234" lon="4.84674">
        <ele>62.1</ele>
        <time>2012-06-06T06:34:18.000Z</time>
      </trkpt>
      <trkpt lat="43.96227" lon="4.84668">
        <ele>61.2</ele>
        <time>2012-06-06T06:34:20.000Z</time>
      </trkpt>
      <trkpt lat="43.96222" lon="4.84664">
        <ele>60.7</ele>
        <time>2012-06-06T06:34:21.000Z</time>
      </trkpt>
      <trkpt lat="43.96218" lon="4.84654">
        <ele>59.8</ele>
        <time>2012-06-06T06:34:23.000Z</time>
      </trkpt>
      <trkpt lat="43.96213" lon="4.84646">
        <ele>59.4</ele>
        <time>2012-06-06T06:34:25.000Z</time>
      </trkpt>
      <trkpt lat="43.96206" lon="4.84638">
        <ele>59.6</ele>
        <time>2012-06-06T06:34:27.000Z</time>
      </trkpt>
      <trkpt lat="43.96201" lon="4.84632">
        <ele>60.1</ele>
        <time>2012-06-06T06:34:29.000Z</time>
      </trkpt>
      <trkpt lat="43.96195" lon="4.84624">
        <ele>60.6</ele>
        <time>2012-06-06T06:34:31.000Z</time>
      </trkpt>
      <trkpt lat="43.96191" lon="4.8462">
        <ele>60.4</ele>
        <time>2012-06-06T06:34:32.000Z</time>
      </trkpt>
      <trkpt lat="43.96188" lon="4.84615">
        <ele>60.1</ele>
        <time>2012-06-06T06:34:33.000Z</time>
      </trkpt>
      <trkpt lat="43.96183" lon="4.84612">
        <ele>60</ele>
        <time>2012-06-06T06:34:34.000Z</time>
      </trkpt>
      <trkpt lat="43.96178" lon="4.8461">
        <ele>62.3</ele>
        <time>2012-06-06T06:34:35.000Z</time>
      </trkpt>
      <trkpt lat="43.96174" lon="4.84606">
        <ele>62.9</ele>
        <time>2012-06-06T06:34:36.000Z</time>
      </trkpt>
      <trkpt lat="43.96168" lon="4.84599">
        <ele>59.6</ele>
        <time>2012-06-06T06:34:38.000Z</time>
      </trkpt>
      <trkpt lat="43.96163" lon="4.84592">
        <ele>57.1</ele>
        <time>2012-06-06T06:34:40.000Z</time>
      </trkpt>
      <trkpt lat="43.96159" lon="4.84586">
        <ele>55.4</ele>
        <time>2012-06-06T06:34:42.000Z</time>
      </trkpt>
      <trkpt lat="43.96155" lon="4.8458">
        <ele>55</ele>
        <time>2012-06-06T06:34:44.000Z</time>
      </trkpt>
      <trkpt lat="43.9615" lon="4.84574">
        <ele>55.5</ele>
        <time>2012-06-06T06:34:46.000Z</time>
      </trkpt>
      <trkpt lat="43.96149" lon="4.84565">
        <ele>53.2</ele>
        <time>2012-06-06T06:34:49.000Z</time>
      </trkpt>
      <trkpt lat="43.96144" lon="4.84559">
        <ele>55.3</ele>
        <time>2012-06-06T06:34:51.000Z</time>
      </trkpt>
      <trkpt lat="43.96138" lon="4.84552">
        <ele>56.1</ele>
        <time>2012-06-06T06:34:53.000Z</time>
      </trkpt>
      <trkpt lat="43.96134" lon="4.84546">
        <ele>56.9</ele>
        <time>2012-06-06T06:34:55.000Z</time>
      </trkpt>
      <trkpt lat="43.96129" lon="4.84538">
        <ele>57.7</ele>
        <time>2012-06-06T06:34:57.000Z</time>
      </trkpt>
      <trkpt lat="43.96125" lon="4.8453">
        <ele>57.9</ele>
        <time>2012-06-06T06:34:59.000Z</time>
      </trkpt>
      <trkpt lat="43.96121" lon="4.84522">
        <ele>58.9</ele>
        <time>2012-06-06T06:35:01.000Z</time>
      </trkpt>
      <trkpt lat="43.96117" lon="4.84511">
        <ele>58.6</ele>
        <time>2012-06-06T06:35:03.000Z</time>
      </trkpt>
      <trkpt lat="43.96112" lon="4.84505">
        <ele>59.1</ele>
        <time>2012-06-06T06:35:05.000Z</time>
      </trkpt>
      <trkpt lat="43.96109" lon="4.84499">
        <ele>58.2</ele>
        <time>2012-06-06T06:35:07.000Z</time>
      </trkpt>
      <trkpt lat="43.96105" lon="4.84491">
        <ele>57.7</ele>
        <time>2012-06-06T06:35:10.000Z</time>
      </trkpt>
      <trkpt lat="43.96102" lon="4.84483">
        <ele>57.5</ele>
        <time>2012-06-06T06:35:11.000Z</time>
      </trkpt>
      <trkpt lat="43.96098" lon="4.84475">
        <ele>57</ele>
        <time>2012-06-06T06:35:13.000Z</time>
      </trkpt>
      <trkpt lat="43.96096" lon="4.84468">
        <ele>56.3</ele>
        <time>2012-06-06T06:35:15.000Z</time>
      </trkpt>
      <trkpt lat="43.96092" lon="4.84462">
        <ele>55.8</ele>
        <time>2012-06-06T06:35:17.000Z</time>
      </trkpt>
      <trkpt lat="43.96091" lon="4.84456">
        <ele>54.1</ele>
        <time>2012-06-06T06:35:19.000Z</time>
      </trkpt>
      <trkpt lat="43.9609" lon="4.84449">
        <ele>53.9</ele>
        <time>2012-06-06T06:35:21.000Z</time>
      </trkpt>
      <trkpt lat="43.96086" lon="4.84441">
        <ele>53.2</ele>
        <time>2012-06-06T06:35:24.000Z</time>
      </trkpt>
      <trkpt lat="43.96085" lon="4.84434">
        <ele>51.5</ele>
        <time>2012-06-06T06:35:26.000Z</time>
      </trkpt>
      <trkpt lat="43.96084" lon="4.84425">
        <ele>50.7</ele>
        <time>2012-06-06T06:35:28.000Z</time>
      </trkpt>
      <trkpt lat="43.96083" lon="4.84416">
        <ele>49.8</ele>
        <time>2012-06-06T06:35:30.000Z</time>
      </trkpt>
      <trkpt lat="43.96084" lon="4.84403">
        <ele>48.7</ele>
        <time>2012-06-06T06:35:32.000Z</time>
      </trkpt>
      <trkpt lat="43.96085" lon="4.84397">
        <ele>49.3</ele>
        <time>2012-06-06T06:35:34.000Z</time>
      </trkpt>
      <trkpt lat="43.96085" lon="4.84389">
        <ele>49.4</ele>
        <time>2012-06-06T06:35:36.000Z</time>
      </trkpt>
      <trkpt lat="43.96082" lon="4.8438">
        <ele>49.7</ele>
        <time>2012-06-06T06:35:38.000Z</time>
      </trkpt>
      <trkpt lat="43.9608" lon="4.84369">
        <ele>47.7</ele>
        <time>2012-06-06T06:35:41.000Z</time>
      </trkpt>
      <trkpt lat="43.96077" lon="4.84363">
        <ele>47</ele>
        <time>2012-06-06T06:35:43.000Z</time>
      </trkpt>
      <trkpt lat="43.96076" lon="4.84355">
        <ele>45.2</ele>
        <time>2012-06-06T06:35:45.000Z</time>
      </trkpt>
      <trkpt lat="43.96073" lon="4.84348">
        <ele>44.4</ele>
        <time>2012-06-06T06:35:47.000Z</time>
      </trkpt>
      <trkpt lat="43.96072" lon="4.84336">
        <ele>45.8</ele>
        <time>2012-06-06T06:35:49.000Z</time>
      </trkpt>
      <trkpt lat="43.96071" lon="4.84329">
        <ele>46.2</ele>
        <time>2012-06-06T06:35:50.000Z</time>
      </trkpt>
      <trkpt lat="43.96071" lon="4.84322">
        <ele>46.4</ele>
        <time>2012-06-06T06:35:51.000Z</time>
      </trkpt>
      <trkpt lat="43.96069" lon="4.84315">
        <ele>46.3</ele>
        <time>2012-06-06T06:35:53.000Z</time>
      </trkpt>
      <trkpt lat="43.9607" lon="4.84306">
        <ele>46.2</ele>
        <time>2012-06-06T06:35:55.000Z</time>
      </trkpt>
      <trkpt lat="43.96068" lon="4.84295">
        <ele>45.8</ele>
        <time>2012-06-06T06:35:57.000Z</time>
      </trkpt>
      <trkpt lat="43.96068" lon="4.84284">
        <ele>45.5</ele>
        <time>2012-06-06T06:35:59.000Z</time>
      </trkpt>
      <trkpt lat="43.96068" lon="4.84275">
        <ele>42.9</ele>
        <time>2012-06-06T06:36:01.000Z</time>
      </trkpt>
      <trkpt lat="43.96066" lon="4.84264">
        <ele>42.6</ele>
        <time>2012-06-06T06:36:03.000Z</time>
      </trkpt>
      <trkpt lat="43.96065" lon="4.84257">
        <ele>42.6</ele>
        <time>2012-06-06T06:36:04.000Z</time>
      </trkpt>
      <trkpt lat="43.96064" lon="4.8425">
        <ele>43.2</ele>
        <time>2012-06-06T06:36:05.000Z</time>
      </trkpt>
      <trkpt lat="43.96064" lon="4.84243">
        <ele>44.1</ele>
        <time>2012-06-06T06:36:06.000Z</time>
      </trkpt>
      <trkpt lat="43.96063" lon="4.84236">
        <ele>44</ele>
        <time>2012-06-06T06:36:07.000Z</time>
      </trkpt>
      <trkpt lat="43.96064" lon="4.84229">
        <ele>43.9</ele>
        <time>2012-06-06T06:36:08.000Z</time>
      </trkpt>
      <trkpt lat="43.96062" lon="4.84217">
        <ele>45</ele>
        <time>2012-06-06T06:36:10.000Z</time>
      </trkpt>
      <trkpt lat="43.96061" lon="4.8421">
        <ele>44.6</ele>
        <time>2012-06-06T06:36:11.000Z</time>
      </trkpt>
      <trkpt lat="43.96061" lon="4.842">
        <ele>44.2</ele>
        <time>2012-06-06T06:36:13.000Z</time>
      </trkpt>
      <trkpt lat="43.9606" lon="4.84193">
        <ele>46.3</ele>
        <time>2012-06-06T06:36:14.000Z</time>
      </trkpt>
      <trkpt lat="43.9606" lon="4.84183">
        <ele>50.6</ele>
        <time>2012-06-06T06:36:15.000Z</time>
      </trkpt>
      <trkpt lat="43.96061" lon="4.84172">
        <ele>52</ele>
        <time>2012-06-06T06:36:17.000Z</time>
      </trkpt>
      <trkpt lat="43.96063" lon="4.84164">
        <ele>52.4</ele>
        <time>2012-06-06T06:36:19.000Z</time>
      </trkpt>
      <trkpt lat="43.96064" lon="4.84155">
        <ele>52.8</ele>
        <time>2012-06-06T06:36:21.000Z</time>
      </trkpt>
      <trkpt lat="43.96066" lon="4.84146">
        <ele>53.4</ele>
        <time>2012-06-06T06:36:23.000Z</time>
      </trkpt>
      <trkpt lat="43.96068" lon="4.8414">
        <ele>53.3</ele>
        <time>2012-06-06T06:36:25.000Z</time>
      </trkpt>
      <trkpt lat="43.96071" lon="4.84131">
        <ele>54.1</ele>
        <time>2012-06-06T06:36:27.000Z</time>
      </trkpt>
      <trkpt lat="43.96072" lon="4.84119">
        <ele>55</ele>
        <time>2012-06-06T06:36:29.000Z</time>
      </trkpt>
      <trkpt lat="43.96072" lon="4.84109">
        <ele>56.2</ele>
        <time>2012-06-06T06:36:31.000Z</time>
      </trkpt>
      <trkpt lat="43.9607" lon="4.841">
        <ele>57</ele>
        <time>2012-06-06T06:36:33.000Z</time>
      </trkpt>
      <trkpt lat="43.96072" lon="4.84093">
        <ele>57.1</ele>
        <time>2012-06-06T06:36:35.000Z</time>
      </trkpt>
      <trkpt lat="43.96072" lon="4.84083">
        <ele>58.3</ele>
        <time>2012-06-06T06:36:37.000Z</time>
      </trkpt>
      <trkpt lat="43.9607" lon="4.84075">
        <ele>59.2</ele>
        <time>2012-06-06T06:36:39.000Z</time>
      </trkpt>
      <trkpt lat="43.96071" lon="4.84068">
        <ele>59.7</ele>
        <time>2012-06-06T06:36:41.000Z</time>
      </trkpt>
      <trkpt lat="43.96071" lon="4.8406">
        <ele>59.7</ele>
        <time>2012-06-06T06:36:43.000Z</time>
      </trkpt>
      <trkpt lat="43.9607" lon="4.8405">
        <ele>59.4</ele>
        <time>2012-06-06T06:36:45.000Z</time>
      </trkpt>
      <trkpt lat="43.96069" lon="4.84041">
        <ele>59.9</ele>
        <time>2012-06-06T06:36:47.000Z</time>
      </trkpt>
      <trkpt lat="43.96069" lon="4.84033">
        <ele>59.7</ele>
        <time>2012-06-06T06:36:49.000Z</time>
      </trkpt>
      <trkpt lat="43.96068" lon="4.84026">
        <ele>59</ele>
        <time>2012-06-06T06:36:51.000Z</time>
      </trkpt>
      <trkpt lat="43.96066" lon="4.84017">
        <ele>58.4</ele>
        <time>2012-06-06T06:36:53.000Z</time>
      </trkpt>
      <trkpt lat="43.96065" lon="4.84008">
        <ele>58.2</ele>
        <time>2012-06-06T06:36:55.000Z</time>
      </trkpt>
      <trkpt lat="43.96064" lon="4.84">
        <ele>58</ele>
        <time>2012-06-06T06:36:57.000Z</time>
      </trkpt>
      <trkpt lat="43.96063" lon="4.83991">
        <ele>57.7</ele>
        <time>2012-06-06T06:36:59.000Z</time>
      </trkpt>
      <trkpt lat="43.96062" lon="4.83981">
        <ele>57.7</ele>
        <time>2012-06-06T06:37:01.000Z</time>
      </trkpt>
      <trkpt lat="43.96061" lon="4.8397">
        <ele>56.9</ele>
        <time>2012-06-06T06:37:03.000Z</time>
      </trkpt>
      <trkpt lat="43.9606" lon="4.83959">
        <ele>57.5</ele>
        <time>2012-06-06T06:37:05.000Z</time>
      </trkpt>
      <trkpt lat="43.96058" lon="4.8395">
        <ele>57.8</ele>
        <time>2012-06-06T06:37:07.000Z</time>
      </trkpt>
      <trkpt lat="43.96056" lon="4.8394">
        <ele>57.5</ele>
        <time>2012-06-06T06:37:09.000Z</time>
      </trkpt>
      <trkpt lat="43.96056" lon="4.83933">
        <ele>57.4</ele>
        <time>2012-06-06T06:37:11.000Z</time>
      </trkpt>
      <trkpt lat="43.96055" lon="4.83925">
        <ele>58.4</ele>
        <time>2012-06-06T06:37:13.000Z</time>
      </trkpt>
      <trkpt lat="43.96054" lon="4.83914">
        <ele>59.8</ele>
        <time>2012-06-06T06:37:15.000Z</time>
      </trkpt>
      <trkpt lat="43.96052" lon="4.83907">
        <ele>60.1</ele>
        <time>2012-06-06T06:37:17.000Z</time>
      </trkpt>
      <trkpt lat="43.96051" lon="4.83899">
        <ele>59.7</ele>
        <time>2012-06-06T06:37:19.000Z</time>
      </trkpt>
      <trkpt lat="43.96051" lon="4.8389">
        <ele>59.6</ele>
        <time>2012-06-06T06:37:21.000Z</time>
      </trkpt>
      <trkpt lat="43.96051" lon="4.83884">
        <ele>59.4</ele>
        <time>2012-06-06T06:37:22.000Z</time>
      </trkpt>
      <trkpt lat="43.9605" lon="4.83874">
        <ele>60.2</ele>
        <time>2012-06-06T06:37:24.000Z</time>
      </trkpt>
      <trkpt lat="43.96049" lon="4.83868">
        <ele>59.9</ele>
        <time>2012-06-06T06:37:25.000Z</time>
      </trkpt>
      <trkpt lat="43.96048" lon="4.83856">
        <ele>59.7</ele>
        <time>2012-06-06T06:37:27.000Z</time>
      </trkpt>
      <trkpt lat="43.96046" lon="4.83847">
        <ele>59</ele>
        <time>2012-06-06T06:37:29.000Z</time>
      </trkpt>
      <trkpt lat="43.96045" lon="4.83835">
        <ele>59.9</ele>
        <time>2012-06-06T06:37:31.000Z</time>
      </trkpt>
      <trkpt lat="43.96046" lon="4.83828">
        <ele>59.7</ele>
        <time>2012-06-06T06:37:32.000Z</time>
      </trkpt>
      <trkpt lat="43.96045" lon="4.83821">
        <ele>60</ele>
        <time>2012-06-06T06:37:33.000Z</time>
      </trkpt>
      <trkpt lat="43.96046" lon="4.83812">
        <ele>60.6</ele>
        <time>2012-06-06T06:37:35.000Z</time>
      </trkpt>
      <trkpt lat="43.96048" lon="4.83801">
        <ele>60.3</ele>
        <time>2012-06-06T06:37:37.000Z</time>
      </trkpt>
      <trkpt lat="43.96048" lon="4.83792">
        <ele>60</ele>
        <time>2012-06-06T06:37:40.000Z</time>
      </trkpt>
      <trkpt lat="43.9605" lon="4.83784">
        <ele>60.4</ele>
        <time>2012-06-06T06:37:42.000Z</time>
      </trkpt>
      <trkpt lat="43.9605" lon="4.83776">
        <ele>60.1</ele>
        <time>2012-06-06T06:37:44.000Z</time>
      </trkpt>
      <trkpt lat="43.96051" lon="4.83766">
        <ele>59.3</ele>
        <time>2012-06-06T06:37:46.000Z</time>
      </trkpt>
      <trkpt lat="43.96053" lon="4.83759">
        <ele>59.7</ele>
        <time>2012-06-06T06:37:48.000Z</time>
      </trkpt>
      <trkpt lat="43.96055" lon="4.8375">
        <ele>58.6</ele>
        <time>2012-06-06T06:37:50.000Z</time>
      </trkpt>
      <trkpt lat="43.96058" lon="4.8374">
        <ele>59.5</ele>
        <time>2012-06-06T06:37:52.000Z</time>
      </trkpt>
      <trkpt lat="43.96058" lon="4.8373">
        <ele>59.1</ele>
        <time>2012-06-06T06:37:54.000Z</time>
      </trkpt>
      <trkpt lat="43.96057" lon="4.83723">
        <ele>59.2</ele>
        <time>2012-06-06T06:37:55.000Z</time>
      </trkpt>
      <trkpt lat="43.96057" lon="4.83716">
        <ele>59.2</ele>
        <time>2012-06-06T06:37:56.000Z</time>
      </trkpt>
      <trkpt lat="43.96057" lon="4.83705">
        <ele>59.4</ele>
        <time>2012-06-06T06:37:58.000Z</time>
      </trkpt>
      <trkpt lat="43.96057" lon="4.83693">
        <ele>60.6</ele>
        <time>2012-06-06T06:38:00.000Z</time>
      </trkpt>
      <trkpt lat="43.96054" lon="4.8368">
        <ele>61.2</ele>
        <time>2012-06-06T06:38:02.000Z</time>
      </trkpt>
      <trkpt lat="43.96051" lon="4.83674">
        <ele>63.2</ele>
        <time>2012-06-06T06:38:03.000Z</time>
      </trkpt>
      <trkpt lat="43.96047" lon="4.83663">
        <ele>64.8</ele>
        <time>2012-06-06T06:38:05.000Z</time>
      </trkpt>
      <trkpt lat="43.96043" lon="4.83654">
        <ele>65</ele>
        <time>2012-06-06T06:38:07.000Z</time>
      </trkpt>
      <trkpt lat="43.96046" lon="4.83646">
        <ele>64.1</ele>
        <time>2012-06-06T06:38:09.000Z</time>
      </trkpt>
      <trkpt lat="43.9605" lon="4.83638">
        <ele>66.4</ele>
        <time>2012-06-06T06:38:11.000Z</time>
      </trkpt>
      <trkpt lat="43.96054" lon="4.83633">
        <ele>66.8</ele>
        <time>2012-06-06T06:38:13.000Z</time>
      </trkpt>
      <trkpt lat="43.96057" lon="4.83623">
        <ele>67.1</ele>
        <time>2012-06-06T06:38:15.000Z</time>
      </trkpt>
      <trkpt lat="43.96058" lon="4.83615">
        <ele>67.5</ele>
        <time>2012-06-06T06:38:17.000Z</time>
      </trkpt>
      <trkpt lat="43.96058" lon="4.83608">
        <ele>66.5</ele>
        <time>2012-06-06T06:38:18.000Z</time>
      </trkpt>
      <trkpt lat="43.96058" lon="4.83598">
        <ele>66.9</ele>
        <time>2012-06-06T06:38:20.000Z</time>
      </trkpt>
      <trkpt lat="43.96058" lon="4.83592">
        <ele>67.2</ele>
        <time>2012-06-06T06:38:22.000Z</time>
      </trkpt>
      <trkpt lat="43.96058" lon="4.83585">
        <ele>67.1</ele>
        <time>2012-06-06T06:38:24.000Z</time>
      </trkpt>
      <trkpt lat="43.96058" lon="4.83578">
        <ele>67.1</ele>
        <time>2012-06-06T06:38:26.000Z</time>
      </trkpt>
      <trkpt lat="43.96058" lon="4.8357">
        <ele>65.8</ele>
        <time>2012-06-06T06:38:29.000Z</time>
      </trkpt>
      <trkpt lat="43.9606" lon="4.83563">
        <ele>65.3</ele>
        <time>2012-06-06T06:38:31.000Z</time>
      </trkpt>
      <trkpt lat="43.96061" lon="4.83555">
        <ele>65.2</ele>
        <time>2012-06-06T06:38:33.000Z</time>
      </trkpt>
      <trkpt lat="43.96062" lon="4.83544">
        <ele>64.5</ele>
        <time>2012-06-06T06:38:35.000Z</time>
      </trkpt>
      <trkpt lat="43.96063" lon="4.83536">
        <ele>63.4</ele>
        <time>2012-06-06T06:38:37.000Z</time>
      </trkpt>
      <trkpt lat="43.96062" lon="4.83525">
        <ele>62.8</ele>
        <time>2012-06-06T06:38:39.000Z</time>
      </trkpt>
      <trkpt lat="43.9606" lon="4.83516">
        <ele>62.2</ele>
        <time>2012-06-06T06:38:41.000Z</time>
      </trkpt>
      <trkpt lat="43.96059" lon="4.83507">
        <ele>61.4</ele>
        <time>2012-06-06T06:38:43.000Z</time>
      </trkpt>
      <trkpt lat="43.96056" lon="4.83495">
        <ele>60.3</ele>
        <time>2012-06-06T06:38:45.000Z</time>
      </trkpt>
      <trkpt lat="43.96056" lon="4.83484">
        <ele>60.3</ele>
        <time>2012-06-06T06:38:47.000Z</time>
      </trkpt>
      <trkpt lat="43.96054" lon="4.83475">
        <ele>59.9</ele>
        <time>2012-06-06T06:38:49.000Z</time>
      </trkpt>
      <trkpt lat="43.96054" lon="4.83463">
        <ele>59.2</ele>
        <time>2012-06-06T06:38:51.000Z</time>
      </trkpt>
      <trkpt lat="43.96052" lon="4.83451">
        <ele>59.3</ele>
        <time>2012-06-06T06:38:53.000Z</time>
      </trkpt>
      <trkpt lat="43.96052" lon="4.83437">
        <ele>60.2</ele>
        <time>2012-06-06T06:38:55.000Z</time>
      </trkpt>
      <trkpt lat="43.96054" lon="4.83424">
        <ele>57.5</ele>
        <time>2012-06-06T06:38:57.000Z</time>
      </trkpt>
      <trkpt lat="43.96052" lon="4.83411">
        <ele>58.4</ele>
        <time>2012-06-06T06:38:59.000Z</time>
      </trkpt>
      <trkpt lat="43.96052" lon="4.83405">
        <ele>58.7</ele>
        <time>2012-06-06T06:39:00.000Z</time>
      </trkpt>
      <trkpt lat="43.96051" lon="4.83395">
        <ele>59.1</ele>
        <time>2012-06-06T06:39:02.000Z</time>
      </trkpt>
      <trkpt lat="43.96053" lon="4.83389">
        <ele>59.1</ele>
        <time>2012-06-06T06:39:04.000Z</time>
      </trkpt>
      <trkpt lat="43.96052" lon="4.83379">
        <ele>58.2</ele>
        <time>2012-06-06T06:39:06.000Z</time>
      </trkpt>
      <trkpt lat="43.96053" lon="4.83371">
        <ele>57.4</ele>
        <time>2012-06-06T06:39:08.000Z</time>
      </trkpt>
      <trkpt lat="43.96054" lon="4.83362">
        <ele>58.7</ele>
        <time>2012-06-06T06:39:10.000Z</time>
      </trkpt>
      <trkpt lat="43.96054" lon="4.83353">
        <ele>59</ele>
        <time>2012-06-06T06:39:12.000Z</time>
      </trkpt>
      <trkpt lat="43.96056" lon="4.83345">
        <ele>58.2</ele>
        <time>2012-06-06T06:39:14.000Z</time>
      </trkpt>
      <trkpt lat="43.96057" lon="4.83333">
        <ele>58.1</ele>
        <time>2012-06-06T06:39:16.000Z</time>
      </trkpt>
      <trkpt lat="43.96058" lon="4.83323">
        <ele>58.2</ele>
        <time>2012-06-06T06:39:18.000Z</time>
      </trkpt>
      <trkpt lat="43.9606" lon="4.83315">
        <ele>57.5</ele>
        <time>2012-06-06T06:39:20.000Z</time>
      </trkpt>
      <trkpt lat="43.96059" lon="4.83306">
        <ele>56.1</ele>
        <time>2012-06-06T06:39:22.000Z</time>
      </trkpt>
      <trkpt lat="43.9606" lon="4.83298">
        <ele>55.4</ele>
        <time>2012-06-06T06:39:24.000Z</time>
      </trkpt>
      <trkpt lat="43.9606" lon="4.8329">
        <ele>55.6</ele>
        <time>2012-06-06T06:39:26.000Z</time>
      </trkpt>
      <trkpt lat="43.9606" lon="4.83282">
        <ele>56.3</ele>
        <time>2012-06-06T06:39:28.000Z</time>
      </trkpt>
      <trkpt lat="43.9606" lon="4.83271">
        <ele>56.9</ele>
        <time>2012-06-06T06:39:30.000Z</time>
      </trkpt>
      <trkpt lat="43.96061" lon="4.8326">
        <ele>55.6</ele>
        <time>2012-06-06T06:39:32.000Z</time>
      </trkpt>
      <trkpt lat="43.96065" lon="4.8325">
        <ele>54.9</ele>
        <time>2012-06-06T06:39:34.000Z</time>
      </trkpt>
      <trkpt lat="43.96067" lon="4.83239">
        <ele>54.4</ele>
        <time>2012-06-06T06:39:36.000Z</time>
      </trkpt>
      <trkpt lat="43.96066" lon="4.83227">
        <ele>54.3</ele>
        <time>2012-06-06T06:39:38.000Z</time>
      </trkpt>
      <trkpt lat="43.96064" lon="4.83216">
        <ele>53.8</ele>
        <time>2012-06-06T06:39:40.000Z</time>
      </trkpt>
      <trkpt lat="43.96068" lon="4.83212">
        <ele>54.5</ele>
        <time>2012-06-06T06:39:41.000Z</time>
      </trkpt>
      <trkpt lat="43.9607" lon="4.83201">
        <ele>53.8</ele>
        <time>2012-06-06T06:39:43.000Z</time>
      </trkpt>
      <trkpt lat="43.96069" lon="4.83194">
        <ele>53.9</ele>
        <time>2012-06-06T06:39:44.000Z</time>
      </trkpt>
      <trkpt lat="43.9607" lon="4.83181">
        <ele>53.2</ele>
        <time>2012-06-06T06:39:46.000Z</time>
      </trkpt>
      <trkpt lat="43.96071" lon="4.83171">
        <ele>52.8</ele>
        <time>2012-06-06T06:39:48.000Z</time>
      </trkpt>
      <trkpt lat="43.96076" lon="4.83159">
        <ele>53.2</ele>
        <time>2012-06-06T06:39:50.000Z</time>
      </trkpt>
      <trkpt lat="43.96078" lon="4.8315">
        <ele>54.1</ele>
        <time>2012-06-06T06:39:52.000Z</time>
      </trkpt>
      <trkpt lat="43.96077" lon="4.83143">
        <ele>54.5</ele>
        <time>2012-06-06T06:39:53.000Z</time>
      </trkpt>
      <trkpt lat="43.96076" lon="4.83133">
        <ele>55.1</ele>
        <time>2012-06-06T06:39:55.000Z</time>
      </trkpt>
      <trkpt lat="43.96078" lon="4.83124">
        <ele>55</ele>
        <time>2012-06-06T06:39:57.000Z</time>
      </trkpt>
      <trkpt lat="43.96077" lon="4.83115">
        <ele>56.2</ele>
        <time>2012-06-06T06:39:59.000Z</time>
      </trkpt>
      <trkpt lat="43.96078" lon="4.83107">
        <ele>56.1</ele>
        <time>2012-06-06T06:40:01.000Z</time>
      </trkpt>
      <trkpt lat="43.96073" lon="4.83094">
        <ele>56.5</ele>
        <time>2012-06-06T06:40:02.000Z</time>
      </trkpt>
      <trkpt lat="43.96073" lon="4.83088">
        <ele>57.5</ele>
        <time>2012-06-06T06:40:03.000Z</time>
      </trkpt>
      <trkpt lat="43.96072" lon="4.83081">
        <ele>58</ele>
        <time>2012-06-06T06:40:04.000Z</time>
      </trkpt>
      <trkpt lat="43.9607" lon="4.83071">
        <ele>59.6</ele>
        <time>2012-06-06T06:40:06.000Z</time>
      </trkpt>
      <trkpt lat="43.96071" lon="4.83064">
        <ele>60.8</ele>
        <time>2012-06-06T06:40:08.000Z</time>
      </trkpt>
      <trkpt lat="43.96071" lon="4.83055">
        <ele>61.9</ele>
        <time>2012-06-06T06:40:10.000Z</time>
      </trkpt>
      <trkpt lat="43.96071" lon="4.83047">
        <ele>60.1</ele>
        <time>2012-06-06T06:40:12.000Z</time>
      </trkpt>
      <trkpt lat="43.96071" lon="4.8304">
        <ele>59.6</ele>
        <time>2012-06-06T06:40:14.000Z</time>
      </trkpt>
      <trkpt lat="43.96071" lon="4.83033">
        <ele>58.3</ele>
        <time>2012-06-06T06:40:16.000Z</time>
      </trkpt>
      <trkpt lat="43.9607" lon="4.83021">
        <ele>57.9</ele>
        <time>2012-06-06T06:40:19.000Z</time>
      </trkpt>
      <trkpt lat="43.96071" lon="4.83014">
        <ele>57.7</ele>
        <time>2012-06-06T06:40:21.000Z</time>
      </trkpt>
      <trkpt lat="43.96071" lon="4.83006">
        <ele>57.5</ele>
        <time>2012-06-06T06:40:23.000Z</time>
      </trkpt>
      <trkpt lat="43.96072" lon="4.82998">
        <ele>57.4</ele>
        <time>2012-06-06T06:40:25.000Z</time>
      </trkpt>
      <trkpt lat="43.96072" lon="4.8299">
        <ele>56.9</ele>
        <time>2012-06-06T06:40:27.000Z</time>
      </trkpt>
      <trkpt lat="43.96072" lon="4.82984">
        <ele>56.5</ele>
        <time>2012-06-06T06:40:29.000Z</time>
      </trkpt>
      <trkpt lat="43.96073" lon="4.82976">
        <ele>55.6</ele>
        <time>2012-06-06T06:40:31.000Z</time>
      </trkpt>
      <trkpt lat="43.96071" lon="4.82968">
        <ele>54.6</ele>
        <time>2012-06-06T06:40:33.000Z</time>
      </trkpt>
      <trkpt lat="43.96071" lon="4.8296">
        <ele>53.6</ele>
        <time>2012-06-06T06:40:34.000Z</time>
      </trkpt>
      <trkpt lat="43.96071" lon="4.82951">
        <ele>52.7</ele>
        <time>2012-06-06T06:40:36.000Z</time>
      </trkpt>
      <trkpt lat="43.96071" lon="4.82944">
        <ele>52.6</ele>
        <time>2012-06-06T06:40:38.000Z</time>
      </trkpt>
      <trkpt lat="43.96069" lon="4.82937">
        <ele>49.4</ele>
        <time>2012-06-06T06:40:40.000Z</time>
      </trkpt>
      <trkpt lat="43.96068" lon="4.82931">
        <ele>49.3</ele>
        <time>2012-06-06T06:40:42.000Z</time>
      </trkpt>
      <trkpt lat="43.96068" lon="4.82923">
        <ele>50.1</ele>
        <time>2012-06-06T06:40:43.000Z</time>
      </trkpt>
      <trkpt lat="43.96068" lon="4.82916">
        <ele>49.3</ele>
        <time>2012-06-06T06:40:45.000Z</time>
      </trkpt>
      <trkpt lat="43.96068" lon="4.82908">
        <ele>50.8</ele>
        <time>2012-06-06T06:40:47.000Z</time>
      </trkpt>
      <trkpt lat="43.96066" lon="4.82901">
        <ele>51.8</ele>
        <time>2012-06-06T06:40:49.000Z</time>
      </trkpt>
      <trkpt lat="43.96064" lon="4.82893">
        <ele>52.3</ele>
        <time>2012-06-06T06:40:51.000Z</time>
      </trkpt>
      <trkpt lat="43.96062" lon="4.82884">
        <ele>52.7</ele>
        <time>2012-06-06T06:40:54.000Z</time>
      </trkpt>
      <trkpt lat="43.96059" lon="4.82874">
        <ele>53.4</ele>
        <time>2012-06-06T06:40:56.000Z</time>
      </trkpt>
      <trkpt lat="43.96057" lon="4.82866">
        <ele>55.7</ele>
        <time>2012-06-06T06:40:57.000Z</time>
      </trkpt>
      <trkpt lat="43.96053" lon="4.82857">
        <ele>56.3</ele>
        <time>2012-06-06T06:40:59.000Z</time>
      </trkpt>
      <trkpt lat="43.9605" lon="4.82848">
        <ele>57.2</ele>
        <time>2012-06-06T06:41:01.000Z</time>
      </trkpt>
      <trkpt lat="43.96047" lon="4.82838">
        <ele>58.4</ele>
        <time>2012-06-06T06:41:03.000Z</time>
      </trkpt>
      <trkpt lat="43.96044" lon="4.82827">
        <ele>59.1</ele>
        <time>2012-06-06T06:41:05.000Z</time>
      </trkpt>
      <trkpt lat="43.9604" lon="4.82819">
        <ele>58.3</ele>
        <time>2012-06-06T06:41:07.000Z</time>
      </trkpt>
      <trkpt lat="43.96035" lon="4.8281">
        <ele>58.3</ele>
        <time>2012-06-06T06:41:09.000Z</time>
      </trkpt>
      <trkpt lat="43.96031" lon="4.82803">
        <ele>57.7</ele>
        <time>2012-06-06T06:41:10.000Z</time>
      </trkpt>
      <trkpt lat="43.96029" lon="4.82797">
        <ele>57.7</ele>
        <time>2012-06-06T06:41:11.000Z</time>
      </trkpt>
      <trkpt lat="43.96024" lon="4.82792">
        <ele>57.8</ele>
        <time>2012-06-06T06:41:12.000Z</time>
      </trkpt>
      <trkpt lat="43.96022" lon="4.82786">
        <ele>58.8</ele>
        <time>2012-06-06T06:41:13.000Z</time>
      </trkpt>
      <trkpt lat="43.96019" lon="4.82781">
        <ele>58.7</ele>
        <time>2012-06-06T06:41:14.000Z</time>
      </trkpt>
      <trkpt lat="43.96015" lon="4.82777">
        <ele>58.3</ele>
        <time>2012-06-06T06:41:15.000Z</time>
      </trkpt>
      <trkpt lat="43.9601" lon="4.82769">
        <ele>57.9</ele>
        <time>2012-06-06T06:41:17.000Z</time>
      </trkpt>
      <trkpt lat="43.96004" lon="4.82759">
        <ele>57.9</ele>
        <time>2012-06-06T06:41:19.000Z</time>
      </trkpt>
      <trkpt lat="43.96001" lon="4.8275">
        <ele>57.6</ele>
        <time>2012-06-06T06:41:20.000Z</time>
      </trkpt>
      <trkpt lat="43.95998" lon="4.82741">
        <ele>58.9</ele>
        <time>2012-06-06T06:41:21.000Z</time>
      </trkpt>
      <trkpt lat="43.95992" lon="4.82733">
        <ele>59.5</ele>
        <time>2012-06-06T06:41:23.000Z</time>
      </trkpt>
      <trkpt lat="43.95988" lon="4.82728">
        <ele>60</ele>
        <time>2012-06-06T06:41:24.000Z</time>
      </trkpt>
      <trkpt lat="43.95985" lon="4.82723">
        <ele>61.4</ele>
        <time>2012-06-06T06:41:25.000Z</time>
      </trkpt>
      <trkpt lat="43.9598" lon="4.82714">
        <ele>62.2</ele>
        <time>2012-06-06T06:41:27.000Z</time>
      </trkpt>
      <trkpt lat="43.95974" lon="4.82703">
        <ele>62.5</ele>
        <time>2012-06-06T06:41:29.000Z</time>
      </trkpt>
      <trkpt lat="43.9597" lon="4.82698">
        <ele>62.5</ele>
        <time>2012-06-06T06:41:30.000Z</time>
      </trkpt>
      <trkpt lat="43.95966" lon="4.82693">
        <ele>62.8</ele>
        <time>2012-06-06T06:41:31.000Z</time>
      </trkpt>
      <trkpt lat="43.95964" lon="4.82686">
        <ele>62.1</ele>
        <time>2012-06-06T06:41:32.000Z</time>
      </trkpt>
      <trkpt lat="43.95957" lon="4.82672">
        <ele>62.4</ele>
        <time>2012-06-06T06:41:33.000Z</time>
      </trkpt>
      <trkpt lat="43.95953" lon="4.82666">
        <ele>62.1</ele>
        <time>2012-06-06T06:41:34.000Z</time>
      </trkpt>
      <trkpt lat="43.95947" lon="4.82651">
        <ele>61.6</ele>
        <time>2012-06-06T06:41:36.000Z</time>
      </trkpt>
      <trkpt lat="43.95944" lon="4.82645">
        <ele>61.2</ele>
        <time>2012-06-06T06:41:37.000Z</time>
      </trkpt>
      <trkpt lat="43.95942" lon="4.82639">
        <ele>61.5</ele>
        <time>2012-06-06T06:41:38.000Z</time>
      </trkpt>
      <trkpt lat="43.95939" lon="4.82626">
        <ele>63.7</ele>
        <time>2012-06-06T06:41:40.000Z</time>
      </trkpt>
      <trkpt lat="43.95938" lon="4.8262">
        <ele>65.2</ele>
        <time>2012-06-06T06:41:41.000Z</time>
      </trkpt>
      <trkpt lat="43.95936" lon="4.8261">
        <ele>65.9</ele>
        <time>2012-06-06T06:41:43.000Z</time>
      </trkpt>
      <trkpt lat="43.95934" lon="4.82602">
        <ele>66.1</ele>
        <time>2012-06-06T06:41:45.000Z</time>
      </trkpt>
      <trkpt lat="43.95931" lon="4.82591">
        <ele>65.2</ele>
        <time>2012-06-06T06:41:47.000Z</time>
      </trkpt>
      <trkpt lat="43.95926" lon="4.8258">
        <ele>64.8</ele>
        <time>2012-06-06T06:41:49.000Z</time>
      </trkpt>
      <trkpt lat="43.95922" lon="4.82567">
        <ele>65.5</ele>
        <time>2012-06-06T06:41:51.000Z</time>
      </trkpt>
      <trkpt lat="43.95921" lon="4.8256">
        <ele>65.2</ele>
        <time>2012-06-06T06:41:52.000Z</time>
      </trkpt>
      <trkpt lat="43.95918" lon="4.82553">
        <ele>65.4</ele>
        <time>2012-06-06T06:41:53.000Z</time>
      </trkpt>
      <trkpt lat="43.95915" lon="4.82541">
        <ele>65.6</ele>
        <time>2012-06-06T06:41:55.000Z</time>
      </trkpt>
      <trkpt lat="43.95913" lon="4.82534">
        <ele>65.5</ele>
        <time>2012-06-06T06:41:56.000Z</time>
      </trkpt>
      <trkpt lat="43.9591" lon="4.82523">
        <ele>66</ele>
        <time>2012-06-06T06:41:58.000Z</time>
      </trkpt>
      <trkpt lat="43.95907" lon="4.82517">
        <ele>65.8</ele>
        <time>2012-06-06T06:41:59.000Z</time>
      </trkpt>
      <trkpt lat="43.95905" lon="4.82511">
        <ele>65.5</ele>
        <time>2012-06-06T06:42:00.000Z</time>
      </trkpt>
      <trkpt lat="43.95902" lon="4.82506">
        <ele>65.4</ele>
        <time>2012-06-06T06:42:01.000Z</time>
      </trkpt>
      <trkpt lat="43.95898" lon="4.82497">
        <ele>65.9</ele>
        <time>2012-06-06T06:42:03.000Z</time>
      </trkpt>
      <trkpt lat="43.95895" lon="4.82492">
        <ele>66.5</ele>
        <time>2012-06-06T06:42:04.000Z</time>
      </trkpt>
      <trkpt lat="43.95891" lon="4.82482">
        <ele>66.6</ele>
        <time>2012-06-06T06:42:06.000Z</time>
      </trkpt>
      <trkpt lat="43.95889" lon="4.82477">
        <ele>66.5</ele>
        <time>2012-06-06T06:42:07.000Z</time>
      </trkpt>
      <trkpt lat="43.95887" lon="4.82469">
        <ele>65.8</ele>
        <time>2012-06-06T06:42:08.000Z</time>
      </trkpt>
      <trkpt lat="43.95883" lon="4.82458">
        <ele>65.2</ele>
        <time>2012-06-06T06:42:10.000Z</time>
      </trkpt>
      <trkpt lat="43.95876" lon="4.82448">
        <ele>65</ele>
        <time>2012-06-06T06:42:12.000Z</time>
      </trkpt>
      <trkpt lat="43.95873" lon="4.82443">
        <ele>64.9</ele>
        <time>2012-06-06T06:42:13.000Z</time>
      </trkpt>
      <trkpt lat="43.95868" lon="4.82434">
        <ele>64.8</ele>
        <time>2012-06-06T06:42:15.000Z</time>
      </trkpt>
      <trkpt lat="43.95863" lon="4.82429">
        <ele>64.8</ele>
        <time>2012-06-06T06:42:16.000Z</time>
      </trkpt>
      <trkpt lat="43.95861" lon="4.82423">
        <ele>64.6</ele>
        <time>2012-06-06T06:42:17.000Z</time>
      </trkpt>
      <trkpt lat="43.95857" lon="4.82417">
        <ele>64.6</ele>
        <time>2012-06-06T06:42:18.000Z</time>
      </trkpt>
      <trkpt lat="43.95852" lon="4.8241">
        <ele>64.7</ele>
        <time>2012-06-06T06:42:19.000Z</time>
      </trkpt>
      <trkpt lat="43.95847" lon="4.82405">
        <ele>64.5</ele>
        <time>2012-06-06T06:42:20.000Z</time>
      </trkpt>
      <trkpt lat="43.95845" lon="4.82399">
        <ele>64.6</ele>
        <time>2012-06-06T06:42:21.000Z</time>
      </trkpt>
      <trkpt lat="43.9584" lon="4.82394">
        <ele>64.2</ele>
        <time>2012-06-06T06:42:22.000Z</time>
      </trkpt>
      <trkpt lat="43.95834" lon="4.82383">
        <ele>62.2</ele>
        <time>2012-06-06T06:42:24.000Z</time>
      </trkpt>
      <trkpt lat="43.95829" lon="4.82378">
        <ele>62.8</ele>
        <time>2012-06-06T06:42:25.000Z</time>
      </trkpt>
      <trkpt lat="43.95824" lon="4.8237">
        <ele>62.6</ele>
        <time>2012-06-06T06:42:27.000Z</time>
      </trkpt>
      <trkpt lat="43.95821" lon="4.82365">
        <ele>62.6</ele>
        <time>2012-06-06T06:42:28.000Z</time>
      </trkpt>
      <trkpt lat="43.95816" lon="4.82362">
        <ele>62.9</ele>
        <time>2012-06-06T06:42:29.000Z</time>
      </trkpt>
      <trkpt lat="43.95811" lon="4.82354">
        <ele>63.1</ele>
        <time>2012-06-06T06:42:31.000Z</time>
      </trkpt>
      <trkpt lat="43.95804" lon="4.82346">
        <ele>63.4</ele>
        <time>2012-06-06T06:42:33.000Z</time>
      </trkpt>
      <trkpt lat="43.95798" lon="4.82338">
        <ele>63.8</ele>
        <time>2012-06-06T06:42:35.000Z</time>
      </trkpt>
      <trkpt lat="43.95793" lon="4.82329">
        <ele>64.1</ele>
        <time>2012-06-06T06:42:37.000Z</time>
      </trkpt>
      <trkpt lat="43.95786" lon="4.82319">
        <ele>64.6</ele>
        <time>2012-06-06T06:42:39.000Z</time>
      </trkpt>
      <trkpt lat="43.95782" lon="4.82315">
        <ele>64</ele>
        <time>2012-06-06T06:42:40.000Z</time>
      </trkpt>
      <trkpt lat="43.95779" lon="4.8231">
        <ele>64.1</ele>
        <time>2012-06-06T06:42:41.000Z</time>
      </trkpt>
      <trkpt lat="43.95771" lon="4.82302">
        <ele>64.2</ele>
        <time>2012-06-06T06:42:43.000Z</time>
      </trkpt>
      <trkpt lat="43.95765" lon="4.823">
        <ele>65.3</ele>
        <time>2012-06-06T06:42:44.000Z</time>
      </trkpt>
      <trkpt lat="43.95758" lon="4.82294">
        <ele>65.5</ele>
        <time>2012-06-06T06:42:46.000Z</time>
      </trkpt>
      <trkpt lat="43.95751" lon="4.82288">
        <ele>65.4</ele>
        <time>2012-06-06T06:42:48.000Z</time>
      </trkpt>
      <trkpt lat="43.95745" lon="4.82284">
        <ele>65.7</ele>
        <time>2012-06-06T06:42:50.000Z</time>
      </trkpt>
      <trkpt lat="43.9574" lon="4.82282">
        <ele>64.2</ele>
        <time>2012-06-06T06:42:51.000Z</time>
      </trkpt>
      <trkpt lat="43.95734" lon="4.82275">
        <ele>62.9</ele>
        <time>2012-06-06T06:42:53.000Z</time>
      </trkpt>
      <trkpt lat="43.9573" lon="4.8227">
        <ele>63.3</ele>
        <time>2012-06-06T06:42:55.000Z</time>
      </trkpt>
      <trkpt lat="43.95726" lon="4.82262">
        <ele>62.1</ele>
        <time>2012-06-06T06:42:57.000Z</time>
      </trkpt>
      <trkpt lat="43.95722" lon="4.82258">
        <ele>62.1</ele>
        <time>2012-06-06T06:42:58.000Z</time>
      </trkpt>
      <trkpt lat="43.95717" lon="4.82252">
        <ele>61.9</ele>
        <time>2012-06-06T06:43:00.000Z</time>
      </trkpt>
      <trkpt lat="43.95713" lon="4.82248">
        <ele>61.2</ele>
        <time>2012-06-06T06:43:02.000Z</time>
      </trkpt>
      <trkpt lat="43.95706" lon="4.82241">
        <ele>61.1</ele>
        <time>2012-06-06T06:43:04.000Z</time>
      </trkpt>
      <trkpt lat="43.95702" lon="4.82234">
        <ele>61.3</ele>
        <time>2012-06-06T06:43:06.000Z</time>
      </trkpt>
      <trkpt lat="43.95698" lon="4.82228">
        <ele>61.5</ele>
        <time>2012-06-06T06:43:08.000Z</time>
      </trkpt>
      <trkpt lat="43.95691" lon="4.82226">
        <ele>62.3</ele>
        <time>2012-06-06T06:43:10.000Z</time>
      </trkpt>
      <trkpt lat="43.95686" lon="4.8222">
        <ele>62.8</ele>
        <time>2012-06-06T06:43:12.000Z</time>
      </trkpt>
      <trkpt lat="43.95682" lon="4.82215">
        <ele>63.7</ele>
        <time>2012-06-06T06:43:14.000Z</time>
      </trkpt>
      <trkpt lat="43.95678" lon="4.8221">
        <ele>64.8</ele>
        <time>2012-06-06T06:43:17.000Z</time>
      </trkpt>
      <trkpt lat="43.95673" lon="4.82201">
        <ele>65.8</ele>
        <time>2012-06-06T06:43:19.000Z</time>
      </trkpt>
      <trkpt lat="43.95668" lon="4.82195">
        <ele>65</ele>
        <time>2012-06-06T06:43:21.000Z</time>
      </trkpt>
      <trkpt lat="43.95664" lon="4.8219">
        <ele>63.3</ele>
        <time>2012-06-06T06:43:23.000Z</time>
      </trkpt>
      <trkpt lat="43.95659" lon="4.82185">
        <ele>64</ele>
        <time>2012-06-06T06:43:25.000Z</time>
      </trkpt>
      <trkpt lat="43.95654" lon="4.8218">
        <ele>64</ele>
        <time>2012-06-06T06:43:27.000Z</time>
      </trkpt>
      <trkpt lat="43.9565" lon="4.82175">
        <ele>63.6</ele>
        <time>2012-06-06T06:43:29.000Z</time>
      </trkpt>
      <trkpt lat="43.95644" lon="4.8217">
        <ele>64.2</ele>
        <time>2012-06-06T06:43:31.000Z</time>
      </trkpt>
      <trkpt lat="43.9564" lon="4.82165">
        <ele>63.5</ele>
        <time>2012-06-06T06:43:32.000Z</time>
      </trkpt>
      <trkpt lat="43.95633" lon="4.82158">
        <ele>63.2</ele>
        <time>2012-06-06T06:43:34.000Z</time>
      </trkpt>
      <trkpt lat="43.95626" lon="4.82152">
        <ele>63.8</ele>
        <time>2012-06-06T06:43:36.000Z</time>
      </trkpt>
      <trkpt lat="43.9562" lon="4.82149">
        <ele>62.6</ele>
        <time>2012-06-06T06:43:38.000Z</time>
      </trkpt>
      <trkpt lat="43.95615" lon="4.82144">
        <ele>61.6</ele>
        <time>2012-06-06T06:43:40.000Z</time>
      </trkpt>
      <trkpt lat="43.95612" lon="4.82137">
        <ele>61.2</ele>
        <time>2012-06-06T06:43:42.000Z</time>
      </trkpt>
      <trkpt lat="43.95608" lon="4.82131">
        <ele>61.1</ele>
        <time>2012-06-06T06:43:44.000Z</time>
      </trkpt>
      <trkpt lat="43.95603" lon="4.82123">
        <ele>61.3</ele>
        <time>2012-06-06T06:43:46.000Z</time>
      </trkpt>
      <trkpt lat="43.95598" lon="4.82117">
        <ele>62.6</ele>
        <time>2012-06-06T06:43:48.000Z</time>
      </trkpt>
      <trkpt lat="43.95594" lon="4.8211">
        <ele>62.5</ele>
        <time>2012-06-06T06:43:50.000Z</time>
      </trkpt>
      <trkpt lat="43.95589" lon="4.82102">
        <ele>61.7</ele>
        <time>2012-06-06T06:43:52.000Z</time>
      </trkpt>
      <trkpt lat="43.95585" lon="4.82094">
        <ele>62.7</ele>
        <time>2012-06-06T06:43:54.000Z</time>
      </trkpt>
      <trkpt lat="43.95582" lon="4.82089">
        <ele>62.3</ele>
        <time>2012-06-06T06:43:56.000Z</time>
      </trkpt>
      <trkpt lat="43.95578" lon="4.82082">
        <ele>61.5</ele>
        <time>2012-06-06T06:43:58.000Z</time>
      </trkpt>
      <trkpt lat="43.95574" lon="4.82076">
        <ele>61.6</ele>
        <time>2012-06-06T06:44:00.000Z</time>
      </trkpt>
      <trkpt lat="43.95569" lon="4.82065">
        <ele>61.4</ele>
        <time>2012-06-06T06:44:02.000Z</time>
      </trkpt>
      <trkpt lat="43.95562" lon="4.82057">
        <ele>62</ele>
        <time>2012-06-06T06:44:04.000Z</time>
      </trkpt>
      <trkpt lat="43.95557" lon="4.82051">
        <ele>61.7</ele>
        <time>2012-06-06T06:44:06.000Z</time>
      </trkpt>
      <trkpt lat="43.95553" lon="4.82046">
        <ele>64</ele>
        <time>2012-06-06T06:44:08.000Z</time>
      </trkpt>
      <trkpt lat="43.9555" lon="4.8204">
        <ele>63.4</ele>
        <time>2012-06-06T06:44:09.000Z</time>
      </trkpt>
      <trkpt lat="43.95547" lon="4.82035">
        <ele>62.5</ele>
        <time>2012-06-06T06:44:10.000Z</time>
      </trkpt>
      <trkpt lat="43.95543" lon="4.82028">
        <ele>61.2</ele>
        <time>2012-06-06T06:44:11.000Z</time>
      </trkpt>
      <trkpt lat="43.95539" lon="4.82023">
        <ele>61.1</ele>
        <time>2012-06-06T06:44:12.000Z</time>
      </trkpt>
      <trkpt lat="43.95536" lon="4.82017">
        <ele>60.6</ele>
        <time>2012-06-06T06:44:13.000Z</time>
      </trkpt>
      <trkpt lat="43.95534" lon="4.82011">
        <ele>61.3</ele>
        <time>2012-06-06T06:44:14.000Z</time>
      </trkpt>
      <trkpt lat="43.95531" lon="4.82004">
        <ele>61.8</ele>
        <time>2012-06-06T06:44:16.000Z</time>
      </trkpt>
      <trkpt lat="43.95528" lon="4.81999">
        <ele>61.5</ele>
        <time>2012-06-06T06:44:18.000Z</time>
      </trkpt>
      <trkpt lat="43.95526" lon="4.81991">
        <ele>61.6</ele>
        <time>2012-06-06T06:44:20.000Z</time>
      </trkpt>
      <trkpt lat="43.95526" lon="4.81983">
        <ele>62.6</ele>
        <time>2012-06-06T06:44:22.000Z</time>
      </trkpt>
      <trkpt lat="43.95524" lon="4.81976">
        <ele>62.5</ele>
        <time>2012-06-06T06:44:24.000Z</time>
      </trkpt>
      <trkpt lat="43.95522" lon="4.81969">
        <ele>63.6</ele>
        <time>2012-06-06T06:44:26.000Z</time>
      </trkpt>
      <trkpt lat="43.9552" lon="4.81961">
        <ele>64.3</ele>
        <time>2012-06-06T06:44:28.000Z</time>
      </trkpt>
      <trkpt lat="43.95516" lon="4.81954">
        <ele>64.5</ele>
        <time>2012-06-06T06:44:30.000Z</time>
      </trkpt>
      <trkpt lat="43.95513" lon="4.81947">
        <ele>64</ele>
        <time>2012-06-06T06:44:32.000Z</time>
      </trkpt>
      <trkpt lat="43.95511" lon="4.81938">
        <ele>64.8</ele>
        <time>2012-06-06T06:44:34.000Z</time>
      </trkpt>
      <trkpt lat="43.9551" lon="4.81929">
        <ele>64.5</ele>
        <time>2012-06-06T06:44:36.000Z</time>
      </trkpt>
      <trkpt lat="43.95507" lon="4.81922">
        <ele>63</ele>
        <time>2012-06-06T06:44:38.000Z</time>
      </trkpt>
      <trkpt lat="43.95504" lon="4.81913">
        <ele>63.6</ele>
        <time>2012-06-06T06:44:40.000Z</time>
      </trkpt>
      <trkpt lat="43.95499" lon="4.81909">
        <ele>63.1</ele>
        <time>2012-06-06T06:44:42.000Z</time>
      </trkpt>
      <trkpt lat="43.95497" lon="4.81898">
        <ele>61.8</ele>
        <time>2012-06-06T06:44:45.000Z</time>
      </trkpt>
      <trkpt lat="43.95493" lon="4.81891">
        <ele>62</ele>
        <time>2012-06-06T06:44:47.000Z</time>
      </trkpt>
      <trkpt lat="43.95492" lon="4.81882">
        <ele>62.2</ele>
        <time>2012-06-06T06:44:49.000Z</time>
      </trkpt>
      <trkpt lat="43.95491" lon="4.81874">
        <ele>61.6</ele>
        <time>2012-06-06T06:44:51.000Z</time>
      </trkpt>
      <trkpt lat="43.9549" lon="4.81866">
        <ele>60</ele>
        <time>2012-06-06T06:44:53.000Z</time>
      </trkpt>
      <trkpt lat="43.95488" lon="4.81857">
        <ele>59.7</ele>
        <time>2012-06-06T06:44:55.000Z</time>
      </trkpt>
      <trkpt lat="43.95484" lon="4.81852">
        <ele>58.8</ele>
        <time>2012-06-06T06:44:56.000Z</time>
      </trkpt>
      <trkpt lat="43.95482" lon="4.81842">
        <ele>58.2</ele>
        <time>2012-06-06T06:44:58.000Z</time>
      </trkpt>
      <trkpt lat="43.9548" lon="4.81835">
        <ele>57.1</ele>
        <time>2012-06-06T06:45:00.000Z</time>
      </trkpt>
      <trkpt lat="43.95479" lon="4.81827">
        <ele>57</ele>
        <time>2012-06-06T06:45:02.000Z</time>
      </trkpt>
      <trkpt lat="43.95476" lon="4.81816">
        <ele>58.6</ele>
        <time>2012-06-06T06:45:04.000Z</time>
      </trkpt>
      <trkpt lat="43.95473" lon="4.81807">
        <ele>59.9</ele>
        <time>2012-06-06T06:45:06.000Z</time>
      </trkpt>
      <trkpt lat="43.95472" lon="4.818">
        <ele>59</ele>
        <time>2012-06-06T06:45:08.000Z</time>
      </trkpt>
      <trkpt lat="43.95472" lon="4.81791">
        <ele>60.2</ele>
        <time>2012-06-06T06:45:10.000Z</time>
      </trkpt>
      <trkpt lat="43.95469" lon="4.81784">
        <ele>59.7</ele>
        <time>2012-06-06T06:45:12.000Z</time>
      </trkpt>
      <trkpt lat="43.95469" lon="4.81773">
        <ele>59.1</ele>
        <time>2012-06-06T06:45:15.000Z</time>
      </trkpt>
      <trkpt lat="43.95468" lon="4.81767">
        <ele>60.3</ele>
        <time>2012-06-06T06:45:17.000Z</time>
      </trkpt>
      <trkpt lat="43.95468" lon="4.81757">
        <ele>61.2</ele>
        <time>2012-06-06T06:45:19.000Z</time>
      </trkpt>
      <trkpt lat="43.95468" lon="4.81749">
        <ele>60.8</ele>
        <time>2012-06-06T06:45:21.000Z</time>
      </trkpt>
      <trkpt lat="43.95467" lon="4.81742">
        <ele>60.9</ele>
        <time>2012-06-06T06:45:23.000Z</time>
      </trkpt>
      <trkpt lat="43.95466" lon="4.81734">
        <ele>60.4</ele>
        <time>2012-06-06T06:45:25.000Z</time>
      </trkpt>
      <trkpt lat="43.95468" lon="4.81724">
        <ele>60.8</ele>
        <time>2012-06-06T06:45:29.000Z</time>
      </trkpt>
      <trkpt lat="43.95466" lon="4.81718">
        <ele>59.5</ele>
        <time>2012-06-06T06:45:31.000Z</time>
      </trkpt>
      <trkpt lat="43.95465" lon="4.8171">
        <ele>60.3</ele>
        <time>2012-06-06T06:45:34.000Z</time>
      </trkpt>
      <trkpt lat="43.95464" lon="4.817">
        <ele>59.8</ele>
        <time>2012-06-06T06:45:37.000Z</time>
      </trkpt>
      <trkpt lat="43.95463" lon="4.81691">
        <ele>60.3</ele>
        <time>2012-06-06T06:45:39.000Z</time>
      </trkpt>
      <trkpt lat="43.95463" lon="4.81685">
        <ele>60.2</ele>
        <time>2012-06-06T06:45:41.000Z</time>
      </trkpt>
      <trkpt lat="43.95463" lon="4.81675">
        <ele>59.4</ele>
        <time>2012-06-06T06:45:44.000Z</time>
      </trkpt>
      <trkpt lat="43.95464" lon="4.81666">
        <ele>58.8</ele>
        <time>2012-06-06T06:45:46.000Z</time>
      </trkpt>
      <trkpt lat="43.95464" lon="4.81659">
        <ele>58.8</ele>
        <time>2012-06-06T06:45:48.000Z</time>
      </trkpt>
      <trkpt lat="43.95464" lon="4.8165">
        <ele>58.7</ele>
        <time>2012-06-06T06:45:50.000Z</time>
      </trkpt>
      <trkpt lat="43.95464" lon="4.81643">
        <ele>57.7</ele>
        <time>2012-06-06T06:45:52.000Z</time>
      </trkpt>
      <trkpt lat="43.95464" lon="4.81634">
        <ele>57.3</ele>
        <time>2012-06-06T06:45:54.000Z</time>
      </trkpt>
      <trkpt lat="43.95465" lon="4.81626">
        <ele>57.6</ele>
        <time>2012-06-06T06:45:56.000Z</time>
      </trkpt>
      <trkpt lat="43.95464" lon="4.81616">
        <ele>57.6</ele>
        <time>2012-06-06T06:45:59.000Z</time>
      </trkpt>
      <trkpt lat="43.95464" lon="4.81609">
        <ele>57.4</ele>
        <time>2012-06-06T06:46:01.000Z</time>
      </trkpt>
      <trkpt lat="43.95465" lon="4.81603">
        <ele>58.7</ele>
        <time>2012-06-06T06:46:03.000Z</time>
      </trkpt>
      <trkpt lat="43.95463" lon="4.81595">
        <ele>59.4</ele>
        <time>2012-06-06T06:46:05.000Z</time>
      </trkpt>
      <trkpt lat="43.95464" lon="4.81587">
        <ele>60.9</ele>
        <time>2012-06-06T06:46:07.000Z</time>
      </trkpt>
      <trkpt lat="43.95463" lon="4.81576">
        <ele>63.3</ele>
        <time>2012-06-06T06:46:09.000Z</time>
      </trkpt>
      <trkpt lat="43.95464" lon="4.81568">
        <ele>64.5</ele>
        <time>2012-06-06T06:46:11.000Z</time>
      </trkpt>
      <trkpt lat="43.95463" lon="4.81558">
        <ele>64.6</ele>
        <time>2012-06-06T06:46:13.000Z</time>
      </trkpt>
      <trkpt lat="43.95463" lon="4.81551">
        <ele>65.5</ele>
        <time>2012-06-06T06:46:15.000Z</time>
      </trkpt>
      <trkpt lat="43.95466" lon="4.81544">
        <ele>65.5</ele>
        <time>2012-06-06T06:46:17.000Z</time>
      </trkpt>
      <trkpt lat="43.95466" lon="4.81534">
        <ele>65.3</ele>
        <time>2012-06-06T06:46:19.000Z</time>
      </trkpt>
      <trkpt lat="43.95468" lon="4.81523">
        <ele>64.5</ele>
        <time>2012-06-06T06:46:21.000Z</time>
      </trkpt>
      <trkpt lat="43.95468" lon="4.81514">
        <ele>64.3</ele>
        <time>2012-06-06T06:46:23.000Z</time>
      </trkpt>
      <trkpt lat="43.9547" lon="4.81505">
        <ele>63.8</ele>
        <time>2012-06-06T06:46:25.000Z</time>
      </trkpt>
      <trkpt lat="43.95471" lon="4.81498">
        <ele>64.3</ele>
        <time>2012-06-06T06:46:27.000Z</time>
      </trkpt>
      <trkpt lat="43.95471" lon="4.81491">
        <ele>65.1</ele>
        <time>2012-06-06T06:46:28.000Z</time>
      </trkpt>
      <trkpt lat="43.95471" lon="4.81485">
        <ele>65</ele>
        <time>2012-06-06T06:46:29.000Z</time>
      </trkpt>
      <trkpt lat="43.95471" lon="4.81476">
        <ele>65.1</ele>
        <time>2012-06-06T06:46:30.000Z</time>
      </trkpt>
      <trkpt lat="43.95472" lon="4.81466">
        <ele>65.8</ele>
        <time>2012-06-06T06:46:32.000Z</time>
      </trkpt>
      <trkpt lat="43.95474" lon="4.81458">
        <ele>65</ele>
        <time>2012-06-06T06:46:34.000Z</time>
      </trkpt>
      <trkpt lat="43.95478" lon="4.81449">
        <ele>63.9</ele>
        <time>2012-06-06T06:46:36.000Z</time>
      </trkpt>
      <trkpt lat="43.9548" lon="4.81443">
        <ele>63.1</ele>
        <time>2012-06-06T06:46:38.000Z</time>
      </trkpt>
      <trkpt lat="43.95482" lon="4.81431">
        <ele>64</ele>
        <time>2012-06-06T06:46:40.000Z</time>
      </trkpt>
      <trkpt lat="43.95481" lon="4.81424">
        <ele>64.9</ele>
        <time>2012-06-06T06:46:41.000Z</time>
      </trkpt>
      <trkpt lat="43.95484" lon="4.81418">
        <ele>64.8</ele>
        <time>2012-06-06T06:46:43.000Z</time>
      </trkpt>
      <trkpt lat="43.95486" lon="4.81412">
        <ele>65.4</ele>
        <time>2012-06-06T06:46:45.000Z</time>
      </trkpt>
      <trkpt lat="43.95484" lon="4.81405">
        <ele>67.4</ele>
        <time>2012-06-06T06:46:47.000Z</time>
      </trkpt>
      <trkpt lat="43.95482" lon="4.81393">
        <ele>68.3</ele>
        <time>2012-06-06T06:46:49.000Z</time>
      </trkpt>
      <trkpt lat="43.95477" lon="4.81388">
        <ele>71.9</ele>
        <time>2012-06-06T06:46:52.000Z</time>
      </trkpt>
      <trkpt lat="43.95474" lon="4.81382">
        <ele>73</ele>
        <time>2012-06-06T06:49:53.000Z</time>
      </trkpt>
      <trkpt lat="43.95476" lon="4.81377">
        <ele>73.8</ele>
        <time>2012-06-06T06:50:17.000Z</time>
      </trkpt>
      <trkpt lat="43.95477" lon="4.81369">
        <ele>70.1</ele>
        <time>2012-06-06T06:50:20.000Z</time>
      </trkpt>
      <trkpt lat="43.9548" lon="4.81362">
        <ele>69.6</ele>
        <time>2012-06-06T06:50:22.000Z</time>
      </trkpt>
      <trkpt lat="43.95485" lon="4.81356">
        <ele>67.5</ele>
        <time>2012-06-06T06:50:24.000Z</time>
      </trkpt>
      <trkpt lat="43.95491" lon="4.81357">
        <ele>67.5</ele>
        <time>2012-06-06T06:50:27.000Z</time>
      </trkpt>
      <trkpt lat="43.95495" lon="4.81358">
        <ele>67.5</ele>
        <time>2012-06-06T06:50:29.000Z</time>
      </trkpt>
      <trkpt lat="43.95504" lon="4.81354">
        <ele>69.2</ele>
        <time>2012-06-06T06:50:31.000Z</time>
      </trkpt>
      <trkpt lat="43.95509" lon="4.8135">
        <ele>65.6</ele>
        <time>2012-06-06T06:50:33.000Z</time>
      </trkpt>
      <trkpt lat="43.95515" lon="4.81344">
        <ele>65.5</ele>
        <time>2012-06-06T06:50:35.000Z</time>
      </trkpt>
      <trkpt lat="43.95519" lon="4.81339">
        <ele>65</ele>
        <time>2012-06-06T06:50:37.000Z</time>
      </trkpt>
      <trkpt lat="43.95524" lon="4.81334">
        <ele>65</ele>
        <time>2012-06-06T06:50:39.000Z</time>
      </trkpt>
      <trkpt lat="43.95529" lon="4.81331">
        <ele>64.1</ele>
        <time>2012-06-06T06:50:41.000Z</time>
      </trkpt>
      <trkpt lat="43.95534" lon="4.8133">
        <ele>63.9</ele>
        <time>2012-06-06T06:50:43.000Z</time>
      </trkpt>
      <trkpt lat="43.9554" lon="4.81327">
        <ele>63.2</ele>
        <time>2012-06-06T06:50:45.000Z</time>
      </trkpt>
      <trkpt lat="43.95547" lon="4.81327">
        <ele>63.1</ele>
        <time>2012-06-06T06:50:49.000Z</time>
      </trkpt>
      <trkpt lat="43.95552" lon="4.81328">
        <ele>59.3</ele>
        <time>2012-06-06T06:50:51.000Z</time>
      </trkpt>
      <trkpt lat="43.95557" lon="4.81328">
        <ele>57.9</ele>
        <time>2012-06-06T06:50:53.000Z</time>
      </trkpt>
      <trkpt lat="43.95567" lon="4.81324">
        <ele>57.4</ele>
        <time>2012-06-06T06:50:55.000Z</time>
      </trkpt>
      <trkpt lat="43.95574" lon="4.8132">
        <ele>58</ele>
        <time>2012-06-06T06:50:57.000Z</time>
      </trkpt>
      <trkpt lat="43.95579" lon="4.81316">
        <ele>58.8</ele>
        <time>2012-06-06T06:50:58.000Z</time>
      </trkpt>
      <trkpt lat="43.95585" lon="4.81309">
        <ele>58.8</ele>
        <time>2012-06-06T06:51:00.000Z</time>
      </trkpt>
      <trkpt lat="43.95591" lon="4.81303">
        <ele>58.8</ele>
        <time>2012-06-06T06:51:02.000Z</time>
      </trkpt>
      <trkpt lat="43.95595" lon="4.81299">
        <ele>59.2</ele>
        <time>2012-06-06T06:51:03.000Z</time>
      </trkpt>
      <trkpt lat="43.95598" lon="4.8129">
        <ele>59.2</ele>
        <time>2012-06-06T06:51:05.000Z</time>
      </trkpt>
      <trkpt lat="43.956" lon="4.81282">
        <ele>59.2</ele>
        <time>2012-06-06T06:51:07.000Z</time>
      </trkpt>
      <trkpt lat="43.95605" lon="4.81274">
        <ele>59.9</ele>
        <time>2012-06-06T06:51:09.000Z</time>
      </trkpt>
      <trkpt lat="43.95608" lon="4.81264">
        <ele>59.2</ele>
        <time>2012-06-06T06:51:11.000Z</time>
      </trkpt>
      <trkpt lat="43.95611" lon="4.81257">
        <ele>59.4</ele>
        <time>2012-06-06T06:51:13.000Z</time>
      </trkpt>
      <trkpt lat="43.95614" lon="4.81248">
        <ele>59.4</ele>
        <time>2012-06-06T06:51:15.000Z</time>
      </trkpt>
      <trkpt lat="43.95614" lon="4.81241">
        <ele>59.4</ele>
        <time>2012-06-06T06:51:16.000Z</time>
      </trkpt>
      <trkpt lat="43.95615" lon="4.81233">
        <ele>59.5</ele>
        <time>2012-06-06T06:51:17.000Z</time>
      </trkpt>
      <trkpt lat="43.95613" lon="4.81217">
        <ele>60.5</ele>
        <time>2012-06-06T06:51:18.000Z</time>
      </trkpt>
      <trkpt lat="43.95612" lon="4.8121">
        <ele>61.3</ele>
        <time>2012-06-06T06:51:19.000Z</time>
      </trkpt>
      <trkpt lat="43.95613" lon="4.81201">
        <ele>60.6</ele>
        <time>2012-06-06T06:51:20.000Z</time>
      </trkpt>
      <trkpt lat="43.95612" lon="4.81193">
        <ele>60.9</ele>
        <time>2012-06-06T06:51:21.000Z</time>
      </trkpt>
      <trkpt lat="43.95613" lon="4.81186">
        <ele>60.6</ele>
        <time>2012-06-06T06:51:22.000Z</time>
      </trkpt>
      <trkpt lat="43.95614" lon="4.81179">
        <ele>61.1</ele>
        <time>2012-06-06T06:51:23.000Z</time>
      </trkpt>
      <trkpt lat="43.95616" lon="4.81167">
        <ele>61</ele>
        <time>2012-06-06T06:51:25.000Z</time>
      </trkpt>
      <trkpt lat="43.95615" lon="4.8116">
        <ele>61.5</ele>
        <time>2012-06-06T06:51:26.000Z</time>
      </trkpt>
      <trkpt lat="43.95616" lon="4.81154">
        <ele>61.9</ele>
        <time>2012-06-06T06:51:27.000Z</time>
      </trkpt>
      <trkpt lat="43.95617" lon="4.81142">
        <ele>61.2</ele>
        <time>2012-06-06T06:51:29.000Z</time>
      </trkpt>
      <trkpt lat="43.95615" lon="4.81135">
        <ele>61.6</ele>
        <time>2012-06-06T06:51:30.000Z</time>
      </trkpt>
      <trkpt lat="43.95614" lon="4.81122">
        <ele>62.3</ele>
        <time>2012-06-06T06:51:32.000Z</time>
      </trkpt>
      <trkpt lat="43.95612" lon="4.81114">
        <ele>62.3</ele>
        <time>2012-06-06T06:51:33.000Z</time>
      </trkpt>
      <trkpt lat="43.95608" lon="4.81103">
        <ele>62.4</ele>
        <time>2012-06-06T06:51:35.000Z</time>
      </trkpt>
      <trkpt lat="43.95607" lon="4.81096">
        <ele>62</ele>
        <time>2012-06-06T06:51:36.000Z</time>
      </trkpt>
      <trkpt lat="43.95606" lon="4.8109">
        <ele>61.3</ele>
        <time>2012-06-06T06:51:37.000Z</time>
      </trkpt>
      <trkpt lat="43.95602" lon="4.81082">
        <ele>61.5</ele>
        <time>2012-06-06T06:51:39.000Z</time>
      </trkpt>
      <trkpt lat="43.95597" lon="4.81073">
        <ele>61.1</ele>
        <time>2012-06-06T06:51:41.000Z</time>
      </trkpt>
      <trkpt lat="43.95594" lon="4.81064">
        <ele>60.7</ele>
        <time>2012-06-06T06:51:43.000Z</time>
      </trkpt>
      <trkpt lat="43.9559" lon="4.81055">
        <ele>60.5</ele>
        <time>2012-06-06T06:51:45.000Z</time>
      </trkpt>
      <trkpt lat="43.95585" lon="4.81044">
        <ele>59.8</ele>
        <time>2012-06-06T06:51:47.000Z</time>
      </trkpt>
      <trkpt lat="43.95582" lon="4.81036">
        <ele>59.8</ele>
        <time>2012-06-06T06:51:48.000Z</time>
      </trkpt>
      <trkpt lat="43.95579" lon="4.81028">
        <ele>60.2</ele>
        <time>2012-06-06T06:51:49.000Z</time>
      </trkpt>
      <trkpt lat="43.95576" lon="4.81021">
        <ele>60.2</ele>
        <time>2012-06-06T06:51:50.000Z</time>
      </trkpt>
      <trkpt lat="43.95573" lon="4.81016">
        <ele>61</ele>
        <time>2012-06-06T06:51:51.000Z</time>
      </trkpt>
      <trkpt lat="43.95569" lon="4.8101">
        <ele>60.8</ele>
        <time>2012-06-06T06:51:52.000Z</time>
      </trkpt>
      <trkpt lat="43.95565" lon="4.81002">
        <ele>60.6</ele>
        <time>2012-06-06T06:51:54.000Z</time>
      </trkpt>
      <trkpt lat="43.95558" lon="4.80994">
        <ele>60</ele>
        <time>2012-06-06T06:51:56.000Z</time>
      </trkpt>
      <trkpt lat="43.95554" lon="4.80987">
        <ele>61.2</ele>
        <time>2012-06-06T06:51:58.000Z</time>
      </trkpt>
      <trkpt lat="43.9555" lon="4.80979">
        <ele>61.6</ele>
        <time>2012-06-06T06:52:00.000Z</time>
      </trkpt>
      <trkpt lat="43.95548" lon="4.80972">
        <ele>62.3</ele>
        <time>2012-06-06T06:52:02.000Z</time>
      </trkpt>
      <trkpt lat="43.95546" lon="4.80964">
        <ele>61.8</ele>
        <time>2012-06-06T06:52:04.000Z</time>
      </trkpt>
      <trkpt lat="43.95542" lon="4.80956">
        <ele>62.1</ele>
        <time>2012-06-06T06:52:06.000Z</time>
      </trkpt>
      <trkpt lat="43.95539" lon="4.80948">
        <ele>61.4</ele>
        <time>2012-06-06T06:52:08.000Z</time>
      </trkpt>
      <trkpt lat="43.95538" lon="4.80942">
        <ele>60.8</ele>
        <time>2012-06-06T06:52:11.000Z</time>
      </trkpt>
      <trkpt lat="43.95539" lon="4.80934">
        <ele>60</ele>
        <time>2012-06-06T06:52:13.000Z</time>
      </trkpt>
      <trkpt lat="43.95541" lon="4.80926">
        <ele>59.9</ele>
        <time>2012-06-06T06:52:15.000Z</time>
      </trkpt>
      <trkpt lat="43.95543" lon="4.8092">
        <ele>60.2</ele>
        <time>2012-06-06T06:52:16.000Z</time>
      </trkpt>
      <trkpt lat="43.95545" lon="4.8091">
        <ele>61.4</ele>
        <time>2012-06-06T06:52:18.000Z</time>
      </trkpt>
      <trkpt lat="43.95545" lon="4.809">
        <ele>61.7</ele>
        <time>2012-06-06T06:52:20.000Z</time>
      </trkpt>
      <trkpt lat="43.95547" lon="4.80889">
        <ele>61.8</ele>
        <time>2012-06-06T06:52:22.000Z</time>
      </trkpt>
      <trkpt lat="43.95546" lon="4.8088">
        <ele>61.7</ele>
        <time>2012-06-06T06:52:23.000Z</time>
      </trkpt>
      <trkpt lat="43.95546" lon="4.80873">
        <ele>61.7</ele>
        <time>2012-06-06T06:52:24.000Z</time>
      </trkpt>
      <trkpt lat="43.95546" lon="4.80866">
        <ele>61.4</ele>
        <time>2012-06-06T06:52:25.000Z</time>
      </trkpt>
      <trkpt lat="43.95546" lon="4.8086">
        <ele>61.6</ele>
        <time>2012-06-06T06:52:26.000Z</time>
      </trkpt>
      <trkpt lat="43.95547" lon="4.80849">
        <ele>63.6</ele>
        <time>2012-06-06T06:52:28.000Z</time>
      </trkpt>
      <trkpt lat="43.95548" lon="4.80839">
        <ele>64.8</ele>
        <time>2012-06-06T06:52:30.000Z</time>
      </trkpt>
      <trkpt lat="43.95543" lon="4.80819">
        <ele>62.8</ele>
        <time>2012-06-06T06:52:32.000Z</time>
      </trkpt>
      <trkpt lat="43.9554" lon="4.80814">
        <ele>60.5</ele>
        <time>2012-06-06T06:52:38.000Z</time>
      </trkpt>
      <trkpt lat="43.95536" lon="4.80809">
        <ele>55.8</ele>
        <time>2012-06-06T06:53:04.000Z</time>
      </trkpt>
      <trkpt lat="43.95541" lon="4.80805">
        <ele>58.1</ele>
        <time>2012-06-06T06:53:23.000Z</time>
      </trkpt>
      <trkpt lat="43.95536" lon="4.80797">
        <ele>59.2</ele>
        <time>2012-06-06T06:53:40.000Z</time>
      </trkpt>
      <trkpt lat="43.95536" lon="4.80803">
        <ele>60.9</ele>
        <time>2012-06-06T06:53:51.000Z</time>
      </trkpt>
      <trkpt lat="43.95538" lon="4.80809">
        <ele>63.2</ele>
        <time>2012-06-06T06:53:59.000Z</time>
      </trkpt>
      <trkpt lat="43.9554" lon="4.80802">
        <ele>66.8</ele>
        <time>2012-06-06T06:56:55.000Z</time>
      </trkpt>
      <trkpt lat="43.9554" lon="4.80794">
        <ele>66.4</ele>
        <time>2012-06-06T06:56:57.000Z</time>
      </trkpt>
      <trkpt lat="43.95539" lon="4.80787">
        <ele>67.2</ele>
        <time>2012-06-06T06:56:59.000Z</time>
      </trkpt>
      <trkpt lat="43.95541" lon="4.8078">
        <ele>67.6</ele>
        <time>2012-06-06T06:57:01.000Z</time>
      </trkpt>
      <trkpt lat="43.95542" lon="4.80771">
        <ele>68</ele>
        <time>2012-06-06T06:57:03.000Z</time>
      </trkpt>
      <trkpt lat="43.95543" lon="4.80762">
        <ele>67.9</ele>
        <time>2012-06-06T06:57:05.000Z</time>
      </trkpt>
      <trkpt lat="43.95543" lon="4.80753">
        <ele>67.4</ele>
        <time>2012-06-06T06:57:07.000Z</time>
      </trkpt>
      <trkpt lat="43.95543" lon="4.80744">
        <ele>67.4</ele>
        <time>2012-06-06T06:57:09.000Z</time>
      </trkpt>
      <trkpt lat="43.95544" lon="4.80735">
        <ele>66.7</ele>
        <time>2012-06-06T06:57:11.000Z</time>
      </trkpt>
      <trkpt lat="43.95545" lon="4.80726">
        <ele>66.5</ele>
        <time>2012-06-06T06:57:13.000Z</time>
      </trkpt>
      <trkpt lat="43.95543" lon="4.8072">
        <ele>68.1</ele>
        <time>2012-06-06T06:57:14.000Z</time>
      </trkpt>
      <trkpt lat="43.95544" lon="4.8071">
        <ele>69.1</ele>
        <time>2012-06-06T06:57:16.000Z</time>
      </trkpt>
      <trkpt lat="43.95545" lon="4.807">
        <ele>70.2</ele>
        <time>2012-06-06T06:57:18.000Z</time>
      </trkpt>
      <trkpt lat="43.95545" lon="4.80691">
        <ele>70</ele>
        <time>2012-06-06T06:57:20.000Z</time>
      </trkpt>
      <trkpt lat="43.95547" lon="4.80682">
        <ele>69.9</ele>
        <time>2012-06-06T06:57:22.000Z</time>
      </trkpt>
      <trkpt lat="43.95548" lon="4.80673">
        <ele>70.6</ele>
        <time>2012-06-06T06:57:24.000Z</time>
      </trkpt>
      <trkpt lat="43.95548" lon="4.80664">
        <ele>70.7</ele>
        <time>2012-06-06T06:57:26.000Z</time>
      </trkpt>
      <trkpt lat="43.95547" lon="4.80655">
        <ele>70.2</ele>
        <time>2012-06-06T06:57:28.000Z</time>
      </trkpt>
      <trkpt lat="43.95547" lon="4.80647">
        <ele>70.4</ele>
        <time>2012-06-06T06:57:30.000Z</time>
      </trkpt>
      <trkpt lat="43.95548" lon="4.80639">
        <ele>69.6</ele>
        <time>2012-06-06T06:57:32.000Z</time>
      </trkpt>
      <trkpt lat="43.95548" lon="4.80628">
        <ele>68</ele>
        <time>2012-06-06T06:57:34.000Z</time>
      </trkpt>
      <trkpt lat="43.95548" lon="4.80617">
        <ele>67.8</ele>
        <time>2012-06-06T06:57:36.000Z</time>
      </trkpt>
      <trkpt lat="43.95547" lon="4.80607">
        <ele>66.8</ele>
        <time>2012-06-06T06:57:38.000Z</time>
      </trkpt>
      <trkpt lat="43.95548" lon="4.80598">
        <ele>66.8</ele>
        <time>2012-06-06T06:57:40.000Z</time>
      </trkpt>
      <trkpt lat="43.95548" lon="4.80592">
        <ele>67</ele>
        <time>2012-06-06T06:57:42.000Z</time>
      </trkpt>
      <trkpt lat="43.95547" lon="4.80583">
        <ele>67.3</ele>
        <time>2012-06-06T06:57:44.000Z</time>
      </trkpt>
      <trkpt lat="43.95548" lon="4.80575">
        <ele>67.1</ele>
        <time>2012-06-06T06:57:46.000Z</time>
      </trkpt>
      <trkpt lat="43.95549" lon="4.80566">
        <ele>67.4</ele>
        <time>2012-06-06T06:57:48.000Z</time>
      </trkpt>
      <trkpt lat="43.95546" lon="4.80556">
        <ele>66.9</ele>
        <time>2012-06-06T06:57:50.000Z</time>
      </trkpt>
      <trkpt lat="43.95545" lon="4.80544">
        <ele>66.1</ele>
        <time>2012-06-06T06:57:52.000Z</time>
      </trkpt>
      <trkpt lat="43.95544" lon="4.80533">
        <ele>65.7</ele>
        <time>2012-06-06T06:57:54.000Z</time>
      </trkpt>
      <trkpt lat="43.95543" lon="4.80524">
        <ele>65.1</ele>
        <time>2012-06-06T06:57:56.000Z</time>
      </trkpt>
      <trkpt lat="43.9554" lon="4.80515">
        <ele>65.3</ele>
        <time>2012-06-06T06:57:58.000Z</time>
      </trkpt>
      <trkpt lat="43.95537" lon="4.80505">
        <ele>64.8</ele>
        <time>2012-06-06T06:58:00.000Z</time>
      </trkpt>
      <trkpt lat="43.95536" lon="4.80496">
        <ele>64.8</ele>
        <time>2012-06-06T06:58:02.000Z</time>
      </trkpt>
      <trkpt lat="43.95535" lon="4.80485">
        <ele>64.4</ele>
        <time>2012-06-06T06:58:04.000Z</time>
      </trkpt>
      <trkpt lat="43.95532" lon="4.80478">
        <ele>66.6</ele>
        <time>2012-06-06T06:58:08.000Z</time>
      </trkpt>
      <trkpt lat="43.95528" lon="4.80475">
        <ele>65.4</ele>
        <time>2012-06-06T07:00:07.000Z</time>
      </trkpt>
      <trkpt lat="43.95528" lon="4.80466">
        <ele>66.2</ele>
        <time>2012-06-06T07:00:10.000Z</time>
      </trkpt>
      <trkpt lat="43.95524" lon="4.80458">
        <ele>65.9</ele>
        <time>2012-06-06T07:00:12.000Z</time>
      </trkpt>
      <trkpt lat="43.95522" lon="4.80446">
        <ele>66.2</ele>
        <time>2012-06-06T07:00:14.000Z</time>
      </trkpt>
      <trkpt lat="43.95521" lon="4.80436">
        <ele>65.6</ele>
        <time>2012-06-06T07:00:16.000Z</time>
      </trkpt>
      <trkpt lat="43.95519" lon="4.80428">
        <ele>65.3</ele>
        <time>2012-06-06T07:00:18.000Z</time>
      </trkpt>
      <trkpt lat="43.95516" lon="4.8042">
        <ele>65</ele>
        <time>2012-06-06T07:00:20.000Z</time>
      </trkpt>
      <trkpt lat="43.95513" lon="4.80411">
        <ele>64.5</ele>
        <time>2012-06-06T07:00:22.000Z</time>
      </trkpt>
      <trkpt lat="43.9551" lon="4.80404">
        <ele>64.3</ele>
        <time>2012-06-06T07:00:24.000Z</time>
      </trkpt>
      <trkpt lat="43.95508" lon="4.80394">
        <ele>65.1</ele>
        <time>2012-06-06T07:00:26.000Z</time>
      </trkpt>
      <trkpt lat="43.95505" lon="4.80384">
        <ele>64.6</ele>
        <time>2012-06-06T07:00:28.000Z</time>
      </trkpt>
      <trkpt lat="43.95502" lon="4.80374">
        <ele>65</ele>
        <time>2012-06-06T07:00:30.000Z</time>
      </trkpt>
      <trkpt lat="43.95499" lon="4.80365">
        <ele>65.3</ele>
        <time>2012-06-06T07:00:32.000Z</time>
      </trkpt>
      <trkpt lat="43.95496" lon="4.80355">
        <ele>64.4</ele>
        <time>2012-06-06T07:00:34.000Z</time>
      </trkpt>
      <trkpt lat="43.95493" lon="4.80346">
        <ele>64.1</ele>
        <time>2012-06-06T07:00:36.000Z</time>
      </trkpt>
      <trkpt lat="43.9549" lon="4.80338">
        <ele>63.9</ele>
        <time>2012-06-06T07:00:38.000Z</time>
      </trkpt>
      <trkpt lat="43.95485" lon="4.80326">
        <ele>64.3</ele>
        <time>2012-06-06T07:00:40.000Z</time>
      </trkpt>
      <trkpt lat="43.95481" lon="4.80316">
        <ele>64.2</ele>
        <time>2012-06-06T07:00:42.000Z</time>
      </trkpt>
      <trkpt lat="43.95477" lon="4.80308">
        <ele>64.3</ele>
        <time>2012-06-06T07:00:44.000Z</time>
      </trkpt>
      <trkpt lat="43.95475" lon="4.80302">
        <ele>63.9</ele>
        <time>2012-06-06T07:00:45.000Z</time>
      </trkpt>
      <trkpt lat="43.95471" lon="4.80293">
        <ele>64.3</ele>
        <time>2012-06-06T07:00:47.000Z</time>
      </trkpt>
      <trkpt lat="43.95466" lon="4.80284">
        <ele>65</ele>
        <time>2012-06-06T07:00:49.000Z</time>
      </trkpt>
      <trkpt lat="43.95464" lon="4.80277">
        <ele>64.2</ele>
        <time>2012-06-06T07:00:50.000Z</time>
      </trkpt>
      <trkpt lat="43.95459" lon="4.80268">
        <ele>65</ele>
        <time>2012-06-06T07:00:52.000Z</time>
      </trkpt>
      <trkpt lat="43.95454" lon="4.80258">
        <ele>63.8</ele>
        <time>2012-06-06T07:00:54.000Z</time>
      </trkpt>
      <trkpt lat="43.95452" lon="4.80252">
        <ele>63.9</ele>
        <time>2012-06-06T07:00:55.000Z</time>
      </trkpt>
      <trkpt lat="43.95449" lon="4.80247">
        <ele>64.5</ele>
        <time>2012-06-06T07:00:56.000Z</time>
      </trkpt>
      <trkpt lat="43.95445" lon="4.80242">
        <ele>64.3</ele>
        <time>2012-06-06T07:00:57.000Z</time>
      </trkpt>
      <trkpt lat="43.95442" lon="4.80237">
        <ele>64</ele>
        <time>2012-06-06T07:00:58.000Z</time>
      </trkpt>
      <trkpt lat="43.95439" lon="4.80232">
        <ele>64.1</ele>
        <time>2012-06-06T07:00:59.000Z</time>
      </trkpt>
      <trkpt lat="43.95437" lon="4.80226">
        <ele>63.4</ele>
        <time>2012-06-06T07:01:00.000Z</time>
      </trkpt>
      <trkpt lat="43.95431" lon="4.80218">
        <ele>63.5</ele>
        <time>2012-06-06T07:01:02.000Z</time>
      </trkpt>
      <trkpt lat="43.95429" lon="4.80211">
        <ele>63.8</ele>
        <time>2012-06-06T07:01:03.000Z</time>
      </trkpt>
      <trkpt lat="43.95426" lon="4.80206">
        <ele>63.5</ele>
        <time>2012-06-06T07:01:04.000Z</time>
      </trkpt>
      <trkpt lat="43.9542" lon="4.80197">
        <ele>62.8</ele>
        <time>2012-06-06T07:01:06.000Z</time>
      </trkpt>
      <trkpt lat="43.95416" lon="4.80193">
        <ele>62.7</ele>
        <time>2012-06-06T07:01:07.000Z</time>
      </trkpt>
      <trkpt lat="43.95411" lon="4.80185">
        <ele>62.5</ele>
        <time>2012-06-06T07:01:09.000Z</time>
      </trkpt>
      <trkpt lat="43.95406" lon="4.80177">
        <ele>64</ele>
        <time>2012-06-06T07:01:11.000Z</time>
      </trkpt>
      <trkpt lat="43.95402" lon="4.80168">
        <ele>64</ele>
        <time>2012-06-06T07:01:13.000Z</time>
      </trkpt>
      <trkpt lat="43.95398" lon="4.80163">
        <ele>64.3</ele>
        <time>2012-06-06T07:01:14.000Z</time>
      </trkpt>
      <trkpt lat="43.95394" lon="4.80154">
        <ele>64.4</ele>
        <time>2012-06-06T07:01:16.000Z</time>
      </trkpt>
      <trkpt lat="43.95388" lon="4.80147">
        <ele>64.2</ele>
        <time>2012-06-06T07:01:18.000Z</time>
      </trkpt>
      <trkpt lat="43.95383" lon="4.80142">
        <ele>64.1</ele>
        <time>2012-06-06T07:01:20.000Z</time>
      </trkpt>
      <trkpt lat="43.95379" lon="4.80136">
        <ele>64.3</ele>
        <time>2012-06-06T07:01:22.000Z</time>
      </trkpt>
      <trkpt lat="43.95373" lon="4.80129">
        <ele>63.6</ele>
        <time>2012-06-06T07:01:25.000Z</time>
      </trkpt>
      <trkpt lat="43.9537" lon="4.80123">
        <ele>63.6</ele>
        <time>2012-06-06T07:01:27.000Z</time>
      </trkpt>
      <trkpt lat="43.95367" lon="4.80118">
        <ele>63.1</ele>
        <time>2012-06-06T07:01:30.000Z</time>
      </trkpt>
      <trkpt lat="43.95362" lon="4.80111">
        <ele>60.6</ele>
        <time>2012-06-06T07:01:32.000Z</time>
      </trkpt>
      <trkpt lat="43.95358" lon="4.80102">
        <ele>58.4</ele>
        <time>2012-06-06T07:01:35.000Z</time>
      </trkpt>
      <trkpt lat="43.95354" lon="4.80096">
        <ele>56.3</ele>
        <time>2012-06-06T07:01:37.000Z</time>
      </trkpt>
      <trkpt lat="43.9535" lon="4.80089">
        <ele>55.8</ele>
        <time>2012-06-06T07:01:39.000Z</time>
      </trkpt>
      <trkpt lat="43.95341" lon="4.80086">
        <ele>57.8</ele>
        <time>2012-06-06T07:01:41.000Z</time>
      </trkpt>
      <trkpt lat="43.95338" lon="4.80081">
        <ele>56.9</ele>
        <time>2012-06-06T07:01:42.000Z</time>
      </trkpt>
      <trkpt lat="43.9533" lon="4.80072">
        <ele>55.4</ele>
        <time>2012-06-06T07:01:44.000Z</time>
      </trkpt>
      <trkpt lat="43.95324" lon="4.80061">
        <ele>53.6</ele>
        <time>2012-06-06T07:01:46.000Z</time>
      </trkpt>
      <trkpt lat="43.95322" lon="4.80055">
        <ele>52.8</ele>
        <time>2012-06-06T07:01:47.000Z</time>
      </trkpt>
      <trkpt lat="43.95318" lon="4.80044">
        <ele>51.6</ele>
        <time>2012-06-06T07:01:49.000Z</time>
      </trkpt>
      <trkpt lat="43.95311" lon="4.80033">
        <ele>50.8</ele>
        <time>2012-06-06T07:01:51.000Z</time>
      </trkpt>
      <trkpt lat="43.95306" lon="4.8003">
        <ele>51.3</ele>
        <time>2012-06-06T07:01:52.000Z</time>
      </trkpt>
      <trkpt lat="43.95302" lon="4.80025">
        <ele>51</ele>
        <time>2012-06-06T07:01:53.000Z</time>
      </trkpt>
      <trkpt lat="43.95298" lon="4.8002">
        <ele>50.6</ele>
        <time>2012-06-06T07:01:54.000Z</time>
      </trkpt>
      <trkpt lat="43.95295" lon="4.80013">
        <ele>50.6</ele>
        <time>2012-06-06T07:01:55.000Z</time>
      </trkpt>
      <trkpt lat="43.9529" lon="4.80008">
        <ele>50.4</ele>
        <time>2012-06-06T07:01:56.000Z</time>
      </trkpt>
      <trkpt lat="43.95284" lon="4.8">
        <ele>50.3</ele>
        <time>2012-06-06T07:01:58.000Z</time>
      </trkpt>
      <trkpt lat="43.95277" lon="4.79991">
        <ele>50.3</ele>
        <time>2012-06-06T07:02:00.000Z</time>
      </trkpt>
      <trkpt lat="43.95272" lon="4.79985">
        <ele>51.7</ele>
        <time>2012-06-06T07:02:01.000Z</time>
      </trkpt>
      <trkpt lat="43.95267" lon="4.79983">
        <ele>52.1</ele>
        <time>2012-06-06T07:02:02.000Z</time>
      </trkpt>
      <trkpt lat="43.95263" lon="4.7998">
        <ele>51.9</ele>
        <time>2012-06-06T07:02:03.000Z</time>
      </trkpt>
      <trkpt lat="43.95258" lon="4.79976">
        <ele>51.7</ele>
        <time>2012-06-06T07:02:04.000Z</time>
      </trkpt>
      <trkpt lat="43.95255" lon="4.7997">
        <ele>52</ele>
        <time>2012-06-06T07:02:05.000Z</time>
      </trkpt>
      <trkpt lat="43.95251" lon="4.79962">
        <ele>53.9</ele>
        <time>2012-06-06T07:02:06.000Z</time>
      </trkpt>
      <trkpt lat="43.95247" lon="4.79956">
        <ele>55.7</ele>
        <time>2012-06-06T07:02:07.000Z</time>
      </trkpt>
      <trkpt lat="43.9524" lon="4.79949">
        <ele>57.1</ele>
        <time>2012-06-06T07:02:09.000Z</time>
      </trkpt>
      <trkpt lat="43.95237" lon="4.79944">
        <ele>57.7</ele>
        <time>2012-06-06T07:02:10.000Z</time>
      </trkpt>
      <trkpt lat="43.95232" lon="4.79935">
        <ele>57.9</ele>
        <time>2012-06-06T07:02:12.000Z</time>
      </trkpt>
      <trkpt lat="43.95233" lon="4.79926">
        <ele>59.3</ele>
        <time>2012-06-06T07:02:14.000Z</time>
      </trkpt>
      <trkpt lat="43.95236" lon="4.7992">
        <ele>58.9</ele>
        <time>2012-06-06T07:02:16.000Z</time>
      </trkpt>
      <trkpt lat="43.95241" lon="4.79916">
        <ele>58.6</ele>
        <time>2012-06-06T07:02:18.000Z</time>
      </trkpt>
      <trkpt lat="43.95248" lon="4.7991">
        <ele>59.1</ele>
        <time>2012-06-06T07:02:20.000Z</time>
      </trkpt>
      <trkpt lat="43.95254" lon="4.79902">
        <ele>59</ele>
        <time>2012-06-06T07:02:22.000Z</time>
      </trkpt>
      <trkpt lat="43.95262" lon="4.79898">
        <ele>59.3</ele>
        <time>2012-06-06T07:02:24.000Z</time>
      </trkpt>
      <trkpt lat="43.95269" lon="4.79896">
        <ele>59.5</ele>
        <time>2012-06-06T07:02:26.000Z</time>
      </trkpt>
      <trkpt lat="43.95278" lon="4.79892">
        <ele>59.7</ele>
        <time>2012-06-06T07:02:28.000Z</time>
      </trkpt>
      <trkpt lat="43.95285" lon="4.79884">
        <ele>58.5</ele>
        <time>2012-06-06T07:02:30.000Z</time>
      </trkpt>
      <trkpt lat="43.95288" lon="4.7988">
        <ele>58.1</ele>
        <time>2012-06-06T07:02:31.000Z</time>
      </trkpt>
      <trkpt lat="43.95293" lon="4.79873">
        <ele>57.1</ele>
        <time>2012-06-06T07:02:33.000Z</time>
      </trkpt>
      <trkpt lat="43.95296" lon="4.79868">
        <ele>57.1</ele>
        <time>2012-06-06T07:02:34.000Z</time>
      </trkpt>
      <trkpt lat="43.953" lon="4.7986">
        <ele>56.8</ele>
        <time>2012-06-06T07:02:36.000Z</time>
      </trkpt>
      <trkpt lat="43.95303" lon="4.79852">
        <ele>56.3</ele>
        <time>2012-06-06T07:02:38.000Z</time>
      </trkpt>
      <trkpt lat="43.95307" lon="4.79843">
        <ele>56.9</ele>
        <time>2012-06-06T07:02:40.000Z</time>
      </trkpt>
      <trkpt lat="43.95311" lon="4.79836">
        <ele>56.8</ele>
        <time>2012-06-06T07:02:42.000Z</time>
      </trkpt>
      <trkpt lat="43.95317" lon="4.79826">
        <ele>57.3</ele>
        <time>2012-06-06T07:02:44.000Z</time>
      </trkpt>
      <trkpt lat="43.9532" lon="4.79817">
        <ele>57.4</ele>
        <time>2012-06-06T07:02:46.000Z</time>
      </trkpt>
      <trkpt lat="43.95323" lon="4.79812">
        <ele>56.8</ele>
        <time>2012-06-06T07:02:47.000Z</time>
      </trkpt>
      <trkpt lat="43.95328" lon="4.79804">
        <ele>56.6</ele>
        <time>2012-06-06T07:02:49.000Z</time>
      </trkpt>
      <trkpt lat="43.95333" lon="4.79795">
        <ele>56</ele>
        <time>2012-06-06T07:02:51.000Z</time>
      </trkpt>
      <trkpt lat="43.95337" lon="4.79786">
        <ele>56.7</ele>
        <time>2012-06-06T07:02:53.000Z</time>
      </trkpt>
      <trkpt lat="43.95341" lon="4.79778">
        <ele>56.7</ele>
        <time>2012-06-06T07:02:55.000Z</time>
      </trkpt>
      <trkpt lat="43.95344" lon="4.7977">
        <ele>57.8</ele>
        <time>2012-06-06T07:02:57.000Z</time>
      </trkpt>
      <trkpt lat="43.95345" lon="4.79759">
        <ele>57.6</ele>
        <time>2012-06-06T07:02:59.000Z</time>
      </trkpt>
      <trkpt lat="43.95348" lon="4.7975">
        <ele>58.4</ele>
        <time>2012-06-06T07:03:01.000Z</time>
      </trkpt>
      <trkpt lat="43.95348" lon="4.79743">
        <ele>60.8</ele>
        <time>2012-06-06T07:03:03.000Z</time>
      </trkpt>
      <trkpt lat="43.9534" lon="4.79733">
        <ele>60.2</ele>
        <time>2012-06-06T07:03:05.000Z</time>
      </trkpt>
      <trkpt lat="43.95335" lon="4.79724">
        <ele>61.2</ele>
        <time>2012-06-06T07:03:08.000Z</time>
      </trkpt>
      <trkpt lat="43.95331" lon="4.7972">
        <ele>63.7</ele>
        <time>2012-06-06T07:03:09.000Z</time>
      </trkpt>
      <trkpt lat="43.95327" lon="4.79715">
        <ele>65.7</ele>
        <time>2012-06-06T07:03:10.000Z</time>
      </trkpt>
      <trkpt lat="43.95321" lon="4.79712">
        <ele>67.8</ele>
        <time>2012-06-06T07:03:12.000Z</time>
      </trkpt>
      <trkpt lat="43.95315" lon="4.79711">
        <ele>67.9</ele>
        <time>2012-06-06T07:03:14.000Z</time>
      </trkpt>
      <trkpt lat="43.95308" lon="4.79708">
        <ele>66.8</ele>
        <time>2012-06-06T07:03:16.000Z</time>
      </trkpt>
      <trkpt lat="43.95302" lon="4.79706">
        <ele>66.2</ele>
        <time>2012-06-06T07:03:18.000Z</time>
      </trkpt>
      <trkpt lat="43.95295" lon="4.79702">
        <ele>66.3</ele>
        <time>2012-06-06T07:03:20.000Z</time>
      </trkpt>
      <trkpt lat="43.95288" lon="4.79698">
        <ele>66.3</ele>
        <time>2012-06-06T07:03:22.000Z</time>
      </trkpt>
      <trkpt lat="43.95282" lon="4.79697">
        <ele>66.7</ele>
        <time>2012-06-06T07:03:24.000Z</time>
      </trkpt>
      <trkpt lat="43.95276" lon="4.79694">
        <ele>67.4</ele>
        <time>2012-06-06T07:03:26.000Z</time>
      </trkpt>
      <trkpt lat="43.95268" lon="4.79694">
        <ele>67</ele>
        <time>2012-06-06T07:03:28.000Z</time>
      </trkpt>
      <trkpt lat="43.95261" lon="4.79694">
        <ele>66.7</ele>
        <time>2012-06-06T07:03:30.000Z</time>
      </trkpt>
      <trkpt lat="43.95256" lon="4.79691">
        <ele>66.2</ele>
        <time>2012-06-06T07:03:32.000Z</time>
      </trkpt>
      <trkpt lat="43.95255" lon="4.79684">
        <ele>63.5</ele>
        <time>2012-06-06T07:03:35.000Z</time>
      </trkpt>
      <trkpt lat="43.95254" lon="4.79676">
        <ele>64</ele>
        <time>2012-06-06T07:03:37.000Z</time>
      </trkpt>
      <trkpt lat="43.95259" lon="4.79673">
        <ele>63.3</ele>
        <time>2012-06-06T07:03:39.000Z</time>
      </trkpt>
      <trkpt lat="43.95266" lon="4.79666">
        <ele>64.4</ele>
        <time>2012-06-06T07:03:42.000Z</time>
      </trkpt>
      <trkpt lat="43.9527" lon="4.7966">
        <ele>65.1</ele>
        <time>2012-06-06T07:03:44.000Z</time>
      </trkpt>
      <trkpt lat="43.95269" lon="4.79654">
        <ele>65.3</ele>
        <time>2012-06-06T07:03:47.000Z</time>
      </trkpt>
      <trkpt lat="43.95267" lon="4.79648">
        <ele>64.9</ele>
        <time>2012-06-06T07:03:49.000Z</time>
      </trkpt>
      <trkpt lat="43.95264" lon="4.7964">
        <ele>64.2</ele>
        <time>2012-06-06T07:03:51.000Z</time>
      </trkpt>
      <trkpt lat="43.95265" lon="4.7963">
        <ele>65.5</ele>
        <time>2012-06-06T07:03:53.000Z</time>
      </trkpt>
      <trkpt lat="43.95266" lon="4.7962">
        <ele>65.7</ele>
        <time>2012-06-06T07:03:55.000Z</time>
      </trkpt>
      <trkpt lat="43.95268" lon="4.79613">
        <ele>65.6</ele>
        <time>2012-06-06T07:03:57.000Z</time>
      </trkpt>
      <trkpt lat="43.95269" lon="4.796">
        <ele>67</ele>
        <time>2012-06-06T07:03:59.000Z</time>
      </trkpt>
      <trkpt lat="43.95272" lon="4.79592">
        <ele>70.1</ele>
        <time>2012-06-06T07:04:01.000Z</time>
      </trkpt>
      <trkpt lat="43.95274" lon="4.79586">
        <ele>70</ele>
        <time>2012-06-06T07:04:02.000Z</time>
      </trkpt>
      <trkpt lat="43.95277" lon="4.79576">
        <ele>68.1</ele>
        <time>2012-06-06T07:04:04.000Z</time>
      </trkpt>
      <trkpt lat="43.95281" lon="4.79568">
        <ele>68.4</ele>
        <time>2012-06-06T07:04:06.000Z</time>
      </trkpt>
      <trkpt lat="43.95285" lon="4.79557">
        <ele>68.1</ele>
        <time>2012-06-06T07:04:08.000Z</time>
      </trkpt>
      <trkpt lat="43.95289" lon="4.79548">
        <ele>67.2</ele>
        <time>2012-06-06T07:04:10.000Z</time>
      </trkpt>
      <trkpt lat="43.95292" lon="4.79537">
        <ele>68.5</ele>
        <time>2012-06-06T07:04:12.000Z</time>
      </trkpt>
      <trkpt lat="43.95296" lon="4.79526">
        <ele>69.3</ele>
        <time>2012-06-06T07:04:14.000Z</time>
      </trkpt>
      <trkpt lat="43.95298" lon="4.7952">
        <ele>69.7</ele>
        <time>2012-06-06T07:04:15.000Z</time>
      </trkpt>
      <trkpt lat="43.95302" lon="4.79511">
        <ele>70</ele>
        <time>2012-06-06T07:04:17.000Z</time>
      </trkpt>
      <trkpt lat="43.95306" lon="4.79501">
        <ele>70.1</ele>
        <time>2012-06-06T07:04:19.000Z</time>
      </trkpt>
      <trkpt lat="43.95312" lon="4.79492">
        <ele>70.2</ele>
        <time>2012-06-06T07:04:21.000Z</time>
      </trkpt>
      <trkpt lat="43.95316" lon="4.79482">
        <ele>69.9</ele>
        <time>2012-06-06T07:04:23.000Z</time>
      </trkpt>
      <trkpt lat="43.95316" lon="4.79476">
        <ele>68.9</ele>
        <time>2012-06-06T07:04:24.000Z</time>
      </trkpt>
      <trkpt lat="43.9532" lon="4.79465">
        <ele>68.6</ele>
        <time>2012-06-06T07:04:26.000Z</time>
      </trkpt>
      <trkpt lat="43.95324" lon="4.79455">
        <ele>68.5</ele>
        <time>2012-06-06T07:04:28.000Z</time>
      </trkpt>
      <trkpt lat="43.95327" lon="4.79448">
        <ele>71</ele>
        <time>2012-06-06T07:04:29.000Z</time>
      </trkpt>
      <trkpt lat="43.95332" lon="4.79439">
        <ele>71.3</ele>
        <time>2012-06-06T07:04:31.000Z</time>
      </trkpt>
      <trkpt lat="43.95336" lon="4.79428">
        <ele>72.3</ele>
        <time>2012-06-06T07:04:33.000Z</time>
      </trkpt>
      <trkpt lat="43.9534" lon="4.79419">
        <ele>74.6</ele>
        <time>2012-06-06T07:04:35.000Z</time>
      </trkpt>
      <trkpt lat="43.95344" lon="4.79409">
        <ele>73.4</ele>
        <time>2012-06-06T07:04:37.000Z</time>
      </trkpt>
      <trkpt lat="43.95347" lon="4.79397">
        <ele>73</ele>
        <time>2012-06-06T07:04:39.000Z</time>
      </trkpt>
      <trkpt lat="43.9535" lon="4.79388">
        <ele>73.2</ele>
        <time>2012-06-06T07:04:41.000Z</time>
      </trkpt>
      <trkpt lat="43.95353" lon="4.79377">
        <ele>73.3</ele>
        <time>2012-06-06T07:04:43.000Z</time>
      </trkpt>
      <trkpt lat="43.95356" lon="4.79371">
        <ele>73.3</ele>
        <time>2012-06-06T07:04:44.000Z</time>
      </trkpt>
      <trkpt lat="43.95359" lon="4.79361">
        <ele>73.8</ele>
        <time>2012-06-06T07:04:46.000Z</time>
      </trkpt>
      <trkpt lat="43.95364" lon="4.7935">
        <ele>74.1</ele>
        <time>2012-06-06T07:04:48.000Z</time>
      </trkpt>
      <trkpt lat="43.95367" lon="4.7934">
        <ele>74</ele>
        <time>2012-06-06T07:04:50.000Z</time>
      </trkpt>
      <trkpt lat="43.9537" lon="4.79334">
        <ele>73.9</ele>
        <time>2012-06-06T07:04:51.000Z</time>
      </trkpt>
      <trkpt lat="43.95373" lon="4.79329">
        <ele>73.7</ele>
        <time>2012-06-06T07:04:52.000Z</time>
      </trkpt>
      <trkpt lat="43.95375" lon="4.79322">
        <ele>73.2</ele>
        <time>2012-06-06T07:04:53.000Z</time>
      </trkpt>
      <trkpt lat="43.95378" lon="4.79312">
        <ele>73.7</ele>
        <time>2012-06-06T07:04:55.000Z</time>
      </trkpt>
      <trkpt lat="43.9538" lon="4.79306">
        <ele>74</ele>
        <time>2012-06-06T07:04:56.000Z</time>
      </trkpt>
      <trkpt lat="43.95384" lon="4.79294">
        <ele>74.5</ele>
        <time>2012-06-06T07:04:58.000Z</time>
      </trkpt>
      <trkpt lat="43.95386" lon="4.79288">
        <ele>75</ele>
        <time>2012-06-06T07:04:59.000Z</time>
      </trkpt>
      <trkpt lat="43.95389" lon="4.7928">
        <ele>74.4</ele>
        <time>2012-06-06T07:05:00.000Z</time>
      </trkpt>
      <trkpt lat="43.95394" lon="4.7927">
        <ele>74.7</ele>
        <time>2012-06-06T07:05:02.000Z</time>
      </trkpt>
      <trkpt lat="43.95396" lon="4.79264">
        <ele>75.2</ele>
        <time>2012-06-06T07:05:03.000Z</time>
      </trkpt>
      <trkpt lat="43.95398" lon="4.79257">
        <ele>75.3</ele>
        <time>2012-06-06T07:05:04.000Z</time>
      </trkpt>
      <trkpt lat="43.954" lon="4.79251">
        <ele>74.8</ele>
        <time>2012-06-06T07:05:05.000Z</time>
      </trkpt>
      <trkpt lat="43.95405" lon="4.79239">
        <ele>75.7</ele>
        <time>2012-06-06T07:05:07.000Z</time>
      </trkpt>
      <trkpt lat="43.95408" lon="4.79235">
        <ele>75.9</ele>
        <time>2012-06-06T07:05:08.000Z</time>
      </trkpt>
      <trkpt lat="43.9541" lon="4.79228">
        <ele>75.8</ele>
        <time>2012-06-06T07:05:09.000Z</time>
      </trkpt>
      <trkpt lat="43.95413" lon="4.79222">
        <ele>75.7</ele>
        <time>2012-06-06T07:05:10.000Z</time>
      </trkpt>
      <trkpt lat="43.95416" lon="4.79214">
        <ele>75.3</ele>
        <time>2012-06-06T07:05:11.000Z</time>
      </trkpt>
      <trkpt lat="43.95419" lon="4.79208">
        <ele>75.6</ele>
        <time>2012-06-06T07:05:12.000Z</time>
      </trkpt>
      <trkpt lat="43.95423" lon="4.79202">
        <ele>75.6</ele>
        <time>2012-06-06T07:05:13.000Z</time>
      </trkpt>
      <trkpt lat="43.95427" lon="4.79196">
        <ele>75.6</ele>
        <time>2012-06-06T07:05:14.000Z</time>
      </trkpt>
      <trkpt lat="43.95433" lon="4.7919">
        <ele>75.5</ele>
        <time>2012-06-06T07:05:15.000Z</time>
      </trkpt>
      <trkpt lat="43.95437" lon="4.79186">
        <ele>75.2</ele>
        <time>2012-06-06T07:05:16.000Z</time>
      </trkpt>
      <trkpt lat="43.95442" lon="4.79181">
        <ele>75</ele>
        <time>2012-06-06T07:05:17.000Z</time>
      </trkpt>
      <trkpt lat="43.95449" lon="4.79177">
        <ele>74.2</ele>
        <time>2012-06-06T07:05:18.000Z</time>
      </trkpt>
      <trkpt lat="43.95455" lon="4.79174">
        <ele>74</ele>
        <time>2012-06-06T07:05:19.000Z</time>
      </trkpt>
      <trkpt lat="43.95462" lon="4.79176">
        <ele>73.8</ele>
        <time>2012-06-06T07:05:20.000Z</time>
      </trkpt>
      <trkpt lat="43.95468" lon="4.79176">
        <ele>73.7</ele>
        <time>2012-06-06T07:05:21.000Z</time>
      </trkpt>
      <trkpt lat="43.95476" lon="4.79179">
        <ele>73.8</ele>
        <time>2012-06-06T07:05:23.000Z</time>
      </trkpt>
      <trkpt lat="43.95481" lon="4.79181">
        <ele>73.5</ele>
        <time>2012-06-06T07:05:25.000Z</time>
      </trkpt>
      <trkpt lat="43.95486" lon="4.79184">
        <ele>71.8</ele>
        <time>2012-06-06T07:05:42.000Z</time>
      </trkpt>
      <trkpt lat="43.95493" lon="4.79188">
        <ele>71.1</ele>
        <time>2012-06-06T07:05:44.000Z</time>
      </trkpt>
      <trkpt lat="43.95498" lon="4.79189">
        <ele>71.1</ele>
        <time>2012-06-06T07:05:45.000Z</time>
      </trkpt>
      <trkpt lat="43.95503" lon="4.79192">
        <ele>71</ele>
        <time>2012-06-06T07:05:46.000Z</time>
      </trkpt>
      <trkpt lat="43.95509" lon="4.79195">
        <ele>70.7</ele>
        <time>2012-06-06T07:05:47.000Z</time>
      </trkpt>
      <trkpt lat="43.95516" lon="4.79198">
        <ele>71.2</ele>
        <time>2012-06-06T07:05:48.000Z</time>
      </trkpt>
      <trkpt lat="43.95519" lon="4.79204">
        <ele>72.1</ele>
        <time>2012-06-06T07:05:49.000Z</time>
      </trkpt>
      <trkpt lat="43.95525" lon="4.7921">
        <ele>71.8</ele>
        <time>2012-06-06T07:05:50.000Z</time>
      </trkpt>
      <trkpt lat="43.9553" lon="4.79214">
        <ele>71.9</ele>
        <time>2012-06-06T07:05:51.000Z</time>
      </trkpt>
      <trkpt lat="43.95534" lon="4.79218">
        <ele>72</ele>
        <time>2012-06-06T07:05:52.000Z</time>
      </trkpt>
      <trkpt lat="43.95538" lon="4.79222">
        <ele>71.8</ele>
        <time>2012-06-06T07:05:53.000Z</time>
      </trkpt>
      <trkpt lat="43.95543" lon="4.79225">
        <ele>71.6</ele>
        <time>2012-06-06T07:05:54.000Z</time>
      </trkpt>
      <trkpt lat="43.95547" lon="4.79228">
        <ele>71.2</ele>
        <time>2012-06-06T07:05:55.000Z</time>
      </trkpt>
      <trkpt lat="43.95553" lon="4.79236">
        <ele>70.8</ele>
        <time>2012-06-06T07:05:57.000Z</time>
      </trkpt>
      <trkpt lat="43.95559" lon="4.79243">
        <ele>70.6</ele>
        <time>2012-06-06T07:05:59.000Z</time>
      </trkpt>
      <trkpt lat="43.95563" lon="4.79247">
        <ele>70.4</ele>
        <time>2012-06-06T07:06:00.000Z</time>
      </trkpt>
      <trkpt lat="43.95565" lon="4.79254">
        <ele>69.6</ele>
        <time>2012-06-06T07:06:01.000Z</time>
      </trkpt>
      <trkpt lat="43.95569" lon="4.79258">
        <ele>69.1</ele>
        <time>2012-06-06T07:06:02.000Z</time>
      </trkpt>
      <trkpt lat="43.95576" lon="4.79262">
        <ele>68.8</ele>
        <time>2012-06-06T07:06:03.000Z</time>
      </trkpt>
      <trkpt lat="43.9558" lon="4.79266">
        <ele>68.8</ele>
        <time>2012-06-06T07:06:04.000Z</time>
      </trkpt>
      <trkpt lat="43.95587" lon="4.79271">
        <ele>68.1</ele>
        <time>2012-06-06T07:06:05.000Z</time>
      </trkpt>
      <trkpt lat="43.95592" lon="4.79276">
        <ele>67.7</ele>
        <time>2012-06-06T07:06:06.000Z</time>
      </trkpt>
      <trkpt lat="43.95597" lon="4.7928">
        <ele>67.7</ele>
        <time>2012-06-06T07:06:07.000Z</time>
      </trkpt>
      <trkpt lat="43.95604" lon="4.79284">
        <ele>67.9</ele>
        <time>2012-06-06T07:06:08.000Z</time>
      </trkpt>
      <trkpt lat="43.95611" lon="4.79288">
        <ele>67.8</ele>
        <time>2012-06-06T07:06:09.000Z</time>
      </trkpt>
      <trkpt lat="43.9562" lon="4.79294">
        <ele>67.1</ele>
        <time>2012-06-06T07:06:10.000Z</time>
      </trkpt>
      <trkpt lat="43.95627" lon="4.793">
        <ele>66.9</ele>
        <time>2012-06-06T07:06:11.000Z</time>
      </trkpt>
      <trkpt lat="43.95632" lon="4.79304">
        <ele>66.4</ele>
        <time>2012-06-06T07:06:12.000Z</time>
      </trkpt>
      <trkpt lat="43.95634" lon="4.79309">
        <ele>65.8</ele>
        <time>2012-06-06T07:06:13.000Z</time>
      </trkpt>
      <trkpt lat="43.95641" lon="4.79317">
        <ele>65</ele>
        <time>2012-06-06T07:06:15.000Z</time>
      </trkpt>
      <trkpt lat="43.95647" lon="4.79323">
        <ele>64.4</ele>
        <time>2012-06-06T07:06:16.000Z</time>
      </trkpt>
      <trkpt lat="43.95652" lon="4.79329">
        <ele>64.9</ele>
        <time>2012-06-06T07:06:17.000Z</time>
      </trkpt>
      <trkpt lat="43.95657" lon="4.79335">
        <ele>66.3</ele>
        <time>2012-06-06T07:06:18.000Z</time>
      </trkpt>
      <trkpt lat="43.95661" lon="4.7934">
        <ele>66.4</ele>
        <time>2012-06-06T07:06:19.000Z</time>
      </trkpt>
      <trkpt lat="43.95665" lon="4.79346">
        <ele>66.5</ele>
        <time>2012-06-06T07:06:20.000Z</time>
      </trkpt>
      <trkpt lat="43.95669" lon="4.79352">
        <ele>66.4</ele>
        <time>2012-06-06T07:06:21.000Z</time>
      </trkpt>
      <trkpt lat="43.95674" lon="4.79358">
        <ele>66.7</ele>
        <time>2012-06-06T07:06:22.000Z</time>
      </trkpt>
      <trkpt lat="43.95677" lon="4.79363">
        <ele>65.9</ele>
        <time>2012-06-06T07:06:23.000Z</time>
      </trkpt>
      <trkpt lat="43.95682" lon="4.79368">
        <ele>66.2</ele>
        <time>2012-06-06T07:06:24.000Z</time>
      </trkpt>
      <trkpt lat="43.95685" lon="4.79376">
        <ele>66.7</ele>
        <time>2012-06-06T07:06:25.000Z</time>
      </trkpt>
      <trkpt lat="43.95688" lon="4.79381">
        <ele>66</ele>
        <time>2012-06-06T07:06:26.000Z</time>
      </trkpt>
      <trkpt lat="43.95691" lon="4.79388">
        <ele>65.7</ele>
        <time>2012-06-06T07:06:27.000Z</time>
      </trkpt>
      <trkpt lat="43.95693" lon="4.79396">
        <ele>65.8</ele>
        <time>2012-06-06T07:06:28.000Z</time>
      </trkpt>
      <trkpt lat="43.95696" lon="4.79403">
        <ele>66.1</ele>
        <time>2012-06-06T07:06:29.000Z</time>
      </trkpt>
      <trkpt lat="43.95699" lon="4.7941">
        <ele>65.6</ele>
        <time>2012-06-06T07:06:30.000Z</time>
      </trkpt>
      <trkpt lat="43.95702" lon="4.79417">
        <ele>65.5</ele>
        <time>2012-06-06T07:06:31.000Z</time>
      </trkpt>
      <trkpt lat="43.95703" lon="4.79426">
        <ele>65.3</ele>
        <time>2012-06-06T07:06:32.000Z</time>
      </trkpt>
      <trkpt lat="43.95707" lon="4.79431">
        <ele>65.8</ele>
        <time>2012-06-06T07:06:33.000Z</time>
      </trkpt>
      <trkpt lat="43.95711" lon="4.79438">
        <ele>66</ele>
        <time>2012-06-06T07:06:34.000Z</time>
      </trkpt>
      <trkpt lat="43.95715" lon="4.79444">
        <ele>66.4</ele>
        <time>2012-06-06T07:06:35.000Z</time>
      </trkpt>
      <trkpt lat="43.95718" lon="4.7945">
        <ele>67</ele>
        <time>2012-06-06T07:06:36.000Z</time>
      </trkpt>
      <trkpt lat="43.95722" lon="4.79458">
        <ele>66.9</ele>
        <time>2012-06-06T07:06:37.000Z</time>
      </trkpt>
      <trkpt lat="43.95724" lon="4.79463">
        <ele>67</ele>
        <time>2012-06-06T07:06:38.000Z</time>
      </trkpt>
      <trkpt lat="43.95727" lon="4.7947">
        <ele>67.4</ele>
        <time>2012-06-06T07:06:39.000Z</time>
      </trkpt>
      <trkpt lat="43.9573" lon="4.79475">
        <ele>68.1</ele>
        <time>2012-06-06T07:06:40.000Z</time>
      </trkpt>
      <trkpt lat="43.95732" lon="4.79482">
        <ele>68.6</ele>
        <time>2012-06-06T07:06:41.000Z</time>
      </trkpt>
      <trkpt lat="43.95738" lon="4.79488">
        <ele>69.7</ele>
        <time>2012-06-06T07:06:42.000Z</time>
      </trkpt>
      <trkpt lat="43.95741" lon="4.79494">
        <ele>70.4</ele>
        <time>2012-06-06T07:06:43.000Z</time>
      </trkpt>
      <trkpt lat="43.95746" lon="4.79505">
        <ele>72.2</ele>
        <time>2012-06-06T07:06:45.000Z</time>
      </trkpt>
      <trkpt lat="43.95749" lon="4.7951">
        <ele>72.3</ele>
        <time>2012-06-06T07:06:46.000Z</time>
      </trkpt>
      <trkpt lat="43.95752" lon="4.79516">
        <ele>72.5</ele>
        <time>2012-06-06T07:06:47.000Z</time>
      </trkpt>
      <trkpt lat="43.95754" lon="4.79522">
        <ele>72.7</ele>
        <time>2012-06-06T07:06:48.000Z</time>
      </trkpt>
      <trkpt lat="43.9576" lon="4.79534">
        <ele>74.1</ele>
        <time>2012-06-06T07:06:50.000Z</time>
      </trkpt>
      <trkpt lat="43.95763" lon="4.79542">
        <ele>75</ele>
        <time>2012-06-06T07:06:51.000Z</time>
      </trkpt>
      <trkpt lat="43.95766" lon="4.79547">
        <ele>75.6</ele>
        <time>2012-06-06T07:06:52.000Z</time>
      </trkpt>
      <trkpt lat="43.95769" lon="4.79553">
        <ele>75.1</ele>
        <time>2012-06-06T07:06:53.000Z</time>
      </trkpt>
      <trkpt lat="43.95771" lon="4.79559">
        <ele>75.3</ele>
        <time>2012-06-06T07:06:54.000Z</time>
      </trkpt>
      <trkpt lat="43.95772" lon="4.79567">
        <ele>75.4</ele>
        <time>2012-06-06T07:06:55.000Z</time>
      </trkpt>
      <trkpt lat="43.95774" lon="4.79573">
        <ele>75.1</ele>
        <time>2012-06-06T07:06:56.000Z</time>
      </trkpt>
      <trkpt lat="43.95774" lon="4.79582">
        <ele>75.6</ele>
        <time>2012-06-06T07:06:58.000Z</time>
      </trkpt>
      <trkpt lat="43.95774" lon="4.79589">
        <ele>76.3</ele>
        <time>2012-06-06T07:06:59.000Z</time>
      </trkpt>
      <trkpt lat="43.95775" lon="4.796">
        <ele>75.8</ele>
        <time>2012-06-06T07:07:01.000Z</time>
      </trkpt>
      <trkpt lat="43.95776" lon="4.79609">
        <ele>75.9</ele>
        <time>2012-06-06T07:07:03.000Z</time>
      </trkpt>
      <trkpt lat="43.95778" lon="4.79615">
        <ele>76.2</ele>
        <time>2012-06-06T07:07:06.000Z</time>
      </trkpt>
      <trkpt lat="43.9578" lon="4.79622">
        <ele>76.1</ele>
        <time>2012-06-06T07:07:08.000Z</time>
      </trkpt>
      <trkpt lat="43.95784" lon="4.79625">
        <ele>75.9</ele>
        <time>2012-06-06T07:07:34.000Z</time>
      </trkpt>
      <trkpt lat="43.95785" lon="4.79633">
        <ele>76</ele>
        <time>2012-06-06T07:07:36.000Z</time>
      </trkpt>
      <trkpt lat="43.95786" lon="4.7964">
        <ele>75.7</ele>
        <time>2012-06-06T07:07:37.000Z</time>
      </trkpt>
      <trkpt lat="43.95784" lon="4.79649">
        <ele>76.3</ele>
        <time>2012-06-06T07:07:38.000Z</time>
      </trkpt>
      <trkpt lat="43.95787" lon="4.7966">
        <ele>75.8</ele>
        <time>2012-06-06T07:07:40.000Z</time>
      </trkpt>
      <trkpt lat="43.95789" lon="4.79675">
        <ele>76.5</ele>
        <time>2012-06-06T07:07:42.000Z</time>
      </trkpt>
      <trkpt lat="43.95793" lon="4.79682">
        <ele>76.5</ele>
        <time>2012-06-06T07:07:43.000Z</time>
      </trkpt>
      <trkpt lat="43.95795" lon="4.79688">
        <ele>77</ele>
        <time>2012-06-06T07:07:44.000Z</time>
      </trkpt>
      <trkpt lat="43.95798" lon="4.79694">
        <ele>76.1</ele>
        <time>2012-06-06T07:07:45.000Z</time>
      </trkpt>
      <trkpt lat="43.95801" lon="4.797">
        <ele>76.1</ele>
        <time>2012-06-06T07:07:46.000Z</time>
      </trkpt>
      <trkpt lat="43.95803" lon="4.79706">
        <ele>75.7</ele>
        <time>2012-06-06T07:07:47.000Z</time>
      </trkpt>
      <trkpt lat="43.95807" lon="4.79713">
        <ele>75.2</ele>
        <time>2012-06-06T07:07:48.000Z</time>
      </trkpt>
      <trkpt lat="43.95808" lon="4.7972">
        <ele>75.2</ele>
        <time>2012-06-06T07:07:49.000Z</time>
      </trkpt>
      <trkpt lat="43.95811" lon="4.79728">
        <ele>75</ele>
        <time>2012-06-06T07:07:50.000Z</time>
      </trkpt>
      <trkpt lat="43.95814" lon="4.79736">
        <ele>74.5</ele>
        <time>2012-06-06T07:07:51.000Z</time>
      </trkpt>
      <trkpt lat="43.95818" lon="4.79744">
        <ele>74.4</ele>
        <time>2012-06-06T07:07:52.000Z</time>
      </trkpt>
      <trkpt lat="43.95824" lon="4.79751">
        <ele>74.8</ele>
        <time>2012-06-06T07:07:53.000Z</time>
      </trkpt>
      <trkpt lat="43.95828" lon="4.79759">
        <ele>74.9</ele>
        <time>2012-06-06T07:07:54.000Z</time>
      </trkpt>
      <trkpt lat="43.95832" lon="4.79767">
        <ele>74.7</ele>
        <time>2012-06-06T07:07:55.000Z</time>
      </trkpt>
      <trkpt lat="43.95837" lon="4.79774">
        <ele>74.4</ele>
        <time>2012-06-06T07:07:56.000Z</time>
      </trkpt>
      <trkpt lat="43.95839" lon="4.79783">
        <ele>74.8</ele>
        <time>2012-06-06T07:07:57.000Z</time>
      </trkpt>
      <trkpt lat="43.95844" lon="4.79791">
        <ele>74.6</ele>
        <time>2012-06-06T07:07:58.000Z</time>
      </trkpt>
      <trkpt lat="43.95849" lon="4.79795">
        <ele>74.3</ele>
        <time>2012-06-06T07:07:59.000Z</time>
      </trkpt>
      <trkpt lat="43.95855" lon="4.79798">
        <ele>74.5</ele>
        <time>2012-06-06T07:08:00.000Z</time>
      </trkpt>
      <trkpt lat="43.95861" lon="4.79802">
        <ele>74.3</ele>
        <time>2012-06-06T07:08:01.000Z</time>
      </trkpt>
      <trkpt lat="43.95867" lon="4.79808">
        <ele>73.8</ele>
        <time>2012-06-06T07:08:02.000Z</time>
      </trkpt>
      <trkpt lat="43.95874" lon="4.79813">
        <ele>73.5</ele>
        <time>2012-06-06T07:08:03.000Z</time>
      </trkpt>
      <trkpt lat="43.9588" lon="4.79819">
        <ele>73.5</ele>
        <time>2012-06-06T07:08:04.000Z</time>
      </trkpt>
      <trkpt lat="43.95888" lon="4.79824">
        <ele>73.4</ele>
        <time>2012-06-06T07:08:05.000Z</time>
      </trkpt>
      <trkpt lat="43.95892" lon="4.79831">
        <ele>73.4</ele>
        <time>2012-06-06T07:08:06.000Z</time>
      </trkpt>
      <trkpt lat="43.95897" lon="4.79836">
        <ele>72.5</ele>
        <time>2012-06-06T07:08:07.000Z</time>
      </trkpt>
      <trkpt lat="43.959" lon="4.79841">
        <ele>71.8</ele>
        <time>2012-06-06T07:08:08.000Z</time>
      </trkpt>
      <trkpt lat="43.95908" lon="4.79846">
        <ele>72.4</ele>
        <time>2012-06-06T07:08:10.000Z</time>
      </trkpt>
      <trkpt lat="43.95912" lon="4.79856">
        <ele>71.9</ele>
        <time>2012-06-06T07:08:12.000Z</time>
      </trkpt>
      <trkpt lat="43.95915" lon="4.79864">
        <ele>70.2</ele>
        <time>2012-06-06T07:08:14.000Z</time>
      </trkpt>
      <trkpt lat="43.95918" lon="4.79873">
        <ele>70.6</ele>
        <time>2012-06-06T07:08:16.000Z</time>
      </trkpt>
      <trkpt lat="43.95922" lon="4.79879">
        <ele>70.3</ele>
        <time>2012-06-06T07:08:18.000Z</time>
      </trkpt>
      <trkpt lat="43.95923" lon="4.79888">
        <ele>69</ele>
        <time>2012-06-06T07:08:20.000Z</time>
      </trkpt>
      <trkpt lat="43.95926" lon="4.79895">
        <ele>69.9</ele>
        <time>2012-06-06T07:08:22.000Z</time>
      </trkpt>
      <trkpt lat="43.95928" lon="4.79903">
        <ele>69.3</ele>
        <time>2012-06-06T07:08:24.000Z</time>
      </trkpt>
      <trkpt lat="43.95928" lon="4.79911">
        <ele>68.9</ele>
        <time>2012-06-06T07:08:26.000Z</time>
      </trkpt>
      <trkpt lat="43.95928" lon="4.79918">
        <ele>69.5</ele>
        <time>2012-06-06T07:08:28.000Z</time>
      </trkpt>
      <trkpt lat="43.95928" lon="4.79926">
        <ele>69</ele>
        <time>2012-06-06T07:08:30.000Z</time>
      </trkpt>
      <trkpt lat="43.95932" lon="4.79932">
        <ele>69.9</ele>
        <time>2012-06-06T07:08:32.000Z</time>
      </trkpt>
      <trkpt lat="43.95934" lon="4.79941">
        <ele>70.6</ele>
        <time>2012-06-06T07:08:34.000Z</time>
      </trkpt>
      <trkpt lat="43.95934" lon="4.79947">
        <ele>70.9</ele>
        <time>2012-06-06T07:08:36.000Z</time>
      </trkpt>
      <trkpt lat="43.95936" lon="4.79953">
        <ele>71.3</ele>
        <time>2012-06-06T07:08:38.000Z</time>
      </trkpt>
      <trkpt lat="43.95939" lon="4.79959">
        <ele>71.5</ele>
        <time>2012-06-06T07:08:40.000Z</time>
      </trkpt>
      <trkpt lat="43.95944" lon="4.79966">
        <ele>72.2</ele>
        <time>2012-06-06T07:08:42.000Z</time>
      </trkpt>
      <trkpt lat="43.95944" lon="4.79972">
        <ele>65.9</ele>
        <time>2012-06-06T07:08:45.000Z</time>
      </trkpt>
      <trkpt lat="43.95945" lon="4.79978">
        <ele>65.3</ele>
        <time>2012-06-06T07:08:47.000Z</time>
      </trkpt>
      <trkpt lat="43.95947" lon="4.79987">
        <ele>65.8</ele>
        <time>2012-06-06T07:08:49.000Z</time>
      </trkpt>
      <trkpt lat="43.95949" lon="4.79996">
        <ele>65.6</ele>
        <time>2012-06-06T07:08:51.000Z</time>
      </trkpt>
      <trkpt lat="43.9595" lon="4.80004">
        <ele>65.8</ele>
        <time>2012-06-06T07:08:53.000Z</time>
      </trkpt>
      <trkpt lat="43.95953" lon="4.80016">
        <ele>65.9</ele>
        <time>2012-06-06T07:08:55.000Z</time>
      </trkpt>
      <trkpt lat="43.95956" lon="4.80027">
        <ele>66.5</ele>
        <time>2012-06-06T07:08:56.000Z</time>
      </trkpt>
      <trkpt lat="43.95961" lon="4.80038">
        <ele>67.2</ele>
        <time>2012-06-06T07:08:58.000Z</time>
      </trkpt>
      <trkpt lat="43.95961" lon="4.80044">
        <ele>67.6</ele>
        <time>2012-06-06T07:08:59.000Z</time>
      </trkpt>
      <trkpt lat="43.95962" lon="4.80055">
        <ele>67.9</ele>
        <time>2012-06-06T07:09:01.000Z</time>
      </trkpt>
      <trkpt lat="43.95964" lon="4.80061">
        <ele>68.2</ele>
        <time>2012-06-06T07:09:02.000Z</time>
      </trkpt>
      <trkpt lat="43.95964" lon="4.80067">
        <ele>68.3</ele>
        <time>2012-06-06T07:09:03.000Z</time>
      </trkpt>
      <trkpt lat="43.95968" lon="4.80077">
        <ele>68.1</ele>
        <time>2012-06-06T07:09:05.000Z</time>
      </trkpt>
      <trkpt lat="43.95972" lon="4.80087">
        <ele>68</ele>
        <time>2012-06-06T07:09:07.000Z</time>
      </trkpt>
      <trkpt lat="43.95974" lon="4.80093">
        <ele>68.2</ele>
        <time>2012-06-06T07:09:08.000Z</time>
      </trkpt>
      <trkpt lat="43.95975" lon="4.801">
        <ele>68.1</ele>
        <time>2012-06-06T07:09:09.000Z</time>
      </trkpt>
      <trkpt lat="43.95978" lon="4.80112">
        <ele>68.7</ele>
        <time>2012-06-06T07:09:11.000Z</time>
      </trkpt>
      <trkpt lat="43.95979" lon="4.80119">
        <ele>69.1</ele>
        <time>2012-06-06T07:09:12.000Z</time>
      </trkpt>
      <trkpt lat="43.9598" lon="4.80125">
        <ele>68.9</ele>
        <time>2012-06-06T07:09:13.000Z</time>
      </trkpt>
      <trkpt lat="43.9598" lon="4.80132">
        <ele>69.5</ele>
        <time>2012-06-06T07:09:14.000Z</time>
      </trkpt>
      <trkpt lat="43.9598" lon="4.80138">
        <ele>69.9</ele>
        <time>2012-06-06T07:09:15.000Z</time>
      </trkpt>
      <trkpt lat="43.95982" lon="4.80146">
        <ele>70.7</ele>
        <time>2012-06-06T07:09:16.000Z</time>
      </trkpt>
      <trkpt lat="43.95984" lon="4.80151">
        <ele>70.6</ele>
        <time>2012-06-06T07:09:17.000Z</time>
      </trkpt>
      <trkpt lat="43.95987" lon="4.8016">
        <ele>71.5</ele>
        <time>2012-06-06T07:09:18.000Z</time>
      </trkpt>
      <trkpt lat="43.9599" lon="4.8017">
        <ele>71.7</ele>
        <time>2012-06-06T07:09:20.000Z</time>
      </trkpt>
      <trkpt lat="43.95993" lon="4.8018">
        <ele>70.9</ele>
        <time>2012-06-06T07:09:22.000Z</time>
      </trkpt>
      <trkpt lat="43.95994" lon="4.80186">
        <ele>71.6</ele>
        <time>2012-06-06T07:09:23.000Z</time>
      </trkpt>
      <trkpt lat="43.95997" lon="4.80197">
        <ele>71.6</ele>
        <time>2012-06-06T07:09:25.000Z</time>
      </trkpt>
      <trkpt lat="43.96" lon="4.80208">
        <ele>71.4</ele>
        <time>2012-06-06T07:09:27.000Z</time>
      </trkpt>
      <trkpt lat="43.96" lon="4.80216">
        <ele>71.9</ele>
        <time>2012-06-06T07:09:28.000Z</time>
      </trkpt>
      <trkpt lat="43.96002" lon="4.80227">
        <ele>71.1</ele>
        <time>2012-06-06T07:09:30.000Z</time>
      </trkpt>
      <trkpt lat="43.96002" lon="4.80234">
        <ele>71.4</ele>
        <time>2012-06-06T07:09:31.000Z</time>
      </trkpt>
      <trkpt lat="43.96003" lon="4.8024">
        <ele>71.3</ele>
        <time>2012-06-06T07:09:32.000Z</time>
      </trkpt>
      <trkpt lat="43.96004" lon="4.80246">
        <ele>71.9</ele>
        <time>2012-06-06T07:09:33.000Z</time>
      </trkpt>
      <trkpt lat="43.96005" lon="4.80254">
        <ele>72.4</ele>
        <time>2012-06-06T07:09:34.000Z</time>
      </trkpt>
      <trkpt lat="43.96006" lon="4.8026">
        <ele>73.2</ele>
        <time>2012-06-06T07:09:35.000Z</time>
      </trkpt>
      <trkpt lat="43.96009" lon="4.80268">
        <ele>73.1</ele>
        <time>2012-06-06T07:09:37.000Z</time>
      </trkpt>
      <trkpt lat="43.96013" lon="4.80279">
        <ele>72.9</ele>
        <time>2012-06-06T07:09:39.000Z</time>
      </trkpt>
      <trkpt lat="43.96018" lon="4.80291">
        <ele>73</ele>
        <time>2012-06-06T07:09:41.000Z</time>
      </trkpt>
      <trkpt lat="43.96022" lon="4.80303">
        <ele>73.2</ele>
        <time>2012-06-06T07:09:43.000Z</time>
      </trkpt>
      <trkpt lat="43.96025" lon="4.8031">
        <ele>73.1</ele>
        <time>2012-06-06T07:09:44.000Z</time>
      </trkpt>
      <trkpt lat="43.96028" lon="4.80316">
        <ele>73</ele>
        <time>2012-06-06T07:09:45.000Z</time>
      </trkpt>
      <trkpt lat="43.96027" lon="4.80328">
        <ele>72.6</ele>
        <time>2012-06-06T07:09:47.000Z</time>
      </trkpt>
      <trkpt lat="43.96028" lon="4.80342">
        <ele>72.2</ele>
        <time>2012-06-06T07:09:49.000Z</time>
      </trkpt>
      <trkpt lat="43.9603" lon="4.8035">
        <ele>72</ele>
        <time>2012-06-06T07:09:50.000Z</time>
      </trkpt>
      <trkpt lat="43.9603" lon="4.80358">
        <ele>72.1</ele>
        <time>2012-06-06T07:09:51.000Z</time>
      </trkpt>
      <trkpt lat="43.96033" lon="4.80369">
        <ele>72.4</ele>
        <time>2012-06-06T07:09:53.000Z</time>
      </trkpt>
      <trkpt lat="43.96036" lon="4.80379">
        <ele>72.8</ele>
        <time>2012-06-06T07:09:55.000Z</time>
      </trkpt>
      <trkpt lat="43.96036" lon="4.80385">
        <ele>73</ele>
        <time>2012-06-06T07:09:56.000Z</time>
      </trkpt>
      <trkpt lat="43.96038" lon="4.80391">
        <ele>72.5</ele>
        <time>2012-06-06T07:09:57.000Z</time>
      </trkpt>
      <trkpt lat="43.96039" lon="4.80398">
        <ele>72.9</ele>
        <time>2012-06-06T07:09:58.000Z</time>
      </trkpt>
      <trkpt lat="43.9604" lon="4.80404">
        <ele>73.1</ele>
        <time>2012-06-06T07:09:59.000Z</time>
      </trkpt>
      <trkpt lat="43.96043" lon="4.8041">
        <ele>73.3</ele>
        <time>2012-06-06T07:10:00.000Z</time>
      </trkpt>
      <trkpt lat="43.96044" lon="4.80418">
        <ele>72.9</ele>
        <time>2012-06-06T07:10:01.000Z</time>
      </trkpt>
      <trkpt lat="43.96046" lon="4.80424">
        <ele>73</ele>
        <time>2012-06-06T07:10:02.000Z</time>
      </trkpt>
      <trkpt lat="43.96048" lon="4.80432">
        <ele>73</ele>
        <time>2012-06-06T07:10:03.000Z</time>
      </trkpt>
      <trkpt lat="43.96052" lon="4.80444">
        <ele>73.7</ele>
        <time>2012-06-06T07:10:05.000Z</time>
      </trkpt>
      <trkpt lat="43.96052" lon="4.80451">
        <ele>73.5</ele>
        <time>2012-06-06T07:10:06.000Z</time>
      </trkpt>
      <trkpt lat="43.96056" lon="4.80461">
        <ele>73.8</ele>
        <time>2012-06-06T07:10:08.000Z</time>
      </trkpt>
      <trkpt lat="43.96056" lon="4.80469">
        <ele>73.9</ele>
        <time>2012-06-06T07:10:09.000Z</time>
      </trkpt>
      <trkpt lat="43.96061" lon="4.80474">
        <ele>73.2</ele>
        <time>2012-06-06T07:10:10.000Z</time>
      </trkpt>
      <trkpt lat="43.96061" lon="4.80481">
        <ele>73.4</ele>
        <time>2012-06-06T07:10:11.000Z</time>
      </trkpt>
      <trkpt lat="43.96063" lon="4.80487">
        <ele>73.6</ele>
        <time>2012-06-06T07:10:12.000Z</time>
      </trkpt>
      <trkpt lat="43.96066" lon="4.80492">
        <ele>73.4</ele>
        <time>2012-06-06T07:10:13.000Z</time>
      </trkpt>
      <trkpt lat="43.96066" lon="4.80499">
        <ele>73.4</ele>
        <time>2012-06-06T07:10:14.000Z</time>
      </trkpt>
      <trkpt lat="43.96068" lon="4.80504">
        <ele>73.6</ele>
        <time>2012-06-06T07:10:15.000Z</time>
      </trkpt>
      <trkpt lat="43.96071" lon="4.80515">
        <ele>73.2</ele>
        <time>2012-06-06T07:10:17.000Z</time>
      </trkpt>
      <trkpt lat="43.96073" lon="4.80522">
        <ele>73.3</ele>
        <time>2012-06-06T07:10:18.000Z</time>
      </trkpt>
      <trkpt lat="43.96075" lon="4.80532">
        <ele>72.6</ele>
        <time>2012-06-06T07:10:20.000Z</time>
      </trkpt>
      <trkpt lat="43.96077" lon="4.80538">
        <ele>72.6</ele>
        <time>2012-06-06T07:10:21.000Z</time>
      </trkpt>
      <trkpt lat="43.96078" lon="4.80545">
        <ele>72.5</ele>
        <time>2012-06-06T07:10:22.000Z</time>
      </trkpt>
      <trkpt lat="43.96081" lon="4.80552">
        <ele>72.6</ele>
        <time>2012-06-06T07:10:23.000Z</time>
      </trkpt>
      <trkpt lat="43.96082" lon="4.80559">
        <ele>72.6</ele>
        <time>2012-06-06T07:10:24.000Z</time>
      </trkpt>
      <trkpt lat="43.96083" lon="4.80565">
        <ele>72.8</ele>
        <time>2012-06-06T07:10:25.000Z</time>
      </trkpt>
      <trkpt lat="43.96083" lon="4.80572">
        <ele>72.7</ele>
        <time>2012-06-06T07:10:26.000Z</time>
      </trkpt>
      <trkpt lat="43.96084" lon="4.8058">
        <ele>72.5</ele>
        <time>2012-06-06T07:10:27.000Z</time>
      </trkpt>
      <trkpt lat="43.96085" lon="4.80587">
        <ele>72.5</ele>
        <time>2012-06-06T07:10:28.000Z</time>
      </trkpt>
      <trkpt lat="43.96084" lon="4.80595">
        <ele>72.3</ele>
        <time>2012-06-06T07:10:29.000Z</time>
      </trkpt>
      <trkpt lat="43.96084" lon="4.80602">
        <ele>71.9</ele>
        <time>2012-06-06T07:10:30.000Z</time>
      </trkpt>
      <trkpt lat="43.96087" lon="4.80606">
        <ele>71.3</ele>
        <time>2012-06-06T07:10:31.000Z</time>
      </trkpt>
      <trkpt lat="43.96088" lon="4.80619">
        <ele>71.3</ele>
        <time>2012-06-06T07:10:33.000Z</time>
      </trkpt>
      <trkpt lat="43.96092" lon="4.80624">
        <ele>71.7</ele>
        <time>2012-06-06T07:10:34.000Z</time>
      </trkpt>
      <trkpt lat="43.96094" lon="4.80629">
        <ele>71.5</ele>
        <time>2012-06-06T07:10:35.000Z</time>
      </trkpt>
      <trkpt lat="43.96096" lon="4.80634">
        <ele>71.5</ele>
        <time>2012-06-06T07:10:36.000Z</time>
      </trkpt>
      <trkpt lat="43.961" lon="4.80647">
        <ele>71.8</ele>
        <time>2012-06-06T07:10:38.000Z</time>
      </trkpt>
      <trkpt lat="43.96101" lon="4.80654">
        <ele>71.7</ele>
        <time>2012-06-06T07:10:39.000Z</time>
      </trkpt>
      <trkpt lat="43.96101" lon="4.80663">
        <ele>72</ele>
        <time>2012-06-06T07:10:40.000Z</time>
      </trkpt>
      <trkpt lat="43.96104" lon="4.80668">
        <ele>72</ele>
        <time>2012-06-06T07:10:41.000Z</time>
      </trkpt>
      <trkpt lat="43.96105" lon="4.80674">
        <ele>72</ele>
        <time>2012-06-06T07:10:42.000Z</time>
      </trkpt>
      <trkpt lat="43.96108" lon="4.80681">
        <ele>72.3</ele>
        <time>2012-06-06T07:10:43.000Z</time>
      </trkpt>
      <trkpt lat="43.9611" lon="4.80688">
        <ele>72.8</ele>
        <time>2012-06-06T07:10:44.000Z</time>
      </trkpt>
      <trkpt lat="43.96116" lon="4.80696">
        <ele>72.2</ele>
        <time>2012-06-06T07:10:46.000Z</time>
      </trkpt>
      <trkpt lat="43.96117" lon="4.80703">
        <ele>72.1</ele>
        <time>2012-06-06T07:10:47.000Z</time>
      </trkpt>
      <trkpt lat="43.96119" lon="4.80709">
        <ele>72.6</ele>
        <time>2012-06-06T07:10:48.000Z</time>
      </trkpt>
      <trkpt lat="43.96121" lon="4.80714">
        <ele>72.3</ele>
        <time>2012-06-06T07:10:49.000Z</time>
      </trkpt>
      <trkpt lat="43.96125" lon="4.80724">
        <ele>72.5</ele>
        <time>2012-06-06T07:10:51.000Z</time>
      </trkpt>
      <trkpt lat="43.96131" lon="4.80734">
        <ele>72.2</ele>
        <time>2012-06-06T07:10:53.000Z</time>
      </trkpt>
      <trkpt lat="43.96137" lon="4.80739">
        <ele>73.4</ele>
        <time>2012-06-06T07:10:54.000Z</time>
      </trkpt>
      <trkpt lat="43.96141" lon="4.80744">
        <ele>73</ele>
        <time>2012-06-06T07:10:55.000Z</time>
      </trkpt>
      <trkpt lat="43.96145" lon="4.80754">
        <ele>71.8</ele>
        <time>2012-06-06T07:10:57.000Z</time>
      </trkpt>
      <trkpt lat="43.96148" lon="4.8076">
        <ele>72.2</ele>
        <time>2012-06-06T07:10:58.000Z</time>
      </trkpt>
      <trkpt lat="43.96152" lon="4.80771">
        <ele>71.7</ele>
        <time>2012-06-06T07:11:00.000Z</time>
      </trkpt>
      <trkpt lat="43.96155" lon="4.80783">
        <ele>70.5</ele>
        <time>2012-06-06T07:11:02.000Z</time>
      </trkpt>
      <trkpt lat="43.96157" lon="4.8079">
        <ele>70.5</ele>
        <time>2012-06-06T07:11:03.000Z</time>
      </trkpt>
      <trkpt lat="43.96162" lon="4.80799">
        <ele>71.1</ele>
        <time>2012-06-06T07:11:05.000Z</time>
      </trkpt>
      <trkpt lat="43.96168" lon="4.8081">
        <ele>71.3</ele>
        <time>2012-06-06T07:11:07.000Z</time>
      </trkpt>
      <trkpt lat="43.96171" lon="4.80816">
        <ele>71.6</ele>
        <time>2012-06-06T07:11:08.000Z</time>
      </trkpt>
      <trkpt lat="43.96174" lon="4.80822">
        <ele>71.2</ele>
        <time>2012-06-06T07:11:09.000Z</time>
      </trkpt>
      <trkpt lat="43.9618" lon="4.80833">
        <ele>71.1</ele>
        <time>2012-06-06T07:11:11.000Z</time>
      </trkpt>
      <trkpt lat="43.96182" lon="4.80838">
        <ele>71.6</ele>
        <time>2012-06-06T07:11:12.000Z</time>
      </trkpt>
      <trkpt lat="43.96184" lon="4.80844">
        <ele>71.8</ele>
        <time>2012-06-06T07:11:13.000Z</time>
      </trkpt>
      <trkpt lat="43.96186" lon="4.8085">
        <ele>71.9</ele>
        <time>2012-06-06T07:11:14.000Z</time>
      </trkpt>
      <trkpt lat="43.9619" lon="4.80861">
        <ele>71.8</ele>
        <time>2012-06-06T07:11:16.000Z</time>
      </trkpt>
      <trkpt lat="43.96194" lon="4.8087">
        <ele>70.3</ele>
        <time>2012-06-06T07:11:18.000Z</time>
      </trkpt>
      <trkpt lat="43.96198" lon="4.80879">
        <ele>72.5</ele>
        <time>2012-06-06T07:11:19.000Z</time>
      </trkpt>
      <trkpt lat="43.962" lon="4.80884">
        <ele>72.5</ele>
        <time>2012-06-06T07:11:20.000Z</time>
      </trkpt>
      <trkpt lat="43.96203" lon="4.80889">
        <ele>72.7</ele>
        <time>2012-06-06T07:11:21.000Z</time>
      </trkpt>
      <trkpt lat="43.96205" lon="4.80894">
        <ele>72.5</ele>
        <time>2012-06-06T07:11:22.000Z</time>
      </trkpt>
      <trkpt lat="43.96208" lon="4.809">
        <ele>72.4</ele>
        <time>2012-06-06T07:11:23.000Z</time>
      </trkpt>
      <trkpt lat="43.96212" lon="4.80905">
        <ele>73.5</ele>
        <time>2012-06-06T07:11:24.000Z</time>
      </trkpt>
      <trkpt lat="43.96215" lon="4.80911">
        <ele>73.7</ele>
        <time>2012-06-06T07:11:25.000Z</time>
      </trkpt>
      <trkpt lat="43.96219" lon="4.80916">
        <ele>73.9</ele>
        <time>2012-06-06T07:11:26.000Z</time>
      </trkpt>
      <trkpt lat="43.96222" lon="4.80921">
        <ele>74.2</ele>
        <time>2012-06-06T07:11:27.000Z</time>
      </trkpt>
      <trkpt lat="43.96225" lon="4.80927">
        <ele>74.3</ele>
        <time>2012-06-06T07:11:28.000Z</time>
      </trkpt>
      <trkpt lat="43.96228" lon="4.80931">
        <ele>74.4</ele>
        <time>2012-06-06T07:11:29.000Z</time>
      </trkpt>
      <trkpt lat="43.96231" lon="4.80936">
        <ele>74.4</ele>
        <time>2012-06-06T07:11:30.000Z</time>
      </trkpt>
      <trkpt lat="43.96235" lon="4.80941">
        <ele>74.5</ele>
        <time>2012-06-06T07:11:31.000Z</time>
      </trkpt>
      <trkpt lat="43.9624" lon="4.8095">
        <ele>74.3</ele>
        <time>2012-06-06T07:11:33.000Z</time>
      </trkpt>
      <trkpt lat="43.96244" lon="4.80955">
        <ele>74.2</ele>
        <time>2012-06-06T07:11:34.000Z</time>
      </trkpt>
      <trkpt lat="43.9625" lon="4.80963">
        <ele>73.5</ele>
        <time>2012-06-06T07:11:36.000Z</time>
      </trkpt>
      <trkpt lat="43.96253" lon="4.80968">
        <ele>73.3</ele>
        <time>2012-06-06T07:11:37.000Z</time>
      </trkpt>
      <trkpt lat="43.96256" lon="4.80973">
        <ele>73.5</ele>
        <time>2012-06-06T07:11:38.000Z</time>
      </trkpt>
      <trkpt lat="43.96262" lon="4.80979">
        <ele>75.7</ele>
        <time>2012-06-06T07:11:39.000Z</time>
      </trkpt>
      <trkpt lat="43.96266" lon="4.80984">
        <ele>74.5</ele>
        <time>2012-06-06T07:11:40.000Z</time>
      </trkpt>
      <trkpt lat="43.9627" lon="4.80988">
        <ele>74.3</ele>
        <time>2012-06-06T07:11:41.000Z</time>
      </trkpt>
      <trkpt lat="43.96272" lon="4.80994">
        <ele>74.9</ele>
        <time>2012-06-06T07:11:42.000Z</time>
      </trkpt>
      <trkpt lat="43.96277" lon="4.80998">
        <ele>75.4</ele>
        <time>2012-06-06T07:11:43.000Z</time>
      </trkpt>
      <trkpt lat="43.96281" lon="4.81003">
        <ele>75.9</ele>
        <time>2012-06-06T07:11:44.000Z</time>
      </trkpt>
      <trkpt lat="43.96284" lon="4.81008">
        <ele>75.8</ele>
        <time>2012-06-06T07:11:45.000Z</time>
      </trkpt>
      <trkpt lat="43.96288" lon="4.81012">
        <ele>75.6</ele>
        <time>2012-06-06T07:11:46.000Z</time>
      </trkpt>
      <trkpt lat="43.96291" lon="4.81016">
        <ele>75.2</ele>
        <time>2012-06-06T07:11:47.000Z</time>
      </trkpt>
      <trkpt lat="43.96294" lon="4.81022">
        <ele>74</ele>
        <time>2012-06-06T07:11:48.000Z</time>
      </trkpt>
      <trkpt lat="43.96297" lon="4.81027">
        <ele>73.4</ele>
        <time>2012-06-06T07:11:49.000Z</time>
      </trkpt>
      <trkpt lat="43.96306" lon="4.81036">
        <ele>75.4</ele>
        <time>2012-06-06T07:11:51.000Z</time>
      </trkpt>
      <trkpt lat="43.9631" lon="4.8104">
        <ele>75.5</ele>
        <time>2012-06-06T07:11:52.000Z</time>
      </trkpt>
      <trkpt lat="43.96314" lon="4.81045">
        <ele>75.4</ele>
        <time>2012-06-06T07:11:53.000Z</time>
      </trkpt>
      <trkpt lat="43.96318" lon="4.81048">
        <ele>75.1</ele>
        <time>2012-06-06T07:11:54.000Z</time>
      </trkpt>
      <trkpt lat="43.96323" lon="4.81053">
        <ele>76.2</ele>
        <time>2012-06-06T07:11:55.000Z</time>
      </trkpt>
      <trkpt lat="43.96327" lon="4.81057">
        <ele>75.9</ele>
        <time>2012-06-06T07:11:56.000Z</time>
      </trkpt>
      <trkpt lat="43.96331" lon="4.81062">
        <ele>75.2</ele>
        <time>2012-06-06T07:11:57.000Z</time>
      </trkpt>
      <trkpt lat="43.96335" lon="4.81066">
        <ele>75</ele>
        <time>2012-06-06T07:11:58.000Z</time>
      </trkpt>
      <trkpt lat="43.96338" lon="4.81071">
        <ele>74.8</ele>
        <time>2012-06-06T07:11:59.000Z</time>
      </trkpt>
      <trkpt lat="43.96342" lon="4.81076">
        <ele>75.4</ele>
        <time>2012-06-06T07:12:00.000Z</time>
      </trkpt>
      <trkpt lat="43.96346" lon="4.81081">
        <ele>76.1</ele>
        <time>2012-06-06T07:12:01.000Z</time>
      </trkpt>
      <trkpt lat="43.9635" lon="4.81085">
        <ele>76.3</ele>
        <time>2012-06-06T07:12:02.000Z</time>
      </trkpt>
      <trkpt lat="43.96356" lon="4.81091">
        <ele>78.1</ele>
        <time>2012-06-06T07:12:03.000Z</time>
      </trkpt>
      <trkpt lat="43.9636" lon="4.81094">
        <ele>77.2</ele>
        <time>2012-06-06T07:12:04.000Z</time>
      </trkpt>
      <trkpt lat="43.96364" lon="4.81098">
        <ele>77.1</ele>
        <time>2012-06-06T07:12:05.000Z</time>
      </trkpt>
      <trkpt lat="43.96368" lon="4.81102">
        <ele>77</ele>
        <time>2012-06-06T07:12:06.000Z</time>
      </trkpt>
      <trkpt lat="43.96371" lon="4.81107">
        <ele>76.8</ele>
        <time>2012-06-06T07:12:07.000Z</time>
      </trkpt>
      <trkpt lat="43.96375" lon="4.81111">
        <ele>76.7</ele>
        <time>2012-06-06T07:12:08.000Z</time>
      </trkpt>
      <trkpt lat="43.96382" lon="4.81117">
        <ele>76.7</ele>
        <time>2012-06-06T07:12:10.000Z</time>
      </trkpt>
      <trkpt lat="43.96386" lon="4.8112">
        <ele>76.3</ele>
        <time>2012-06-06T07:12:11.000Z</time>
      </trkpt>
      <trkpt lat="43.96396" lon="4.81124">
        <ele>76.2</ele>
        <time>2012-06-06T07:12:13.000Z</time>
      </trkpt>
      <trkpt lat="43.964" lon="4.81126">
        <ele>76.2</ele>
        <time>2012-06-06T07:12:14.000Z</time>
      </trkpt>
      <trkpt lat="43.96404" lon="4.81128">
        <ele>76.4</ele>
        <time>2012-06-06T07:12:15.000Z</time>
      </trkpt>
      <trkpt lat="43.96414" lon="4.8113">
        <ele>76.3</ele>
        <time>2012-06-06T07:12:17.000Z</time>
      </trkpt>
      <trkpt lat="43.9642" lon="4.8113">
        <ele>76.2</ele>
        <time>2012-06-06T07:12:18.000Z</time>
      </trkpt>
      <trkpt lat="43.96429" lon="4.8113">
        <ele>76.1</ele>
        <time>2012-06-06T07:12:20.000Z</time>
      </trkpt>
      <trkpt lat="43.96437" lon="4.81133">
        <ele>75.9</ele>
        <time>2012-06-06T07:12:22.000Z</time>
      </trkpt>
      <trkpt lat="43.96446" lon="4.81136">
        <ele>75.9</ele>
        <time>2012-06-06T07:12:24.000Z</time>
      </trkpt>
      <trkpt lat="43.96451" lon="4.81138">
        <ele>76</ele>
        <time>2012-06-06T07:12:25.000Z</time>
      </trkpt>
      <trkpt lat="43.96455" lon="4.8114">
        <ele>76</ele>
        <time>2012-06-06T07:12:26.000Z</time>
      </trkpt>
      <trkpt lat="43.96464" lon="4.81143">
        <ele>76.4</ele>
        <time>2012-06-06T07:12:28.000Z</time>
      </trkpt>
      <trkpt lat="43.96469" lon="4.81144">
        <ele>76.5</ele>
        <time>2012-06-06T07:12:29.000Z</time>
      </trkpt>
      <trkpt lat="43.96473" lon="4.81145">
        <ele>76.5</ele>
        <time>2012-06-06T07:12:30.000Z</time>
      </trkpt>
      <trkpt lat="43.96479" lon="4.81148">
        <ele>76.4</ele>
        <time>2012-06-06T07:12:31.000Z</time>
      </trkpt>
      <trkpt lat="43.96484" lon="4.81149">
        <ele>76.4</ele>
        <time>2012-06-06T07:12:32.000Z</time>
      </trkpt>
      <trkpt lat="43.96489" lon="4.81151">
        <ele>76.4</ele>
        <time>2012-06-06T07:12:33.000Z</time>
      </trkpt>
      <trkpt lat="43.96494" lon="4.81152">
        <ele>76.2</ele>
        <time>2012-06-06T07:12:34.000Z</time>
      </trkpt>
      <trkpt lat="43.96499" lon="4.81153">
        <ele>76.3</ele>
        <time>2012-06-06T07:12:35.000Z</time>
      </trkpt>
      <trkpt lat="43.96507" lon="4.81156">
        <ele>76.2</ele>
        <time>2012-06-06T07:12:37.000Z</time>
      </trkpt>
      <trkpt lat="43.96512" lon="4.81158">
        <ele>75.8</ele>
        <time>2012-06-06T07:12:38.000Z</time>
      </trkpt>
      <trkpt lat="43.96517" lon="4.81161">
        <ele>76.2</ele>
        <time>2012-06-06T07:12:39.000Z</time>
      </trkpt>
      <trkpt lat="43.96524" lon="4.81163">
        <ele>76.6</ele>
        <time>2012-06-06T07:12:40.000Z</time>
      </trkpt>
      <trkpt lat="43.96533" lon="4.81166">
        <ele>76.7</ele>
        <time>2012-06-06T07:12:42.000Z</time>
      </trkpt>
      <trkpt lat="43.96539" lon="4.81168">
        <ele>76.7</ele>
        <time>2012-06-06T07:12:43.000Z</time>
      </trkpt>
      <trkpt lat="43.96544" lon="4.8117">
        <ele>76.4</ele>
        <time>2012-06-06T07:12:44.000Z</time>
      </trkpt>
      <trkpt lat="43.96548" lon="4.81171">
        <ele>76.2</ele>
        <time>2012-06-06T07:12:45.000Z</time>
      </trkpt>
      <trkpt lat="43.96553" lon="4.81173">
        <ele>76</ele>
        <time>2012-06-06T07:12:46.000Z</time>
      </trkpt>
      <trkpt lat="43.96562" lon="4.81177">
        <ele>76.2</ele>
        <time>2012-06-06T07:12:48.000Z</time>
      </trkpt>
      <trkpt lat="43.96566" lon="4.81179">
        <ele>76.2</ele>
        <time>2012-06-06T07:12:49.000Z</time>
      </trkpt>
      <trkpt lat="43.96575" lon="4.81184">
        <ele>75.5</ele>
        <time>2012-06-06T07:12:51.000Z</time>
      </trkpt>
      <trkpt lat="43.96579" lon="4.81186">
        <ele>75.4</ele>
        <time>2012-06-06T07:12:52.000Z</time>
      </trkpt>
      <trkpt lat="43.96585" lon="4.81188">
        <ele>75.2</ele>
        <time>2012-06-06T07:12:53.000Z</time>
      </trkpt>
      <trkpt lat="43.9659" lon="4.81191">
        <ele>75</ele>
        <time>2012-06-06T07:12:54.000Z</time>
      </trkpt>
      <trkpt lat="43.96596" lon="4.81193">
        <ele>75</ele>
        <time>2012-06-06T07:12:55.000Z</time>
      </trkpt>
      <trkpt lat="43.96605" lon="4.81197">
        <ele>74.1</ele>
        <time>2012-06-06T07:12:57.000Z</time>
      </trkpt>
      <trkpt lat="43.9661" lon="4.81198">
        <ele>73.6</ele>
        <time>2012-06-06T07:12:58.000Z</time>
      </trkpt>
      <trkpt lat="43.96614" lon="4.81198">
        <ele>73.1</ele>
        <time>2012-06-06T07:12:59.000Z</time>
      </trkpt>
      <trkpt lat="43.96624" lon="4.81201">
        <ele>73.1</ele>
        <time>2012-06-06T07:13:01.000Z</time>
      </trkpt>
      <trkpt lat="43.96629" lon="4.81202">
        <ele>73.2</ele>
        <time>2012-06-06T07:13:02.000Z</time>
      </trkpt>
      <trkpt lat="43.96633" lon="4.81202">
        <ele>72.9</ele>
        <time>2012-06-06T07:13:03.000Z</time>
      </trkpt>
      <trkpt lat="43.96638" lon="4.81204">
        <ele>73.4</ele>
        <time>2012-06-06T07:13:04.000Z</time>
      </trkpt>
      <trkpt lat="43.96643" lon="4.81206">
        <ele>73</ele>
        <time>2012-06-06T07:13:05.000Z</time>
      </trkpt>
      <trkpt lat="43.96648" lon="4.81207">
        <ele>72.6</ele>
        <time>2012-06-06T07:13:06.000Z</time>
      </trkpt>
      <trkpt lat="43.96653" lon="4.81208">
        <ele>73.1</ele>
        <time>2012-06-06T07:13:07.000Z</time>
      </trkpt>
      <trkpt lat="43.9666" lon="4.81211">
        <ele>73.2</ele>
        <time>2012-06-06T07:13:08.000Z</time>
      </trkpt>
      <trkpt lat="43.96668" lon="4.81213">
        <ele>73.7</ele>
        <time>2012-06-06T07:13:10.000Z</time>
      </trkpt>
      <trkpt lat="43.96673" lon="4.81215">
        <ele>73.7</ele>
        <time>2012-06-06T07:13:11.000Z</time>
      </trkpt>
      <trkpt lat="43.96678" lon="4.81216">
        <ele>73.4</ele>
        <time>2012-06-06T07:13:12.000Z</time>
      </trkpt>
      <trkpt lat="43.96682" lon="4.81218">
        <ele>73.5</ele>
        <time>2012-06-06T07:13:13.000Z</time>
      </trkpt>
      <trkpt lat="43.96686" lon="4.81222">
        <ele>73.5</ele>
        <time>2012-06-06T07:13:14.000Z</time>
      </trkpt>
      <trkpt lat="43.96692" lon="4.81224">
        <ele>73.6</ele>
        <time>2012-06-06T07:13:15.000Z</time>
      </trkpt>
      <trkpt lat="43.96696" lon="4.81225">
        <ele>73.4</ele>
        <time>2012-06-06T07:13:16.000Z</time>
      </trkpt>
      <trkpt lat="43.96701" lon="4.81226">
        <ele>73.3</ele>
        <time>2012-06-06T07:13:17.000Z</time>
      </trkpt>
      <trkpt lat="43.96706" lon="4.81229">
        <ele>73.3</ele>
        <time>2012-06-06T07:13:18.000Z</time>
      </trkpt>
      <trkpt lat="43.96711" lon="4.8123">
        <ele>73.1</ele>
        <time>2012-06-06T07:13:19.000Z</time>
      </trkpt>
      <trkpt lat="43.96715" lon="4.81232">
        <ele>73.3</ele>
        <time>2012-06-06T07:13:20.000Z</time>
      </trkpt>
      <trkpt lat="43.96721" lon="4.81234">
        <ele>73</ele>
        <time>2012-06-06T07:13:21.000Z</time>
      </trkpt>
      <trkpt lat="43.96726" lon="4.81234">
        <ele>72.6</ele>
        <time>2012-06-06T07:13:22.000Z</time>
      </trkpt>
      <trkpt lat="43.9673" lon="4.81237">
        <ele>72.1</ele>
        <time>2012-06-06T07:13:23.000Z</time>
      </trkpt>
      <trkpt lat="43.96736" lon="4.8124">
        <ele>72.3</ele>
        <time>2012-06-06T07:13:24.000Z</time>
      </trkpt>
      <trkpt lat="43.9674" lon="4.81243">
        <ele>72.4</ele>
        <time>2012-06-06T07:13:25.000Z</time>
      </trkpt>
      <trkpt lat="43.96745" lon="4.81245">
        <ele>72.2</ele>
        <time>2012-06-06T07:13:26.000Z</time>
      </trkpt>
      <trkpt lat="43.9675" lon="4.81249">
        <ele>72.6</ele>
        <time>2012-06-06T07:13:27.000Z</time>
      </trkpt>
      <trkpt lat="43.96755" lon="4.8125">
        <ele>72.7</ele>
        <time>2012-06-06T07:13:28.000Z</time>
      </trkpt>
      <trkpt lat="43.9676" lon="4.81252">
        <ele>72.7</ele>
        <time>2012-06-06T07:13:29.000Z</time>
      </trkpt>
      <trkpt lat="43.96769" lon="4.81253">
        <ele>73.1</ele>
        <time>2012-06-06T07:13:31.000Z</time>
      </trkpt>
      <trkpt lat="43.96778" lon="4.81255">
        <ele>72.7</ele>
        <time>2012-06-06T07:13:33.000Z</time>
      </trkpt>
      <trkpt lat="43.96783" lon="4.81257">
        <ele>72.7</ele>
        <time>2012-06-06T07:13:34.000Z</time>
      </trkpt>
      <trkpt lat="43.96789" lon="4.81258">
        <ele>72.6</ele>
        <time>2012-06-06T07:13:35.000Z</time>
      </trkpt>
      <trkpt lat="43.96794" lon="4.81259">
        <ele>72.8</ele>
        <time>2012-06-06T07:13:36.000Z</time>
      </trkpt>
      <trkpt lat="43.96799" lon="4.81259">
        <ele>72.2</ele>
        <time>2012-06-06T07:13:37.000Z</time>
      </trkpt>
      <trkpt lat="43.96807" lon="4.81262">
        <ele>72.3</ele>
        <time>2012-06-06T07:13:39.000Z</time>
      </trkpt>
      <trkpt lat="43.96812" lon="4.8126">
        <ele>72.3</ele>
        <time>2012-06-06T07:13:40.000Z</time>
      </trkpt>
      <trkpt lat="43.96819" lon="4.81259">
        <ele>71.7</ele>
        <time>2012-06-06T07:13:42.000Z</time>
      </trkpt>
      <trkpt lat="43.96824" lon="4.81259">
        <ele>72.1</ele>
        <time>2012-06-06T07:13:43.000Z</time>
      </trkpt>
      <trkpt lat="43.9683" lon="4.81256">
        <ele>71.8</ele>
        <time>2012-06-06T07:13:44.000Z</time>
      </trkpt>
      <trkpt lat="43.96835" lon="4.81254">
        <ele>71.2</ele>
        <time>2012-06-06T07:13:45.000Z</time>
      </trkpt>
      <trkpt lat="43.96841" lon="4.81252">
        <ele>70.5</ele>
        <time>2012-06-06T07:13:46.000Z</time>
      </trkpt>
      <trkpt lat="43.96845" lon="4.81249">
        <ele>70.4</ele>
        <time>2012-06-06T07:13:47.000Z</time>
      </trkpt>
      <trkpt lat="43.9685" lon="4.81247">
        <ele>69.7</ele>
        <time>2012-06-06T07:13:48.000Z</time>
      </trkpt>
      <trkpt lat="43.96856" lon="4.81246">
        <ele>69.3</ele>
        <time>2012-06-06T07:13:49.000Z</time>
      </trkpt>
      <trkpt lat="43.9686" lon="4.81244">
        <ele>69.2</ele>
        <time>2012-06-06T07:13:50.000Z</time>
      </trkpt>
      <trkpt lat="43.96865" lon="4.81243">
        <ele>69.2</ele>
        <time>2012-06-06T07:13:51.000Z</time>
      </trkpt>
      <trkpt lat="43.9687" lon="4.8124">
        <ele>69.5</ele>
        <time>2012-06-06T07:13:52.000Z</time>
      </trkpt>
      <trkpt lat="43.96878" lon="4.81236">
        <ele>69.1</ele>
        <time>2012-06-06T07:13:54.000Z</time>
      </trkpt>
      <trkpt lat="43.96884" lon="4.81234">
        <ele>68.9</ele>
        <time>2012-06-06T07:13:55.000Z</time>
      </trkpt>
      <trkpt lat="43.96889" lon="4.81232">
        <ele>68.3</ele>
        <time>2012-06-06T07:13:56.000Z</time>
      </trkpt>
      <trkpt lat="43.96894" lon="4.81232">
        <ele>68.4</ele>
        <time>2012-06-06T07:13:57.000Z</time>
      </trkpt>
      <trkpt lat="43.96899" lon="4.81229">
        <ele>68.5</ele>
        <time>2012-06-06T07:13:58.000Z</time>
      </trkpt>
      <trkpt lat="43.96904" lon="4.81227">
        <ele>68.1</ele>
        <time>2012-06-06T07:13:59.000Z</time>
      </trkpt>
      <trkpt lat="43.96908" lon="4.81224">
        <ele>67.8</ele>
        <time>2012-06-06T07:14:00.000Z</time>
      </trkpt>
      <trkpt lat="43.96912" lon="4.81222">
        <ele>67.9</ele>
        <time>2012-06-06T07:14:01.000Z</time>
      </trkpt>
      <trkpt lat="43.96917" lon="4.81219">
        <ele>68.3</ele>
        <time>2012-06-06T07:14:02.000Z</time>
      </trkpt>
      <trkpt lat="43.96922" lon="4.81217">
        <ele>67.4</ele>
        <time>2012-06-06T07:14:03.000Z</time>
      </trkpt>
      <trkpt lat="43.96928" lon="4.81215">
        <ele>66.8</ele>
        <time>2012-06-06T07:14:04.000Z</time>
      </trkpt>
      <trkpt lat="43.96937" lon="4.81211">
        <ele>66.4</ele>
        <time>2012-06-06T07:14:06.000Z</time>
      </trkpt>
      <trkpt lat="43.96943" lon="4.8121">
        <ele>66.8</ele>
        <time>2012-06-06T07:14:07.000Z</time>
      </trkpt>
      <trkpt lat="43.96949" lon="4.81208">
        <ele>67.8</ele>
        <time>2012-06-06T07:14:08.000Z</time>
      </trkpt>
      <trkpt lat="43.96955" lon="4.81206">
        <ele>67.2</ele>
        <time>2012-06-06T07:14:09.000Z</time>
      </trkpt>
      <trkpt lat="43.9696" lon="4.81204">
        <ele>67</ele>
        <time>2012-06-06T07:14:10.000Z</time>
      </trkpt>
      <trkpt lat="43.96968" lon="4.81199">
        <ele>67.2</ele>
        <time>2012-06-06T07:14:12.000Z</time>
      </trkpt>
      <trkpt lat="43.96974" lon="4.81197">
        <ele>67.3</ele>
        <time>2012-06-06T07:14:13.000Z</time>
      </trkpt>
      <trkpt lat="43.96982" lon="4.81191">
        <ele>67.7</ele>
        <time>2012-06-06T07:14:15.000Z</time>
      </trkpt>
      <trkpt lat="43.96987" lon="4.8119">
        <ele>67.3</ele>
        <time>2012-06-06T07:14:16.000Z</time>
      </trkpt>
      <trkpt lat="43.96992" lon="4.81188">
        <ele>67.7</ele>
        <time>2012-06-06T07:14:17.000Z</time>
      </trkpt>
      <trkpt lat="43.96998" lon="4.81186">
        <ele>67.3</ele>
        <time>2012-06-06T07:14:18.000Z</time>
      </trkpt>
      <trkpt lat="43.97004" lon="4.81185">
        <ele>67.4</ele>
        <time>2012-06-06T07:14:19.000Z</time>
      </trkpt>
      <trkpt lat="43.97009" lon="4.81182">
        <ele>67</ele>
        <time>2012-06-06T07:14:20.000Z</time>
      </trkpt>
      <trkpt lat="43.97015" lon="4.81181">
        <ele>66.9</ele>
        <time>2012-06-06T07:14:21.000Z</time>
      </trkpt>
      <trkpt lat="43.97021" lon="4.81179">
        <ele>67</ele>
        <time>2012-06-06T07:14:22.000Z</time>
      </trkpt>
      <trkpt lat="43.97026" lon="4.81178">
        <ele>66.7</ele>
        <time>2012-06-06T07:14:23.000Z</time>
      </trkpt>
      <trkpt lat="43.97035" lon="4.81174">
        <ele>66.6</ele>
        <time>2012-06-06T07:14:25.000Z</time>
      </trkpt>
      <trkpt lat="43.97041" lon="4.81172">
        <ele>66.8</ele>
        <time>2012-06-06T07:14:26.000Z</time>
      </trkpt>
      <trkpt lat="43.97046" lon="4.81168">
        <ele>66.4</ele>
        <time>2012-06-06T07:14:27.000Z</time>
      </trkpt>
      <trkpt lat="43.9705" lon="4.81166">
        <ele>66.4</ele>
        <time>2012-06-06T07:14:28.000Z</time>
      </trkpt>
      <trkpt lat="43.97054" lon="4.81162">
        <ele>66.3</ele>
        <time>2012-06-06T07:14:29.000Z</time>
      </trkpt>
      <trkpt lat="43.9706" lon="4.81161">
        <ele>66.2</ele>
        <time>2012-06-06T07:14:30.000Z</time>
      </trkpt>
      <trkpt lat="43.97064" lon="4.81157">
        <ele>65.9</ele>
        <time>2012-06-06T07:14:31.000Z</time>
      </trkpt>
      <trkpt lat="43.97069" lon="4.81153">
        <ele>66.8</ele>
        <time>2012-06-06T07:14:32.000Z</time>
      </trkpt>
      <trkpt lat="43.97074" lon="4.8115">
        <ele>66.8</ele>
        <time>2012-06-06T07:14:33.000Z</time>
      </trkpt>
      <trkpt lat="43.97079" lon="4.81145">
        <ele>66.6</ele>
        <time>2012-06-06T07:14:34.000Z</time>
      </trkpt>
      <trkpt lat="43.97085" lon="4.81144">
        <ele>66.5</ele>
        <time>2012-06-06T07:14:35.000Z</time>
      </trkpt>
      <trkpt lat="43.9709" lon="4.81141">
        <ele>67.5</ele>
        <time>2012-06-06T07:14:36.000Z</time>
      </trkpt>
      <trkpt lat="43.97096" lon="4.81139">
        <ele>67.9</ele>
        <time>2012-06-06T07:14:37.000Z</time>
      </trkpt>
      <trkpt lat="43.97101" lon="4.81136">
        <ele>68.2</ele>
        <time>2012-06-06T07:14:38.000Z</time>
      </trkpt>
      <trkpt lat="43.97105" lon="4.81132">
        <ele>67.9</ele>
        <time>2012-06-06T07:14:39.000Z</time>
      </trkpt>
      <trkpt lat="43.97111" lon="4.81129">
        <ele>67.9</ele>
        <time>2012-06-06T07:14:40.000Z</time>
      </trkpt>
      <trkpt lat="43.97121" lon="4.81122">
        <ele>67.8</ele>
        <time>2012-06-06T07:14:42.000Z</time>
      </trkpt>
      <trkpt lat="43.97125" lon="4.81119">
        <ele>68</ele>
        <time>2012-06-06T07:14:43.000Z</time>
      </trkpt>
      <trkpt lat="43.9713" lon="4.81116">
        <ele>68</ele>
        <time>2012-06-06T07:14:44.000Z</time>
      </trkpt>
      <trkpt lat="43.97134" lon="4.81111">
        <ele>67.8</ele>
        <time>2012-06-06T07:14:45.000Z</time>
      </trkpt>
      <trkpt lat="43.97138" lon="4.81107">
        <ele>67.7</ele>
        <time>2012-06-06T07:14:46.000Z</time>
      </trkpt>
      <trkpt lat="43.97143" lon="4.81103">
        <ele>67.5</ele>
        <time>2012-06-06T07:14:47.000Z</time>
      </trkpt>
      <trkpt lat="43.97151" lon="4.81096">
        <ele>67.2</ele>
        <time>2012-06-06T07:14:49.000Z</time>
      </trkpt>
      <trkpt lat="43.97157" lon="4.81088">
        <ele>66.6</ele>
        <time>2012-06-06T07:14:51.000Z</time>
      </trkpt>
      <trkpt lat="43.97162" lon="4.81085">
        <ele>66.6</ele>
        <time>2012-06-06T07:14:52.000Z</time>
      </trkpt>
      <trkpt lat="43.97166" lon="4.8108">
        <ele>67.1</ele>
        <time>2012-06-06T07:14:53.000Z</time>
      </trkpt>
      <trkpt lat="43.97172" lon="4.81076">
        <ele>67.4</ele>
        <time>2012-06-06T07:14:54.000Z</time>
      </trkpt>
      <trkpt lat="43.97177" lon="4.81073">
        <ele>67.5</ele>
        <time>2012-06-06T07:14:55.000Z</time>
      </trkpt>
      <trkpt lat="43.97186" lon="4.81066">
        <ele>67.6</ele>
        <time>2012-06-06T07:14:57.000Z</time>
      </trkpt>
      <trkpt lat="43.97193" lon="4.81061">
        <ele>67.4</ele>
        <time>2012-06-06T07:14:58.000Z</time>
      </trkpt>
      <trkpt lat="43.97203" lon="4.81055">
        <ele>67.1</ele>
        <time>2012-06-06T07:15:00.000Z</time>
      </trkpt>
      <trkpt lat="43.97207" lon="4.8105">
        <ele>67.6</ele>
        <time>2012-06-06T07:15:01.000Z</time>
      </trkpt>
      <trkpt lat="43.97211" lon="4.81044">
        <ele>67.6</ele>
        <time>2012-06-06T07:15:02.000Z</time>
      </trkpt>
      <trkpt lat="43.97214" lon="4.8104">
        <ele>68</ele>
        <time>2012-06-06T07:15:03.000Z</time>
      </trkpt>
      <trkpt lat="43.97216" lon="4.81034">
        <ele>68</ele>
        <time>2012-06-06T07:15:04.000Z</time>
      </trkpt>
      <trkpt lat="43.97221" lon="4.81031">
        <ele>68.1</ele>
        <time>2012-06-06T07:15:05.000Z</time>
      </trkpt>
      <trkpt lat="43.97225" lon="4.81028">
        <ele>68.1</ele>
        <time>2012-06-06T07:15:06.000Z</time>
      </trkpt>
      <trkpt lat="43.9723" lon="4.81025">
        <ele>67.7</ele>
        <time>2012-06-06T07:15:07.000Z</time>
      </trkpt>
      <trkpt lat="43.97239" lon="4.81021">
        <ele>67.1</ele>
        <time>2012-06-06T07:15:09.000Z</time>
      </trkpt>
      <trkpt lat="43.97249" lon="4.81017">
        <ele>67.5</ele>
        <time>2012-06-06T07:15:11.000Z</time>
      </trkpt>
      <trkpt lat="43.97253" lon="4.81012">
        <ele>67.4</ele>
        <time>2012-06-06T07:15:12.000Z</time>
      </trkpt>
      <trkpt lat="43.97258" lon="4.81009">
        <ele>67.3</ele>
        <time>2012-06-06T07:15:13.000Z</time>
      </trkpt>
      <trkpt lat="43.97263" lon="4.81005">
        <ele>67</ele>
        <time>2012-06-06T07:15:14.000Z</time>
      </trkpt>
      <trkpt lat="43.97267" lon="4.81002">
        <ele>67.2</ele>
        <time>2012-06-06T07:15:15.000Z</time>
      </trkpt>
      <trkpt lat="43.97271" lon="4.80997">
        <ele>67</ele>
        <time>2012-06-06T07:15:16.000Z</time>
      </trkpt>
      <trkpt lat="43.97275" lon="4.80993">
        <ele>66.9</ele>
        <time>2012-06-06T07:15:17.000Z</time>
      </trkpt>
      <trkpt lat="43.97279" lon="4.80989">
        <ele>67.4</ele>
        <time>2012-06-06T07:15:18.000Z</time>
      </trkpt>
      <trkpt lat="43.97286" lon="4.80982">
        <ele>68.1</ele>
        <time>2012-06-06T07:15:20.000Z</time>
      </trkpt>
      <trkpt lat="43.97289" lon="4.80977">
        <ele>68</ele>
        <time>2012-06-06T07:15:21.000Z</time>
      </trkpt>
      <trkpt lat="43.97294" lon="4.80973">
        <ele>67.8</ele>
        <time>2012-06-06T07:15:22.000Z</time>
      </trkpt>
      <trkpt lat="43.97299" lon="4.80967">
        <ele>68.2</ele>
        <time>2012-06-06T07:15:24.000Z</time>
      </trkpt>
      <trkpt lat="43.97302" lon="4.80962">
        <ele>68.3</ele>
        <time>2012-06-06T07:15:25.000Z</time>
      </trkpt>
      <trkpt lat="43.97306" lon="4.80958">
        <ele>68.5</ele>
        <time>2012-06-06T07:15:26.000Z</time>
      </trkpt>
      <trkpt lat="43.97311" lon="4.80952">
        <ele>68.2</ele>
        <time>2012-06-06T07:15:27.000Z</time>
      </trkpt>
      <trkpt lat="43.97316" lon="4.80948">
        <ele>67.8</ele>
        <time>2012-06-06T07:15:28.000Z</time>
      </trkpt>
      <trkpt lat="43.97319" lon="4.80942">
        <ele>67.2</ele>
        <time>2012-06-06T07:15:29.000Z</time>
      </trkpt>
      <trkpt lat="43.97325" lon="4.80934">
        <ele>67.8</ele>
        <time>2012-06-06T07:15:31.000Z</time>
      </trkpt>
      <trkpt lat="43.97333" lon="4.8093">
        <ele>67.6</ele>
        <time>2012-06-06T07:15:33.000Z</time>
      </trkpt>
      <trkpt lat="43.9734" lon="4.80924">
        <ele>68.1</ele>
        <time>2012-06-06T07:15:35.000Z</time>
      </trkpt>
      <trkpt lat="43.97344" lon="4.80921">
        <ele>68.1</ele>
        <time>2012-06-06T07:15:36.000Z</time>
      </trkpt>
      <trkpt lat="43.97347" lon="4.80916">
        <ele>67.9</ele>
        <time>2012-06-06T07:15:37.000Z</time>
      </trkpt>
      <trkpt lat="43.97355" lon="4.80911">
        <ele>67.8</ele>
        <time>2012-06-06T07:15:39.000Z</time>
      </trkpt>
      <trkpt lat="43.97359" lon="4.80907">
        <ele>67.8</ele>
        <time>2012-06-06T07:15:40.000Z</time>
      </trkpt>
      <trkpt lat="43.97363" lon="4.80903">
        <ele>67.8</ele>
        <time>2012-06-06T07:15:41.000Z</time>
      </trkpt>
      <trkpt lat="43.97367" lon="4.809">
        <ele>68.1</ele>
        <time>2012-06-06T07:15:42.000Z</time>
      </trkpt>
      <trkpt lat="43.97374" lon="4.80894">
        <ele>67.8</ele>
        <time>2012-06-06T07:15:44.000Z</time>
      </trkpt>
      <trkpt lat="43.9738" lon="4.80886">
        <ele>68</ele>
        <time>2012-06-06T07:15:46.000Z</time>
      </trkpt>
      <trkpt lat="43.97385" lon="4.8088">
        <ele>67.7</ele>
        <time>2012-06-06T07:15:47.000Z</time>
      </trkpt>
      <trkpt lat="43.97393" lon="4.80876">
        <ele>67.4</ele>
        <time>2012-06-06T07:15:49.000Z</time>
      </trkpt>
      <trkpt lat="43.97397" lon="4.80871">
        <ele>67.3</ele>
        <time>2012-06-06T07:15:50.000Z</time>
      </trkpt>
      <trkpt lat="43.97401" lon="4.80867">
        <ele>67.4</ele>
        <time>2012-06-06T07:15:51.000Z</time>
      </trkpt>
      <trkpt lat="43.97407" lon="4.8086">
        <ele>67</ele>
        <time>2012-06-06T07:15:53.000Z</time>
      </trkpt>
      <trkpt lat="43.97412" lon="4.80857">
        <ele>66.9</ele>
        <time>2012-06-06T07:15:54.000Z</time>
      </trkpt>
      <trkpt lat="43.97421" lon="4.80852">
        <ele>67.1</ele>
        <time>2012-06-06T07:15:56.000Z</time>
      </trkpt>
      <trkpt lat="43.97426" lon="4.8085">
        <ele>67.3</ele>
        <time>2012-06-06T07:15:57.000Z</time>
      </trkpt>
      <trkpt lat="43.9743" lon="4.80847">
        <ele>67.3</ele>
        <time>2012-06-06T07:15:58.000Z</time>
      </trkpt>
      <trkpt lat="43.97435" lon="4.80845">
        <ele>67.2</ele>
        <time>2012-06-06T07:15:59.000Z</time>
      </trkpt>
      <trkpt lat="43.97444" lon="4.80838">
        <ele>67</ele>
        <time>2012-06-06T07:16:01.000Z</time>
      </trkpt>
      <trkpt lat="43.97448" lon="4.80837">
        <ele>67</ele>
        <time>2012-06-06T07:16:02.000Z</time>
      </trkpt>
      <trkpt lat="43.97457" lon="4.8083">
        <ele>66.9</ele>
        <time>2012-06-06T07:16:04.000Z</time>
      </trkpt>
      <trkpt lat="43.97462" lon="4.80827">
        <ele>67.1</ele>
        <time>2012-06-06T07:16:05.000Z</time>
      </trkpt>
      <trkpt lat="43.97468" lon="4.80822">
        <ele>66.4</ele>
        <time>2012-06-06T07:16:07.000Z</time>
      </trkpt>
      <trkpt lat="43.97473" lon="4.80819">
        <ele>66.5</ele>
        <time>2012-06-06T07:16:08.000Z</time>
      </trkpt>
      <trkpt lat="43.97479" lon="4.80812">
        <ele>66.5</ele>
        <time>2012-06-06T07:16:10.000Z</time>
      </trkpt>
      <trkpt lat="43.97483" lon="4.8081">
        <ele>66.6</ele>
        <time>2012-06-06T07:16:11.000Z</time>
      </trkpt>
      <trkpt lat="43.97488" lon="4.8081">
        <ele>66.4</ele>
        <time>2012-06-06T07:16:12.000Z</time>
      </trkpt>
      <trkpt lat="43.97494" lon="4.80804">
        <ele>66</ele>
        <time>2012-06-06T07:16:14.000Z</time>
      </trkpt>
      <trkpt lat="43.97502" lon="4.80797">
        <ele>66.4</ele>
        <time>2012-06-06T07:16:16.000Z</time>
      </trkpt>
      <trkpt lat="43.97506" lon="4.80793">
        <ele>66.6</ele>
        <time>2012-06-06T07:16:17.000Z</time>
      </trkpt>
      <trkpt lat="43.97511" lon="4.8079">
        <ele>66.1</ele>
        <time>2012-06-06T07:16:18.000Z</time>
      </trkpt>
      <trkpt lat="43.97516" lon="4.80783">
        <ele>67.4</ele>
        <time>2012-06-06T07:16:20.000Z</time>
      </trkpt>
      <trkpt lat="43.97522" lon="4.80777">
        <ele>67.8</ele>
        <time>2012-06-06T07:16:22.000Z</time>
      </trkpt>
      <trkpt lat="43.97527" lon="4.80775">
        <ele>67.7</ele>
        <time>2012-06-06T07:16:23.000Z</time>
      </trkpt>
      <trkpt lat="43.97533" lon="4.80774">
        <ele>68</ele>
        <time>2012-06-06T07:16:24.000Z</time>
      </trkpt>
      <trkpt lat="43.97539" lon="4.80774">
        <ele>68</ele>
        <time>2012-06-06T07:16:25.000Z</time>
      </trkpt>
      <trkpt lat="43.97547" lon="4.80769">
        <ele>67.6</ele>
        <time>2012-06-06T07:16:27.000Z</time>
      </trkpt>
      <trkpt lat="43.97554" lon="4.80766">
        <ele>67.6</ele>
        <time>2012-06-06T07:16:29.000Z</time>
      </trkpt>
      <trkpt lat="43.97558" lon="4.80764">
        <ele>67.9</ele>
        <time>2012-06-06T07:16:30.000Z</time>
      </trkpt>
      <trkpt lat="43.97566" lon="4.80761">
        <ele>67.5</ele>
        <time>2012-06-06T07:16:32.000Z</time>
      </trkpt>
      <trkpt lat="43.97571" lon="4.80759">
        <ele>67.2</ele>
        <time>2012-06-06T07:16:33.000Z</time>
      </trkpt>
      <trkpt lat="43.97578" lon="4.80753">
        <ele>68</ele>
        <time>2012-06-06T07:16:35.000Z</time>
      </trkpt>
      <trkpt lat="43.97583" lon="4.8075">
        <ele>67.8</ele>
        <time>2012-06-06T07:16:36.000Z</time>
      </trkpt>
      <trkpt lat="43.97587" lon="4.80748">
        <ele>67.9</ele>
        <time>2012-06-06T07:16:37.000Z</time>
      </trkpt>
      <trkpt lat="43.97592" lon="4.80746">
        <ele>68</ele>
        <time>2012-06-06T07:16:38.000Z</time>
      </trkpt>
      <trkpt lat="43.97599" lon="4.80742">
        <ele>67.3</ele>
        <time>2012-06-06T07:16:40.000Z</time>
      </trkpt>
      <trkpt lat="43.97607" lon="4.80737">
        <ele>67.7</ele>
        <time>2012-06-06T07:16:42.000Z</time>
      </trkpt>
      <trkpt lat="43.97612" lon="4.80735">
        <ele>68.1</ele>
        <time>2012-06-06T07:16:43.000Z</time>
      </trkpt>
      <trkpt lat="43.97619" lon="4.8073">
        <ele>67.7</ele>
        <time>2012-06-06T07:16:45.000Z</time>
      </trkpt>
      <trkpt lat="43.97623" lon="4.80726">
        <ele>67.6</ele>
        <time>2012-06-06T07:16:46.000Z</time>
      </trkpt>
      <trkpt lat="43.97632" lon="4.8072">
        <ele>66.7</ele>
        <time>2012-06-06T07:16:48.000Z</time>
      </trkpt>
      <trkpt lat="43.9764" lon="4.80717">
        <ele>66.2</ele>
        <time>2012-06-06T07:16:50.000Z</time>
      </trkpt>
      <trkpt lat="43.97645" lon="4.80714">
        <ele>66.5</ele>
        <time>2012-06-06T07:16:51.000Z</time>
      </trkpt>
      <trkpt lat="43.97652" lon="4.80708">
        <ele>66</ele>
        <time>2012-06-06T07:16:53.000Z</time>
      </trkpt>
      <trkpt lat="43.97657" lon="4.80706">
        <ele>66.1</ele>
        <time>2012-06-06T07:16:54.000Z</time>
      </trkpt>
      <trkpt lat="43.97665" lon="4.80701">
        <ele>65.1</ele>
        <time>2012-06-06T07:16:56.000Z</time>
      </trkpt>
      <trkpt lat="43.97669" lon="4.80698">
        <ele>64.9</ele>
        <time>2012-06-06T07:16:57.000Z</time>
      </trkpt>
      <trkpt lat="43.97677" lon="4.80694">
        <ele>65.1</ele>
        <time>2012-06-06T07:16:59.000Z</time>
      </trkpt>
      <trkpt lat="43.97682" lon="4.80691">
        <ele>65.8</ele>
        <time>2012-06-06T07:17:00.000Z</time>
      </trkpt>
      <trkpt lat="43.97687" lon="4.80689">
        <ele>66.3</ele>
        <time>2012-06-06T07:17:01.000Z</time>
      </trkpt>
      <trkpt lat="43.97693" lon="4.80685">
        <ele>66.2</ele>
        <time>2012-06-06T07:17:02.000Z</time>
      </trkpt>
      <trkpt lat="43.97702" lon="4.8068">
        <ele>65.9</ele>
        <time>2012-06-06T07:17:04.000Z</time>
      </trkpt>
      <trkpt lat="43.97708" lon="4.80679">
        <ele>66.3</ele>
        <time>2012-06-06T07:17:05.000Z</time>
      </trkpt>
      <trkpt lat="43.97716" lon="4.80672">
        <ele>65.8</ele>
        <time>2012-06-06T07:17:07.000Z</time>
      </trkpt>
      <trkpt lat="43.97724" lon="4.80669">
        <ele>66</ele>
        <time>2012-06-06T07:17:09.000Z</time>
      </trkpt>
      <trkpt lat="43.97729" lon="4.80667">
        <ele>65.6</ele>
        <time>2012-06-06T07:17:10.000Z</time>
      </trkpt>
      <trkpt lat="43.97732" lon="4.80662">
        <ele>65.1</ele>
        <time>2012-06-06T07:17:11.000Z</time>
      </trkpt>
      <trkpt lat="43.97738" lon="4.80659">
        <ele>65.1</ele>
        <time>2012-06-06T07:17:12.000Z</time>
      </trkpt>
      <trkpt lat="43.97746" lon="4.80654">
        <ele>65</ele>
        <time>2012-06-06T07:17:14.000Z</time>
      </trkpt>
      <trkpt lat="43.97754" lon="4.8065">
        <ele>65.2</ele>
        <time>2012-06-06T07:17:16.000Z</time>
      </trkpt>
      <trkpt lat="43.97758" lon="4.80647">
        <ele>64.7</ele>
        <time>2012-06-06T07:17:17.000Z</time>
      </trkpt>
      <trkpt lat="43.97762" lon="4.80643">
        <ele>63.7</ele>
        <time>2012-06-06T07:17:18.000Z</time>
      </trkpt>
      <trkpt lat="43.97767" lon="4.8064">
        <ele>63.7</ele>
        <time>2012-06-06T07:17:19.000Z</time>
      </trkpt>
      <trkpt lat="43.97772" lon="4.80638">
        <ele>64</ele>
        <time>2012-06-06T07:17:20.000Z</time>
      </trkpt>
      <trkpt lat="43.97777" lon="4.80636">
        <ele>64.2</ele>
        <time>2012-06-06T07:17:21.000Z</time>
      </trkpt>
      <trkpt lat="43.97781" lon="4.80633">
        <ele>64.2</ele>
        <time>2012-06-06T07:17:22.000Z</time>
      </trkpt>
      <trkpt lat="43.9779" lon="4.80632">
        <ele>64.3</ele>
        <time>2012-06-06T07:17:24.000Z</time>
      </trkpt>
      <trkpt lat="43.97795" lon="4.80632">
        <ele>64.7</ele>
        <time>2012-06-06T07:17:25.000Z</time>
      </trkpt>
      <trkpt lat="43.97801" lon="4.80629">
        <ele>64.9</ele>
        <time>2012-06-06T07:17:26.000Z</time>
      </trkpt>
      <trkpt lat="43.97805" lon="4.80625">
        <ele>64.7</ele>
        <time>2012-06-06T07:17:27.000Z</time>
      </trkpt>
      <trkpt lat="43.9781" lon="4.80625">
        <ele>64.5</ele>
        <time>2012-06-06T07:17:28.000Z</time>
      </trkpt>
      <trkpt lat="43.97815" lon="4.80622">
        <ele>64</ele>
        <time>2012-06-06T07:17:29.000Z</time>
      </trkpt>
      <trkpt lat="43.97819" lon="4.80622">
        <ele>63.6</ele>
        <time>2012-06-06T07:17:30.000Z</time>
      </trkpt>
      <trkpt lat="43.97827" lon="4.80617">
        <ele>63.3</ele>
        <time>2012-06-06T07:17:32.000Z</time>
      </trkpt>
      <trkpt lat="43.97832" lon="4.80612">
        <ele>64.1</ele>
        <time>2012-06-06T07:17:33.000Z</time>
      </trkpt>
      <trkpt lat="43.9784" lon="4.80609">
        <ele>63.6</ele>
        <time>2012-06-06T07:17:35.000Z</time>
      </trkpt>
      <trkpt lat="43.97846" lon="4.80609">
        <ele>63.4</ele>
        <time>2012-06-06T07:17:36.000Z</time>
      </trkpt>
      <trkpt lat="43.97854" lon="4.80607">
        <ele>64</ele>
        <time>2012-06-06T07:17:38.000Z</time>
      </trkpt>
      <trkpt lat="43.97858" lon="4.80604">
        <ele>64</ele>
        <time>2012-06-06T07:17:39.000Z</time>
      </trkpt>
      <trkpt lat="43.97867" lon="4.806">
        <ele>63.3</ele>
        <time>2012-06-06T07:17:41.000Z</time>
      </trkpt>
      <trkpt lat="43.97876" lon="4.806">
        <ele>63.2</ele>
        <time>2012-06-06T07:17:43.000Z</time>
      </trkpt>
      <trkpt lat="43.97883" lon="4.80599">
        <ele>63.5</ele>
        <time>2012-06-06T07:17:44.000Z</time>
      </trkpt>
      <trkpt lat="43.97889" lon="4.80598">
        <ele>64.1</ele>
        <time>2012-06-06T07:17:45.000Z</time>
      </trkpt>
      <trkpt lat="43.97898" lon="4.80594">
        <ele>63.6</ele>
        <time>2012-06-06T07:17:47.000Z</time>
      </trkpt>
      <trkpt lat="43.97904" lon="4.80592">
        <ele>64.1</ele>
        <time>2012-06-06T07:17:48.000Z</time>
      </trkpt>
      <trkpt lat="43.97908" lon="4.80591">
        <ele>63.7</ele>
        <time>2012-06-06T07:17:49.000Z</time>
      </trkpt>
      <trkpt lat="43.97915" lon="4.80591">
        <ele>63.6</ele>
        <time>2012-06-06T07:17:50.000Z</time>
      </trkpt>
      <trkpt lat="43.97921" lon="4.80588">
        <ele>63.7</ele>
        <time>2012-06-06T07:17:51.000Z</time>
      </trkpt>
      <trkpt lat="43.9793" lon="4.80584">
        <ele>63</ele>
        <time>2012-06-06T07:17:53.000Z</time>
      </trkpt>
      <trkpt lat="43.97935" lon="4.80582">
        <ele>63.2</ele>
        <time>2012-06-06T07:17:54.000Z</time>
      </trkpt>
      <trkpt lat="43.97942" lon="4.80579">
        <ele>63.6</ele>
        <time>2012-06-06T07:17:56.000Z</time>
      </trkpt>
      <trkpt lat="43.97949" lon="4.80575">
        <ele>63.9</ele>
        <time>2012-06-06T07:17:57.000Z</time>
      </trkpt>
      <trkpt lat="43.97959" lon="4.80572">
        <ele>64.1</ele>
        <time>2012-06-06T07:17:59.000Z</time>
      </trkpt>
      <trkpt lat="43.97964" lon="4.80569">
        <ele>65.5</ele>
        <time>2012-06-06T07:18:00.000Z</time>
      </trkpt>
      <trkpt lat="43.97969" lon="4.80568">
        <ele>65</ele>
        <time>2012-06-06T07:18:01.000Z</time>
      </trkpt>
      <trkpt lat="43.97976" lon="4.80566">
        <ele>64.2</ele>
        <time>2012-06-06T07:18:03.000Z</time>
      </trkpt>
      <trkpt lat="43.97985" lon="4.80562">
        <ele>63.6</ele>
        <time>2012-06-06T07:18:05.000Z</time>
      </trkpt>
      <trkpt lat="43.97994" lon="4.8056">
        <ele>63.3</ele>
        <time>2012-06-06T07:18:07.000Z</time>
      </trkpt>
      <trkpt lat="43.98001" lon="4.80558">
        <ele>64</ele>
        <time>2012-06-06T07:18:09.000Z</time>
      </trkpt>
      <trkpt lat="43.9801" lon="4.80555">
        <ele>62.9</ele>
        <time>2012-06-06T07:18:11.000Z</time>
      </trkpt>
      <trkpt lat="43.98015" lon="4.80554">
        <ele>62.9</ele>
        <time>2012-06-06T07:18:12.000Z</time>
      </trkpt>
      <trkpt lat="43.9802" lon="4.80551">
        <ele>62.5</ele>
        <time>2012-06-06T07:18:13.000Z</time>
      </trkpt>
      <trkpt lat="43.98025" lon="4.8055">
        <ele>62.6</ele>
        <time>2012-06-06T07:18:14.000Z</time>
      </trkpt>
      <trkpt lat="43.98031" lon="4.8055">
        <ele>62.8</ele>
        <time>2012-06-06T07:18:15.000Z</time>
      </trkpt>
      <trkpt lat="43.98037" lon="4.8055">
        <ele>62.8</ele>
        <time>2012-06-06T07:18:16.000Z</time>
      </trkpt>
      <trkpt lat="43.98042" lon="4.8055">
        <ele>63.3</ele>
        <time>2012-06-06T07:18:17.000Z</time>
      </trkpt>
      <trkpt lat="43.98047" lon="4.8055">
        <ele>63.9</ele>
        <time>2012-06-06T07:18:18.000Z</time>
      </trkpt>
      <trkpt lat="43.98057" lon="4.80548">
        <ele>64.2</ele>
        <time>2012-06-06T07:18:20.000Z</time>
      </trkpt>
      <trkpt lat="43.98063" lon="4.80544">
        <ele>63.9</ele>
        <time>2012-06-06T07:18:22.000Z</time>
      </trkpt>
      <trkpt lat="43.98068" lon="4.80544">
        <ele>64.1</ele>
        <time>2012-06-06T07:18:23.000Z</time>
      </trkpt>
      <trkpt lat="43.98072" lon="4.8054">
        <ele>64.2</ele>
        <time>2012-06-06T07:18:24.000Z</time>
      </trkpt>
      <trkpt lat="43.98076" lon="4.80538">
        <ele>64.1</ele>
        <time>2012-06-06T07:18:25.000Z</time>
      </trkpt>
      <trkpt lat="43.98082" lon="4.80532">
        <ele>63.1</ele>
        <time>2012-06-06T07:18:27.000Z</time>
      </trkpt>
      <trkpt lat="43.98086" lon="4.8053">
        <ele>63.2</ele>
        <time>2012-06-06T07:18:29.000Z</time>
      </trkpt>
      <trkpt lat="43.98092" lon="4.80534">
        <ele>62.2</ele>
        <time>2012-06-06T07:18:32.000Z</time>
      </trkpt>
      <trkpt lat="43.98093" lon="4.8054">
        <ele>65.5</ele>
        <time>2012-06-06T07:18:35.000Z</time>
      </trkpt>
      <trkpt lat="43.98089" lon="4.80545">
        <ele>64.4</ele>
        <time>2012-06-06T07:18:39.000Z</time>
      </trkpt>
      <trkpt lat="43.98083" lon="4.80547">
        <ele>63.3</ele>
        <time>2012-06-06T07:18:41.000Z</time>
      </trkpt>
      <trkpt lat="43.98077" lon="4.80552">
        <ele>63.3</ele>
        <time>2012-06-06T07:18:43.000Z</time>
      </trkpt>
      <trkpt lat="43.98071" lon="4.80556">
        <ele>63.7</ele>
        <time>2012-06-06T07:18:45.000Z</time>
      </trkpt>
      <trkpt lat="43.9807" lon="4.80564">
        <ele>63.3</ele>
        <time>2012-06-06T07:18:49.000Z</time>
      </trkpt>
      <trkpt lat="43.98074" lon="4.8057">
        <ele>63.9</ele>
        <time>2012-06-06T07:18:52.000Z</time>
      </trkpt>
      <trkpt lat="43.9808" lon="4.8057">
        <ele>65</ele>
        <time>2012-06-06T07:18:55.000Z</time>
      </trkpt>
      <trkpt lat="43.98085" lon="4.8057">
        <ele>64.4</ele>
        <time>2012-06-06T07:18:57.000Z</time>
      </trkpt>
      <trkpt lat="43.98091" lon="4.80567">
        <ele>65.7</ele>
        <time>2012-06-06T07:18:59.000Z</time>
      </trkpt>
      <trkpt lat="43.98096" lon="4.80569">
        <ele>66.4</ele>
        <time>2012-06-06T07:19:01.000Z</time>
      </trkpt>
      <trkpt lat="43.98102" lon="4.80568">
        <ele>67.3</ele>
        <time>2012-06-06T07:19:03.000Z</time>
      </trkpt>
      <trkpt lat="43.98107" lon="4.80568">
        <ele>67.3</ele>
        <time>2012-06-06T07:19:05.000Z</time>
      </trkpt>
      <trkpt lat="43.98114" lon="4.80568">
        <ele>67.9</ele>
        <time>2012-06-06T07:19:07.000Z</time>
      </trkpt>
      <trkpt lat="43.98122" lon="4.80567">
        <ele>67.2</ele>
        <time>2012-06-06T07:19:09.000Z</time>
      </trkpt>
      <trkpt lat="43.9813" lon="4.80567">
        <ele>68.2</ele>
        <time>2012-06-06T07:19:11.000Z</time>
      </trkpt>
      <trkpt lat="43.98136" lon="4.80565">
        <ele>68.6</ele>
        <time>2012-06-06T07:19:13.000Z</time>
      </trkpt>
      <trkpt lat="43.98142" lon="4.80563">
        <ele>69</ele>
        <time>2012-06-06T07:19:15.000Z</time>
      </trkpt>
      <trkpt lat="43.98148" lon="4.80561">
        <ele>67.9</ele>
        <time>2012-06-06T07:19:17.000Z</time>
      </trkpt>
      <trkpt lat="43.98153" lon="4.80557">
        <ele>66.8</ele>
        <time>2012-06-06T07:19:19.000Z</time>
      </trkpt>
      <trkpt lat="43.9816" lon="4.80552">
        <ele>66.1</ele>
        <time>2012-06-06T07:19:21.000Z</time>
      </trkpt>
      <trkpt lat="43.98164" lon="4.8055">
        <ele>66.2</ele>
        <time>2012-06-06T07:19:22.000Z</time>
      </trkpt>
      <trkpt lat="43.98171" lon="4.80546">
        <ele>66.5</ele>
        <time>2012-06-06T07:19:24.000Z</time>
      </trkpt>
      <trkpt lat="43.98177" lon="4.80544">
        <ele>66.2</ele>
        <time>2012-06-06T07:19:26.000Z</time>
      </trkpt>
      <trkpt lat="43.98182" lon="4.80541">
        <ele>65.8</ele>
        <time>2012-06-06T07:19:29.000Z</time>
      </trkpt>
      <trkpt lat="43.98177" lon="4.8054">
        <ele>66.4</ele>
        <time>2012-06-06T07:19:30.000Z</time>
      </trkpt>
      <trkpt lat="43.98179" lon="4.80545">
        <ele>70.6</ele>
        <time>2012-06-06T07:19:39.000Z</time>
      </trkpt>
      <trkpt lat="43.9818" lon="4.80539">
        <ele>67</ele>
        <time>2012-06-06T07:21:38.000Z</time>
      </trkpt>
      <trkpt lat="43.98176" lon="4.80539">
        <ele>50</ele>
        <time>2012-06-06T07:22:23.000Z</time>
      </trkpt>
      <trkpt lat="43.9818" lon="4.80542">
        <ele>49.3</ele>
        <time>2012-06-06T07:22:27.000Z</time>
      </trkpt>
      <trkpt lat="43.98185" lon="4.80544">
        <ele>64.1</ele>
        <time>2012-06-06T07:23:49.000Z</time>
      </trkpt>
      <trkpt lat="43.98181" lon="4.80541">
        <ele>62.2</ele>
        <time>2012-06-06T07:23:52.000Z</time>
      </trkpt>
      <trkpt lat="43.98184" lon="4.80536">
        <ele>59.7</ele>
        <time>2012-06-06T07:24:40.000Z</time>
      </trkpt>
      <trkpt lat="43.98189" lon="4.80529">
        <ele>58.5</ele>
        <time>2012-06-06T07:24:43.000Z</time>
      </trkpt>
      <trkpt lat="43.98194" lon="4.80526">
        <ele>58.8</ele>
        <time>2012-06-06T07:24:46.000Z</time>
      </trkpt>
      <trkpt lat="43.98202" lon="4.80521">
        <ele>58.9</ele>
        <time>2012-06-06T07:24:49.000Z</time>
      </trkpt>
      <trkpt lat="43.98208" lon="4.80522">
        <ele>60.1</ele>
        <time>2012-06-06T07:24:52.000Z</time>
      </trkpt>
      <trkpt lat="43.98213" lon="4.80524">
        <ele>61.8</ele>
        <time>2012-06-06T07:24:56.000Z</time>
      </trkpt>
      <trkpt lat="43.98218" lon="4.8053">
        <ele>63</ele>
        <time>2012-06-06T07:25:00.000Z</time>
      </trkpt>
      <trkpt lat="43.98224" lon="4.80534">
        <ele>63.6</ele>
        <time>2012-06-06T07:25:02.000Z</time>
      </trkpt>
      <trkpt lat="43.98229" lon="4.8054">
        <ele>63.5</ele>
        <time>2012-06-06T07:25:04.000Z</time>
      </trkpt>
      <trkpt lat="43.98232" lon="4.80544">
        <ele>64.1</ele>
        <time>2012-06-06T07:25:05.000Z</time>
      </trkpt>
      <trkpt lat="43.9824" lon="4.8055">
        <ele>64.2</ele>
        <time>2012-06-06T07:25:07.000Z</time>
      </trkpt>
      <trkpt lat="43.98246" lon="4.80553">
        <ele>64.9</ele>
        <time>2012-06-06T07:25:08.000Z</time>
      </trkpt>
      <trkpt lat="43.98252" lon="4.8056">
        <ele>65.6</ele>
        <time>2012-06-06T07:25:10.000Z</time>
      </trkpt>
      <trkpt lat="43.9826" lon="4.80561">
        <ele>65.5</ele>
        <time>2012-06-06T07:25:12.000Z</time>
      </trkpt>
      <trkpt lat="43.98267" lon="4.80562">
        <ele>65.3</ele>
        <time>2012-06-06T07:25:14.000Z</time>
      </trkpt>
      <trkpt lat="43.98272" lon="4.80566">
        <ele>65</ele>
        <time>2012-06-06T07:25:16.000Z</time>
      </trkpt>
      <trkpt lat="43.98279" lon="4.80569">
        <ele>64.3</ele>
        <time>2012-06-06T07:25:18.000Z</time>
      </trkpt>
      <trkpt lat="43.98287" lon="4.80572">
        <ele>64.4</ele>
        <time>2012-06-06T07:25:20.000Z</time>
      </trkpt>
      <trkpt lat="43.98293" lon="4.80574">
        <ele>64.5</ele>
        <time>2012-06-06T07:25:21.000Z</time>
      </trkpt>
      <trkpt lat="43.983" lon="4.80576">
        <ele>65.5</ele>
        <time>2012-06-06T07:25:23.000Z</time>
      </trkpt>
      <trkpt lat="43.98304" lon="4.80578">
        <ele>65.8</ele>
        <time>2012-06-06T07:25:24.000Z</time>
      </trkpt>
      <trkpt lat="43.98311" lon="4.80581">
        <ele>65.4</ele>
        <time>2012-06-06T07:25:26.000Z</time>
      </trkpt>
      <trkpt lat="43.98317" lon="4.80584">
        <ele>65.2</ele>
        <time>2012-06-06T07:25:28.000Z</time>
      </trkpt>
      <trkpt lat="43.98321" lon="4.80587">
        <ele>65.6</ele>
        <time>2012-06-06T07:25:30.000Z</time>
      </trkpt>
      <trkpt lat="43.98329" lon="4.80591">
        <ele>64</ele>
        <time>2012-06-06T07:25:33.000Z</time>
      </trkpt>
      <trkpt lat="43.98338" lon="4.80592">
        <ele>63</ele>
        <time>2012-06-06T07:25:35.000Z</time>
      </trkpt>
      <trkpt lat="43.98343" lon="4.80593">
        <ele>63.1</ele>
        <time>2012-06-06T07:25:36.000Z</time>
      </trkpt>
      <trkpt lat="43.98348" lon="4.80596">
        <ele>63.1</ele>
        <time>2012-06-06T07:25:37.000Z</time>
      </trkpt>
      <trkpt lat="43.98352" lon="4.80598">
        <ele>63</ele>
        <time>2012-06-06T07:25:38.000Z</time>
      </trkpt>
      <trkpt lat="43.98358" lon="4.80599">
        <ele>62.5</ele>
        <time>2012-06-06T07:25:39.000Z</time>
      </trkpt>
      <trkpt lat="43.98365" lon="4.80603">
        <ele>61.2</ele>
        <time>2012-06-06T07:25:41.000Z</time>
      </trkpt>
      <trkpt lat="43.98372" lon="4.80605">
        <ele>60.1</ele>
        <time>2012-06-06T07:25:43.000Z</time>
      </trkpt>
      <trkpt lat="43.98379" lon="4.80608">
        <ele>60</ele>
        <time>2012-06-06T07:25:45.000Z</time>
      </trkpt>
      <trkpt lat="43.98385" lon="4.80608">
        <ele>59.2</ele>
        <time>2012-06-06T07:25:46.000Z</time>
      </trkpt>
      <trkpt lat="43.98391" lon="4.8061">
        <ele>59.5</ele>
        <time>2012-06-06T07:25:48.000Z</time>
      </trkpt>
      <trkpt lat="43.98397" lon="4.80612">
        <ele>59.2</ele>
        <time>2012-06-06T07:25:50.000Z</time>
      </trkpt>
      <trkpt lat="43.98402" lon="4.80611">
        <ele>59.9</ele>
        <time>2012-06-06T07:25:51.000Z</time>
      </trkpt>
      <trkpt lat="43.98407" lon="4.80611">
        <ele>59.9</ele>
        <time>2012-06-06T07:25:52.000Z</time>
      </trkpt>
      <trkpt lat="43.98412" lon="4.80612">
        <ele>59.9</ele>
        <time>2012-06-06T07:25:53.000Z</time>
      </trkpt>
      <trkpt lat="43.98417" lon="4.80612">
        <ele>60.6</ele>
        <time>2012-06-06T07:25:54.000Z</time>
      </trkpt>
      <trkpt lat="43.98424" lon="4.80614">
        <ele>61.1</ele>
        <time>2012-06-06T07:25:56.000Z</time>
      </trkpt>
      <trkpt lat="43.9843" lon="4.80615">
        <ele>61.4</ele>
        <time>2012-06-06T07:25:57.000Z</time>
      </trkpt>
      <trkpt lat="43.98434" lon="4.80616">
        <ele>61.7</ele>
        <time>2012-06-06T07:25:58.000Z</time>
      </trkpt>
      <trkpt lat="43.98442" lon="4.80616">
        <ele>62.1</ele>
        <time>2012-06-06T07:26:00.000Z</time>
      </trkpt>
      <trkpt lat="43.98448" lon="4.80618">
        <ele>62.2</ele>
        <time>2012-06-06T07:26:02.000Z</time>
      </trkpt>
      <trkpt lat="43.98453" lon="4.80619">
        <ele>61.5</ele>
        <time>2012-06-06T07:26:04.000Z</time>
      </trkpt>
      <trkpt lat="43.9846" lon="4.80621">
        <ele>60.3</ele>
        <time>2012-06-06T07:26:06.000Z</time>
      </trkpt>
      <trkpt lat="43.98466" lon="4.80624">
        <ele>60</ele>
        <time>2012-06-06T07:26:08.000Z</time>
      </trkpt>
      <trkpt lat="43.98475" lon="4.80625">
        <ele>59.8</ele>
        <time>2012-06-06T07:26:10.000Z</time>
      </trkpt>
      <trkpt lat="43.9848" lon="4.80626">
        <ele>60.1</ele>
        <time>2012-06-06T07:26:11.000Z</time>
      </trkpt>
      <trkpt lat="43.98487" lon="4.80628">
        <ele>58.9</ele>
        <time>2012-06-06T07:26:13.000Z</time>
      </trkpt>
      <trkpt lat="43.98493" lon="4.8063">
        <ele>57.9</ele>
        <time>2012-06-06T07:26:14.000Z</time>
      </trkpt>
      <trkpt lat="43.985" lon="4.8063">
        <ele>57.6</ele>
        <time>2012-06-06T07:26:16.000Z</time>
      </trkpt>
      <trkpt lat="43.98508" lon="4.80631">
        <ele>57</ele>
        <time>2012-06-06T07:26:17.000Z</time>
      </trkpt>
      <trkpt lat="43.98514" lon="4.80632">
        <ele>55.3</ele>
        <time>2012-06-06T07:26:18.000Z</time>
      </trkpt>
      <trkpt lat="43.9852" lon="4.80632">
        <ele>54.4</ele>
        <time>2012-06-06T07:26:19.000Z</time>
      </trkpt>
      <trkpt lat="43.98526" lon="4.80633">
        <ele>55.3</ele>
        <time>2012-06-06T07:26:21.000Z</time>
      </trkpt>
      <trkpt lat="43.9853" lon="4.80636">
        <ele>57</ele>
        <time>2012-06-06T07:26:22.000Z</time>
      </trkpt>
      <trkpt lat="43.98536" lon="4.80636">
        <ele>57.7</ele>
        <time>2012-06-06T07:26:23.000Z</time>
      </trkpt>
      <trkpt lat="43.9854" lon="4.80636">
        <ele>56.6</ele>
        <time>2012-06-06T07:26:24.000Z</time>
      </trkpt>
      <trkpt lat="43.9855" lon="4.80637">
        <ele>57.2</ele>
        <time>2012-06-06T07:26:26.000Z</time>
      </trkpt>
      <trkpt lat="43.98556" lon="4.80637">
        <ele>58.3</ele>
        <time>2012-06-06T07:26:27.000Z</time>
      </trkpt>
      <trkpt lat="43.98564" lon="4.80638">
        <ele>58</ele>
        <time>2012-06-06T07:26:29.000Z</time>
      </trkpt>
      <trkpt lat="43.98572" lon="4.80638">
        <ele>57.6</ele>
        <time>2012-06-06T07:26:31.000Z</time>
      </trkpt>
      <trkpt lat="43.98578" lon="4.80638">
        <ele>57.3</ele>
        <time>2012-06-06T07:26:32.000Z</time>
      </trkpt>
      <trkpt lat="43.98585" lon="4.80637">
        <ele>57.6</ele>
        <time>2012-06-06T07:26:33.000Z</time>
      </trkpt>
      <trkpt lat="43.9859" lon="4.80638">
        <ele>57.7</ele>
        <time>2012-06-06T07:26:34.000Z</time>
      </trkpt>
      <trkpt lat="43.98595" lon="4.8064">
        <ele>57.8</ele>
        <time>2012-06-06T07:26:35.000Z</time>
      </trkpt>
      <trkpt lat="43.98601" lon="4.8064">
        <ele>57.9</ele>
        <time>2012-06-06T07:26:36.000Z</time>
      </trkpt>
      <trkpt lat="43.98611" lon="4.80642">
        <ele>58</ele>
        <time>2012-06-06T07:26:38.000Z</time>
      </trkpt>
      <trkpt lat="43.98616" lon="4.80641">
        <ele>56.9</ele>
        <time>2012-06-06T07:26:39.000Z</time>
      </trkpt>
      <trkpt lat="43.9862" lon="4.80644">
        <ele>57.6</ele>
        <time>2012-06-06T07:26:40.000Z</time>
      </trkpt>
      <trkpt lat="43.9863" lon="4.80645">
        <ele>57.7</ele>
        <time>2012-06-06T07:26:42.000Z</time>
      </trkpt>
      <trkpt lat="43.98635" lon="4.80647">
        <ele>57.1</ele>
        <time>2012-06-06T07:26:43.000Z</time>
      </trkpt>
      <trkpt lat="43.98642" lon="4.8065">
        <ele>56.6</ele>
        <time>2012-06-06T07:26:44.000Z</time>
      </trkpt>
      <trkpt lat="43.98648" lon="4.8065">
        <ele>56.7</ele>
        <time>2012-06-06T07:26:45.000Z</time>
      </trkpt>
      <trkpt lat="43.98654" lon="4.80651">
        <ele>56.6</ele>
        <time>2012-06-06T07:26:46.000Z</time>
      </trkpt>
      <trkpt lat="43.98659" lon="4.80653">
        <ele>56.6</ele>
        <time>2012-06-06T07:26:47.000Z</time>
      </trkpt>
      <trkpt lat="43.98664" lon="4.80654">
        <ele>56.2</ele>
        <time>2012-06-06T07:26:48.000Z</time>
      </trkpt>
      <trkpt lat="43.9867" lon="4.80654">
        <ele>56.6</ele>
        <time>2012-06-06T07:26:49.000Z</time>
      </trkpt>
      <trkpt lat="43.98674" lon="4.80656">
        <ele>55.9</ele>
        <time>2012-06-06T07:26:50.000Z</time>
      </trkpt>
      <trkpt lat="43.98683" lon="4.80659">
        <ele>57</ele>
        <time>2012-06-06T07:26:52.000Z</time>
      </trkpt>
      <trkpt lat="43.98688" lon="4.80664">
        <ele>57.5</ele>
        <time>2012-06-06T07:26:54.000Z</time>
      </trkpt>
      <trkpt lat="43.98695" lon="4.80669">
        <ele>57.1</ele>
        <time>2012-06-06T07:26:56.000Z</time>
      </trkpt>
      <trkpt lat="43.98702" lon="4.80672">
        <ele>57.3</ele>
        <time>2012-06-06T07:26:57.000Z</time>
      </trkpt>
      <trkpt lat="43.98707" lon="4.80675">
        <ele>57.8</ele>
        <time>2012-06-06T07:26:58.000Z</time>
      </trkpt>
      <trkpt lat="43.98713" lon="4.80678">
        <ele>58.2</ele>
        <time>2012-06-06T07:26:59.000Z</time>
      </trkpt>
      <trkpt lat="43.98719" lon="4.8068">
        <ele>59</ele>
        <time>2012-06-06T07:27:00.000Z</time>
      </trkpt>
      <trkpt lat="43.98725" lon="4.80682">
        <ele>59.9</ele>
        <time>2012-06-06T07:27:01.000Z</time>
      </trkpt>
      <trkpt lat="43.98731" lon="4.80684">
        <ele>60</ele>
        <time>2012-06-06T07:27:02.000Z</time>
      </trkpt>
      <trkpt lat="43.98736" lon="4.80685">
        <ele>59.6</ele>
        <time>2012-06-06T07:27:03.000Z</time>
      </trkpt>
      <trkpt lat="43.98743" lon="4.80691">
        <ele>60.2</ele>
        <time>2012-06-06T07:27:05.000Z</time>
      </trkpt>
      <trkpt lat="43.98747" lon="4.80693">
        <ele>60.8</ele>
        <time>2012-06-06T07:27:06.000Z</time>
      </trkpt>
      <trkpt lat="43.98752" lon="4.80696">
        <ele>61.1</ele>
        <time>2012-06-06T07:27:07.000Z</time>
      </trkpt>
      <trkpt lat="43.98761" lon="4.80702">
        <ele>61.1</ele>
        <time>2012-06-06T07:27:09.000Z</time>
      </trkpt>
      <trkpt lat="43.98768" lon="4.80705">
        <ele>61.2</ele>
        <time>2012-06-06T07:27:10.000Z</time>
      </trkpt>
      <trkpt lat="43.98773" lon="4.80706">
        <ele>61.9</ele>
        <time>2012-06-06T07:27:11.000Z</time>
      </trkpt>
      <trkpt lat="43.98781" lon="4.80708">
        <ele>61.5</ele>
        <time>2012-06-06T07:27:13.000Z</time>
      </trkpt>
      <trkpt lat="43.98788" lon="4.80713">
        <ele>62.1</ele>
        <time>2012-06-06T07:27:15.000Z</time>
      </trkpt>
      <trkpt lat="43.98795" lon="4.80717">
        <ele>62.5</ele>
        <time>2012-06-06T07:27:17.000Z</time>
      </trkpt>
      <trkpt lat="43.988" lon="4.80718">
        <ele>62.5</ele>
        <time>2012-06-06T07:27:18.000Z</time>
      </trkpt>
      <trkpt lat="43.98804" lon="4.8072">
        <ele>62.9</ele>
        <time>2012-06-06T07:27:19.000Z</time>
      </trkpt>
      <trkpt lat="43.98808" lon="4.80722">
        <ele>63.6</ele>
        <time>2012-06-06T07:27:20.000Z</time>
      </trkpt>
      <trkpt lat="43.98817" lon="4.80727">
        <ele>65.4</ele>
        <time>2012-06-06T07:27:22.000Z</time>
      </trkpt>
      <trkpt lat="43.98825" lon="4.80732">
        <ele>66.3</ele>
        <time>2012-06-06T07:27:24.000Z</time>
      </trkpt>
      <trkpt lat="43.98832" lon="4.8074">
        <ele>64.5</ele>
        <time>2012-06-06T07:27:26.000Z</time>
      </trkpt>
      <trkpt lat="43.98839" lon="4.80744">
        <ele>60.8</ele>
        <time>2012-06-06T07:27:27.000Z</time>
      </trkpt>
      <trkpt lat="43.98845" lon="4.80749">
        <ele>56.8</ele>
        <time>2012-06-06T07:27:28.000Z</time>
      </trkpt>
      <trkpt lat="43.9885" lon="4.80754">
        <ele>56.7</ele>
        <time>2012-06-06T07:27:29.000Z</time>
      </trkpt>
      <trkpt lat="43.98859" lon="4.80756">
        <ele>56.3</ele>
        <time>2012-06-06T07:27:31.000Z</time>
      </trkpt>
      <trkpt lat="43.98864" lon="4.80759">
        <ele>56.1</ele>
        <time>2012-06-06T07:27:32.000Z</time>
      </trkpt>
      <trkpt lat="43.98871" lon="4.80765">
        <ele>57</ele>
        <time>2012-06-06T07:27:34.000Z</time>
      </trkpt>
      <trkpt lat="43.98875" lon="4.80768">
        <ele>57.9</ele>
        <time>2012-06-06T07:27:35.000Z</time>
      </trkpt>
      <trkpt lat="43.98879" lon="4.8077">
        <ele>58.7</ele>
        <time>2012-06-06T07:27:36.000Z</time>
      </trkpt>
      <trkpt lat="43.98888" lon="4.80775">
        <ele>60</ele>
        <time>2012-06-06T07:27:38.000Z</time>
      </trkpt>
      <trkpt lat="43.98892" lon="4.80779">
        <ele>61.2</ele>
        <time>2012-06-06T07:27:39.000Z</time>
      </trkpt>
      <trkpt lat="43.98897" lon="4.80782">
        <ele>63.1</ele>
        <time>2012-06-06T07:27:40.000Z</time>
      </trkpt>
      <trkpt lat="43.98901" lon="4.80786">
        <ele>63.6</ele>
        <time>2012-06-06T07:27:41.000Z</time>
      </trkpt>
      <trkpt lat="43.98904" lon="4.80791">
        <ele>63.2</ele>
        <time>2012-06-06T07:27:42.000Z</time>
      </trkpt>
      <trkpt lat="43.98908" lon="4.80794">
        <ele>63.3</ele>
        <time>2012-06-06T07:27:43.000Z</time>
      </trkpt>
      <trkpt lat="43.98914" lon="4.808">
        <ele>62</ele>
        <time>2012-06-06T07:27:45.000Z</time>
      </trkpt>
      <trkpt lat="43.98919" lon="4.80809">
        <ele>62.5</ele>
        <time>2012-06-06T07:27:47.000Z</time>
      </trkpt>
      <trkpt lat="43.98926" lon="4.80814">
        <ele>63.8</ele>
        <time>2012-06-06T07:27:49.000Z</time>
      </trkpt>
      <trkpt lat="43.98932" lon="4.80819">
        <ele>64</ele>
        <time>2012-06-06T07:27:51.000Z</time>
      </trkpt>
      <trkpt lat="43.98938" lon="4.80827">
        <ele>63.1</ele>
        <time>2012-06-06T07:27:53.000Z</time>
      </trkpt>
      <trkpt lat="43.98943" lon="4.80835">
        <ele>63.7</ele>
        <time>2012-06-06T07:27:55.000Z</time>
      </trkpt>
      <trkpt lat="43.98949" lon="4.80841">
        <ele>63.7</ele>
        <time>2012-06-06T07:27:57.000Z</time>
      </trkpt>
      <trkpt lat="43.98955" lon="4.80849">
        <ele>64</ele>
        <time>2012-06-06T07:27:59.000Z</time>
      </trkpt>
      <trkpt lat="43.98959" lon="4.80854">
        <ele>63.9</ele>
        <time>2012-06-06T07:28:00.000Z</time>
      </trkpt>
      <trkpt lat="43.98962" lon="4.8086">
        <ele>65</ele>
        <time>2012-06-06T07:28:01.000Z</time>
      </trkpt>
      <trkpt lat="43.98967" lon="4.80865">
        <ele>65.4</ele>
        <time>2012-06-06T07:28:02.000Z</time>
      </trkpt>
      <trkpt lat="43.98971" lon="4.80868">
        <ele>65.4</ele>
        <time>2012-06-06T07:28:03.000Z</time>
      </trkpt>
      <trkpt lat="43.98974" lon="4.80874">
        <ele>65</ele>
        <time>2012-06-06T07:28:04.000Z</time>
      </trkpt>
      <trkpt lat="43.98978" lon="4.8088">
        <ele>65.1</ele>
        <time>2012-06-06T07:28:05.000Z</time>
      </trkpt>
      <trkpt lat="43.98981" lon="4.80884">
        <ele>65.4</ele>
        <time>2012-06-06T07:28:06.000Z</time>
      </trkpt>
      <trkpt lat="43.98986" lon="4.80887">
        <ele>66.1</ele>
        <time>2012-06-06T07:28:07.000Z</time>
      </trkpt>
      <trkpt lat="43.9899" lon="4.80891">
        <ele>67.4</ele>
        <time>2012-06-06T07:28:08.000Z</time>
      </trkpt>
      <trkpt lat="43.98995" lon="4.80894">
        <ele>68</ele>
        <time>2012-06-06T07:28:09.000Z</time>
      </trkpt>
      <trkpt lat="43.99001" lon="4.809">
        <ele>67.6</ele>
        <time>2012-06-06T07:28:11.000Z</time>
      </trkpt>
      <trkpt lat="43.99006" lon="4.80908">
        <ele>68.2</ele>
        <time>2012-06-06T07:28:13.000Z</time>
      </trkpt>
      <trkpt lat="43.99011" lon="4.80916">
        <ele>68.4</ele>
        <time>2012-06-06T07:28:15.000Z</time>
      </trkpt>
      <trkpt lat="43.99016" lon="4.80921">
        <ele>68.5</ele>
        <time>2012-06-06T07:28:17.000Z</time>
      </trkpt>
      <trkpt lat="43.99022" lon="4.80924">
        <ele>68.8</ele>
        <time>2012-06-06T07:28:19.000Z</time>
      </trkpt>
      <trkpt lat="43.99028" lon="4.80927">
        <ele>67.8</ele>
        <time>2012-06-06T07:28:21.000Z</time>
      </trkpt>
      <trkpt lat="43.99035" lon="4.80932">
        <ele>66.4</ele>
        <time>2012-06-06T07:28:23.000Z</time>
      </trkpt>
      <trkpt lat="43.99042" lon="4.80937">
        <ele>65.2</ele>
        <time>2012-06-06T07:28:25.000Z</time>
      </trkpt>
      <trkpt lat="43.99049" lon="4.80944">
        <ele>64.7</ele>
        <time>2012-06-06T07:28:27.000Z</time>
      </trkpt>
      <trkpt lat="43.99052" lon="4.80949">
        <ele>65.2</ele>
        <time>2012-06-06T07:28:28.000Z</time>
      </trkpt>
      <trkpt lat="43.99061" lon="4.80955">
        <ele>65.5</ele>
        <time>2012-06-06T07:28:30.000Z</time>
      </trkpt>
      <trkpt lat="43.99069" lon="4.80964">
        <ele>64.6</ele>
        <time>2012-06-06T07:28:32.000Z</time>
      </trkpt>
      <trkpt lat="43.99075" lon="4.80968">
        <ele>63.5</ele>
        <time>2012-06-06T07:28:33.000Z</time>
      </trkpt>
      <trkpt lat="43.99078" lon="4.80972">
        <ele>62.7</ele>
        <time>2012-06-06T07:28:34.000Z</time>
      </trkpt>
      <trkpt lat="43.99082" lon="4.80976">
        <ele>62.3</ele>
        <time>2012-06-06T07:28:35.000Z</time>
      </trkpt>
      <trkpt lat="43.9909" lon="4.80981">
        <ele>61.2</ele>
        <time>2012-06-06T07:28:37.000Z</time>
      </trkpt>
      <trkpt lat="43.99096" lon="4.80986">
        <ele>61.5</ele>
        <time>2012-06-06T07:28:38.000Z</time>
      </trkpt>
      <trkpt lat="43.99099" lon="4.8099">
        <ele>62.1</ele>
        <time>2012-06-06T07:28:39.000Z</time>
      </trkpt>
      <trkpt lat="43.99102" lon="4.80995">
        <ele>62.6</ele>
        <time>2012-06-06T07:28:40.000Z</time>
      </trkpt>
      <trkpt lat="43.99107" lon="4.80998">
        <ele>62.8</ele>
        <time>2012-06-06T07:28:41.000Z</time>
      </trkpt>
      <trkpt lat="43.99112" lon="4.81001">
        <ele>63.1</ele>
        <time>2012-06-06T07:28:42.000Z</time>
      </trkpt>
      <trkpt lat="43.99118" lon="4.81004">
        <ele>63.5</ele>
        <time>2012-06-06T07:28:43.000Z</time>
      </trkpt>
      <trkpt lat="43.99122" lon="4.81007">
        <ele>63.9</ele>
        <time>2012-06-06T07:28:44.000Z</time>
      </trkpt>
      <trkpt lat="43.99127" lon="4.8101">
        <ele>63.3</ele>
        <time>2012-06-06T07:28:45.000Z</time>
      </trkpt>
      <trkpt lat="43.99134" lon="4.81016">
        <ele>62.7</ele>
        <time>2012-06-06T07:28:47.000Z</time>
      </trkpt>
      <trkpt lat="43.99139" lon="4.81019">
        <ele>62.6</ele>
        <time>2012-06-06T07:28:48.000Z</time>
      </trkpt>
      <trkpt lat="43.99145" lon="4.81022">
        <ele>63.9</ele>
        <time>2012-06-06T07:28:49.000Z</time>
      </trkpt>
      <trkpt lat="43.9915" lon="4.81025">
        <ele>64.5</ele>
        <time>2012-06-06T07:28:50.000Z</time>
      </trkpt>
      <trkpt lat="43.99155" lon="4.81027">
        <ele>64.7</ele>
        <time>2012-06-06T07:28:51.000Z</time>
      </trkpt>
      <trkpt lat="43.9916" lon="4.8103">
        <ele>65.8</ele>
        <time>2012-06-06T07:28:52.000Z</time>
      </trkpt>
      <trkpt lat="43.99164" lon="4.81032">
        <ele>65.8</ele>
        <time>2012-06-06T07:28:53.000Z</time>
      </trkpt>
      <trkpt lat="43.99172" lon="4.81037">
        <ele>65.2</ele>
        <time>2012-06-06T07:28:55.000Z</time>
      </trkpt>
      <trkpt lat="43.99176" lon="4.81041">
        <ele>64.8</ele>
        <time>2012-06-06T07:28:56.000Z</time>
      </trkpt>
      <trkpt lat="43.9918" lon="4.81046">
        <ele>66</ele>
        <time>2012-06-06T07:28:57.000Z</time>
      </trkpt>
      <trkpt lat="43.99185" lon="4.81049">
        <ele>66.2</ele>
        <time>2012-06-06T07:28:58.000Z</time>
      </trkpt>
      <trkpt lat="43.99189" lon="4.81053">
        <ele>66.9</ele>
        <time>2012-06-06T07:28:59.000Z</time>
      </trkpt>
      <trkpt lat="43.99194" lon="4.81056">
        <ele>67.3</ele>
        <time>2012-06-06T07:29:00.000Z</time>
      </trkpt>
      <trkpt lat="43.99198" lon="4.81061">
        <ele>67.2</ele>
        <time>2012-06-06T07:29:01.000Z</time>
      </trkpt>
      <trkpt lat="43.99204" lon="4.81065">
        <ele>66.6</ele>
        <time>2012-06-06T07:29:02.000Z</time>
      </trkpt>
      <trkpt lat="43.99209" lon="4.81068">
        <ele>66.7</ele>
        <time>2012-06-06T07:29:03.000Z</time>
      </trkpt>
      <trkpt lat="43.99213" lon="4.81071">
        <ele>67</ele>
        <time>2012-06-06T07:29:04.000Z</time>
      </trkpt>
      <trkpt lat="43.99217" lon="4.81074">
        <ele>67.2</ele>
        <time>2012-06-06T07:29:05.000Z</time>
      </trkpt>
      <trkpt lat="43.99222" lon="4.81077">
        <ele>66.9</ele>
        <time>2012-06-06T07:29:06.000Z</time>
      </trkpt>
      <trkpt lat="43.99227" lon="4.8108">
        <ele>66.8</ele>
        <time>2012-06-06T07:29:07.000Z</time>
      </trkpt>
      <trkpt lat="43.9923" lon="4.81083">
        <ele>67</ele>
        <time>2012-06-06T07:29:08.000Z</time>
      </trkpt>
      <trkpt lat="43.99236" lon="4.81086">
        <ele>67.4</ele>
        <time>2012-06-06T07:29:09.000Z</time>
      </trkpt>
      <trkpt lat="43.9924" lon="4.81091">
        <ele>67.9</ele>
        <time>2012-06-06T07:29:10.000Z</time>
      </trkpt>
      <trkpt lat="43.99245" lon="4.81094">
        <ele>66.3</ele>
        <time>2012-06-06T07:29:11.000Z</time>
      </trkpt>
      <trkpt lat="43.9925" lon="4.81097">
        <ele>67.3</ele>
        <time>2012-06-06T07:29:12.000Z</time>
      </trkpt>
      <trkpt lat="43.99255" lon="4.811">
        <ele>67.6</ele>
        <time>2012-06-06T07:29:13.000Z</time>
      </trkpt>
      <trkpt lat="43.99261" lon="4.81104">
        <ele>69.3</ele>
        <time>2012-06-06T07:29:14.000Z</time>
      </trkpt>
      <trkpt lat="43.99266" lon="4.81109">
        <ele>68.9</ele>
        <time>2012-06-06T07:29:15.000Z</time>
      </trkpt>
      <trkpt lat="43.9927" lon="4.81112">
        <ele>68.8</ele>
        <time>2012-06-06T07:29:16.000Z</time>
      </trkpt>
      <trkpt lat="43.99278" lon="4.81118">
        <ele>69.8</ele>
        <time>2012-06-06T07:29:18.000Z</time>
      </trkpt>
      <trkpt lat="43.99282" lon="4.8112">
        <ele>70.2</ele>
        <time>2012-06-06T07:29:19.000Z</time>
      </trkpt>
      <trkpt lat="43.9929" lon="4.81126">
        <ele>70.8</ele>
        <time>2012-06-06T07:29:21.000Z</time>
      </trkpt>
      <trkpt lat="43.99299" lon="4.8113">
        <ele>71.1</ele>
        <time>2012-06-06T07:29:23.000Z</time>
      </trkpt>
      <trkpt lat="43.99303" lon="4.81135">
        <ele>71.4</ele>
        <time>2012-06-06T07:29:24.000Z</time>
      </trkpt>
      <trkpt lat="43.99308" lon="4.81138">
        <ele>71.8</ele>
        <time>2012-06-06T07:29:25.000Z</time>
      </trkpt>
      <trkpt lat="43.99312" lon="4.8114">
        <ele>71.7</ele>
        <time>2012-06-06T07:29:26.000Z</time>
      </trkpt>
      <trkpt lat="43.99317" lon="4.81142">
        <ele>72.1</ele>
        <time>2012-06-06T07:29:27.000Z</time>
      </trkpt>
      <trkpt lat="43.99325" lon="4.81146">
        <ele>72.2</ele>
        <time>2012-06-06T07:29:29.000Z</time>
      </trkpt>
      <trkpt lat="43.99328" lon="4.81149">
        <ele>72.7</ele>
        <time>2012-06-06T07:29:30.000Z</time>
      </trkpt>
      <trkpt lat="43.99333" lon="4.8115">
        <ele>72.7</ele>
        <time>2012-06-06T07:29:31.000Z</time>
      </trkpt>
      <trkpt lat="43.99343" lon="4.81158">
        <ele>72.4</ele>
        <time>2012-06-06T07:29:33.000Z</time>
      </trkpt>
      <trkpt lat="43.99348" lon="4.81161">
        <ele>72.3</ele>
        <time>2012-06-06T07:29:34.000Z</time>
      </trkpt>
      <trkpt lat="43.99352" lon="4.81164">
        <ele>72.1</ele>
        <time>2012-06-06T07:29:35.000Z</time>
      </trkpt>
      <trkpt lat="43.99356" lon="4.81167">
        <ele>72.2</ele>
        <time>2012-06-06T07:29:36.000Z</time>
      </trkpt>
      <trkpt lat="43.99363" lon="4.81171">
        <ele>72.2</ele>
        <time>2012-06-06T07:29:38.000Z</time>
      </trkpt>
      <trkpt lat="43.99368" lon="4.81174">
        <ele>73</ele>
        <time>2012-06-06T07:29:39.000Z</time>
      </trkpt>
      <trkpt lat="43.99373" lon="4.81177">
        <ele>73.3</ele>
        <time>2012-06-06T07:29:40.000Z</time>
      </trkpt>
      <trkpt lat="43.99377" lon="4.8118">
        <ele>73.4</ele>
        <time>2012-06-06T07:29:41.000Z</time>
      </trkpt>
      <trkpt lat="43.99386" lon="4.81184">
        <ele>73.7</ele>
        <time>2012-06-06T07:29:43.000Z</time>
      </trkpt>
      <trkpt lat="43.99395" lon="4.81189">
        <ele>73.6</ele>
        <time>2012-06-06T07:29:45.000Z</time>
      </trkpt>
      <trkpt lat="43.994" lon="4.81191">
        <ele>73.5</ele>
        <time>2012-06-06T07:29:46.000Z</time>
      </trkpt>
      <trkpt lat="43.99405" lon="4.81194">
        <ele>74.1</ele>
        <time>2012-06-06T07:29:47.000Z</time>
      </trkpt>
      <trkpt lat="43.99413" lon="4.81197">
        <ele>74.4</ele>
        <time>2012-06-06T07:29:49.000Z</time>
      </trkpt>
      <trkpt lat="43.99419" lon="4.81203">
        <ele>73.7</ele>
        <time>2012-06-06T07:29:51.000Z</time>
      </trkpt>
      <trkpt lat="43.99424" lon="4.81205">
        <ele>74</ele>
        <time>2012-06-06T07:29:52.000Z</time>
      </trkpt>
      <trkpt lat="43.99433" lon="4.8121">
        <ele>74.4</ele>
        <time>2012-06-06T07:29:54.000Z</time>
      </trkpt>
      <trkpt lat="43.99438" lon="4.81212">
        <ele>74.8</ele>
        <time>2012-06-06T07:29:55.000Z</time>
      </trkpt>
      <trkpt lat="43.99446" lon="4.81218">
        <ele>75.2</ele>
        <time>2012-06-06T07:29:57.000Z</time>
      </trkpt>
      <trkpt lat="43.9945" lon="4.81222">
        <ele>74.8</ele>
        <time>2012-06-06T07:29:58.000Z</time>
      </trkpt>
      <trkpt lat="43.99457" lon="4.81226">
        <ele>74.6</ele>
        <time>2012-06-06T07:30:00.000Z</time>
      </trkpt>
      <trkpt lat="43.99465" lon="4.81231">
        <ele>75.1</ele>
        <time>2012-06-06T07:30:02.000Z</time>
      </trkpt>
      <trkpt lat="43.99469" lon="4.81235">
        <ele>75.3</ele>
        <time>2012-06-06T07:30:03.000Z</time>
      </trkpt>
      <trkpt lat="43.99475" lon="4.81239">
        <ele>74.5</ele>
        <time>2012-06-06T07:30:05.000Z</time>
      </trkpt>
      <trkpt lat="43.99484" lon="4.81243">
        <ele>75.4</ele>
        <time>2012-06-06T07:30:07.000Z</time>
      </trkpt>
      <trkpt lat="43.99488" lon="4.81245">
        <ele>75.4</ele>
        <time>2012-06-06T07:30:08.000Z</time>
      </trkpt>
      <trkpt lat="43.99494" lon="4.8125">
        <ele>75.4</ele>
        <time>2012-06-06T07:30:09.000Z</time>
      </trkpt>
      <trkpt lat="43.99501" lon="4.81255">
        <ele>75.9</ele>
        <time>2012-06-06T07:30:11.000Z</time>
      </trkpt>
      <trkpt lat="43.99507" lon="4.81258">
        <ele>75.3</ele>
        <time>2012-06-06T07:30:12.000Z</time>
      </trkpt>
      <trkpt lat="43.99512" lon="4.81262">
        <ele>74.3</ele>
        <time>2012-06-06T07:30:13.000Z</time>
      </trkpt>
      <trkpt lat="43.99517" lon="4.81265">
        <ele>73.9</ele>
        <time>2012-06-06T07:30:14.000Z</time>
      </trkpt>
      <trkpt lat="43.99522" lon="4.81267">
        <ele>73.1</ele>
        <time>2012-06-06T07:30:15.000Z</time>
      </trkpt>
      <trkpt lat="43.99527" lon="4.81271">
        <ele>72.5</ele>
        <time>2012-06-06T07:30:16.000Z</time>
      </trkpt>
      <trkpt lat="43.99535" lon="4.81276">
        <ele>71.6</ele>
        <time>2012-06-06T07:30:18.000Z</time>
      </trkpt>
      <trkpt lat="43.9954" lon="4.81278">
        <ele>71.4</ele>
        <time>2012-06-06T07:30:19.000Z</time>
      </trkpt>
      <trkpt lat="43.99547" lon="4.81284">
        <ele>70.5</ele>
        <time>2012-06-06T07:30:21.000Z</time>
      </trkpt>
      <trkpt lat="43.99553" lon="4.81285">
        <ele>70.8</ele>
        <time>2012-06-06T07:30:22.000Z</time>
      </trkpt>
      <trkpt lat="43.99558" lon="4.81288">
        <ele>70.8</ele>
        <time>2012-06-06T07:30:23.000Z</time>
      </trkpt>
      <trkpt lat="43.99562" lon="4.81291">
        <ele>70.5</ele>
        <time>2012-06-06T07:30:24.000Z</time>
      </trkpt>
      <trkpt lat="43.99566" lon="4.81294">
        <ele>70.5</ele>
        <time>2012-06-06T07:30:25.000Z</time>
      </trkpt>
      <trkpt lat="43.99575" lon="4.81297">
        <ele>70.5</ele>
        <time>2012-06-06T07:30:27.000Z</time>
      </trkpt>
      <trkpt lat="43.99579" lon="4.81301">
        <ele>70.5</ele>
        <time>2012-06-06T07:30:28.000Z</time>
      </trkpt>
      <trkpt lat="43.99585" lon="4.81303">
        <ele>71.2</ele>
        <time>2012-06-06T07:30:29.000Z</time>
      </trkpt>
      <trkpt lat="43.9959" lon="4.81305">
        <ele>71.1</ele>
        <time>2012-06-06T07:30:30.000Z</time>
      </trkpt>
      <trkpt lat="43.99596" lon="4.8131">
        <ele>71.5</ele>
        <time>2012-06-06T07:30:31.000Z</time>
      </trkpt>
      <trkpt lat="43.996" lon="4.81315">
        <ele>71.8</ele>
        <time>2012-06-06T07:30:32.000Z</time>
      </trkpt>
      <trkpt lat="43.99604" lon="4.81319">
        <ele>71.8</ele>
        <time>2012-06-06T07:30:33.000Z</time>
      </trkpt>
      <trkpt lat="43.99608" lon="4.81323">
        <ele>71.7</ele>
        <time>2012-06-06T07:30:34.000Z</time>
      </trkpt>
      <trkpt lat="43.99612" lon="4.81327">
        <ele>72</ele>
        <time>2012-06-06T07:30:35.000Z</time>
      </trkpt>
      <trkpt lat="43.99619" lon="4.81336">
        <ele>73.5</ele>
        <time>2012-06-06T07:30:37.000Z</time>
      </trkpt>
      <trkpt lat="43.99623" lon="4.8134">
        <ele>73.5</ele>
        <time>2012-06-06T07:30:38.000Z</time>
      </trkpt>
      <trkpt lat="43.99626" lon="4.81346">
        <ele>73.6</ele>
        <time>2012-06-06T07:30:39.000Z</time>
      </trkpt>
      <trkpt lat="43.99631" lon="4.81351">
        <ele>74.3</ele>
        <time>2012-06-06T07:30:40.000Z</time>
      </trkpt>
      <trkpt lat="43.99635" lon="4.81355">
        <ele>74.2</ele>
        <time>2012-06-06T07:30:41.000Z</time>
      </trkpt>
      <trkpt lat="43.99637" lon="4.8136">
        <ele>73.7</ele>
        <time>2012-06-06T07:30:42.000Z</time>
      </trkpt>
      <trkpt lat="43.99644" lon="4.81364">
        <ele>74.7</ele>
        <time>2012-06-06T07:30:44.000Z</time>
      </trkpt>
      <trkpt lat="43.99647" lon="4.81356">
        <ele>75.7</ele>
        <time>2012-06-06T07:30:47.000Z</time>
      </trkpt>
      <trkpt lat="43.99649" lon="4.81347">
        <ele>77</ele>
        <time>2012-06-06T07:30:49.000Z</time>
      </trkpt>
      <trkpt lat="43.9965" lon="4.8134">
        <ele>77.2</ele>
        <time>2012-06-06T07:30:50.000Z</time>
      </trkpt>
      <trkpt lat="43.99651" lon="4.81334">
        <ele>77.6</ele>
        <time>2012-06-06T07:30:51.000Z</time>
      </trkpt>
      <trkpt lat="43.99654" lon="4.81326">
        <ele>76.7</ele>
        <time>2012-06-06T07:30:53.000Z</time>
      </trkpt>
      <trkpt lat="43.99655" lon="4.81317">
        <ele>75.5</ele>
        <time>2012-06-06T07:30:55.000Z</time>
      </trkpt>
      <trkpt lat="43.9966" lon="4.8131">
        <ele>74.4</ele>
        <time>2012-06-06T07:30:57.000Z</time>
      </trkpt>
      <trkpt lat="43.99664" lon="4.81304">
        <ele>73.1</ele>
        <time>2012-06-06T07:30:58.000Z</time>
      </trkpt>
      <trkpt lat="43.99667" lon="4.81297">
        <ele>72.2</ele>
        <time>2012-06-06T07:30:59.000Z</time>
      </trkpt>
      <trkpt lat="43.99669" lon="4.8129">
        <ele>71.5</ele>
        <time>2012-06-06T07:31:00.000Z</time>
      </trkpt>
      <trkpt lat="43.99675" lon="4.81287">
        <ele>70.8</ele>
        <time>2012-06-06T07:31:01.000Z</time>
      </trkpt>
      <trkpt lat="43.9968" lon="4.81283">
        <ele>69.5</ele>
        <time>2012-06-06T07:31:03.000Z</time>
      </trkpt>
      <trkpt lat="43.99684" lon="4.81278">
        <ele>67.9</ele>
        <time>2012-06-06T07:31:05.000Z</time>
      </trkpt>
      <trkpt lat="43.99689" lon="4.81276">
        <ele>67.3</ele>
        <time>2012-06-06T07:31:06.000Z</time>
      </trkpt>
      <trkpt lat="43.99694" lon="4.8127">
        <ele>65.9</ele>
        <time>2012-06-06T07:31:08.000Z</time>
      </trkpt>
      <trkpt lat="43.99701" lon="4.81266">
        <ele>64.8</ele>
        <time>2012-06-06T07:31:10.000Z</time>
      </trkpt>
      <trkpt lat="43.99708" lon="4.81264">
        <ele>64.9</ele>
        <time>2012-06-06T07:31:12.000Z</time>
      </trkpt>
      <trkpt lat="43.99713" lon="4.81262">
        <ele>64.2</ele>
        <time>2012-06-06T07:31:14.000Z</time>
      </trkpt>
      <trkpt lat="43.9972" lon="4.81259">
        <ele>64.3</ele>
        <time>2012-06-06T07:31:16.000Z</time>
      </trkpt>
      <trkpt lat="43.99731" lon="4.81261">
        <ele>63</ele>
        <time>2012-06-06T07:31:18.000Z</time>
      </trkpt>
      <trkpt lat="43.99737" lon="4.81264">
        <ele>62.7</ele>
        <time>2012-06-06T07:31:19.000Z</time>
      </trkpt>
      <trkpt lat="43.99742" lon="4.81266">
        <ele>61.7</ele>
        <time>2012-06-06T07:31:20.000Z</time>
      </trkpt>
      <trkpt lat="43.99747" lon="4.81266">
        <ele>60.9</ele>
        <time>2012-06-06T07:31:21.000Z</time>
      </trkpt>
      <trkpt lat="43.99752" lon="4.81266">
        <ele>60.4</ele>
        <time>2012-06-06T07:31:22.000Z</time>
      </trkpt>
      <trkpt lat="43.99759" lon="4.81275">
        <ele>58.3</ele>
        <time>2012-06-06T07:31:24.000Z</time>
      </trkpt>
      <trkpt lat="43.99763" lon="4.81282">
        <ele>57.8</ele>
        <time>2012-06-06T07:31:25.000Z</time>
      </trkpt>
      <trkpt lat="43.99771" lon="4.81289">
        <ele>58.7</ele>
        <time>2012-06-06T07:31:27.000Z</time>
      </trkpt>
      <trkpt lat="43.99774" lon="4.81296">
        <ele>58</ele>
        <time>2012-06-06T07:31:28.000Z</time>
      </trkpt>
      <trkpt lat="43.99778" lon="4.81303">
        <ele>57.4</ele>
        <time>2012-06-06T07:31:29.000Z</time>
      </trkpt>
      <trkpt lat="43.99782" lon="4.8131">
        <ele>58</ele>
        <time>2012-06-06T07:31:30.000Z</time>
      </trkpt>
      <trkpt lat="43.99786" lon="4.81316">
        <ele>58.7</ele>
        <time>2012-06-06T07:31:31.000Z</time>
      </trkpt>
      <trkpt lat="43.99791" lon="4.81321">
        <ele>60.2</ele>
        <time>2012-06-06T07:31:32.000Z</time>
      </trkpt>
      <trkpt lat="43.99797" lon="4.81325">
        <ele>61.4</ele>
        <time>2012-06-06T07:31:33.000Z</time>
      </trkpt>
      <trkpt lat="43.998" lon="4.81331">
        <ele>61.7</ele>
        <time>2012-06-06T07:31:34.000Z</time>
      </trkpt>
      <trkpt lat="43.99807" lon="4.81338">
        <ele>64.7</ele>
        <time>2012-06-06T07:31:35.000Z</time>
      </trkpt>
      <trkpt lat="43.99811" lon="4.81342">
        <ele>65.5</ele>
        <time>2012-06-06T07:31:36.000Z</time>
      </trkpt>
      <trkpt lat="43.99815" lon="4.81347">
        <ele>66</ele>
        <time>2012-06-06T07:31:37.000Z</time>
      </trkpt>
      <trkpt lat="43.9982" lon="4.81352">
        <ele>66.8</ele>
        <time>2012-06-06T07:31:38.000Z</time>
      </trkpt>
      <trkpt lat="43.99823" lon="4.81357">
        <ele>66.7</ele>
        <time>2012-06-06T07:31:39.000Z</time>
      </trkpt>
      <trkpt lat="43.99826" lon="4.81362">
        <ele>66.4</ele>
        <time>2012-06-06T07:31:40.000Z</time>
      </trkpt>
      <trkpt lat="43.9983" lon="4.81367">
        <ele>67.4</ele>
        <time>2012-06-06T07:31:41.000Z</time>
      </trkpt>
      <trkpt lat="43.99835" lon="4.81373">
        <ele>69.5</ele>
        <time>2012-06-06T07:31:42.000Z</time>
      </trkpt>
      <trkpt lat="43.9984" lon="4.81378">
        <ele>70.3</ele>
        <time>2012-06-06T07:31:43.000Z</time>
      </trkpt>
      <trkpt lat="43.99844" lon="4.81384">
        <ele>70.5</ele>
        <time>2012-06-06T07:31:44.000Z</time>
      </trkpt>
      <trkpt lat="43.99846" lon="4.81389">
        <ele>71</ele>
        <time>2012-06-06T07:31:45.000Z</time>
      </trkpt>
      <trkpt lat="43.99851" lon="4.81394">
        <ele>72.5</ele>
        <time>2012-06-06T07:31:46.000Z</time>
      </trkpt>
      <trkpt lat="43.99857" lon="4.81404">
        <ele>73</ele>
        <time>2012-06-06T07:31:48.000Z</time>
      </trkpt>
      <trkpt lat="43.99862" lon="4.81414">
        <ele>72.3</ele>
        <time>2012-06-06T07:31:50.000Z</time>
      </trkpt>
      <trkpt lat="43.99866" lon="4.81418">
        <ele>72.3</ele>
        <time>2012-06-06T07:31:51.000Z</time>
      </trkpt>
      <trkpt lat="43.99872" lon="4.81426">
        <ele>72.4</ele>
        <time>2012-06-06T07:31:53.000Z</time>
      </trkpt>
      <trkpt lat="43.99878" lon="4.81434">
        <ele>73</ele>
        <time>2012-06-06T07:31:55.000Z</time>
      </trkpt>
      <trkpt lat="43.99882" lon="4.81443">
        <ele>73.7</ele>
        <time>2012-06-06T07:31:57.000Z</time>
      </trkpt>
      <trkpt lat="43.99887" lon="4.81451">
        <ele>72.8</ele>
        <time>2012-06-06T07:31:59.000Z</time>
      </trkpt>
      <trkpt lat="43.99891" lon="4.8146">
        <ele>71.6</ele>
        <time>2012-06-06T07:32:01.000Z</time>
      </trkpt>
      <trkpt lat="43.99895" lon="4.8147">
        <ele>71.4</ele>
        <time>2012-06-06T07:32:03.000Z</time>
      </trkpt>
      <trkpt lat="43.999" lon="4.81479">
        <ele>70.2</ele>
        <time>2012-06-06T07:32:05.000Z</time>
      </trkpt>
      <trkpt lat="43.99905" lon="4.81489">
        <ele>69.7</ele>
        <time>2012-06-06T07:32:07.000Z</time>
      </trkpt>
      <trkpt lat="43.9991" lon="4.81497">
        <ele>69.7</ele>
        <time>2012-06-06T07:32:09.000Z</time>
      </trkpt>
      <trkpt lat="43.99915" lon="4.81505">
        <ele>69.2</ele>
        <time>2012-06-06T07:32:11.000Z</time>
      </trkpt>
      <trkpt lat="43.9992" lon="4.81514">
        <ele>68.8</ele>
        <time>2012-06-06T07:32:13.000Z</time>
      </trkpt>
      <trkpt lat="43.99927" lon="4.81522">
        <ele>68.3</ele>
        <time>2012-06-06T07:32:15.000Z</time>
      </trkpt>
      <trkpt lat="43.99932" lon="4.81532">
        <ele>68.3</ele>
        <time>2012-06-06T07:32:17.000Z</time>
      </trkpt>
      <trkpt lat="43.99938" lon="4.81541">
        <ele>67.7</ele>
        <time>2012-06-06T07:32:19.000Z</time>
      </trkpt>
      <trkpt lat="43.99943" lon="4.8155">
        <ele>67.5</ele>
        <time>2012-06-06T07:32:21.000Z</time>
      </trkpt>
      <trkpt lat="43.99946" lon="4.8156">
        <ele>67.4</ele>
        <time>2012-06-06T07:32:23.000Z</time>
      </trkpt>
      <trkpt lat="43.9995" lon="4.81563">
        <ele>67.5</ele>
        <time>2012-06-06T07:32:24.000Z</time>
      </trkpt>
      <trkpt lat="43.99954" lon="4.81569">
        <ele>68</ele>
        <time>2012-06-06T07:32:25.000Z</time>
      </trkpt>
      <trkpt lat="43.99958" lon="4.81574">
        <ele>67.8</ele>
        <time>2012-06-06T07:32:26.000Z</time>
      </trkpt>
      <trkpt lat="43.99961" lon="4.81579">
        <ele>66.9</ele>
        <time>2012-06-06T07:32:27.000Z</time>
      </trkpt>
      <trkpt lat="43.99965" lon="4.81583">
        <ele>67.4</ele>
        <time>2012-06-06T07:32:28.000Z</time>
      </trkpt>
      <trkpt lat="43.99968" lon="4.81589">
        <ele>66.3</ele>
        <time>2012-06-06T07:32:29.000Z</time>
      </trkpt>
      <trkpt lat="43.99972" lon="4.81593">
        <ele>66.3</ele>
        <time>2012-06-06T07:32:30.000Z</time>
      </trkpt>
      <trkpt lat="43.99979" lon="4.81599">
        <ele>67.7</ele>
        <time>2012-06-06T07:32:32.000Z</time>
      </trkpt>
      <trkpt lat="43.99984" lon="4.81601">
        <ele>68.5</ele>
        <time>2012-06-06T07:32:33.000Z</time>
      </trkpt>
      <trkpt lat="43.99991" lon="4.81612">
        <ele>68.6</ele>
        <time>2012-06-06T07:32:35.000Z</time>
      </trkpt>
      <trkpt lat="43.99998" lon="4.81617">
        <ele>69</ele>
        <time>2012-06-06T07:32:36.000Z</time>
      </trkpt>
      <trkpt lat="44.00002" lon="4.81622">
        <ele>68.8</ele>
        <time>2012-06-06T07:32:37.000Z</time>
      </trkpt>
      <trkpt lat="44.00005" lon="4.81628">
        <ele>69.1</ele>
        <time>2012-06-06T07:32:38.000Z</time>
      </trkpt>
      <trkpt lat="44.00011" lon="4.81635">
        <ele>69</ele>
        <time>2012-06-06T07:32:40.000Z</time>
      </trkpt>
      <trkpt lat="44.00016" lon="4.8164">
        <ele>68.8</ele>
        <time>2012-06-06T07:32:41.000Z</time>
      </trkpt>
      <trkpt lat="44.00026" lon="4.81639">
        <ele>67</ele>
        <time>2012-06-06T07:32:43.000Z</time>
      </trkpt>
      <trkpt lat="44.00031" lon="4.8164">
        <ele>67</ele>
        <time>2012-06-06T07:32:44.000Z</time>
      </trkpt>
      <trkpt lat="44.0004" lon="4.81637">
        <ele>67.5</ele>
        <time>2012-06-06T07:32:46.000Z</time>
      </trkpt>
      <trkpt lat="44.00045" lon="4.81636">
        <ele>67.3</ele>
        <time>2012-06-06T07:32:47.000Z</time>
      </trkpt>
      <trkpt lat="44.0005" lon="4.81635">
        <ele>67.4</ele>
        <time>2012-06-06T07:32:48.000Z</time>
      </trkpt>
      <trkpt lat="44.00054" lon="4.81634">
        <ele>67.3</ele>
        <time>2012-06-06T07:32:49.000Z</time>
      </trkpt>
      <trkpt lat="44.00059" lon="4.81634">
        <ele>67.6</ele>
        <time>2012-06-06T07:32:50.000Z</time>
      </trkpt>
      <trkpt lat="44.00068" lon="4.81632">
        <ele>68.1</ele>
        <time>2012-06-06T07:32:52.000Z</time>
      </trkpt>
      <trkpt lat="44.00074" lon="4.81632">
        <ele>69.2</ele>
        <time>2012-06-06T07:32:53.000Z</time>
      </trkpt>
      <trkpt lat="44.00079" lon="4.81631">
        <ele>69.5</ele>
        <time>2012-06-06T07:32:54.000Z</time>
      </trkpt>
      <trkpt lat="44.00084" lon="4.8163">
        <ele>70.8</ele>
        <time>2012-06-06T07:32:55.000Z</time>
      </trkpt>
      <trkpt lat="44.0009" lon="4.81629">
        <ele>71.6</ele>
        <time>2012-06-06T07:32:56.000Z</time>
      </trkpt>
      <trkpt lat="44.00095" lon="4.81628">
        <ele>72.4</ele>
        <time>2012-06-06T07:32:57.000Z</time>
      </trkpt>
      <trkpt lat="44.001" lon="4.81626">
        <ele>71.9</ele>
        <time>2012-06-06T07:32:58.000Z</time>
      </trkpt>
      <trkpt lat="44.00105" lon="4.81626">
        <ele>72.5</ele>
        <time>2012-06-06T07:32:59.000Z</time>
      </trkpt>
      <trkpt lat="44.00109" lon="4.81625">
        <ele>72.9</ele>
        <time>2012-06-06T07:33:00.000Z</time>
      </trkpt>
      <trkpt lat="44.00117" lon="4.81622">
        <ele>72.8</ele>
        <time>2012-06-06T07:33:02.000Z</time>
      </trkpt>
      <trkpt lat="44.00126" lon="4.8162">
        <ele>72.3</ele>
        <time>2012-06-06T07:33:04.000Z</time>
      </trkpt>
      <trkpt lat="44.0013" lon="4.8162">
        <ele>72.2</ele>
        <time>2012-06-06T07:33:05.000Z</time>
      </trkpt>
      <trkpt lat="44.00135" lon="4.81618">
        <ele>72.4</ele>
        <time>2012-06-06T07:33:06.000Z</time>
      </trkpt>
      <trkpt lat="44.00144" lon="4.81618">
        <ele>73.5</ele>
        <time>2012-06-06T07:33:08.000Z</time>
      </trkpt>
      <trkpt lat="44.00152" lon="4.81616">
        <ele>74.2</ele>
        <time>2012-06-06T07:33:10.000Z</time>
      </trkpt>
      <trkpt lat="44.00157" lon="4.81614">
        <ele>74.6</ele>
        <time>2012-06-06T07:33:11.000Z</time>
      </trkpt>
      <trkpt lat="44.00166" lon="4.81612">
        <ele>74.5</ele>
        <time>2012-06-06T07:33:13.000Z</time>
      </trkpt>
      <trkpt lat="44.0017" lon="4.81611">
        <ele>75.1</ele>
        <time>2012-06-06T07:33:14.000Z</time>
      </trkpt>
      <trkpt lat="44.00175" lon="4.8161">
        <ele>75.1</ele>
        <time>2012-06-06T07:33:15.000Z</time>
      </trkpt>
      <trkpt lat="44.00183" lon="4.81608">
        <ele>74.1</ele>
        <time>2012-06-06T07:33:17.000Z</time>
      </trkpt>
      <trkpt lat="44.00188" lon="4.81607">
        <ele>74.5</ele>
        <time>2012-06-06T07:33:18.000Z</time>
      </trkpt>
      <trkpt lat="44.00193" lon="4.81606">
        <ele>74.2</ele>
        <time>2012-06-06T07:33:19.000Z</time>
      </trkpt>
      <trkpt lat="44.00201" lon="4.81604">
        <ele>74.8</ele>
        <time>2012-06-06T07:33:21.000Z</time>
      </trkpt>
      <trkpt lat="44.00209" lon="4.81602">
        <ele>75.3</ele>
        <time>2012-06-06T07:33:23.000Z</time>
      </trkpt>
      <trkpt lat="44.00217" lon="4.81599">
        <ele>75.3</ele>
        <time>2012-06-06T07:33:25.000Z</time>
      </trkpt>
      <trkpt lat="44.00224" lon="4.81599">
        <ele>75.7</ele>
        <time>2012-06-06T07:33:27.000Z</time>
      </trkpt>
      <trkpt lat="44.00231" lon="4.81597">
        <ele>75.1</ele>
        <time>2012-06-06T07:33:29.000Z</time>
      </trkpt>
      <trkpt lat="44.00238" lon="4.81594">
        <ele>74.6</ele>
        <time>2012-06-06T07:33:31.000Z</time>
      </trkpt>
      <trkpt lat="44.00246" lon="4.81594">
        <ele>74.1</ele>
        <time>2012-06-06T07:33:33.000Z</time>
      </trkpt>
      <trkpt lat="44.00251" lon="4.81594">
        <ele>74.1</ele>
        <time>2012-06-06T07:33:34.000Z</time>
      </trkpt>
      <trkpt lat="44.00258" lon="4.81595">
        <ele>74.2</ele>
        <time>2012-06-06T07:33:36.000Z</time>
      </trkpt>
      <trkpt lat="44.00265" lon="4.81594">
        <ele>74.1</ele>
        <time>2012-06-06T07:33:38.000Z</time>
      </trkpt>
      <trkpt lat="44.00271" lon="4.81592">
        <ele>73.8</ele>
        <time>2012-06-06T07:33:39.000Z</time>
      </trkpt>
      <trkpt lat="44.00278" lon="4.81591">
        <ele>73.9</ele>
        <time>2012-06-06T07:33:40.000Z</time>
      </trkpt>
      <trkpt lat="44.00283" lon="4.81589">
        <ele>73.3</ele>
        <time>2012-06-06T07:33:41.000Z</time>
      </trkpt>
      <trkpt lat="44.00288" lon="4.81588">
        <ele>73.1</ele>
        <time>2012-06-06T07:33:42.000Z</time>
      </trkpt>
      <trkpt lat="44.00292" lon="4.81588">
        <ele>72.7</ele>
        <time>2012-06-06T07:33:43.000Z</time>
      </trkpt>
      <trkpt lat="44.00301" lon="4.81586">
        <ele>72.7</ele>
        <time>2012-06-06T07:33:45.000Z</time>
      </trkpt>
      <trkpt lat="44.00308" lon="4.81586">
        <ele>72</ele>
        <time>2012-06-06T07:33:47.000Z</time>
      </trkpt>
      <trkpt lat="44.00316" lon="4.81583">
        <ele>72.1</ele>
        <time>2012-06-06T07:33:49.000Z</time>
      </trkpt>
      <trkpt lat="44.00323" lon="4.81581">
        <ele>72.5</ele>
        <time>2012-06-06T07:33:51.000Z</time>
      </trkpt>
      <trkpt lat="44.00328" lon="4.81581">
        <ele>72.1</ele>
        <time>2012-06-06T07:33:53.000Z</time>
      </trkpt>
      <trkpt lat="44.00336" lon="4.81582">
        <ele>72</ele>
        <time>2012-06-06T07:33:55.000Z</time>
      </trkpt>
      <trkpt lat="44.00343" lon="4.81584">
        <ele>72.4</ele>
        <time>2012-06-06T07:33:57.000Z</time>
      </trkpt>
      <trkpt lat="44.0035" lon="4.81587">
        <ele>72.1</ele>
        <time>2012-06-06T07:33:59.000Z</time>
      </trkpt>
      <trkpt lat="44.0036" lon="4.81587">
        <ele>72</ele>
        <time>2012-06-06T07:34:01.000Z</time>
      </trkpt>
      <trkpt lat="44.00368" lon="4.81588">
        <ele>71.1</ele>
        <time>2012-06-06T07:34:03.000Z</time>
      </trkpt>
      <trkpt lat="44.00373" lon="4.81588">
        <ele>70.8</ele>
        <time>2012-06-06T07:34:04.000Z</time>
      </trkpt>
      <trkpt lat="44.00378" lon="4.81589">
        <ele>71.2</ele>
        <time>2012-06-06T07:34:05.000Z</time>
      </trkpt>
      <trkpt lat="44.00384" lon="4.8159">
        <ele>72</ele>
        <time>2012-06-06T07:34:06.000Z</time>
      </trkpt>
      <trkpt lat="44.00388" lon="4.8159">
        <ele>72.5</ele>
        <time>2012-06-06T07:34:07.000Z</time>
      </trkpt>
      <trkpt lat="44.00397" lon="4.8159">
        <ele>72.8</ele>
        <time>2012-06-06T07:34:09.000Z</time>
      </trkpt>
      <trkpt lat="44.00402" lon="4.81589">
        <ele>72.5</ele>
        <time>2012-06-06T07:34:10.000Z</time>
      </trkpt>
      <trkpt lat="44.00411" lon="4.81589">
        <ele>72.4</ele>
        <time>2012-06-06T07:34:12.000Z</time>
      </trkpt>
      <trkpt lat="44.00416" lon="4.81588">
        <ele>72.3</ele>
        <time>2012-06-06T07:34:13.000Z</time>
      </trkpt>
      <trkpt lat="44.00423" lon="4.81588">
        <ele>71.9</ele>
        <time>2012-06-06T07:34:14.000Z</time>
      </trkpt>
      <trkpt lat="44.00429" lon="4.81587">
        <ele>71.7</ele>
        <time>2012-06-06T07:34:15.000Z</time>
      </trkpt>
      <trkpt lat="44.00434" lon="4.81587">
        <ele>71.7</ele>
        <time>2012-06-06T07:34:16.000Z</time>
      </trkpt>
      <trkpt lat="44.00441" lon="4.81586">
        <ele>73.2</ele>
        <time>2012-06-06T07:34:17.000Z</time>
      </trkpt>
      <trkpt lat="44.00446" lon="4.81586">
        <ele>73.3</ele>
        <time>2012-06-06T07:34:18.000Z</time>
      </trkpt>
      <trkpt lat="44.0045" lon="4.81584">
        <ele>72.9</ele>
        <time>2012-06-06T07:34:19.000Z</time>
      </trkpt>
      <trkpt lat="44.00455" lon="4.81584">
        <ele>73.1</ele>
        <time>2012-06-06T07:34:20.000Z</time>
      </trkpt>
      <trkpt lat="44.0046" lon="4.81583">
        <ele>73.7</ele>
        <time>2012-06-06T07:34:21.000Z</time>
      </trkpt>
      <trkpt lat="44.00465" lon="4.81583">
        <ele>73.8</ele>
        <time>2012-06-06T07:34:22.000Z</time>
      </trkpt>
      <trkpt lat="44.0047" lon="4.81582">
        <ele>74.1</ele>
        <time>2012-06-06T07:34:23.000Z</time>
      </trkpt>
      <trkpt lat="44.00477" lon="4.81583">
        <ele>74.2</ele>
        <time>2012-06-06T07:34:25.000Z</time>
      </trkpt>
      <trkpt lat="44.00483" lon="4.81586">
        <ele>74.1</ele>
        <time>2012-06-06T07:34:27.000Z</time>
      </trkpt>
      <trkpt lat="44.00488" lon="4.81587">
        <ele>74.5</ele>
        <time>2012-06-06T07:34:28.000Z</time>
      </trkpt>
      <trkpt lat="44.00495" lon="4.8159">
        <ele>74.6</ele>
        <time>2012-06-06T07:34:30.000Z</time>
      </trkpt>
      <trkpt lat="44.00501" lon="4.81593">
        <ele>75.4</ele>
        <time>2012-06-06T07:34:32.000Z</time>
      </trkpt>
      <trkpt lat="44.00512" lon="4.81594">
        <ele>75.6</ele>
        <time>2012-06-06T07:34:34.000Z</time>
      </trkpt>
      <trkpt lat="44.00517" lon="4.81592">
        <ele>75.8</ele>
        <time>2012-06-06T07:34:35.000Z</time>
      </trkpt>
      <trkpt lat="44.00522" lon="4.81592">
        <ele>75.5</ele>
        <time>2012-06-06T07:34:36.000Z</time>
      </trkpt>
      <trkpt lat="44.0053" lon="4.81593">
        <ele>75.4</ele>
        <time>2012-06-06T07:34:38.000Z</time>
      </trkpt>
      <trkpt lat="44.00535" lon="4.81593">
        <ele>75</ele>
        <time>2012-06-06T07:34:39.000Z</time>
      </trkpt>
      <trkpt lat="44.0054" lon="4.81593">
        <ele>74.8</ele>
        <time>2012-06-06T07:34:40.000Z</time>
      </trkpt>
      <trkpt lat="44.00547" lon="4.81594">
        <ele>74.9</ele>
        <time>2012-06-06T07:34:42.000Z</time>
      </trkpt>
      <trkpt lat="44.00555" lon="4.81594">
        <ele>75.1</ele>
        <time>2012-06-06T07:34:44.000Z</time>
      </trkpt>
      <trkpt lat="44.00561" lon="4.81595">
        <ele>75.7</ele>
        <time>2012-06-06T07:34:45.000Z</time>
      </trkpt>
      <trkpt lat="44.0057" lon="4.81597">
        <ele>76.3</ele>
        <time>2012-06-06T07:34:47.000Z</time>
      </trkpt>
      <trkpt lat="44.00578" lon="4.81602">
        <ele>76</ele>
        <time>2012-06-06T07:34:49.000Z</time>
      </trkpt>
      <trkpt lat="44.00584" lon="4.816">
        <ele>75.7</ele>
        <time>2012-06-06T07:34:51.000Z</time>
      </trkpt>
      <trkpt lat="44.0059" lon="4.816">
        <ele>75.8</ele>
        <time>2012-06-06T07:34:52.000Z</time>
      </trkpt>
      <trkpt lat="44.00598" lon="4.81599">
        <ele>76.1</ele>
        <time>2012-06-06T07:34:54.000Z</time>
      </trkpt>
      <trkpt lat="44.00605" lon="4.81598">
        <ele>75.4</ele>
        <time>2012-06-06T07:34:56.000Z</time>
      </trkpt>
      <trkpt lat="44.00615" lon="4.81598">
        <ele>75.3</ele>
        <time>2012-06-06T07:34:58.000Z</time>
      </trkpt>
      <trkpt lat="44.0062" lon="4.81597">
        <ele>74.7</ele>
        <time>2012-06-06T07:34:59.000Z</time>
      </trkpt>
      <trkpt lat="44.00629" lon="4.81597">
        <ele>74.8</ele>
        <time>2012-06-06T07:35:01.000Z</time>
      </trkpt>
      <trkpt lat="44.00635" lon="4.81598">
        <ele>74.9</ele>
        <time>2012-06-06T07:35:02.000Z</time>
      </trkpt>
      <trkpt lat="44.00644" lon="4.81594">
        <ele>73.9</ele>
        <time>2012-06-06T07:35:04.000Z</time>
      </trkpt>
      <trkpt lat="44.00648" lon="4.81591">
        <ele>72.3</ele>
        <time>2012-06-06T07:35:05.000Z</time>
      </trkpt>
      <trkpt lat="44.00654" lon="4.8159">
        <ele>71.4</ele>
        <time>2012-06-06T07:35:06.000Z</time>
      </trkpt>
      <trkpt lat="44.00664" lon="4.81589">
        <ele>70</ele>
        <time>2012-06-06T07:35:08.000Z</time>
      </trkpt>
      <trkpt lat="44.0067" lon="4.81587">
        <ele>69.8</ele>
        <time>2012-06-06T07:35:09.000Z</time>
      </trkpt>
      <trkpt lat="44.00676" lon="4.81587">
        <ele>69.3</ele>
        <time>2012-06-06T07:35:10.000Z</time>
      </trkpt>
      <trkpt lat="44.00681" lon="4.81587">
        <ele>69.8</ele>
        <time>2012-06-06T07:35:11.000Z</time>
      </trkpt>
      <trkpt lat="44.00687" lon="4.81588">
        <ele>70.4</ele>
        <time>2012-06-06T07:35:12.000Z</time>
      </trkpt>
      <trkpt lat="44.00693" lon="4.81588">
        <ele>70.3</ele>
        <time>2012-06-06T07:35:13.000Z</time>
      </trkpt>
      <trkpt lat="44.00699" lon="4.81587">
        <ele>71</ele>
        <time>2012-06-06T07:35:14.000Z</time>
      </trkpt>
      <trkpt lat="44.00704" lon="4.81587">
        <ele>70.9</ele>
        <time>2012-06-06T07:35:15.000Z</time>
      </trkpt>
      <trkpt lat="44.00709" lon="4.81587">
        <ele>71.2</ele>
        <time>2012-06-06T07:35:16.000Z</time>
      </trkpt>
      <trkpt lat="44.00715" lon="4.81587">
        <ele>70.8</ele>
        <time>2012-06-06T07:35:17.000Z</time>
      </trkpt>
      <trkpt lat="44.00724" lon="4.81586">
        <ele>71.1</ele>
        <time>2012-06-06T07:35:19.000Z</time>
      </trkpt>
      <trkpt lat="44.00729" lon="4.81587">
        <ele>71.3</ele>
        <time>2012-06-06T07:35:20.000Z</time>
      </trkpt>
      <trkpt lat="44.00734" lon="4.81586">
        <ele>71</ele>
        <time>2012-06-06T07:35:21.000Z</time>
      </trkpt>
      <trkpt lat="44.00739" lon="4.81584">
        <ele>70.4</ele>
        <time>2012-06-06T07:35:22.000Z</time>
      </trkpt>
      <trkpt lat="44.00745" lon="4.81585">
        <ele>70.3</ele>
        <time>2012-06-06T07:35:23.000Z</time>
      </trkpt>
      <trkpt lat="44.00751" lon="4.81584">
        <ele>70.3</ele>
        <time>2012-06-06T07:35:24.000Z</time>
      </trkpt>
      <trkpt lat="44.00756" lon="4.81584">
        <ele>69.6</ele>
        <time>2012-06-06T07:35:25.000Z</time>
      </trkpt>
      <trkpt lat="44.00762" lon="4.81585">
        <ele>69.5</ele>
        <time>2012-06-06T07:35:26.000Z</time>
      </trkpt>
      <trkpt lat="44.00767" lon="4.81586">
        <ele>70.1</ele>
        <time>2012-06-06T07:35:27.000Z</time>
      </trkpt>
      <trkpt lat="44.00776" lon="4.81587">
        <ele>70.4</ele>
        <time>2012-06-06T07:35:29.000Z</time>
      </trkpt>
      <trkpt lat="44.00784" lon="4.81586">
        <ele>70.3</ele>
        <time>2012-06-06T07:35:31.000Z</time>
      </trkpt>
      <trkpt lat="44.00789" lon="4.81587">
        <ele>70.6</ele>
        <time>2012-06-06T07:35:32.000Z</time>
      </trkpt>
      <trkpt lat="44.00798" lon="4.81589">
        <ele>69.5</ele>
        <time>2012-06-06T07:35:34.000Z</time>
      </trkpt>
      <trkpt lat="44.00803" lon="4.81592">
        <ele>69.7</ele>
        <time>2012-06-06T07:35:35.000Z</time>
      </trkpt>
      <trkpt lat="44.00813" lon="4.81594">
        <ele>69.5</ele>
        <time>2012-06-06T07:35:37.000Z</time>
      </trkpt>
      <trkpt lat="44.00818" lon="4.81596">
        <ele>68.9</ele>
        <time>2012-06-06T07:35:38.000Z</time>
      </trkpt>
      <trkpt lat="44.00825" lon="4.81597">
        <ele>69.4</ele>
        <time>2012-06-06T07:35:39.000Z</time>
      </trkpt>
      <trkpt lat="44.0083" lon="4.81596">
        <ele>70</ele>
        <time>2012-06-06T07:35:40.000Z</time>
      </trkpt>
      <trkpt lat="44.00836" lon="4.81597">
        <ele>69.4</ele>
        <time>2012-06-06T07:35:41.000Z</time>
      </trkpt>
      <trkpt lat="44.00841" lon="4.81598">
        <ele>69.4</ele>
        <time>2012-06-06T07:35:42.000Z</time>
      </trkpt>
      <trkpt lat="44.00848" lon="4.816">
        <ele>70.1</ele>
        <time>2012-06-06T07:35:43.000Z</time>
      </trkpt>
      <trkpt lat="44.00854" lon="4.81602">
        <ele>71.2</ele>
        <time>2012-06-06T07:35:44.000Z</time>
      </trkpt>
      <trkpt lat="44.0086" lon="4.81603">
        <ele>71.9</ele>
        <time>2012-06-06T07:35:45.000Z</time>
      </trkpt>
      <trkpt lat="44.00865" lon="4.81605">
        <ele>72.3</ele>
        <time>2012-06-06T07:35:46.000Z</time>
      </trkpt>
      <trkpt lat="44.00871" lon="4.81607">
        <ele>72.3</ele>
        <time>2012-06-06T07:35:47.000Z</time>
      </trkpt>
      <trkpt lat="44.00876" lon="4.81609">
        <ele>71.6</ele>
        <time>2012-06-06T07:35:48.000Z</time>
      </trkpt>
      <trkpt lat="44.00884" lon="4.81612">
        <ele>71.2</ele>
        <time>2012-06-06T07:35:50.000Z</time>
      </trkpt>
      <trkpt lat="44.00889" lon="4.81615">
        <ele>70.5</ele>
        <time>2012-06-06T07:35:51.000Z</time>
      </trkpt>
      <trkpt lat="44.00894" lon="4.81616">
        <ele>70.8</ele>
        <time>2012-06-06T07:35:52.000Z</time>
      </trkpt>
      <trkpt lat="44.00901" lon="4.81622">
        <ele>69.6</ele>
        <time>2012-06-06T07:35:54.000Z</time>
      </trkpt>
      <trkpt lat="44.00906" lon="4.81623">
        <ele>69.9</ele>
        <time>2012-06-06T07:35:55.000Z</time>
      </trkpt>
      <trkpt lat="44.00913" lon="4.81626">
        <ele>71</ele>
        <time>2012-06-06T07:35:56.000Z</time>
      </trkpt>
      <trkpt lat="44.00919" lon="4.81629">
        <ele>71.4</ele>
        <time>2012-06-06T07:35:57.000Z</time>
      </trkpt>
      <trkpt lat="44.00925" lon="4.81629">
        <ele>71</ele>
        <time>2012-06-06T07:35:58.000Z</time>
      </trkpt>
      <trkpt lat="44.00931" lon="4.81631">
        <ele>71.9</ele>
        <time>2012-06-06T07:35:59.000Z</time>
      </trkpt>
      <trkpt lat="44.00937" lon="4.81633">
        <ele>71.9</ele>
        <time>2012-06-06T07:36:00.000Z</time>
      </trkpt>
      <trkpt lat="44.00947" lon="4.81636">
        <ele>71.6</ele>
        <time>2012-06-06T07:36:02.000Z</time>
      </trkpt>
      <trkpt lat="44.00951" lon="4.81638">
        <ele>72.1</ele>
        <time>2012-06-06T07:36:03.000Z</time>
      </trkpt>
      <trkpt lat="44.00956" lon="4.81642">
        <ele>71.9</ele>
        <time>2012-06-06T07:36:04.000Z</time>
      </trkpt>
      <trkpt lat="44.0096" lon="4.81644">
        <ele>72</ele>
        <time>2012-06-06T07:36:05.000Z</time>
      </trkpt>
      <trkpt lat="44.00968" lon="4.81649">
        <ele>72.2</ele>
        <time>2012-06-06T07:36:07.000Z</time>
      </trkpt>
      <trkpt lat="44.00973" lon="4.81652">
        <ele>72.1</ele>
        <time>2012-06-06T07:36:08.000Z</time>
      </trkpt>
      <trkpt lat="44.00978" lon="4.81654">
        <ele>72.2</ele>
        <time>2012-06-06T07:36:09.000Z</time>
      </trkpt>
      <trkpt lat="44.00986" lon="4.81656">
        <ele>71.9</ele>
        <time>2012-06-06T07:36:11.000Z</time>
      </trkpt>
      <trkpt lat="44.0099" lon="4.81655">
        <ele>70.6</ele>
        <time>2012-06-06T07:36:12.000Z</time>
      </trkpt>
      <trkpt lat="44.00995" lon="4.81654">
        <ele>70.5</ele>
        <time>2012-06-06T07:36:13.000Z</time>
      </trkpt>
      <trkpt lat="44.00999" lon="4.81651">
        <ele>70.8</ele>
        <time>2012-06-06T07:36:14.000Z</time>
      </trkpt>
      <trkpt lat="44.01004" lon="4.81646">
        <ele>71.8</ele>
        <time>2012-06-06T07:36:16.000Z</time>
      </trkpt>
      <trkpt lat="44.01009" lon="4.8164">
        <ele>70.9</ele>
        <time>2012-06-06T07:36:18.000Z</time>
      </trkpt>
      <trkpt lat="44.01013" lon="4.81634">
        <ele>70.5</ele>
        <time>2012-06-06T07:36:20.000Z</time>
      </trkpt>
      <trkpt lat="44.01014" lon="4.81623">
        <ele>69.3</ele>
        <time>2012-06-06T07:36:22.000Z</time>
      </trkpt>
      <trkpt lat="44.01015" lon="4.81612">
        <ele>68.3</ele>
        <time>2012-06-06T07:36:24.000Z</time>
      </trkpt>
      <trkpt lat="44.01018" lon="4.81602">
        <ele>67.5</ele>
        <time>2012-06-06T07:36:26.000Z</time>
      </trkpt>
      <trkpt lat="44.01019" lon="4.81596">
        <ele>68.8</ele>
        <time>2012-06-06T07:36:28.000Z</time>
      </trkpt>
      <trkpt lat="44.01026" lon="4.81589">
        <ele>68.4</ele>
        <time>2012-06-06T07:36:30.000Z</time>
      </trkpt>
      <trkpt lat="44.0103" lon="4.81591">
        <ele>68.4</ele>
        <time>2012-06-06T07:36:31.000Z</time>
      </trkpt>
      <trkpt lat="44.01035" lon="4.81595">
        <ele>68.1</ele>
        <time>2012-06-06T07:36:32.000Z</time>
      </trkpt>
      <trkpt lat="44.01039" lon="4.81597">
        <ele>68</ele>
        <time>2012-06-06T07:36:33.000Z</time>
      </trkpt>
      <trkpt lat="44.01044" lon="4.81599">
        <ele>67.8</ele>
        <time>2012-06-06T07:36:34.000Z</time>
      </trkpt>
      <trkpt lat="44.0105" lon="4.81601">
        <ele>67.6</ele>
        <time>2012-06-06T07:36:35.000Z</time>
      </trkpt>
      <trkpt lat="44.01054" lon="4.81601">
        <ele>66.8</ele>
        <time>2012-06-06T07:36:36.000Z</time>
      </trkpt>
      <trkpt lat="44.01059" lon="4.816">
        <ele>66.8</ele>
        <time>2012-06-06T07:36:37.000Z</time>
      </trkpt>
      <trkpt lat="44.01065" lon="4.81601">
        <ele>67.1</ele>
        <time>2012-06-06T07:36:38.000Z</time>
      </trkpt>
      <trkpt lat="44.01071" lon="4.81597">
        <ele>67.5</ele>
        <time>2012-06-06T07:36:40.000Z</time>
      </trkpt>
      <trkpt lat="44.01076" lon="4.81595">
        <ele>67.6</ele>
        <time>2012-06-06T07:36:41.000Z</time>
      </trkpt>
      <trkpt lat="44.01083" lon="4.81591">
        <ele>68.3</ele>
        <time>2012-06-06T07:36:43.000Z</time>
      </trkpt>
      <trkpt lat="44.01088" lon="4.81589">
        <ele>68.6</ele>
        <time>2012-06-06T07:36:44.000Z</time>
      </trkpt>
      <trkpt lat="44.01097" lon="4.8159">
        <ele>69.2</ele>
        <time>2012-06-06T07:36:46.000Z</time>
      </trkpt>
      <trkpt lat="44.01102" lon="4.81585">
        <ele>68.5</ele>
        <time>2012-06-06T07:36:47.000Z</time>
      </trkpt>
      <trkpt lat="44.01111" lon="4.81584">
        <ele>68.3</ele>
        <time>2012-06-06T07:36:49.000Z</time>
      </trkpt>
      <trkpt lat="44.01117" lon="4.81584">
        <ele>68.4</ele>
        <time>2012-06-06T07:36:50.000Z</time>
      </trkpt>
      <trkpt lat="44.01124" lon="4.81585">
        <ele>68.5</ele>
        <time>2012-06-06T07:36:52.000Z</time>
      </trkpt>
      <trkpt lat="44.01132" lon="4.81582">
        <ele>67</ele>
        <time>2012-06-06T07:36:54.000Z</time>
      </trkpt>
      <trkpt lat="44.01137" lon="4.81581">
        <ele>66.6</ele>
        <time>2012-06-06T07:36:55.000Z</time>
      </trkpt>
      <trkpt lat="44.01144" lon="4.81577">
        <ele>66.4</ele>
        <time>2012-06-06T07:36:57.000Z</time>
      </trkpt>
      <trkpt lat="44.0115" lon="4.81576">
        <ele>65.4</ele>
        <time>2012-06-06T07:36:59.000Z</time>
      </trkpt>
      <trkpt lat="44.01155" lon="4.81575">
        <ele>66.2</ele>
        <time>2012-06-06T07:37:00.000Z</time>
      </trkpt>
      <trkpt lat="44.0116" lon="4.81574">
        <ele>64.5</ele>
        <time>2012-06-06T07:37:01.000Z</time>
      </trkpt>
      <trkpt lat="44.01164" lon="4.8157">
        <ele>64</ele>
        <time>2012-06-06T07:37:02.000Z</time>
      </trkpt>
      <trkpt lat="44.01169" lon="4.81568">
        <ele>63.1</ele>
        <time>2012-06-06T07:37:03.000Z</time>
      </trkpt>
      <trkpt lat="44.01178" lon="4.81565">
        <ele>61.1</ele>
        <time>2012-06-06T07:37:05.000Z</time>
      </trkpt>
      <trkpt lat="44.01186" lon="4.81566">
        <ele>59.7</ele>
        <time>2012-06-06T07:37:07.000Z</time>
      </trkpt>
      <trkpt lat="44.01192" lon="4.81565">
        <ele>59.8</ele>
        <time>2012-06-06T07:37:08.000Z</time>
      </trkpt>
      <trkpt lat="44.01201" lon="4.81566">
        <ele>60.2</ele>
        <time>2012-06-06T07:37:10.000Z</time>
      </trkpt>
      <trkpt lat="44.01206" lon="4.81566">
        <ele>60.7</ele>
        <time>2012-06-06T07:37:11.000Z</time>
      </trkpt>
      <trkpt lat="44.01212" lon="4.81566">
        <ele>61.1</ele>
        <time>2012-06-06T07:37:12.000Z</time>
      </trkpt>
      <trkpt lat="44.01218" lon="4.81563">
        <ele>60.6</ele>
        <time>2012-06-06T07:37:13.000Z</time>
      </trkpt>
      <trkpt lat="44.01223" lon="4.81565">
        <ele>60.7</ele>
        <time>2012-06-06T07:37:14.000Z</time>
      </trkpt>
      <trkpt lat="44.0123" lon="4.81567">
        <ele>61</ele>
        <time>2012-06-06T07:37:15.000Z</time>
      </trkpt>
      <trkpt lat="44.01237" lon="4.81568">
        <ele>61.2</ele>
        <time>2012-06-06T07:37:16.000Z</time>
      </trkpt>
      <trkpt lat="44.01247" lon="4.81567">
        <ele>62.2</ele>
        <time>2012-06-06T07:37:18.000Z</time>
      </trkpt>
      <trkpt lat="44.01255" lon="4.81569">
        <ele>63.6</ele>
        <time>2012-06-06T07:37:19.000Z</time>
      </trkpt>
      <trkpt lat="44.01261" lon="4.81568">
        <ele>64.4</ele>
        <time>2012-06-06T07:37:20.000Z</time>
      </trkpt>
      <trkpt lat="44.01267" lon="4.81568">
        <ele>64.7</ele>
        <time>2012-06-06T07:37:21.000Z</time>
      </trkpt>
      <trkpt lat="44.01274" lon="4.81569">
        <ele>64.9</ele>
        <time>2012-06-06T07:37:22.000Z</time>
      </trkpt>
      <trkpt lat="44.0128" lon="4.8157">
        <ele>65.7</ele>
        <time>2012-06-06T07:37:23.000Z</time>
      </trkpt>
      <trkpt lat="44.01286" lon="4.81572">
        <ele>66.2</ele>
        <time>2012-06-06T07:37:24.000Z</time>
      </trkpt>
      <trkpt lat="44.01291" lon="4.81572">
        <ele>66.7</ele>
        <time>2012-06-06T07:37:25.000Z</time>
      </trkpt>
      <trkpt lat="44.01297" lon="4.81573">
        <ele>66.5</ele>
        <time>2012-06-06T07:37:26.000Z</time>
      </trkpt>
      <trkpt lat="44.01302" lon="4.8157">
        <ele>64.9</ele>
        <time>2012-06-06T07:37:27.000Z</time>
      </trkpt>
      <trkpt lat="44.01307" lon="4.81569">
        <ele>65.2</ele>
        <time>2012-06-06T07:37:28.000Z</time>
      </trkpt>
      <trkpt lat="44.01312" lon="4.81568">
        <ele>65.7</ele>
        <time>2012-06-06T07:37:29.000Z</time>
      </trkpt>
      <trkpt lat="44.01318" lon="4.81567">
        <ele>64.4</ele>
        <time>2012-06-06T07:37:31.000Z</time>
      </trkpt>
      <trkpt lat="44.01324" lon="4.81567">
        <ele>66</ele>
        <time>2012-06-06T07:37:33.000Z</time>
      </trkpt>
      <trkpt lat="44.01333" lon="4.81567">
        <ele>65.4</ele>
        <time>2012-06-06T07:37:35.000Z</time>
      </trkpt>
      <trkpt lat="44.0134" lon="4.81566">
        <ele>65.4</ele>
        <time>2012-06-06T07:37:37.000Z</time>
      </trkpt>
      <trkpt lat="44.01346" lon="4.81566">
        <ele>65.6</ele>
        <time>2012-06-06T07:37:39.000Z</time>
      </trkpt>
      <trkpt lat="44.01353" lon="4.81563">
        <ele>67</ele>
        <time>2012-06-06T07:37:41.000Z</time>
      </trkpt>
      <trkpt lat="44.01357" lon="4.81558">
        <ele>68.5</ele>
        <time>2012-06-06T07:37:43.000Z</time>
      </trkpt>
      <trkpt lat="44.0136" lon="4.81551">
        <ele>69.7</ele>
        <time>2012-06-06T07:37:45.000Z</time>
      </trkpt>
      <trkpt lat="44.01359" lon="4.81544">
        <ele>70.6</ele>
        <time>2012-06-06T07:37:47.000Z</time>
      </trkpt>
      <trkpt lat="44.01358" lon="4.81534">
        <ele>71</ele>
        <time>2012-06-06T07:37:49.000Z</time>
      </trkpt>
      <trkpt lat="44.01357" lon="4.81524">
        <ele>71.1</ele>
        <time>2012-06-06T07:37:51.000Z</time>
      </trkpt>
      <trkpt lat="44.01356" lon="4.81513">
        <ele>71.1</ele>
        <time>2012-06-06T07:37:53.000Z</time>
      </trkpt>
      <trkpt lat="44.01354" lon="4.81501">
        <ele>72.8</ele>
        <time>2012-06-06T07:37:55.000Z</time>
      </trkpt>
      <trkpt lat="44.01351" lon="4.81494">
        <ele>75.3</ele>
        <time>2012-06-06T07:37:56.000Z</time>
      </trkpt>
      <trkpt lat="44.0135" lon="4.81482">
        <ele>78.7</ele>
        <time>2012-06-06T07:37:58.000Z</time>
      </trkpt>
      <trkpt lat="44.01349" lon="4.81476">
        <ele>79.5</ele>
        <time>2012-06-06T07:37:59.000Z</time>
      </trkpt>
      <trkpt lat="44.01347" lon="4.81463">
        <ele>79.7</ele>
        <time>2012-06-06T07:38:01.000Z</time>
      </trkpt>
      <trkpt lat="44.01346" lon="4.81453">
        <ele>80.1</ele>
        <time>2012-06-06T07:38:03.000Z</time>
      </trkpt>
      <trkpt lat="44.01345" lon="4.81446">
        <ele>79.1</ele>
        <time>2012-06-06T07:38:04.000Z</time>
      </trkpt>
      <trkpt lat="44.01344" lon="4.81439">
        <ele>79.2</ele>
        <time>2012-06-06T07:38:05.000Z</time>
      </trkpt>
      <trkpt lat="44.01342" lon="4.81432">
        <ele>79.5</ele>
        <time>2012-06-06T07:38:06.000Z</time>
      </trkpt>
      <trkpt lat="44.0134" lon="4.81422">
        <ele>79.8</ele>
        <time>2012-06-06T07:38:08.000Z</time>
      </trkpt>
      <trkpt lat="44.01338" lon="4.81416">
        <ele>79.5</ele>
        <time>2012-06-06T07:38:09.000Z</time>
      </trkpt>
      <trkpt lat="44.01334" lon="4.81406">
        <ele>78.7</ele>
        <time>2012-06-06T07:38:11.000Z</time>
      </trkpt>
      <trkpt lat="44.01332" lon="4.81399">
        <ele>78.9</ele>
        <time>2012-06-06T07:38:12.000Z</time>
      </trkpt>
      <trkpt lat="44.01327" lon="4.81387">
        <ele>78.4</ele>
        <time>2012-06-06T07:38:14.000Z</time>
      </trkpt>
      <trkpt lat="44.01324" lon="4.81379">
        <ele>78.1</ele>
        <time>2012-06-06T07:38:15.000Z</time>
      </trkpt>
      <trkpt lat="44.01322" lon="4.81367">
        <ele>78</ele>
        <time>2012-06-06T07:38:17.000Z</time>
      </trkpt>
      <trkpt lat="44.0132" lon="4.8136">
        <ele>76.9</ele>
        <time>2012-06-06T07:38:18.000Z</time>
      </trkpt>
      <trkpt lat="44.01318" lon="4.81354">
        <ele>77</ele>
        <time>2012-06-06T07:38:19.000Z</time>
      </trkpt>
      <trkpt lat="44.01316" lon="4.81342">
        <ele>76.3</ele>
        <time>2012-06-06T07:38:21.000Z</time>
      </trkpt>
      <trkpt lat="44.01314" lon="4.81336">
        <ele>76.2</ele>
        <time>2012-06-06T07:38:22.000Z</time>
      </trkpt>
      <trkpt lat="44.01311" lon="4.81326">
        <ele>74.6</ele>
        <time>2012-06-06T07:38:24.000Z</time>
      </trkpt>
      <trkpt lat="44.01308" lon="4.81316">
        <ele>73.6</ele>
        <time>2012-06-06T07:38:26.000Z</time>
      </trkpt>
      <trkpt lat="44.01303" lon="4.81306">
        <ele>73.5</ele>
        <time>2012-06-06T07:38:28.000Z</time>
      </trkpt>
      <trkpt lat="44.013" lon="4.81294">
        <ele>70.2</ele>
        <time>2012-06-06T07:38:30.000Z</time>
      </trkpt>
      <trkpt lat="44.01298" lon="4.81288">
        <ele>70</ele>
        <time>2012-06-06T07:38:31.000Z</time>
      </trkpt>
      <trkpt lat="44.01296" lon="4.81282">
        <ele>69.7</ele>
        <time>2012-06-06T07:38:32.000Z</time>
      </trkpt>
      <trkpt lat="44.01294" lon="4.81271">
        <ele>69.5</ele>
        <time>2012-06-06T07:38:33.000Z</time>
      </trkpt>
      <trkpt lat="44.01292" lon="4.8126">
        <ele>69.4</ele>
        <time>2012-06-06T07:38:34.000Z</time>
      </trkpt>
      <trkpt lat="44.01288" lon="4.81251">
        <ele>69.7</ele>
        <time>2012-06-06T07:38:35.000Z</time>
      </trkpt>
      <trkpt lat="44.01286" lon="4.81244">
        <ele>69.9</ele>
        <time>2012-06-06T07:38:36.000Z</time>
      </trkpt>
      <trkpt lat="44.01284" lon="4.81235">
        <ele>70.4</ele>
        <time>2012-06-06T07:38:37.000Z</time>
      </trkpt>
      <trkpt lat="44.01281" lon="4.81229">
        <ele>70.5</ele>
        <time>2012-06-06T07:38:38.000Z</time>
      </trkpt>
      <trkpt lat="44.01278" lon="4.81222">
        <ele>70.8</ele>
        <time>2012-06-06T07:38:39.000Z</time>
      </trkpt>
      <trkpt lat="44.01277" lon="4.81215">
        <ele>70.8</ele>
        <time>2012-06-06T07:38:40.000Z</time>
      </trkpt>
      <trkpt lat="44.01275" lon="4.81205">
        <ele>70.2</ele>
        <time>2012-06-06T07:38:41.000Z</time>
      </trkpt>
      <trkpt lat="44.01274" lon="4.81198">
        <ele>69.4</ele>
        <time>2012-06-06T07:38:43.000Z</time>
      </trkpt>
      <trkpt lat="44.0127" lon="4.81185">
        <ele>68.4</ele>
        <time>2012-06-06T07:38:45.000Z</time>
      </trkpt>
      <trkpt lat="44.01268" lon="4.81176">
        <ele>69.3</ele>
        <time>2012-06-06T07:38:46.000Z</time>
      </trkpt>
      <trkpt lat="44.01267" lon="4.81168">
        <ele>69.9</ele>
        <time>2012-06-06T07:38:47.000Z</time>
      </trkpt>
      <trkpt lat="44.01265" lon="4.8116">
        <ele>69.2</ele>
        <time>2012-06-06T07:38:48.000Z</time>
      </trkpt>
      <trkpt lat="44.01264" lon="4.81146">
        <ele>68.8</ele>
        <time>2012-06-06T07:38:50.000Z</time>
      </trkpt>
      <trkpt lat="44.01261" lon="4.81136">
        <ele>68.6</ele>
        <time>2012-06-06T07:38:51.000Z</time>
      </trkpt>
      <trkpt lat="44.01262" lon="4.81128">
        <ele>67.9</ele>
        <time>2012-06-06T07:38:52.000Z</time>
      </trkpt>
      <trkpt lat="44.01261" lon="4.81119">
        <ele>67.5</ele>
        <time>2012-06-06T07:38:53.000Z</time>
      </trkpt>
      <trkpt lat="44.0126" lon="4.81112">
        <ele>67.6</ele>
        <time>2012-06-06T07:38:54.000Z</time>
      </trkpt>
      <trkpt lat="44.0126" lon="4.81099">
        <ele>67.2</ele>
        <time>2012-06-06T07:38:56.000Z</time>
      </trkpt>
      <trkpt lat="44.01259" lon="4.81093">
        <ele>67.5</ele>
        <time>2012-06-06T07:38:57.000Z</time>
      </trkpt>
      <trkpt lat="44.01256" lon="4.81084">
        <ele>67.4</ele>
        <time>2012-06-06T07:38:58.000Z</time>
      </trkpt>
      <trkpt lat="44.01254" lon="4.81078">
        <ele>68.5</ele>
        <time>2012-06-06T07:38:59.000Z</time>
      </trkpt>
      <trkpt lat="44.01253" lon="4.8107">
        <ele>69.1</ele>
        <time>2012-06-06T07:39:00.000Z</time>
      </trkpt>
      <trkpt lat="44.01252" lon="4.81064">
        <ele>68.8</ele>
        <time>2012-06-06T07:39:01.000Z</time>
      </trkpt>
      <trkpt lat="44.01253" lon="4.81056">
        <ele>69.4</ele>
        <time>2012-06-06T07:39:02.000Z</time>
      </trkpt>
      <trkpt lat="44.01253" lon="4.81048">
        <ele>69</ele>
        <time>2012-06-06T07:39:03.000Z</time>
      </trkpt>
      <trkpt lat="44.0125" lon="4.81038">
        <ele>69.6</ele>
        <time>2012-06-06T07:39:04.000Z</time>
      </trkpt>
      <trkpt lat="44.0125" lon="4.81029">
        <ele>70.3</ele>
        <time>2012-06-06T07:39:05.000Z</time>
      </trkpt>
      <trkpt lat="44.01249" lon="4.81021">
        <ele>70.4</ele>
        <time>2012-06-06T07:39:06.000Z</time>
      </trkpt>
      <trkpt lat="44.01249" lon="4.81012">
        <ele>70.7</ele>
        <time>2012-06-06T07:39:07.000Z</time>
      </trkpt>
      <trkpt lat="44.01248" lon="4.81004">
        <ele>70.2</ele>
        <time>2012-06-06T07:39:08.000Z</time>
      </trkpt>
      <trkpt lat="44.01248" lon="4.80994">
        <ele>70.2</ele>
        <time>2012-06-06T07:39:09.000Z</time>
      </trkpt>
      <trkpt lat="44.01249" lon="4.80986">
        <ele>71.3</ele>
        <time>2012-06-06T07:39:10.000Z</time>
      </trkpt>
      <trkpt lat="44.01249" lon="4.80979">
        <ele>71.3</ele>
        <time>2012-06-06T07:39:11.000Z</time>
      </trkpt>
      <trkpt lat="44.0125" lon="4.80971">
        <ele>71.7</ele>
        <time>2012-06-06T07:39:12.000Z</time>
      </trkpt>
      <trkpt lat="44.0125" lon="4.80959">
        <ele>71.3</ele>
        <time>2012-06-06T07:39:14.000Z</time>
      </trkpt>
      <trkpt lat="44.01251" lon="4.80951">
        <ele>71.2</ele>
        <time>2012-06-06T07:39:15.000Z</time>
      </trkpt>
      <trkpt lat="44.01251" lon="4.80944">
        <ele>70.6</ele>
        <time>2012-06-06T07:39:16.000Z</time>
      </trkpt>
      <trkpt lat="44.01251" lon="4.80936">
        <ele>70.6</ele>
        <time>2012-06-06T07:39:17.000Z</time>
      </trkpt>
      <trkpt lat="44.0125" lon="4.80921">
        <ele>69.8</ele>
        <time>2012-06-06T07:39:19.000Z</time>
      </trkpt>
      <trkpt lat="44.01251" lon="4.80915">
        <ele>70.2</ele>
        <time>2012-06-06T07:39:20.000Z</time>
      </trkpt>
      <trkpt lat="44.01256" lon="4.80906">
        <ele>69.9</ele>
        <time>2012-06-06T07:39:22.000Z</time>
      </trkpt>
      <trkpt lat="44.01262" lon="4.80896">
        <ele>69.7</ele>
        <time>2012-06-06T07:39:24.000Z</time>
      </trkpt>
      <trkpt lat="44.01269" lon="4.8089">
        <ele>71</ele>
        <time>2012-06-06T07:39:26.000Z</time>
      </trkpt>
      <trkpt lat="44.01275" lon="4.80888">
        <ele>71</ele>
        <time>2012-06-06T07:39:27.000Z</time>
      </trkpt>
      <trkpt lat="44.01279" lon="4.80885">
        <ele>71.4</ele>
        <time>2012-06-06T07:39:28.000Z</time>
      </trkpt>
      <trkpt lat="44.01285" lon="4.80882">
        <ele>71.6</ele>
        <time>2012-06-06T07:39:29.000Z</time>
      </trkpt>
      <trkpt lat="44.0129" lon="4.80881">
        <ele>71.8</ele>
        <time>2012-06-06T07:39:30.000Z</time>
      </trkpt>
      <trkpt lat="44.01297" lon="4.80879">
        <ele>71.6</ele>
        <time>2012-06-06T07:39:32.000Z</time>
      </trkpt>
      <trkpt lat="44.01304" lon="4.80877">
        <ele>71.5</ele>
        <time>2012-06-06T07:39:34.000Z</time>
      </trkpt>
      <trkpt lat="44.01312" lon="4.80876">
        <ele>71.4</ele>
        <time>2012-06-06T07:39:36.000Z</time>
      </trkpt>
      <trkpt lat="44.01317" lon="4.80876">
        <ele>71</ele>
        <time>2012-06-06T07:39:37.000Z</time>
      </trkpt>
      <trkpt lat="44.01324" lon="4.80872">
        <ele>70.8</ele>
        <time>2012-06-06T07:39:38.000Z</time>
      </trkpt>
      <trkpt lat="44.01331" lon="4.8087">
        <ele>72.1</ele>
        <time>2012-06-06T07:39:39.000Z</time>
      </trkpt>
      <trkpt lat="44.01337" lon="4.80869">
        <ele>72.2</ele>
        <time>2012-06-06T07:39:40.000Z</time>
      </trkpt>
      <trkpt lat="44.01342" lon="4.80868">
        <ele>72.7</ele>
        <time>2012-06-06T07:39:41.000Z</time>
      </trkpt>
      <trkpt lat="44.01346" lon="4.80867">
        <ele>72.1</ele>
        <time>2012-06-06T07:39:42.000Z</time>
      </trkpt>
      <trkpt lat="44.01351" lon="4.80867">
        <ele>72</ele>
        <time>2012-06-06T07:39:43.000Z</time>
      </trkpt>
      <trkpt lat="44.01356" lon="4.80868">
        <ele>72.9</ele>
        <time>2012-06-06T07:39:44.000Z</time>
      </trkpt>
      <trkpt lat="44.01361" lon="4.80867">
        <ele>73.1</ele>
        <time>2012-06-06T07:39:45.000Z</time>
      </trkpt>
      <trkpt lat="44.01367" lon="4.80867">
        <ele>73.5</ele>
        <time>2012-06-06T07:39:46.000Z</time>
      </trkpt>
      <trkpt lat="44.01371" lon="4.80866">
        <ele>73.5</ele>
        <time>2012-06-06T07:39:47.000Z</time>
      </trkpt>
      <trkpt lat="44.01376" lon="4.80865">
        <ele>74</ele>
        <time>2012-06-06T07:39:48.000Z</time>
      </trkpt>
      <trkpt lat="44.01381" lon="4.80864">
        <ele>73.9</ele>
        <time>2012-06-06T07:39:49.000Z</time>
      </trkpt>
      <trkpt lat="44.01386" lon="4.80864">
        <ele>73.9</ele>
        <time>2012-06-06T07:39:50.000Z</time>
      </trkpt>
      <trkpt lat="44.01392" lon="4.80863">
        <ele>73.8</ele>
        <time>2012-06-06T07:39:51.000Z</time>
      </trkpt>
      <trkpt lat="44.01397" lon="4.80862">
        <ele>73.6</ele>
        <time>2012-06-06T07:39:52.000Z</time>
      </trkpt>
      <trkpt lat="44.01406" lon="4.8086">
        <ele>73.2</ele>
        <time>2012-06-06T07:39:54.000Z</time>
      </trkpt>
      <trkpt lat="44.01411" lon="4.80859">
        <ele>72.8</ele>
        <time>2012-06-06T07:39:55.000Z</time>
      </trkpt>
      <trkpt lat="44.01416" lon="4.80858">
        <ele>72.7</ele>
        <time>2012-06-06T07:39:56.000Z</time>
      </trkpt>
      <trkpt lat="44.01424" lon="4.80858">
        <ele>72.7</ele>
        <time>2012-06-06T07:39:58.000Z</time>
      </trkpt>
      <trkpt lat="44.0143" lon="4.80858">
        <ele>72.4</ele>
        <time>2012-06-06T07:39:59.000Z</time>
      </trkpt>
      <trkpt lat="44.01435" lon="4.80857">
        <ele>72.7</ele>
        <time>2012-06-06T07:40:00.000Z</time>
      </trkpt>
      <trkpt lat="44.01441" lon="4.80856">
        <ele>72.8</ele>
        <time>2012-06-06T07:40:01.000Z</time>
      </trkpt>
      <trkpt lat="44.01447" lon="4.80856">
        <ele>72.9</ele>
        <time>2012-06-06T07:40:02.000Z</time>
      </trkpt>
      <trkpt lat="44.01456" lon="4.80856">
        <ele>73.4</ele>
        <time>2012-06-06T07:40:04.000Z</time>
      </trkpt>
      <trkpt lat="44.01461" lon="4.80854">
        <ele>73.1</ele>
        <time>2012-06-06T07:40:05.000Z</time>
      </trkpt>
      <trkpt lat="44.01466" lon="4.80853">
        <ele>73.2</ele>
        <time>2012-06-06T07:40:06.000Z</time>
      </trkpt>
      <trkpt lat="44.01472" lon="4.80852">
        <ele>73.1</ele>
        <time>2012-06-06T07:40:07.000Z</time>
      </trkpt>
      <trkpt lat="44.01478" lon="4.80851">
        <ele>73</ele>
        <time>2012-06-06T07:40:08.000Z</time>
      </trkpt>
      <trkpt lat="44.01483" lon="4.80851">
        <ele>73.1</ele>
        <time>2012-06-06T07:40:09.000Z</time>
      </trkpt>
      <trkpt lat="44.01488" lon="4.8085">
        <ele>73.3</ele>
        <time>2012-06-06T07:40:10.000Z</time>
      </trkpt>
      <trkpt lat="44.01492" lon="4.80848">
        <ele>72.6</ele>
        <time>2012-06-06T07:40:11.000Z</time>
      </trkpt>
      <trkpt lat="44.01497" lon="4.80846">
        <ele>72.6</ele>
        <time>2012-06-06T07:40:12.000Z</time>
      </trkpt>
      <trkpt lat="44.01502" lon="4.80846">
        <ele>72.7</ele>
        <time>2012-06-06T07:40:13.000Z</time>
      </trkpt>
      <trkpt lat="44.01512" lon="4.80845">
        <ele>73.8</ele>
        <time>2012-06-06T07:40:15.000Z</time>
      </trkpt>
      <trkpt lat="44.01517" lon="4.80844">
        <ele>74.5</ele>
        <time>2012-06-06T07:40:16.000Z</time>
      </trkpt>
      <trkpt lat="44.01523" lon="4.80844">
        <ele>74.4</ele>
        <time>2012-06-06T07:40:17.000Z</time>
      </trkpt>
      <trkpt lat="44.01527" lon="4.80842">
        <ele>74</ele>
        <time>2012-06-06T07:40:18.000Z</time>
      </trkpt>
      <trkpt lat="44.01533" lon="4.8084">
        <ele>74.1</ele>
        <time>2012-06-06T07:40:19.000Z</time>
      </trkpt>
      <trkpt lat="44.01537" lon="4.80839">
        <ele>73.2</ele>
        <time>2012-06-06T07:40:20.000Z</time>
      </trkpt>
      <trkpt lat="44.01542" lon="4.80838">
        <ele>73.1</ele>
        <time>2012-06-06T07:40:21.000Z</time>
      </trkpt>
      <trkpt lat="44.01546" lon="4.80836">
        <ele>73.1</ele>
        <time>2012-06-06T07:40:22.000Z</time>
      </trkpt>
      <trkpt lat="44.01554" lon="4.80832">
        <ele>73.3</ele>
        <time>2012-06-06T07:40:24.000Z</time>
      </trkpt>
      <trkpt lat="44.01559" lon="4.80831">
        <ele>72.9</ele>
        <time>2012-06-06T07:40:26.000Z</time>
      </trkpt>
      <trkpt lat="44.01566" lon="4.80833">
        <ele>72.4</ele>
        <time>2012-06-06T07:40:27.000Z</time>
      </trkpt>
      <trkpt lat="44.0157" lon="4.80834">
        <ele>72.3</ele>
        <time>2012-06-06T07:40:28.000Z</time>
      </trkpt>
      <trkpt lat="44.01578" lon="4.80836">
        <ele>71.4</ele>
        <time>2012-06-06T07:40:30.000Z</time>
      </trkpt>
      <trkpt lat="44.01585" lon="4.80839">
        <ele>72.3</ele>
        <time>2012-06-06T07:40:32.000Z</time>
      </trkpt>
      <trkpt lat="44.01591" lon="4.80842">
        <ele>72.3</ele>
        <time>2012-06-06T07:40:34.000Z</time>
      </trkpt>
      <trkpt lat="44.01599" lon="4.80844">
        <ele>72</ele>
        <time>2012-06-06T07:40:36.000Z</time>
      </trkpt>
      <trkpt lat="44.01606" lon="4.80844">
        <ele>72.4</ele>
        <time>2012-06-06T07:40:38.000Z</time>
      </trkpt>
      <trkpt lat="44.01614" lon="4.80842">
        <ele>72.1</ele>
        <time>2012-06-06T07:40:41.000Z</time>
      </trkpt>
      <trkpt lat="44.01618" lon="4.80841">
        <ele>71.7</ele>
        <time>2012-06-06T07:40:42.000Z</time>
      </trkpt>
      <trkpt lat="44.01626" lon="4.80836">
        <ele>71.2</ele>
        <time>2012-06-06T07:40:44.000Z</time>
      </trkpt>
      <trkpt lat="44.01633" lon="4.80833">
        <ele>71.1</ele>
        <time>2012-06-06T07:40:46.000Z</time>
      </trkpt>
      <trkpt lat="44.01638" lon="4.80831">
        <ele>71</ele>
        <time>2012-06-06T07:40:47.000Z</time>
      </trkpt>
      <trkpt lat="44.01642" lon="4.8083">
        <ele>71.1</ele>
        <time>2012-06-06T07:40:48.000Z</time>
      </trkpt>
      <trkpt lat="44.01649" lon="4.80827">
        <ele>71.2</ele>
        <time>2012-06-06T07:40:50.000Z</time>
      </trkpt>
      <trkpt lat="44.01658" lon="4.80826">
        <ele>73.5</ele>
        <time>2012-06-06T07:40:52.000Z</time>
      </trkpt>
      <trkpt lat="44.01665" lon="4.80825">
        <ele>75.1</ele>
        <time>2012-06-06T07:40:53.000Z</time>
      </trkpt>
      <trkpt lat="44.0167" lon="4.80824">
        <ele>76</ele>
        <time>2012-06-06T07:40:54.000Z</time>
      </trkpt>
      <trkpt lat="44.01676" lon="4.80823">
        <ele>76.8</ele>
        <time>2012-06-06T07:40:55.000Z</time>
      </trkpt>
      <trkpt lat="44.01683" lon="4.80819">
        <ele>76.3</ele>
        <time>2012-06-06T07:40:57.000Z</time>
      </trkpt>
      <trkpt lat="44.01691" lon="4.80816">
        <ele>76.6</ele>
        <time>2012-06-06T07:40:59.000Z</time>
      </trkpt>
      <trkpt lat="44.01696" lon="4.80815">
        <ele>77.9</ele>
        <time>2012-06-06T07:41:00.000Z</time>
      </trkpt>
      <trkpt lat="44.01701" lon="4.80814">
        <ele>78.2</ele>
        <time>2012-06-06T07:41:01.000Z</time>
      </trkpt>
      <trkpt lat="44.01709" lon="4.80812">
        <ele>78.5</ele>
        <time>2012-06-06T07:41:03.000Z</time>
      </trkpt>
      <trkpt lat="44.01717" lon="4.8081">
        <ele>78.8</ele>
        <time>2012-06-06T07:41:05.000Z</time>
      </trkpt>
      <trkpt lat="44.01723" lon="4.80808">
        <ele>78.9</ele>
        <time>2012-06-06T07:41:07.000Z</time>
      </trkpt>
      <trkpt lat="44.01732" lon="4.80805">
        <ele>79.7</ele>
        <time>2012-06-06T07:41:09.000Z</time>
      </trkpt>
      <trkpt lat="44.01736" lon="4.80803">
        <ele>79.6</ele>
        <time>2012-06-06T07:41:10.000Z</time>
      </trkpt>
      <trkpt lat="44.01741" lon="4.808">
        <ele>80</ele>
        <time>2012-06-06T07:41:11.000Z</time>
      </trkpt>
      <trkpt lat="44.0175" lon="4.80797">
        <ele>80.3</ele>
        <time>2012-06-06T07:41:13.000Z</time>
      </trkpt>
      <trkpt lat="44.01754" lon="4.80795">
        <ele>79.7</ele>
        <time>2012-06-06T07:41:14.000Z</time>
      </trkpt>
      <trkpt lat="44.01762" lon="4.80792">
        <ele>79.3</ele>
        <time>2012-06-06T07:41:16.000Z</time>
      </trkpt>
      <trkpt lat="44.01769" lon="4.8079">
        <ele>79.6</ele>
        <time>2012-06-06T07:41:18.000Z</time>
      </trkpt>
      <trkpt lat="44.01776" lon="4.80787">
        <ele>79.4</ele>
        <time>2012-06-06T07:41:20.000Z</time>
      </trkpt>
      <trkpt lat="44.01781" lon="4.80785">
        <ele>79.5</ele>
        <time>2012-06-06T07:41:21.000Z</time>
      </trkpt>
      <trkpt lat="44.01787" lon="4.80783">
        <ele>79.7</ele>
        <time>2012-06-06T07:41:22.000Z</time>
      </trkpt>
      <trkpt lat="44.01794" lon="4.8078">
        <ele>79</ele>
        <time>2012-06-06T07:41:24.000Z</time>
      </trkpt>
      <trkpt lat="44.01802" lon="4.80776">
        <ele>79.1</ele>
        <time>2012-06-06T07:41:26.000Z</time>
      </trkpt>
      <trkpt lat="44.01809" lon="4.80773">
        <ele>78.3</ele>
        <time>2012-06-06T07:41:28.000Z</time>
      </trkpt>
      <trkpt lat="44.01816" lon="4.80768">
        <ele>78.5</ele>
        <time>2012-06-06T07:41:30.000Z</time>
      </trkpt>
      <trkpt lat="44.01824" lon="4.80766">
        <ele>77.7</ele>
        <time>2012-06-06T07:41:32.000Z</time>
      </trkpt>
      <trkpt lat="44.01828" lon="4.80765">
        <ele>77.7</ele>
        <time>2012-06-06T07:41:33.000Z</time>
      </trkpt>
      <trkpt lat="44.01833" lon="4.80763">
        <ele>77.8</ele>
        <time>2012-06-06T07:41:34.000Z</time>
      </trkpt>
      <trkpt lat="44.01838" lon="4.80761">
        <ele>77.8</ele>
        <time>2012-06-06T07:41:35.000Z</time>
      </trkpt>
      <trkpt lat="44.01842" lon="4.80759">
        <ele>77.5</ele>
        <time>2012-06-06T07:41:36.000Z</time>
      </trkpt>
      <trkpt lat="44.01847" lon="4.80757">
        <ele>76.9</ele>
        <time>2012-06-06T07:41:37.000Z</time>
      </trkpt>
      <trkpt lat="44.01852" lon="4.80755">
        <ele>76.8</ele>
        <time>2012-06-06T07:41:38.000Z</time>
      </trkpt>
      <trkpt lat="44.01856" lon="4.80753">
        <ele>77.2</ele>
        <time>2012-06-06T07:41:39.000Z</time>
      </trkpt>
      <trkpt lat="44.01861" lon="4.80753">
        <ele>76.4</ele>
        <time>2012-06-06T07:41:40.000Z</time>
      </trkpt>
      <trkpt lat="44.01866" lon="4.80752">
        <ele>75.8</ele>
        <time>2012-06-06T07:41:41.000Z</time>
      </trkpt>
      <trkpt lat="44.01871" lon="4.8075">
        <ele>75.3</ele>
        <time>2012-06-06T07:41:42.000Z</time>
      </trkpt>
      <trkpt lat="44.01879" lon="4.80745">
        <ele>76.1</ele>
        <time>2012-06-06T07:41:44.000Z</time>
      </trkpt>
      <trkpt lat="44.01884" lon="4.80743">
        <ele>76.2</ele>
        <time>2012-06-06T07:41:45.000Z</time>
      </trkpt>
      <trkpt lat="44.01889" lon="4.80742">
        <ele>75.6</ele>
        <time>2012-06-06T07:41:46.000Z</time>
      </trkpt>
      <trkpt lat="44.01893" lon="4.8074">
        <ele>75.3</ele>
        <time>2012-06-06T07:41:47.000Z</time>
      </trkpt>
      <trkpt lat="44.01898" lon="4.80738">
        <ele>75.6</ele>
        <time>2012-06-06T07:41:48.000Z</time>
      </trkpt>
      <trkpt lat="44.01905" lon="4.80735">
        <ele>75.8</ele>
        <time>2012-06-06T07:41:50.000Z</time>
      </trkpt>
      <trkpt lat="44.01909" lon="4.80734">
        <ele>75.5</ele>
        <time>2012-06-06T07:41:51.000Z</time>
      </trkpt>
      <trkpt lat="44.01917" lon="4.8073">
        <ele>75.3</ele>
        <time>2012-06-06T07:41:53.000Z</time>
      </trkpt>
      <trkpt lat="44.01925" lon="4.80727">
        <ele>75.2</ele>
        <time>2012-06-06T07:41:55.000Z</time>
      </trkpt>
      <trkpt lat="44.01934" lon="4.80724">
        <ele>74.8</ele>
        <time>2012-06-06T07:41:57.000Z</time>
      </trkpt>
      <trkpt lat="44.01942" lon="4.80721">
        <ele>75.2</ele>
        <time>2012-06-06T07:41:59.000Z</time>
      </trkpt>
      <trkpt lat="44.0195" lon="4.80717">
        <ele>76.3</ele>
        <time>2012-06-06T07:42:01.000Z</time>
      </trkpt>
      <trkpt lat="44.01959" lon="4.80714">
        <ele>75.7</ele>
        <time>2012-06-06T07:42:03.000Z</time>
      </trkpt>
      <trkpt lat="44.01967" lon="4.80711">
        <ele>75.7</ele>
        <time>2012-06-06T07:42:05.000Z</time>
      </trkpt>
      <trkpt lat="44.01972" lon="4.8071">
        <ele>75.8</ele>
        <time>2012-06-06T07:42:06.000Z</time>
      </trkpt>
      <trkpt lat="44.0198" lon="4.80706">
        <ele>75.7</ele>
        <time>2012-06-06T07:42:08.000Z</time>
      </trkpt>
      <trkpt lat="44.01988" lon="4.80701">
        <ele>75.5</ele>
        <time>2012-06-06T07:42:10.000Z</time>
      </trkpt>
      <trkpt lat="44.01996" lon="4.80696">
        <ele>76.1</ele>
        <time>2012-06-06T07:42:12.000Z</time>
      </trkpt>
      <trkpt lat="44.02" lon="4.80693">
        <ele>76.6</ele>
        <time>2012-06-06T07:42:13.000Z</time>
      </trkpt>
      <trkpt lat="44.02004" lon="4.8069">
        <ele>76.8</ele>
        <time>2012-06-06T07:42:14.000Z</time>
      </trkpt>
      <trkpt lat="44.02008" lon="4.80687">
        <ele>77</ele>
        <time>2012-06-06T07:42:15.000Z</time>
      </trkpt>
      <trkpt lat="44.02015" lon="4.80682">
        <ele>76.9</ele>
        <time>2012-06-06T07:42:17.000Z</time>
      </trkpt>
      <trkpt lat="44.0202" lon="4.8068">
        <ele>77.5</ele>
        <time>2012-06-06T07:42:18.000Z</time>
      </trkpt>
      <trkpt lat="44.02026" lon="4.80676">
        <ele>78.3</ele>
        <time>2012-06-06T07:42:19.000Z</time>
      </trkpt>
      <trkpt lat="44.02031" lon="4.80671">
        <ele>78.4</ele>
        <time>2012-06-06T07:42:20.000Z</time>
      </trkpt>
      <trkpt lat="44.02035" lon="4.80667">
        <ele>78.5</ele>
        <time>2012-06-06T07:42:21.000Z</time>
      </trkpt>
      <trkpt lat="44.0204" lon="4.80661">
        <ele>78.1</ele>
        <time>2012-06-06T07:42:23.000Z</time>
      </trkpt>
      <trkpt lat="44.0205" lon="4.80653">
        <ele>76.6</ele>
        <time>2012-06-06T07:42:25.000Z</time>
      </trkpt>
      <trkpt lat="44.02058" lon="4.80643">
        <ele>76.6</ele>
        <time>2012-06-06T07:42:27.000Z</time>
      </trkpt>
      <trkpt lat="44.02064" lon="4.80637">
        <ele>76.3</ele>
        <time>2012-06-06T07:42:29.000Z</time>
      </trkpt>
      <trkpt lat="44.02069" lon="4.8063">
        <ele>75.7</ele>
        <time>2012-06-06T07:42:31.000Z</time>
      </trkpt>
      <trkpt lat="44.02074" lon="4.80622">
        <ele>75.4</ele>
        <time>2012-06-06T07:42:33.000Z</time>
      </trkpt>
      <trkpt lat="44.02079" lon="4.80616">
        <ele>75.6</ele>
        <time>2012-06-06T07:42:35.000Z</time>
      </trkpt>
      <trkpt lat="44.02085" lon="4.80609">
        <ele>75.5</ele>
        <time>2012-06-06T07:42:37.000Z</time>
      </trkpt>
      <trkpt lat="44.02089" lon="4.80605">
        <ele>75.5</ele>
        <time>2012-06-06T07:42:38.000Z</time>
      </trkpt>
      <trkpt lat="44.02096" lon="4.80599">
        <ele>74.9</ele>
        <time>2012-06-06T07:42:40.000Z</time>
      </trkpt>
      <trkpt lat="44.021" lon="4.80597">
        <ele>75</ele>
        <time>2012-06-06T07:42:41.000Z</time>
      </trkpt>
      <trkpt lat="44.02109" lon="4.80593">
        <ele>75.4</ele>
        <time>2012-06-06T07:42:43.000Z</time>
      </trkpt>
      <trkpt lat="44.02117" lon="4.80589">
        <ele>74.7</ele>
        <time>2012-06-06T07:42:45.000Z</time>
      </trkpt>
      <trkpt lat="44.02121" lon="4.80587">
        <ele>74.5</ele>
        <time>2012-06-06T07:42:46.000Z</time>
      </trkpt>
      <trkpt lat="44.02129" lon="4.80584">
        <ele>75.6</ele>
        <time>2012-06-06T07:42:48.000Z</time>
      </trkpt>
      <trkpt lat="44.02137" lon="4.80583">
        <ele>76.5</ele>
        <time>2012-06-06T07:42:50.000Z</time>
      </trkpt>
      <trkpt lat="44.02145" lon="4.80581">
        <ele>76.3</ele>
        <time>2012-06-06T07:42:52.000Z</time>
      </trkpt>
      <trkpt lat="44.02154" lon="4.8058">
        <ele>76.4</ele>
        <time>2012-06-06T07:42:54.000Z</time>
      </trkpt>
      <trkpt lat="44.02159" lon="4.80579">
        <ele>76</ele>
        <time>2012-06-06T07:42:55.000Z</time>
      </trkpt>
      <trkpt lat="44.02168" lon="4.80578">
        <ele>76.1</ele>
        <time>2012-06-06T07:42:57.000Z</time>
      </trkpt>
      <trkpt lat="44.02175" lon="4.80576">
        <ele>76.7</ele>
        <time>2012-06-06T07:42:59.000Z</time>
      </trkpt>
      <trkpt lat="44.02184" lon="4.80576">
        <ele>76.6</ele>
        <time>2012-06-06T07:43:01.000Z</time>
      </trkpt>
      <trkpt lat="44.02192" lon="4.80577">
        <ele>76.4</ele>
        <time>2012-06-06T07:43:03.000Z</time>
      </trkpt>
      <trkpt lat="44.02196" lon="4.80576">
        <ele>76.1</ele>
        <time>2012-06-06T07:43:04.000Z</time>
      </trkpt>
      <trkpt lat="44.02204" lon="4.80576">
        <ele>75.8</ele>
        <time>2012-06-06T07:43:06.000Z</time>
      </trkpt>
      <trkpt lat="44.02212" lon="4.80575">
        <ele>76.4</ele>
        <time>2012-06-06T07:43:08.000Z</time>
      </trkpt>
      <trkpt lat="44.02216" lon="4.80575">
        <ele>76.4</ele>
        <time>2012-06-06T07:43:09.000Z</time>
      </trkpt>
      <trkpt lat="44.02221" lon="4.80574">
        <ele>76.6</ele>
        <time>2012-06-06T07:43:10.000Z</time>
      </trkpt>
      <trkpt lat="44.02226" lon="4.80574">
        <ele>76.5</ele>
        <time>2012-06-06T07:43:11.000Z</time>
      </trkpt>
      <trkpt lat="44.02234" lon="4.80572">
        <ele>76.2</ele>
        <time>2012-06-06T07:43:13.000Z</time>
      </trkpt>
      <trkpt lat="44.02239" lon="4.80572">
        <ele>75.7</ele>
        <time>2012-06-06T07:43:14.000Z</time>
      </trkpt>
      <trkpt lat="44.02244" lon="4.80572">
        <ele>75.6</ele>
        <time>2012-06-06T07:43:15.000Z</time>
      </trkpt>
      <trkpt lat="44.02249" lon="4.80572">
        <ele>75.7</ele>
        <time>2012-06-06T07:43:16.000Z</time>
      </trkpt>
      <trkpt lat="44.02253" lon="4.80572">
        <ele>75.6</ele>
        <time>2012-06-06T07:43:17.000Z</time>
      </trkpt>
      <trkpt lat="44.02258" lon="4.80572">
        <ele>75.8</ele>
        <time>2012-06-06T07:43:18.000Z</time>
      </trkpt>
      <trkpt lat="44.02264" lon="4.80571">
        <ele>76.4</ele>
        <time>2012-06-06T07:43:19.000Z</time>
      </trkpt>
      <trkpt lat="44.02269" lon="4.80571">
        <ele>76.9</ele>
        <time>2012-06-06T07:43:20.000Z</time>
      </trkpt>
      <trkpt lat="44.02273" lon="4.8057">
        <ele>77.2</ele>
        <time>2012-06-06T07:43:21.000Z</time>
      </trkpt>
      <trkpt lat="44.02282" lon="4.80568">
        <ele>77.1</ele>
        <time>2012-06-06T07:43:23.000Z</time>
      </trkpt>
      <trkpt lat="44.02287" lon="4.80567">
        <ele>77.3</ele>
        <time>2012-06-06T07:43:24.000Z</time>
      </trkpt>
      <trkpt lat="44.02295" lon="4.80567">
        <ele>77.9</ele>
        <time>2012-06-06T07:43:26.000Z</time>
      </trkpt>
      <trkpt lat="44.02299" lon="4.80567">
        <ele>78</ele>
        <time>2012-06-06T07:43:27.000Z</time>
      </trkpt>
      <trkpt lat="44.02304" lon="4.80567">
        <ele>78</ele>
        <time>2012-06-06T07:43:28.000Z</time>
      </trkpt>
      <trkpt lat="44.02313" lon="4.80567">
        <ele>77.8</ele>
        <time>2012-06-06T07:43:30.000Z</time>
      </trkpt>
      <trkpt lat="44.02321" lon="4.80566">
        <ele>77.5</ele>
        <time>2012-06-06T07:43:32.000Z</time>
      </trkpt>
      <trkpt lat="44.02326" lon="4.80565">
        <ele>77.3</ele>
        <time>2012-06-06T07:43:33.000Z</time>
      </trkpt>
      <trkpt lat="44.02331" lon="4.80564">
        <ele>77.1</ele>
        <time>2012-06-06T07:43:34.000Z</time>
      </trkpt>
      <trkpt lat="44.02336" lon="4.80564">
        <ele>76.8</ele>
        <time>2012-06-06T07:43:35.000Z</time>
      </trkpt>
      <trkpt lat="44.02342" lon="4.80565">
        <ele>76.6</ele>
        <time>2012-06-06T07:43:36.000Z</time>
      </trkpt>
      <trkpt lat="44.02347" lon="4.80563">
        <ele>76.5</ele>
        <time>2012-06-06T07:43:37.000Z</time>
      </trkpt>
      <trkpt lat="44.02352" lon="4.8056">
        <ele>76.4</ele>
        <time>2012-06-06T07:43:38.000Z</time>
      </trkpt>
      <trkpt lat="44.02358" lon="4.8056">
        <ele>76.1</ele>
        <time>2012-06-06T07:43:40.000Z</time>
      </trkpt>
      <trkpt lat="44.02367" lon="4.8056">
        <ele>76</ele>
        <time>2012-06-06T07:43:42.000Z</time>
      </trkpt>
      <trkpt lat="44.02372" lon="4.8056">
        <ele>76.1</ele>
        <time>2012-06-06T07:43:43.000Z</time>
      </trkpt>
      <trkpt lat="44.0238" lon="4.80558">
        <ele>76.4</ele>
        <time>2012-06-06T07:43:45.000Z</time>
      </trkpt>
      <trkpt lat="44.0239" lon="4.80555">
        <ele>76</ele>
        <time>2012-06-06T07:43:47.000Z</time>
      </trkpt>
      <trkpt lat="44.02394" lon="4.80554">
        <ele>75.8</ele>
        <time>2012-06-06T07:43:48.000Z</time>
      </trkpt>
      <trkpt lat="44.02402" lon="4.80553">
        <ele>75.8</ele>
        <time>2012-06-06T07:43:50.000Z</time>
      </trkpt>
      <trkpt lat="44.0241" lon="4.80552">
        <ele>75.3</ele>
        <time>2012-06-06T07:43:52.000Z</time>
      </trkpt>
      <trkpt lat="44.02416" lon="4.80551">
        <ele>74.4</ele>
        <time>2012-06-06T07:43:54.000Z</time>
      </trkpt>
      <trkpt lat="44.02424" lon="4.80551">
        <ele>75.4</ele>
        <time>2012-06-06T07:43:56.000Z</time>
      </trkpt>
      <trkpt lat="44.0243" lon="4.80551">
        <ele>75.4</ele>
        <time>2012-06-06T07:43:57.000Z</time>
      </trkpt>
      <trkpt lat="44.02435" lon="4.80551">
        <ele>76</ele>
        <time>2012-06-06T07:43:58.000Z</time>
      </trkpt>
      <trkpt lat="44.02441" lon="4.80551">
        <ele>75.8</ele>
        <time>2012-06-06T07:43:59.000Z</time>
      </trkpt>
      <trkpt lat="44.02446" lon="4.8055">
        <ele>76.1</ele>
        <time>2012-06-06T07:44:00.000Z</time>
      </trkpt>
      <trkpt lat="44.02451" lon="4.80549">
        <ele>75.8</ele>
        <time>2012-06-06T07:44:01.000Z</time>
      </trkpt>
      <trkpt lat="44.02457" lon="4.80549">
        <ele>76.9</ele>
        <time>2012-06-06T07:44:02.000Z</time>
      </trkpt>
      <trkpt lat="44.02466" lon="4.80548">
        <ele>76.5</ele>
        <time>2012-06-06T07:44:04.000Z</time>
      </trkpt>
      <trkpt lat="44.02472" lon="4.80546">
        <ele>76.9</ele>
        <time>2012-06-06T07:44:05.000Z</time>
      </trkpt>
      <trkpt lat="44.02476" lon="4.80545">
        <ele>77.1</ele>
        <time>2012-06-06T07:44:06.000Z</time>
      </trkpt>
      <trkpt lat="44.02481" lon="4.80544">
        <ele>77.3</ele>
        <time>2012-06-06T07:44:07.000Z</time>
      </trkpt>
      <trkpt lat="44.02486" lon="4.80544">
        <ele>77.7</ele>
        <time>2012-06-06T07:44:08.000Z</time>
      </trkpt>
      <trkpt lat="44.02491" lon="4.80543">
        <ele>78</ele>
        <time>2012-06-06T07:44:09.000Z</time>
      </trkpt>
      <trkpt lat="44.02499" lon="4.80542">
        <ele>78.8</ele>
        <time>2012-06-06T07:44:11.000Z</time>
      </trkpt>
      <trkpt lat="44.02509" lon="4.80542">
        <ele>78.8</ele>
        <time>2012-06-06T07:44:13.000Z</time>
      </trkpt>
      <trkpt lat="44.02514" lon="4.80541">
        <ele>78.6</ele>
        <time>2012-06-06T07:44:14.000Z</time>
      </trkpt>
      <trkpt lat="44.0252" lon="4.80538">
        <ele>79.3</ele>
        <time>2012-06-06T07:44:16.000Z</time>
      </trkpt>
      <trkpt lat="44.02525" lon="4.8053">
        <ele>78.4</ele>
        <time>2012-06-06T07:44:18.000Z</time>
      </trkpt>
      <trkpt lat="44.0253" lon="4.80525">
        <ele>77</ele>
        <time>2012-06-06T07:44:19.000Z</time>
      </trkpt>
      <trkpt lat="44.02534" lon="4.80519">
        <ele>76.4</ele>
        <time>2012-06-06T07:44:20.000Z</time>
      </trkpt>
      <trkpt lat="44.02537" lon="4.80513">
        <ele>75.3</ele>
        <time>2012-06-06T07:44:21.000Z</time>
      </trkpt>
      <trkpt lat="44.02537" lon="4.80506">
        <ele>74.1</ele>
        <time>2012-06-06T07:44:22.000Z</time>
      </trkpt>
      <trkpt lat="44.02537" lon="4.80495">
        <ele>74</ele>
        <time>2012-06-06T07:44:24.000Z</time>
      </trkpt>
      <trkpt lat="44.02535" lon="4.80484">
        <ele>74.2</ele>
        <time>2012-06-06T07:44:26.000Z</time>
      </trkpt>
      <trkpt lat="44.02532" lon="4.80474">
        <ele>73.6</ele>
        <time>2012-06-06T07:44:28.000Z</time>
      </trkpt>
      <trkpt lat="44.02532" lon="4.80465">
        <ele>72.6</ele>
        <time>2012-06-06T07:44:29.000Z</time>
      </trkpt>
      <trkpt lat="44.0253" lon="4.80459">
        <ele>73.2</ele>
        <time>2012-06-06T07:44:30.000Z</time>
      </trkpt>
      <trkpt lat="44.02528" lon="4.80446">
        <ele>72.7</ele>
        <time>2012-06-06T07:44:32.000Z</time>
      </trkpt>
      <trkpt lat="44.02528" lon="4.80439">
        <ele>72.5</ele>
        <time>2012-06-06T07:44:33.000Z</time>
      </trkpt>
      <trkpt lat="44.02528" lon="4.80431">
        <ele>72.8</ele>
        <time>2012-06-06T07:44:34.000Z</time>
      </trkpt>
      <trkpt lat="44.02526" lon="4.80423">
        <ele>72.7</ele>
        <time>2012-06-06T07:44:35.000Z</time>
      </trkpt>
      <trkpt lat="44.02526" lon="4.80416">
        <ele>73.3</ele>
        <time>2012-06-06T07:44:36.000Z</time>
      </trkpt>
      <trkpt lat="44.02525" lon="4.80404">
        <ele>73.7</ele>
        <time>2012-06-06T07:44:38.000Z</time>
      </trkpt>
      <trkpt lat="44.02523" lon="4.80392">
        <ele>73.1</ele>
        <time>2012-06-06T07:44:40.000Z</time>
      </trkpt>
      <trkpt lat="44.02524" lon="4.80381">
        <ele>73.1</ele>
        <time>2012-06-06T07:44:42.000Z</time>
      </trkpt>
      <trkpt lat="44.02525" lon="4.80367">
        <ele>72.9</ele>
        <time>2012-06-06T07:44:44.000Z</time>
      </trkpt>
      <trkpt lat="44.02526" lon="4.8036">
        <ele>72.6</ele>
        <time>2012-06-06T07:44:45.000Z</time>
      </trkpt>
      <trkpt lat="44.02527" lon="4.80352">
        <ele>71.9</ele>
        <time>2012-06-06T07:44:46.000Z</time>
      </trkpt>
      <trkpt lat="44.02527" lon="4.8034">
        <ele>71.7</ele>
        <time>2012-06-06T07:44:48.000Z</time>
      </trkpt>
      <trkpt lat="44.02526" lon="4.80334">
        <ele>71.8</ele>
        <time>2012-06-06T07:44:49.000Z</time>
      </trkpt>
      <trkpt lat="44.02528" lon="4.80326">
        <ele>71.9</ele>
        <time>2012-06-06T07:44:50.000Z</time>
      </trkpt>
      <trkpt lat="44.0253" lon="4.8032">
        <ele>71.8</ele>
        <time>2012-06-06T07:44:51.000Z</time>
      </trkpt>
      <trkpt lat="44.02532" lon="4.80312">
        <ele>71.9</ele>
        <time>2012-06-06T07:44:52.000Z</time>
      </trkpt>
      <trkpt lat="44.02536" lon="4.80308">
        <ele>71.8</ele>
        <time>2012-06-06T07:44:53.000Z</time>
      </trkpt>
      <trkpt lat="44.02538" lon="4.803">
        <ele>72</ele>
        <time>2012-06-06T07:44:54.000Z</time>
      </trkpt>
      <trkpt lat="44.02539" lon="4.80292">
        <ele>72.3</ele>
        <time>2012-06-06T07:44:55.000Z</time>
      </trkpt>
      <trkpt lat="44.02541" lon="4.80286">
        <ele>72.6</ele>
        <time>2012-06-06T07:44:56.000Z</time>
      </trkpt>
      <trkpt lat="44.02542" lon="4.80276">
        <ele>72.5</ele>
        <time>2012-06-06T07:44:58.000Z</time>
      </trkpt>
      <trkpt lat="44.02543" lon="4.80269">
        <ele>72.4</ele>
        <time>2012-06-06T07:44:59.000Z</time>
      </trkpt>
      <trkpt lat="44.02542" lon="4.80262">
        <ele>73.4</ele>
        <time>2012-06-06T07:45:00.000Z</time>
      </trkpt>
      <trkpt lat="44.02541" lon="4.80254">
        <ele>73.8</ele>
        <time>2012-06-06T07:45:01.000Z</time>
      </trkpt>
      <trkpt lat="44.02543" lon="4.80239">
        <ele>73.7</ele>
        <time>2012-06-06T07:45:03.000Z</time>
      </trkpt>
      <trkpt lat="44.02544" lon="4.80232">
        <ele>73.2</ele>
        <time>2012-06-06T07:45:04.000Z</time>
      </trkpt>
      <trkpt lat="44.02544" lon="4.80225">
        <ele>73.2</ele>
        <time>2012-06-06T07:45:05.000Z</time>
      </trkpt>
      <trkpt lat="44.02542" lon="4.80212">
        <ele>73.5</ele>
        <time>2012-06-06T07:45:07.000Z</time>
      </trkpt>
      <trkpt lat="44.0254" lon="4.80206">
        <ele>73.1</ele>
        <time>2012-06-06T07:45:08.000Z</time>
      </trkpt>
      <trkpt lat="44.02537" lon="4.80197">
        <ele>73.2</ele>
        <time>2012-06-06T07:45:10.000Z</time>
      </trkpt>
      <trkpt lat="44.02535" lon="4.80191">
        <ele>73.1</ele>
        <time>2012-06-06T07:45:11.000Z</time>
      </trkpt>
      <trkpt lat="44.02531" lon="4.80186">
        <ele>73</ele>
        <time>2012-06-06T07:45:12.000Z</time>
      </trkpt>
      <trkpt lat="44.02526" lon="4.80181">
        <ele>72.7</ele>
        <time>2012-06-06T07:45:13.000Z</time>
      </trkpt>
      <trkpt lat="44.0252" lon="4.80172">
        <ele>72.7</ele>
        <time>2012-06-06T07:45:15.000Z</time>
      </trkpt>
      <trkpt lat="44.02514" lon="4.80166">
        <ele>72.7</ele>
        <time>2012-06-06T07:45:17.000Z</time>
      </trkpt>
      <trkpt lat="44.02507" lon="4.80159">
        <ele>73.5</ele>
        <time>2012-06-06T07:45:19.000Z</time>
      </trkpt>
      <trkpt lat="44.02503" lon="4.80151">
        <ele>73.3</ele>
        <time>2012-06-06T07:45:22.000Z</time>
      </trkpt>
      <trkpt lat="44.02502" lon="4.8014">
        <ele>72.8</ele>
        <time>2012-06-06T07:45:24.000Z</time>
      </trkpt>
      <trkpt lat="44.02498" lon="4.8013">
        <ele>72.5</ele>
        <time>2012-06-06T07:45:26.000Z</time>
      </trkpt>
      <trkpt lat="44.02494" lon="4.80121">
        <ele>73.3</ele>
        <time>2012-06-06T07:45:28.000Z</time>
      </trkpt>
      <trkpt lat="44.02491" lon="4.80115">
        <ele>72.5</ele>
        <time>2012-06-06T07:45:29.000Z</time>
      </trkpt>
      <trkpt lat="44.02489" lon="4.80109">
        <ele>72.4</ele>
        <time>2012-06-06T07:45:30.000Z</time>
      </trkpt>
      <trkpt lat="44.02487" lon="4.80102">
        <ele>71.5</ele>
        <time>2012-06-06T07:45:31.000Z</time>
      </trkpt>
      <trkpt lat="44.02482" lon="4.80089">
        <ele>71.4</ele>
        <time>2012-06-06T07:45:33.000Z</time>
      </trkpt>
      <trkpt lat="44.02478" lon="4.80083">
        <ele>71.7</ele>
        <time>2012-06-06T07:45:34.000Z</time>
      </trkpt>
      <trkpt lat="44.0247" lon="4.8007">
        <ele>71.8</ele>
        <time>2012-06-06T07:45:36.000Z</time>
      </trkpt>
      <trkpt lat="44.02467" lon="4.80064">
        <ele>71.4</ele>
        <time>2012-06-06T07:45:37.000Z</time>
      </trkpt>
      <trkpt lat="44.02464" lon="4.80056">
        <ele>72.1</ele>
        <time>2012-06-06T07:45:38.000Z</time>
      </trkpt>
      <trkpt lat="44.02461" lon="4.8005">
        <ele>72.4</ele>
        <time>2012-06-06T07:45:39.000Z</time>
      </trkpt>
      <trkpt lat="44.02457" lon="4.80044">
        <ele>72.5</ele>
        <time>2012-06-06T07:45:40.000Z</time>
      </trkpt>
      <trkpt lat="44.02453" lon="4.80035">
        <ele>72.9</ele>
        <time>2012-06-06T07:45:42.000Z</time>
      </trkpt>
      <trkpt lat="44.02447" lon="4.80039">
        <ele>72.7</ele>
        <time>2012-06-06T07:45:44.000Z</time>
      </trkpt>
      <trkpt lat="44.0244" lon="4.80035">
        <ele>72.6</ele>
        <time>2012-06-06T07:45:46.000Z</time>
      </trkpt>
      <trkpt lat="44.02433" lon="4.80036">
        <ele>73.7</ele>
        <time>2012-06-06T07:45:48.000Z</time>
      </trkpt>
      <trkpt lat="44.02426" lon="4.80036">
        <ele>73.8</ele>
        <time>2012-06-06T07:45:50.000Z</time>
      </trkpt>
      <trkpt lat="44.0242" lon="4.80035">
        <ele>74.6</ele>
        <time>2012-06-06T07:45:52.000Z</time>
      </trkpt>
      <trkpt lat="44.02416" lon="4.80033">
        <ele>76.2</ele>
        <time>2012-06-06T07:45:54.000Z</time>
      </trkpt>
      <trkpt lat="44.02409" lon="4.80035">
        <ele>75.6</ele>
        <time>2012-06-06T07:45:56.000Z</time>
      </trkpt>
      <trkpt lat="44.02404" lon="4.80039">
        <ele>74.9</ele>
        <time>2012-06-06T07:46:05.000Z</time>
      </trkpt>
    </trkseg>
  </trk>
</gpx>